GFSMA_sfc_wetblb_000.txt.gz
Wetbulb
63.01 62.59 61.04 60.16 59.55 59.22 58.65 58.39 57.91 57.82 57.39 56.18 54.72 53.60 54.00 54.24 54.38 54.21 54.54 57.70 57.75 57.30 58.01 59.71 60.85 61.68 62.01 62.36 62.63 63.01 63.81 64.44 65.36 65.71 65.27 65.45 65.45 65.96 65.90 65.37 64.96 64.85 65.06
62.02 61.39 60.17 60.04 59.16 58.97 58.58 57.64 57.21 57.62 57.25 56.13 54.43 54.26 53.51 53.76 53.46 54.17 54.39 53.14 57.04 57.68 58.23 59.17 60.06 60.81 61.17 61.49 61.75 62.00 62.47 62.86 63.91 65.11 65.66 65.34 65.29 65.16 65.31 65.14 65.04 65.02 65.20
61.07 61.40 60.20 59.93 59.90 60.13 59.11 58.72 58.63 57.77 57.45 57.20 55.23 54.66 53.84 54.20 53.84 53.65 54.35 53.79 52.18 56.78 58.64 59.74 59.70 60.41 60.46 60.00 59.67 59.53 59.83 61.01 61.97 62.90 64.51 65.19 64.68 64.89 64.76 64.81 64.83 64.78 65.18
61.41 60.42 59.90 59.62 60.32 60.69 59.17 58.43 57.56 56.37 55.94 55.71 55.11 54.83 53.23 53.34 53.60 53.58 53.66 53.43 52.19 52.09 56.20 59.08 60.11 59.70 58.83 58.60 58.39 57.87 58.20 59.09 59.64 60.95 62.46 63.97 64.35 64.34 64.34 64.43 64.43 64.46 64.72
60.96 59.55 58.63 59.36 60.04 58.70 58.14 58.32 57.01 56.36 55.49 55.28 55.65 54.60 54.30 52.83 52.55 54.67 53.29 53.00 52.74 52.88 51.96 56.08 58.10 57.85 58.39 58.47 57.52 57.40 57.51 57.60 58.03 59.25 60.81 62.29 63.77 63.57 63.52 63.91 64.14 64.19 64.46
58.90 58.47 57.61 58.22 59.52 57.31 56.34 56.65 56.79 55.83 55.50 55.38 56.81 56.33 55.02 55.29 54.70 52.38 52.90 54.20 53.36 53.18 52.61 51.91 54.27 54.49 56.73 57.65 56.79 56.24 56.66 56.75 56.89 57.30 58.24 59.84 61.51 62.31 63.24 62.69 63.29 63.69 63.88
57.03 56.26 55.62 55.83 55.07 54.38 54.36 54.50 53.76 52.62 53.12 54.15 53.90 53.60 53.60 54.54 55.16 55.12 54.61 53.88 53.12 53.17 52.38 52.31 52.06 51.29 52.31 56.67 56.89 55.60 55.44 55.84 56.04 56.48 56.88 57.80 58.85 60.14 61.09 61.54 63.23 62.96 63.63
55.63 54.40 54.37 53.77 53.51 52.55 52.07 52.70 53.06 51.33 50.83 51.66 50.50 50.21 46.77 49.01 51.37 53.01 54.36 54.66 54.16 54.15 52.91 52.48 52.11 51.23 51.49 51.27 51.54 55.68 54.81 55.05 55.18 55.30 55.21 56.46 58.11 59.62 58.50 58.76 59.60 60.80 63.18
54.71 54.02 53.45 53.52 52.73 51.41 49.84 50.04 50.45 49.42 48.07 48.76 49.26 47.33 43.98 42.98 46.79 49.70 50.64 52.68 52.63 53.98 54.16 54.11 52.94 53.07 51.75 49.55 51.47 52.32 53.64 53.28 53.73 53.48 54.08 55.42 56.63 57.29 57.76 57.66 57.43 57.90 60.03
53.12 52.38 51.93 51.76 51.20 50.67 49.23 49.61 50.00 49.06 47.82 45.69 47.10 49.19 46.09 44.18 41.77 41.93 46.65 48.62 50.23 51.25 50.78 52.90 52.36 52.34 51.17 49.90 50.83 50.47 50.82 50.08 51.55 52.16 53.10 54.33 55.35 56.10 57.96 56.57 56.71 57.20 58.64
51.26 51.03 50.18 48.92 49.45 48.77 48.78 49.00 47.83 47.33 47.24 45.22 44.16 42.99 42.03 41.94 41.94 38.87 38.54 39.91 43.13 45.29 48.25 50.15 50.20 50.34 50.19 47.44 49.01 47.86 48.49 48.33 49.55 52.06 53.51 53.55 54.46 54.97 55.69 57.08 56.77 56.67 57.45
48.07 48.92 49.25 48.44 48.61 48.08 47.28 47.35 47.23 45.77 43.52 43.29 43.58 42.64 40.57 40.24 39.11 38.00 36.90 37.19 37.35 40.70 43.09 45.59 48.65 48.36 48.74 48.89 49.71 48.77 48.31 47.69 48.20 49.09 50.44 52.33 53.28 53.99 54.44 55.26 56.05 56.43 56.78
46.02 46.10 47.42 47.07 46.67 46.65 47.01 47.16 46.16 45.43 42.82 41.26 40.94 41.11 40.88 39.39 39.41 39.07 37.31 36.29 35.75 38.24 39.29 42.53 46.82 47.35 47.87 48.19 47.60 48.12 47.33 45.67 45.66 47.99 47.97 49.42 50.99 52.86 54.73 56.21 56.53 56.47 55.94
45.47 46.32 46.63 46.50 45.94 44.92 44.23 44.18 42.72 43.05 42.16 42.35 42.11 41.70 39.94 39.15 39.92 39.29 38.19 36.08 33.27 34.70 37.41 38.66 42.47 45.24 47.35 47.55 47.52 46.73 45.04 43.98 45.03 46.73 46.55 47.20 48.80 46.40 48.13 50.03 51.93 52.62 53.21
46.14 45.52 44.91 44.18 44.58 43.89 43.21 42.06 40.73 40.18 40.17 40.25 40.56 39.92 38.75 38.93 39.87 39.85 39.06 39.04 36.08 32.29 31.97 35.10 40.13 43.58 45.69 46.31 47.05 45.59 45.32 44.41 44.11 44.78 44.67 44.67 46.40 46.00 45.77 45.82 46.83 47.84 48.79
44.80 44.30 44.13 43.59 43.13 42.88 42.60 41.26 39.86 40.42 39.86 39.30 39.86 39.71 38.98 39.53 39.45 39.30 38.80 38.73 38.20 35.80 32.46 36.26 37.44 39.68 41.64 43.39 45.22 45.63 45.12 45.78 43.83 43.37 43.08 42.57 43.39 44.36 44.73 44.70 45.19 45.69 46.36
43.28 42.40 42.35 41.96 41.34 40.92 40.48 40.45 39.11 38.96 38.10 36.95 37.89 38.62 38.42 38.62 38.11 38.08 38.05 37.12 35.65 35.04 32.55 34.69 37.57 38.80 39.11 40.51 41.45 41.94 43.71 42.62 42.15 42.61 41.79 41.82 42.08 42.33 43.10 42.64 42.39 42.65 43.59
42.30 41.42 40.97 40.23 40.04 39.62 39.53 38.85 38.20 38.45 37.44 36.69 36.97 36.82 36.74 38.31 36.50 36.19 36.29 35.63 35.05 35.18 32.92 30.99 33.07 34.77 34.57 36.85 38.31 39.55 42.13 42.90 41.73 43.07 42.31 41.84 41.61 41.21 41.53 41.22 41.01 41.03 41.54
40.77 39.69 38.56 37.27 36.69 36.46 36.16 35.68 35.34 35.51 34.59 33.47 33.60 33.56 34.40 34.40 32.91 33.12 33.67 33.19 34.15 35.37 33.75 32.21 30.66 32.93 33.56 34.76 35.47 37.21 38.18 38.28 41.60 42.96 41.74 40.98 41.37 41.52 41.32 40.51 40.73 40.81 40.96
38.34 37.47 37.13 37.11 36.85 36.30 36.13 34.93 34.48 32.91 32.09 32.17 32.15 31.82 32.46 33.18 33.06 32.62 32.50 31.24 32.13 29.74 29.77 29.62 29.60 30.28 31.12 33.16 34.04 32.46 32.10 34.86 35.26 39.75 40.16 39.31 40.57 41.24 41.30 40.87 40.53 40.75 41.04
37.53 37.13 36.32 36.11 35.78 35.44 32.91 31.09 30.91 30.15 29.40 29.39 29.79 30.84 31.82 33.68 36.09 33.53 32.77 29.80 28.60 27.19 26.85 27.27 27.28 28.43 29.45 29.71 30.22 33.32 32.43 32.94 34.22 35.87 34.91 34.89 35.45 37.66 38.91 40.67 40.60 40.85 40.79
36.39 35.95 35.26 35.09 34.00 35.14 30.45 29.96 28.86 26.95 28.43 27.69 26.87 28.19 29.93 32.73 33.04 34.41 34.54 33.63 30.88 26.34 25.77 25.40 25.18 24.93 26.37 28.36 29.87 29.24 28.17 27.19 25.81 32.98 31.48 30.41 34.09 33.64 36.46 39.06 40.02 38.59 38.71
35.05 34.59 34.42 34.22 33.22 32.08 30.34 29.91 28.61 26.95 26.21 25.99 26.24 27.11 28.56 31.43 31.56 31.39 31.40 31.37 31.10 32.29 31.61 27.59 25.45 25.60 25.36 26.85 27.64 26.58 25.91 26.00 25.92 29.58 29.60 27.22 29.54 29.40 33.10 36.97 38.67 38.27 37.71
34.06 33.45 33.62 33.47 31.99 32.39 32.73 31.68 28.66 25.74 25.50 25.50 26.07 26.04 26.52 27.09 28.70 29.34 27.84 26.55 27.05 27.81 28.85 29.25 28.14 28.05 28.72 29.10 29.06 29.39 28.77 29.34 28.09 29.13 30.27 26.50 28.11 27.46 30.42 31.42 37.32 38.18 37.68
33.43 33.46 33.59 32.08 30.49 30.24 32.63 31.40 28.91 25.20 25.43 24.70 26.11 26.57 27.47 26.74 28.79 30.21 27.24 26.02 25.89 26.90 30.87 32.18 32.50 32.42 32.39 32.63 32.29 29.35 26.57 26.30 24.95 26.95 28.28 27.44 25.60 25.46 25.98 26.12 30.13 37.20 37.04
33.71 33.11 31.33 31.09 31.88 29.16 31.96 30.80 28.52 24.54 23.03 24.14 25.74 26.58 27.86 28.02 27.99 28.25 27.19 26.95 25.16 26.82 27.02 27.58 26.87 27.61 29.48 30.73 32.96 31.79 28.92 24.61 23.77 23.17 27.93 27.69 27.14 27.03 25.95 26.43 29.24 31.97 27.62

GFSMA_sfc_wetblb_003.txt.gz
Wetbulb
57.99 57.87 57.49 56.39 55.88 55.59 55.12 55.49 55.51 55.65 55.84 55.20 53.52 51.57 50.51 50.74 51.35 51.41 51.93 59.57 59.61 60.59 60.32 60.77 61.59 62.31 63.12 64.12 64.77 64.73 64.70 65.09 66.07 66.87 65.97 66.37 66.23 66.11 65.87 65.99 65.44 65.16 64.87
58.21 57.68 56.41 57.02 56.05 56.12 55.91 55.08 54.50 54.41 54.78 55.05 54.00 52.43 50.54 50.12 51.13 51.49 52.25 53.56 58.35 59.04 59.92 59.45 60.33 61.37 62.12 62.69 63.92 63.40 63.66 64.02 64.96 66.29 66.06 65.71 65.46 65.42 65.33 65.46 65.29 64.88 64.83
57.07 57.04 56.47 56.84 57.15 57.23 56.81 55.64 55.45 55.41 54.75 55.93 54.30 53.15 52.08 51.20 51.22 51.55 51.34 52.13 53.33 57.31 58.16 59.99 60.48 60.50 61.15 62.06 62.72 62.74 62.53 63.30 63.16 63.83 65.23 65.13 65.38 65.28 65.04 65.04 64.93 64.95 65.02
57.02 55.81 55.03 55.05 56.58 56.90 56.21 55.07 54.70 54.48 53.91 53.21 53.76 54.23 52.32 51.38 51.15 51.56 51.85 51.42 51.28 52.21 55.80 58.51 60.09 60.99 61.71 61.40 61.17 61.17 61.35 61.21 61.45 62.28 63.35 64.38 64.58 64.71 64.76 64.51 64.56 64.62 64.84
56.37 54.78 55.03 54.63 55.27 55.72 54.81 54.61 54.50 53.93 53.31 52.91 53.38 53.32 52.30 51.69 50.86 52.90 51.98 51.96 50.70 50.90 50.54 55.34 58.01 59.05 60.78 60.77 59.59 59.92 59.85 60.07 60.60 60.85 61.68 62.59 63.30 64.14 64.27 64.23 64.54 64.58 64.23
54.15 53.01 52.67 53.01 52.51 52.21 51.43 51.66 50.80 51.33 50.84 51.41 53.94 54.32 52.99 53.86 53.19 51.43 50.60 52.46 52.69 52.78 50.59 50.26 53.92 55.37 58.12 59.38 59.65 59.00 59.29 59.30 59.26 59.66 60.30 60.39 62.41 63.17 63.52 63.62 63.55 63.53 64.18
52.95 51.56 50.94 51.62 50.77 49.91 49.20 49.54 49.95 49.52 49.52 50.01 48.00 49.39 49.39 50.98 50.62 51.43 52.86 52.07 51.36 52.01 52.03 50.65 50.28 52.62 54.34 57.71 58.84 58.20 58.46 58.65 58.61 58.48 58.75 59.19 59.66 61.19 61.64 62.78 63.11 62.97 63.32
51.51 51.48 50.06 50.09 49.40 48.77 47.71 47.28 47.23 47.18 46.64 47.64 45.63 45.55 43.12 46.17 47.50 49.54 49.72 51.30 49.98 52.41 53.09 52.67 51.25 51.99 50.57 52.24 53.63 57.92 57.42 57.59 57.50 57.50 57.67 57.93 59.39 59.85 59.55 59.57 60.48 61.64 62.63
50.56 49.57 48.90 48.29 47.69 47.93 46.43 45.97 46.69 45.57 44.50 45.55 45.80 44.54 41.00 39.34 42.16 45.65 46.82 46.12 45.24 47.16 48.52 50.11 51.33 51.75 51.07 49.03 52.29 54.00 54.90 54.84 57.03 56.25 55.96 55.55 56.51 57.92 59.10 58.62 58.56 58.43 59.29
48.46 48.97 47.80 46.68 46.87 46.38 45.67 45.93 47.78 45.05 44.87 43.24 44.51 45.76 43.20 41.15 38.02 36.83 41.34 43.29 43.01 43.29 45.37 47.07 49.53 50.78 50.94 48.92 49.56 50.73 50.90 50.76 52.90 54.38 53.40 53.80 54.88 56.59 57.73 57.63 57.62 57.45 57.66
46.42 46.93 46.65 45.27 45.58 45.53 44.40 44.33 44.30 43.42 43.40 42.36 42.05 41.33 40.19 39.51 41.97 39.18 35.15 36.81 40.04 40.99 42.70 43.56 45.30 49.22 49.74 49.67 48.59 48.08 49.48 48.75 49.59 51.38 51.85 52.80 53.77 54.44 55.48 58.25 57.82 57.03 57.10
44.56 44.91 45.74 44.57 44.93 43.94 43.41 42.99 43.57 42.21 41.35 42.84 43.40 42.60 41.69 39.33 36.75 35.43 34.33 35.54 35.64 37.56 40.00 40.97 43.12 47.37 49.31 49.04 49.02 48.77 48.34 47.48 48.39 50.84 50.82 50.50 51.75 53.19 54.12 55.19 57.23 57.04 56.93
42.66 43.26 43.35 42.79 42.33 42.24 42.38 41.83 41.04 40.64 40.34 38.92 38.47 38.46 38.58 37.97 38.48 37.85 36.51 36.06 34.44 35.58 36.32 38.91 41.09 42.16 46.63 47.31 48.21 48.55 48.47 46.17 46.23 47.68 49.02 47.94 49.33 50.72 51.97 54.44 55.80 57.28 57.30
41.88 43.14 42.21 42.13 42.02 41.83 40.82 39.96 39.22 39.24 40.16 38.98 38.84 39.15 38.65 39.36 37.54 36.96 36.14 34.55 33.80 34.99 33.94 34.44 37.78 40.71 42.03 45.16 46.90 48.13 48.22 45.67 44.87 46.04 46.55 46.50 48.75 46.36 47.14 48.33 50.54 53.15 55.24
44.01 42.06 41.89 41.23 40.98 40.63 40.52 39.91 38.01 37.76 38.54 37.67 37.42 37.80 38.24 38.41 36.98 37.26 38.11 38.99 36.22 31.09 31.26 33.01 34.32 38.05 41.12 42.84 44.52 46.95 47.59 46.43 44.34 44.15 44.86 44.09 46.59 45.60 45.38 45.40 46.32 47.41 48.94
41.41 40.77 39.97 39.55 39.22 38.96 39.20 38.28 37.14 36.65 36.30 35.69 37.03 36.83 36.71 37.82 39.84 39.14 38.05 37.08 36.35 34.47 30.75 33.23 35.20 37.51 39.30 40.91 43.16 44.46 44.70 46.87 44.21 43.28 43.06 42.52 43.21 44.16 44.01 44.47 44.75 45.09 45.71
39.48 39.78 39.05 38.34 37.84 37.47 37.37 37.30 36.22 36.34 35.89 35.50 35.89 36.08 35.96 37.13 36.58 37.94 37.83 36.83 35.74 34.79 31.35 33.21 33.77 35.45 35.34 35.63 37.71 40.64 43.56 42.39 44.11 43.31 42.29 41.50 41.45 42.02 42.33 42.42 42.26 42.66 43.50
38.74 38.40 37.46 35.93 35.32 34.76 33.95 34.56 35.21 35.77 34.17 32.58 31.64 31.33 31.47 33.89 32.02 33.95 35.48 35.53 34.56 34.80 33.05 29.29 30.16 31.77 32.60 34.70 36.07 37.60 40.82 41.65 42.57 43.22 42.40 41.60 41.65 41.08 40.86 41.11 40.96 41.00 41.46
36.31 35.56 35.06 34.20 33.99 33.86 32.87 32.29 32.00 31.24 30.51 30.06 29.82 29.29 29.19 29.35 28.72 30.27 31.05 30.45 30.85 32.24 29.28 28.69 26.78 29.66 30.86 32.84 32.95 34.54 37.00 37.99 40.40 43.38 42.21 41.27 41.45 41.52 41.34 40.88 40.93 40.83 40.94
34.87 33.75 33.89 34.07 33.97 33.33 32.36 31.27 30.56 28.52 27.78 28.41 28.86 28.66 28.67 28.48 28.49 29.11 30.63 30.08 30.82 26.60 26.40 25.61 26.45 27.15 28.07 31.02 31.82 30.67 31.49 34.06 34.30 38.22 39.07 39.35 40.31 41.07 41.42 40.84 40.50 40.75 40.79
34.43 33.49 33.25 33.05 32.73 32.12 31.16 27.84 27.67 26.22 25.89 25.88 26.63 27.55 27.96 29.66 32.69 33.12 31.30 29.40 27.11 25.36 25.15 24.92 23.62 24.18 24.31 25.77 26.51 28.48 26.87 28.48 30.47 32.58 31.68 32.67 33.57 35.31 36.77 38.85 40.43 40.72 40.73
32.61 32.04 32.12 32.07 30.81 31.82 29.76 29.49 26.84 24.48 25.48 25.04 23.73 25.02 26.14 29.23 30.03 32.06 31.84 31.44 30.83 26.06 23.69 22.64 22.55 21.63 22.17 23.46 25.47 25.26 25.60 24.78 24.25 30.73 28.97 27.49 30.29 29.97 33.66 35.73 38.93 38.55 38.12
30.90 30.70 30.73 30.93 29.64 26.86 29.72 28.96 29.01 25.35 24.13 23.50 23.16 24.10 25.04 27.61 27.91 28.53 29.55 30.10 29.03 30.01 30.54 26.38 23.85 23.73 23.22 24.63 24.86 23.32 23.22 23.47 23.45 27.47 27.66 25.81 27.58 27.39 29.74 34.76 37.91 37.31 37.13
30.23 29.02 29.00 29.27 28.71 29.77 31.41 31.51 28.36 24.66 24.30 24.94 25.58 25.51 25.23 25.91 27.41 27.37 26.16 25.52 25.77 26.22 26.69 26.94 26.03 26.36 26.61 27.02 27.03 27.24 27.28 27.53 25.97 27.37 28.23 23.97 25.77 24.23 27.90 29.30 35.47 37.96 37.50
28.50 28.96 29.56 28.71 27.73 27.97 32.03 30.84 29.12 24.86 25.49 24.98 26.11 25.98 25.68 25.21 27.33 29.12 26.56 25.63 25.65 26.16 29.26 30.29 30.81 30.97 30.90 32.16 31.73 30.08 25.87 24.11 22.11 23.99 26.26 25.29 23.73 21.80 22.23 24.79 27.92 35.63 36.84
29.67 29.47 28.82 28.41 30.19 27.06 31.14 30.20 28.79 23.22 20.91 23.06 24.15 24.91 26.08 26.20 28.98 28.17 25.29 22.99 21.65 22.44 24.38 24.47 24.57 25.66 27.25 27.72 29.32 29.53 28.33 26.11 24.27 18.94 25.22 25.22 24.77 23.87 21.01 22.96 24.95 27.31 25.80

GFSMA_sfc_wetblb_006.txt.gz
Wetbulb
56.27 56.39 56.01 55.26 54.76 54.15 54.34 54.05 55.36 54.60 53.65 54.80 54.42 52.73 51.12 49.88 49.72 50.11 49.95 57.11 61.11 62.09 62.48 62.20 61.71 61.97 62.48 64.04 64.79 65.05 65.13 65.25 65.28 66.16 66.58 66.29 65.64 65.67 65.76 65.49 65.89 65.67 65.60
57.02 56.48 55.12 55.30 55.07 55.14 55.39 54.06 53.37 53.31 53.67 53.87 54.11 53.76 52.33 49.91 49.04 49.25 50.05 50.63 59.19 60.74 61.72 61.48 61.62 61.65 61.52 62.47 63.40 64.31 64.18 64.42 64.66 65.43 66.10 65.56 65.10 65.30 65.05 65.25 65.49 65.43 65.38
55.60 55.27 54.10 53.38 54.24 55.39 54.61 54.10 53.51 53.26 53.08 53.68 53.04 54.03 53.57 52.61 49.87 49.46 49.63 50.60 52.24 58.36 59.11 60.62 61.73 62.08 61.45 61.37 62.77 63.40 63.91 63.67 63.80 64.03 65.17 65.21 64.67 64.76 64.41 64.50 65.05 65.25 65.07
54.67 53.46 52.46 52.15 53.06 53.27 52.70 52.07 52.57 52.19 51.18 50.93 50.81 51.58 52.28 52.33 51.59 50.49 50.07 49.77 50.97 52.14 55.67 58.49 59.63 60.77 61.48 61.03 60.73 61.43 62.25 62.64 62.55 62.66 64.00 64.43 64.23 63.93 64.83 64.68 64.68 64.63 64.30
54.41 51.88 51.04 51.02 52.14 50.92 50.14 50.35 49.93 50.27 49.08 48.25 49.28 48.45 49.37 50.56 51.16 53.06 51.00 50.49 49.38 51.15 50.67 54.21 57.34 58.24 59.73 60.95 60.40 60.84 61.10 61.00 60.84 61.26 62.05 63.37 63.42 63.73 63.66 64.21 64.23 63.77 64.06
51.81 50.27 50.18 50.30 50.17 49.22 48.24 47.72 46.98 47.20 47.28 47.19 49.14 48.05 47.30 48.63 49.13 49.34 50.16 51.48 51.15 51.14 50.68 50.20 49.61 54.19 57.01 59.47 60.91 60.16 60.35 60.55 60.30 60.32 60.58 61.39 62.59 62.76 63.42 63.63 63.79 63.53 63.55
51.41 49.75 48.89 49.05 48.56 47.51 46.57 46.44 46.08 46.02 45.97 46.10 44.48 45.73 44.95 45.99 46.67 46.81 48.24 47.51 48.32 47.92 47.91 48.56 50.19 49.39 51.95 57.76 59.93 59.61 59.54 59.87 59.92 59.80 59.86 60.76 60.87 61.59 62.19 63.05 63.17 62.86 63.35
49.35 48.96 46.91 46.17 46.85 46.08 45.12 44.82 45.29 44.33 44.79 45.12 43.00 42.73 39.83 43.51 42.75 45.24 45.41 45.06 44.41 45.64 46.77 47.74 48.87 50.02 49.57 49.83 54.36 58.51 58.92 59.03 59.08 59.42 59.91 59.56 59.65 60.33 60.38 60.53 61.22 62.10 62.56
47.33 46.45 45.61 45.43 45.38 45.15 43.91 43.60 43.89 43.37 42.39 43.40 43.75 42.34 38.67 36.78 39.30 42.49 42.29 40.92 40.74 41.48 43.32 46.21 46.78 47.41 49.98 47.80 48.69 51.74 55.06 55.90 58.32 59.46 59.28 58.76 57.38 56.76 58.50 59.17 59.30 59.22 59.97
45.53 45.76 45.14 44.65 44.64 44.55 42.99 43.22 45.01 42.70 42.34 40.76 42.41 44.00 41.40 40.04 38.07 36.61 38.50 40.76 40.07 40.59 40.17 42.37 42.08 44.90 50.34 49.92 49.45 48.72 48.88 49.99 53.32 56.82 57.65 56.27 55.29 55.29 56.41 57.72 58.72 58.33 58.06
44.46 44.24 44.66 45.15 44.42 43.37 42.75 41.86 42.35 41.26 41.41 40.48 40.18 40.18 39.54 39.14 40.98 36.12 33.24 35.07 37.92 38.54 39.32 39.41 40.09 43.84 45.65 49.83 49.17 48.79 48.24 47.80 48.80 50.75 52.49 52.88 53.60 54.45 55.09 55.55 57.31 57.54 57.32
42.68 43.18 43.75 41.68 40.92 41.16 40.46 40.30 39.40 39.64 38.77 38.65 38.30 38.36 38.01 36.62 35.52 34.97 34.76 34.72 34.35 35.89 37.16 38.25 38.73 40.27 41.94 45.12 49.58 48.70 47.72 47.30 47.62 48.56 50.08 51.79 52.98 53.45 53.55 54.42 55.14 56.40 57.18
42.43 42.13 41.42 40.78 40.14 40.16 39.85 39.29 38.44 38.92 39.27 38.67 38.22 37.83 38.38 37.25 37.28 36.42 35.79 35.50 33.65 35.33 34.35 36.71 37.96 37.96 41.47 41.79 44.78 48.31 48.21 46.37 46.71 47.35 47.97 48.19 48.79 50.37 50.52 51.51 53.47 55.52 56.05
41.41 41.13 40.66 40.26 39.93 39.76 38.98 38.26 37.16 36.80 37.16 36.41 35.11 35.58 36.07 36.09 36.09 35.56 36.62 35.03 32.43 33.76 34.25 33.16 35.64 37.09 38.30 41.13 43.00 46.44 47.18 45.96 45.96 46.17 46.30 46.64 46.83 47.48 46.70 47.17 48.20 50.31 52.36
41.88 39.85 39.67 38.94 38.44 38.21 37.97 37.69 35.90 35.41 34.60 34.34 34.32 34.50 34.78 35.73 35.87 36.95 38.60 36.13 32.51 28.77 31.21 31.92 32.50 36.68 37.47 38.29 40.22 41.40 43.45 46.00 45.35 44.35 44.56 45.41 46.30 46.54 44.96 45.30 45.74 46.68 48.26
39.72 39.04 37.77 37.04 37.09 36.85 36.69 36.59 35.22 34.87 34.31 34.10 34.96 34.00 34.03 35.08 35.69 36.45 36.86 37.06 34.90 32.86 29.48 32.92 33.73 34.90 36.77 38.16 39.38 39.15 42.66 43.99 44.74 43.94 43.52 44.25 43.91 45.60 44.70 44.00 44.70 44.83 45.25
39.91 39.61 37.87 36.63 35.53 34.51 34.33 33.37 33.77 34.41 34.22 32.91 31.86 30.67 30.36 30.65 30.12 30.55 31.67 33.12 34.25 34.78 31.57 31.63 33.08 32.68 31.73 32.52 34.35 35.82 39.62 40.97 42.60 42.85 42.58 43.10 42.76 42.65 42.90 42.68 42.57 42.77 42.91
38.10 37.54 37.78 35.67 33.70 33.04 32.09 31.41 31.90 31.79 29.91 28.99 28.59 28.14 28.04 30.01 27.47 27.91 28.24 28.48 29.82 31.10 31.76 29.41 29.12 29.96 30.15 31.84 32.28 33.01 36.10 38.98 41.75 41.61 42.65 42.57 42.45 41.31 41.06 41.08 41.08 41.32 40.90
37.12 36.85 35.53 33.85 32.61 32.54 31.94 31.01 30.18 29.37 27.80 27.39 27.19 26.85 26.73 26.80 25.53 26.23 26.87 27.78 28.70 30.89 30.15 28.25 27.90 29.00 29.12 30.48 30.92 32.74 32.52 32.81 36.46 41.27 39.24 41.38 41.74 41.75 41.33 40.76 40.83 40.84 40.60
39.32 35.78 33.63 33.61 33.47 32.48 31.67 30.08 28.82 26.72 26.44 26.78 27.48 26.83 26.00 25.30 24.84 25.48 27.02 27.38 28.37 26.80 26.36 25.75 25.38 25.53 25.74 28.17 29.62 28.72 27.06 28.80 30.13 35.62 36.73 36.32 36.98 39.70 40.91 40.93 40.42 40.67 40.76
39.09 34.95 33.13 32.69 31.42 31.48 30.12 27.33 27.21 26.42 25.67 25.98 26.24 25.84 25.76 26.99 29.28 29.30 28.67 29.55 27.64 25.53 24.26 23.68 23.00 23.13 23.11 23.06 23.83 26.06 25.42 26.25 27.18 30.52 31.50 31.68 30.97 31.88 34.54 36.70 39.20 40.82 40.52
33.72 33.05 31.96 31.02 29.73 31.12 30.78 30.39 28.16 25.13 25.53 24.73 23.21 24.19 24.69 26.65 26.90 28.61 29.28 29.93 29.32 26.74 26.23 25.02 22.44 21.38 21.46 22.19 23.60 23.45 22.64 22.58 22.55 27.46 27.52 26.95 29.45 29.24 31.04 33.59 38.26 38.11 38.32
34.49 30.87 29.71 29.26 27.72 27.43 30.85 31.18 30.26 25.97 24.30 23.32 23.30 23.57 24.47 26.18 26.90 26.84 28.05 28.78 28.09 29.18 29.49 26.97 24.54 23.19 22.48 23.22 23.77 22.53 21.81 21.85 22.14 26.30 26.74 24.66 28.16 26.96 28.97 32.70 36.22 37.23 37.05
31.49 28.79 27.74 28.27 27.79 28.83 31.39 31.70 29.53 26.24 24.43 24.83 25.09 24.41 23.78 24.14 25.06 25.34 25.34 26.67 26.58 26.53 26.54 26.50 24.60 24.47 25.38 25.86 25.48 25.61 24.54 25.41 26.84 27.16 27.49 21.71 24.98 23.45 26.70 28.41 34.04 37.22 37.36
27.40 28.41 28.61 27.80 26.90 27.25 31.05 30.43 28.87 24.41 24.12 23.23 24.64 24.88 24.52 24.03 26.35 28.59 26.62 24.06 23.64 24.78 27.34 28.72 29.81 29.70 30.16 30.68 30.17 27.89 26.39 25.48 23.10 23.91 25.33 24.33 22.93 20.13 20.79 21.87 26.00 33.85 35.75
29.09 28.82 27.33 26.85 28.51 25.07 28.92 28.14 26.27 21.00 17.81 21.40 23.04 23.78 24.92 24.80 26.29 27.64 26.40 24.66 21.79 22.69 23.38 23.25 23.83 24.95 25.89 25.94 27.98 27.25 25.59 24.59 24.33 20.48 24.11 23.44 22.75 21.96 19.08 20.64 22.15 23.19 23.16

GFSMA_sfc_wetblb_009.txt.gz
Wetbulb
55.42 55.16 54.77 54.26 54.01 53.92 53.77 53.20 52.89 52.92 52.60 53.29 53.57 53.26 52.42 51.41 49.95 48.93 48.84 55.32 57.59 59.83 61.65 62.51 63.13 63.07 63.49 63.91 64.22 64.59 64.20 64.36 64.89 65.21 65.73 65.59 65.45 65.10 65.39 65.12 64.69 65.71 65.47
55.57 55.42 54.18 53.59 53.14 53.77 53.72 53.07 52.53 52.11 52.13 52.36 52.20 52.49 52.84 51.79 50.26 49.26 48.71 48.78 55.26 57.88 60.30 61.66 62.35 63.00 62.82 63.81 63.36 63.93 64.25 64.42 63.79 64.02 64.69 65.30 65.19 64.73 64.64 64.83 64.78 64.52 65.18
54.95 53.97 52.28 51.50 51.79 52.36 51.33 50.62 50.68 50.37 49.44 50.11 49.36 50.64 51.29 51.36 51.18 50.34 49.48 49.07 49.48 53.92 56.76 59.31 60.80 62.67 63.17 63.43 63.27 63.00 63.50 64.01 63.47 63.04 63.63 64.39 64.51 64.40 64.16 64.53 64.59 64.62 64.56
53.39 51.50 49.97 49.63 50.11 50.79 50.30 49.23 49.04 47.92 47.07 47.00 46.94 47.22 47.71 49.38 49.76 50.45 50.17 48.88 48.26 49.74 51.56 54.36 56.07 58.24 60.17 61.76 62.34 62.47 62.50 62.70 63.72 62.64 62.99 63.43 63.80 64.05 64.02 63.80 63.58 64.07 64.10
51.71 49.49 48.90 49.12 49.83 49.14 47.73 47.48 46.75 46.81 45.80 45.85 46.37 45.52 45.36 46.18 46.60 50.47 49.44 49.00 48.36 47.95 47.67 50.43 52.60 53.45 55.55 57.58 59.43 60.80 61.25 61.85 62.55 61.54 61.93 62.36 63.03 63.17 63.32 63.30 63.14 63.71 63.58
50.34 49.36 48.53 48.02 48.26 46.72 45.75 45.34 44.61 45.55 45.09 45.22 46.76 45.63 44.05 44.58 44.46 46.37 46.42 47.50 45.94 45.55 45.57 46.11 47.48 48.75 52.40 54.50 56.49 58.48 60.52 61.21 61.15 60.89 61.24 61.30 61.91 62.09 62.36 62.68 62.83 62.64 63.32
49.07 46.33 45.86 45.90 46.11 44.88 43.83 44.41 44.32 43.75 43.54 44.28 42.37 43.70 42.52 42.05 43.68 44.53 45.03 44.50 44.36 44.63 44.52 45.33 45.68 45.71 47.15 51.32 53.22 56.03 58.97 60.59 61.01 61.21 61.62 61.41 60.79 61.09 60.86 61.50 62.04 62.76 62.53
45.91 45.59 44.41 44.42 44.43 43.88 42.94 42.55 42.53 42.28 42.36 43.41 41.93 41.17 38.06 40.44 41.66 43.61 42.26 42.07 40.53 42.89 43.42 43.91 44.03 42.34 42.42 47.76 48.41 52.92 55.28 57.60 59.70 60.73 61.22 61.06 60.58 59.99 60.26 59.31 59.85 60.45 61.33
44.97 44.51 43.94 44.13 43.66 42.93 41.84 41.88 42.18 41.43 40.56 41.74 42.06 40.46 36.76 34.87 37.22 40.25 40.45 39.32 38.67 38.91 40.05 42.04 42.74 41.69 42.61 47.14 48.32 47.90 50.01 50.60 53.28 57.04 59.20 59.90 60.09 58.33 57.54 57.48 58.34 59.22 59.33
43.48 44.02 43.61 43.45 42.73 42.23 41.11 41.96 41.77 39.86 39.68 38.26 40.04 41.98 39.44 37.80 34.35 33.57 36.81 38.48 37.75 38.78 38.09 38.97 39.51 40.44 42.77 43.34 48.63 49.34 48.60 48.26 50.49 53.26 55.79 57.19 58.60 56.68 55.57 55.73 57.03 57.92 58.54
42.57 43.46 42.51 42.82 42.82 41.65 39.69 39.16 38.85 37.99 38.10 36.97 36.83 36.97 37.56 37.93 36.94 34.75 32.62 33.47 35.91 36.79 38.11 37.95 38.03 38.76 40.93 42.06 44.07 47.38 48.46 47.65 49.01 50.52 51.73 52.47 53.20 53.17 53.92 54.98 55.58 56.49 57.55
41.98 42.31 43.49 41.79 40.71 39.97 38.73 38.13 37.41 36.91 36.22 36.24 36.58 36.33 36.05 36.59 36.32 35.81 34.15 33.25 33.69 35.29 35.90 37.45 36.96 37.75 38.70 39.52 43.31 44.69 48.19 47.13 47.88 48.75 48.91 49.83 50.28 51.51 52.77 53.68 54.51 55.56 56.21
42.51 41.18 40.42 39.54 39.42 39.23 38.44 37.80 36.44 35.67 35.36 33.92 33.92 34.27 35.41 34.68 35.70 36.86 35.20 33.40 33.82 34.94 36.03 35.42 37.05 37.36 38.62 38.25 39.83 43.61 45.84 46.74 46.51 47.75 47.86 48.15 48.01 48.20 49.06 50.19 51.34 53.23 54.90
40.59 40.03 39.13 38.64 39.34 38.69 37.72 36.73 35.60 34.64 34.06 32.70 32.35 32.69 33.06 33.64 34.33 34.41 34.20 32.61 28.77 29.32 31.70 34.25 37.60 37.00 37.09 37.53 39.38 43.11 42.27 45.17 45.89 46.28 47.06 47.97 46.95 46.21 46.98 46.40 47.05 48.95 51.63
40.75 39.34 40.20 39.91 40.01 37.74 37.21 36.33 34.53 33.84 33.45 32.89 32.44 32.25 32.52 33.10 32.48 33.19 33.65 34.09 32.05 26.02 25.89 29.51 30.47 34.69 36.30 38.16 37.60 36.07 38.94 44.17 45.21 44.61 44.72 45.72 46.78 47.09 46.56 46.87 45.78 45.90 47.84
40.91 40.32 40.56 39.29 37.95 37.36 36.93 35.02 33.80 33.21 33.46 32.78 33.18 31.77 30.32 31.33 29.80 30.52 29.40 30.79 31.62 30.62 26.76 31.17 31.03 33.47 35.36 35.32 36.34 34.07 35.99 42.70 42.44 42.76 42.15 42.67 43.52 45.66 46.26 45.95 45.84 45.18 45.76
39.60 39.83 38.95 36.96 36.57 34.99 33.87 32.90 31.59 32.49 33.11 31.53 28.81 28.13 27.99 28.44 27.05 27.04 27.64 27.49 27.67 28.08 26.49 28.81 33.23 35.12 32.70 32.47 33.44 35.25 34.93 35.01 39.62 41.39 40.38 40.38 41.69 43.04 43.71 44.87 44.62 43.71 43.58
36.76 36.01 37.66 37.79 35.30 33.87 32.51 31.65 31.25 31.78 29.25 27.64 27.01 26.91 26.67 28.56 25.25 25.33 25.22 25.15 25.73 27.12 27.05 24.97 29.49 28.69 30.12 31.98 32.12 32.59 33.89 34.51 33.45 39.58 39.62 39.48 39.08 40.24 42.16 41.36 41.62 41.86 42.06
37.62 38.05 37.82 34.66 32.52 32.36 32.16 30.84 30.30 28.80 27.07 27.03 26.68 26.17 25.82 25.33 23.53 23.48 23.95 24.51 25.67 28.01 27.05 25.92 26.50 27.59 28.92 29.01 28.87 31.69 30.78 30.30 32.98 37.27 37.85 37.16 37.84 39.03 41.46 41.44 41.22 41.30 41.09
37.19 36.16 37.10 33.29 32.60 32.27 31.27 30.09 28.18 26.62 26.59 27.17 27.22 26.46 25.59 24.65 23.38 23.49 24.45 27.06 28.80 27.97 26.73 25.14 25.33 25.40 25.82 25.92 27.09 26.83 26.08 27.95 26.45 32.15 34.48 35.41 35.89 36.24 37.97 40.24 40.70 40.69 40.80
37.44 37.03 33.33 31.88 31.98 30.94 29.91 27.42 27.37 26.79 25.90 25.39 25.99 25.97 25.62 26.62 29.25 27.54 25.93 24.46 25.86 26.77 25.98 26.15 25.15 24.67 23.75 22.28 22.23 24.46 23.80 23.70 25.30 27.75 28.09 29.65 31.67 32.51 33.29 36.08 38.50 40.97 40.51
37.11 31.01 34.09 31.37 28.97 30.13 31.80 31.28 29.19 25.49 25.69 24.99 23.83 24.80 24.87 26.80 26.36 27.57 27.83 28.43 27.51 25.84 25.38 24.64 24.73 24.17 24.91 23.02 22.62 22.49 22.25 21.04 20.01 25.98 26.06 25.59 29.73 28.75 29.75 31.47 37.21 38.29 39.19
33.02 32.00 28.61 27.93 27.40 27.51 31.39 31.93 32.17 27.64 26.50 24.34 24.55 24.81 24.45 25.56 25.48 25.02 26.26 27.17 27.10 28.19 28.40 26.09 24.27 23.87 23.47 23.41 23.32 22.33 21.57 21.30 21.16 23.95 25.76 23.69 25.48 26.36 28.32 30.84 34.29 37.10 37.21
32.56 27.95 27.41 27.83 27.26 29.07 31.76 31.16 30.27 27.11 24.40 24.44 23.49 23.28 23.21 23.49 25.06 25.25 26.25 25.53 26.16 25.33 26.46 26.83 25.97 25.25 24.52 25.14 25.24 25.08 23.88 23.41 24.26 25.81 26.09 20.88 23.07 22.22 26.63 28.95 32.84 35.24 36.94
28.44 27.19 28.12 27.93 26.72 27.28 29.87 29.04 26.75 22.76 22.58 22.03 23.23 23.27 23.48 23.33 25.40 27.94 26.36 25.17 24.93 25.00 27.35 27.87 27.62 28.11 28.79 29.57 29.58 27.03 23.47 24.28 22.79 24.09 24.50 23.72 21.27 19.20 18.90 21.14 26.54 33.78 35.08
28.01 28.01 27.60 26.56 27.15 24.13 27.84 27.13 25.65 20.14 16.28 20.71 21.64 22.44 24.09 24.52 26.61 26.47 24.40 23.52 22.00 22.80 23.99 23.78 23.49 24.85 25.70 25.17 27.03 26.31 24.63 24.22 24.33 20.78 23.58 23.32 23.20 20.75 17.30 19.26 19.48 21.80 21.64

GFSMA_sfc_wetblb_012.txt.gz
Wetbulb
54.70 54.58 53.78 53.78 53.48 53.63 53.10 52.37 52.19 52.27 52.08 52.07 51.80 52.19 52.28 52.02 51.55 50.64 49.58 54.19 56.02 57.52 59.41 61.05 61.62 61.91 63.06 64.52 64.63 64.52 64.38 63.79 63.85 64.11 65.05 65.11 65.18 64.50 64.53 64.63 64.83 65.34 65.00
54.74 54.44 53.30 52.38 51.56 52.15 51.31 51.00 51.18 50.85 50.11 50.01 49.32 50.36 50.29 50.27 50.34 50.33 50.06 49.88 53.85 54.95 56.36 58.11 59.20 60.02 61.07 61.56 62.73 64.12 64.07 64.09 64.23 63.68 64.09 64.34 64.63 64.81 64.45 64.08 64.34 64.44 65.13
54.34 51.71 50.05 49.18 49.40 50.46 49.79 48.98 49.08 47.97 47.04 47.74 47.13 47.85 47.83 48.72 48.83 50.22 49.90 49.53 49.23 51.70 52.87 53.96 55.45 57.09 58.27 59.06 59.64 60.74 62.76 63.68 63.86 63.24 63.72 63.78 63.97 64.12 64.03 63.90 63.88 64.05 64.61
50.79 48.94 48.48 48.72 49.87 49.08 47.55 47.33 47.36 45.62 45.56 45.47 44.78 45.38 45.42 46.56 46.87 49.52 48.90 48.29 47.70 46.88 47.77 51.00 52.08 52.90 54.01 56.24 58.23 59.29 60.11 61.52 62.88 63.53 63.31 63.41 63.29 63.42 63.57 63.48 63.42 63.46 63.92
50.12 48.61 49.42 49.36 47.75 46.20 45.37 45.58 45.09 44.87 44.51 44.48 45.21 44.97 43.82 44.32 45.07 49.08 47.55 46.47 45.59 45.44 44.91 47.47 49.02 49.36 50.60 52.22 53.86 56.21 58.66 59.71 61.02 62.52 62.84 62.72 62.62 62.52 62.94 62.87 62.98 62.72 62.81
49.42 49.17 47.48 46.09 45.34 44.21 43.67 43.59 43.24 43.70 43.69 43.75 45.59 44.28 43.26 44.00 44.86 45.80 44.78 45.30 44.56 44.39 44.33 44.44 44.04 44.33 46.70 48.70 51.70 53.81 55.85 58.41 59.81 61.04 62.17 61.95 62.23 61.88 62.24 61.97 62.38 62.58 62.48
47.07 44.82 44.38 44.34 44.05 42.94 42.29 43.02 42.67 42.32 42.18 43.21 41.82 41.16 42.20 41.85 43.26 44.65 43.93 42.70 42.89 43.76 43.75 43.33 43.36 42.90 42.38 46.32 49.61 52.68 54.56 55.63 57.02 59.22 60.71 61.23 61.08 61.43 61.06 60.72 60.44 61.08 61.75
44.31 44.42 43.64 43.23 42.72 42.18 41.89 41.80 41.52 40.99 41.29 42.22 40.61 39.72 36.77 38.89 41.17 42.13 42.10 41.79 40.20 41.69 41.71 42.13 42.34 42.70 41.91 42.50 46.29 49.53 52.08 53.49 54.49 55.66 56.73 58.70 59.86 60.52 60.61 59.97 59.13 59.51 60.42
43.63 43.30 43.50 42.79 42.12 41.58 41.38 40.69 40.49 39.77 38.81 39.86 40.17 39.02 35.52 32.98 36.45 39.26 39.82 39.62 38.66 38.76 39.45 40.37 41.34 42.02 41.61 42.46 43.29 46.96 48.51 49.82 51.47 53.66 54.64 55.74 57.36 59.39 59.78 58.39 57.43 57.80 58.96
42.94 43.20 42.91 42.39 41.33 41.18 42.11 40.57 40.26 38.94 39.38 36.34 38.43 39.92 38.22 37.55 34.62 32.81 36.51 37.91 37.72 38.71 38.34 38.88 39.73 40.39 41.11 41.71 42.80 44.02 45.78 48.59 49.16 51.33 53.40 54.56 55.86 57.04 57.94 56.85 55.75 56.27 57.50
42.33 42.33 41.78 41.35 41.41 40.13 38.90 38.26 37.33 36.45 36.76 35.40 35.35 35.49 35.68 36.32 36.49 35.98 31.72 33.76 37.46 37.96 38.24 38.60 38.51 39.27 40.03 40.76 40.58 42.53 44.55 45.29 48.35 49.48 51.67 52.33 53.30 53.67 53.56 54.61 55.08 55.53 56.23
40.79 41.04 41.79 39.81 39.30 38.65 37.93 37.12 36.62 35.59 35.06 34.72 35.14 34.83 34.64 33.65 32.37 32.80 31.44 31.62 31.96 34.74 35.90 37.82 37.75 38.55 39.30 39.49 40.87 41.74 43.09 44.57 47.58 48.44 49.45 50.29 50.17 50.43 51.78 53.07 53.79 54.67 55.35
40.76 40.33 39.26 38.75 38.06 38.44 39.85 38.48 35.49 34.73 33.97 32.48 32.44 32.62 34.16 33.38 34.07 33.99 32.77 30.65 30.22 30.34 33.70 35.29 36.99 38.01 38.49 38.13 38.34 41.26 42.72 44.05 45.84 47.50 48.20 48.52 48.38 48.21 48.42 48.74 49.97 51.36 53.21
39.70 38.98 38.62 37.85 37.82 39.04 39.09 39.05 37.40 34.23 34.42 33.33 32.09 31.58 31.91 32.79 33.38 33.10 32.00 29.74 26.45 27.41 29.04 30.31 34.67 36.14 36.20 37.43 38.57 39.71 37.18 41.52 44.63 45.72 46.82 46.46 47.17 48.15 46.77 46.72 46.85 47.56 49.93
40.02 38.50 37.73 39.13 38.22 39.86 38.42 36.48 34.33 33.53 34.01 33.51 32.67 32.45 31.69 32.50 31.62 30.60 31.85 30.26 28.08 22.97 23.49 27.73 30.16 34.67 35.73 37.19 37.77 36.97 36.10 40.16 44.19 43.57 42.78 43.15 43.73 44.37 47.04 46.94 46.33 45.61 46.77
38.54 39.93 39.67 39.21 39.24 37.77 36.72 36.20 35.10 33.02 32.64 32.26 32.75 31.51 29.33 29.65 28.80 29.06 27.96 28.31 28.26 25.41 21.92 27.94 29.39 32.83 35.14 36.72 36.57 37.40 35.96 37.54 41.28 41.52 41.06 41.27 41.43 41.56 43.03 46.26 46.88 45.70 44.56
38.15 38.38 38.78 36.70 35.12 35.39 34.19 32.19 31.30 30.68 30.76 31.39 29.42 28.45 28.03 27.91 27.16 27.07 27.11 26.40 25.55 25.70 22.53 25.15 28.75 31.44 31.61 33.46 34.22 36.27 36.94 34.99 35.80 40.22 40.56 40.07 40.05 40.04 40.51 42.36 44.78 45.58 44.39
36.56 36.08 35.98 37.51 37.04 34.05 31.74 29.92 29.69 29.91 29.97 28.27 27.70 27.20 27.03 28.54 25.66 25.31 24.76 24.13 24.38 25.23 24.07 22.90 26.35 28.01 29.87 31.35 31.70 32.59 34.55 35.43 33.24 38.32 38.21 38.70 39.32 39.33 39.43 41.15 42.15 42.76 43.05
34.45 36.50 38.36 37.40 34.77 32.32 30.73 30.97 29.25 29.34 27.60 27.10 27.03 26.53 26.29 25.90 24.23 23.74 23.62 23.73 24.58 26.32 27.63 27.04 26.22 28.01 28.70 29.93 29.60 31.97 32.23 32.03 32.85 34.51 37.23 36.92 36.98 38.05 38.32 39.28 41.85 41.71 42.07
36.51 38.09 36.55 35.42 32.43 31.35 31.15 29.80 28.42 27.06 26.61 27.05 27.27 26.67 25.94 25.32 24.37 23.71 24.55 24.12 25.22 24.34 25.29 25.88 26.26 26.33 27.13 29.09 27.67 27.07 27.08 28.91 28.78 31.09 33.44 35.20 35.48 35.67 36.78 37.45 39.54 41.18 41.24
37.92 38.00 34.10 31.37 30.58 30.85 30.18 27.97 27.62 26.73 26.07 25.78 26.04 26.46 26.44 27.50 29.67 28.08 25.73 24.52 24.19 24.40 24.48 24.76 24.31 25.30 26.10 25.46 23.95 26.22 25.32 25.55 26.93 28.30 29.79 30.49 31.69 33.39 34.13 35.13 37.69 40.12 40.71
34.82 34.23 31.51 30.28 28.83 29.68 32.06 31.93 30.49 27.55 26.48 26.00 25.74 25.48 25.66 26.38 26.17 27.15 26.96 27.29 26.79 24.40 23.78 24.34 23.54 23.11 24.66 25.87 26.84 25.53 24.41 23.14 22.25 27.74 28.16 27.31 30.19 30.25 31.83 33.28 35.90 38.29 39.67
32.32 33.00 29.86 27.63 26.92 27.49 32.03 32.06 30.97 27.73 25.63 24.51 23.49 22.78 22.99 24.54 24.81 24.47 25.61 26.69 27.06 28.25 28.44 27.08 24.35 24.24 25.11 26.19 26.05 24.11 23.44 23.17 23.16 26.02 27.10 25.65 27.94 27.62 30.60 31.84 33.69 36.41 37.39
31.68 30.10 27.05 27.00 27.23 29.98 30.89 30.32 29.10 24.64 23.29 23.22 23.16 22.48 22.16 22.39 24.14 24.66 25.31 26.21 25.41 26.52 26.56 26.24 26.01 26.11 26.92 27.26 26.39 25.90 25.53 25.05 25.01 26.26 28.12 24.13 26.18 26.64 28.54 30.48 32.65 34.97 36.39
29.13 27.67 27.92 27.32 27.38 25.85 29.08 28.14 26.30 23.05 22.77 22.26 23.01 23.22 22.99 22.84 25.03 27.59 25.19 23.98 23.80 24.66 27.26 27.97 28.20 28.01 27.73 27.97 28.82 27.32 23.90 23.92 22.07 23.76 26.70 25.82 25.19 25.39 25.30 27.64 29.45 33.08 34.94
27.58 27.83 27.21 26.13 26.58 24.20 26.83 26.59 25.45 20.45 16.86 20.43 22.46 22.91 23.52 23.91 25.90 26.26 25.03 22.83 21.42 23.16 24.22 25.31 25.77 25.81 26.34 26.09 26.99 26.07 25.55 23.76 24.57 22.48 25.63 24.81 24.59 24.46 23.25 25.42 26.36 27.52 28.85

GFSMA_sfc_wetblb_015.txt.gz
Wetbulb
63.39 62.70 61.24 60.33 59.87 59.72 58.92 58.76 58.94 58.38 57.90 56.99 57.22 56.63 55.53 55.54 55.68 55.86 57.10 55.43 56.65 58.00 59.24 60.24 60.65 61.02 61.27 61.25 61.52 61.96 63.51 64.82 64.19 63.74 64.41 64.87 65.17 65.10 64.44 64.30 64.32 64.36 64.41
62.37 61.10 58.61 57.56 57.62 58.19 57.61 57.60 57.31 56.11 55.40 54.95 54.62 55.03 54.01 54.16 55.03 55.60 55.70 56.03 52.65 53.02 54.69 55.84 56.46 56.91 58.00 59.02 59.59 59.90 60.78 61.72 64.40 63.87 63.75 64.11 64.20 64.46 64.50 64.22 64.11 64.33 64.64
58.04 57.59 57.09 57.16 56.78 56.63 56.28 56.41 55.71 55.08 54.58 53.33 52.67 52.76 53.00 52.84 53.12 54.60 54.52 54.01 53.39 50.94 51.11 52.21 52.96 53.36 53.98 55.17 56.11 57.29 59.19 60.13 61.16 63.58 63.56 63.67 63.86 63.91 63.99 63.82 63.78 63.87 63.93
56.80 56.98 56.17 55.34 55.09 54.69 53.54 54.11 53.23 52.70 52.46 51.57 51.02 51.61 51.86 51.26 51.96 54.88 52.83 52.25 52.03 51.45 51.27 49.80 50.31 50.56 51.09 52.42 53.83 55.23 56.41 57.87 59.36 60.78 62.77 63.40 63.20 63.43 63.40 63.66 63.49 63.32 63.12
55.14 55.29 54.46 53.55 52.96 52.72 52.30 51.66 51.11 51.01 50.09 49.22 48.13 49.93 49.33 49.37 51.69 53.08 51.68 50.83 50.52 50.44 50.06 48.92 48.29 48.20 48.88 50.09 51.44 53.28 55.00 56.03 57.12 59.12 61.15 62.76 62.93 62.41 62.86 63.20 63.09 62.96 62.66
53.54 52.70 52.15 52.10 52.06 51.12 50.70 50.81 50.04 49.83 49.40 48.12 46.29 47.40 47.57 49.53 52.79 52.63 49.94 49.79 49.47 49.20 48.89 48.35 48.50 48.09 47.24 48.07 49.24 51.06 53.42 54.85 55.45 56.25 57.63 60.57 61.96 62.37 62.18 62.55 62.24 61.77 62.12
51.42 51.78 51.36 51.15 51.08 50.22 50.51 50.36 50.03 47.78 47.31 48.11 46.10 45.30 46.20 49.49 49.84 49.96 48.78 48.63 47.62 47.31 47.53 47.28 46.77 46.64 46.80 46.93 47.34 49.26 51.16 53.15 54.26 54.66 55.20 56.42 58.66 60.40 61.74 61.88 60.90 60.28 60.73
50.45 50.37 50.82 50.60 50.75 50.28 49.90 49.16 47.96 46.48 46.85 47.57 43.21 42.80 40.27 42.96 46.54 47.52 46.79 46.74 46.26 46.22 45.95 46.06 45.85 45.84 46.10 46.46 46.73 46.92 48.48 49.30 50.62 52.79 53.74 54.71 55.59 57.51 59.89 61.18 60.68 59.61 59.50
50.01 50.69 50.68 51.35 50.55 49.42 48.63 47.39 46.81 45.78 43.79 45.33 46.01 41.93 38.00 37.02 40.14 44.28 44.12 44.74 45.45 44.88 44.60 44.30 44.24 44.39 45.18 45.93 46.14 46.04 45.10 45.48 47.14 50.08 52.52 53.70 54.56 55.76 58.34 59.93 60.58 59.18 58.61
50.33 50.03 49.73 49.44 48.72 48.31 47.01 46.32 45.53 44.39 42.96 39.95 41.78 43.91 42.26 40.74 35.61 34.38 40.68 42.14 42.84 41.61 42.29 42.58 42.99 43.41 44.33 45.33 44.98 44.50 44.20 44.13 45.02 47.50 51.22 52.59 54.29 54.50 56.77 58.56 59.18 57.87 57.48
48.69 48.00 47.82 48.06 47.63 46.69 45.75 44.96 43.91 42.13 42.02 39.99 39.21 38.73 38.58 38.58 38.66 35.91 31.50 35.27 38.62 40.09 41.05 40.04 41.48 42.26 42.32 44.31 43.91 43.76 42.51 43.75 44.18 46.34 49.91 51.50 52.96 54.27 55.00 57.72 57.63 56.67 56.88
49.28 48.57 47.08 47.01 46.41 45.49 44.44 43.76 42.77 41.36 41.10 40.82 40.20 38.74 36.56 34.76 34.10 34.24 32.90 33.46 33.49 36.08 38.02 38.93 39.21 39.93 40.36 42.57 41.85 41.28 41.53 41.81 41.25 45.07 48.76 49.93 50.65 51.71 52.71 53.71 55.14 55.69 56.06
48.55 48.51 46.64 45.66 44.60 43.57 43.39 42.55 41.41 40.23 40.57 39.53 38.82 37.87 38.73 37.53 37.74 36.40 34.52 32.87 32.39 34.73 35.53 37.87 38.25 38.64 38.91 39.86 41.80 41.19 41.35 40.40 40.87 45.00 47.94 48.32 48.83 48.94 49.24 50.19 51.13 52.29 54.34
46.42 47.23 46.13 44.60 43.77 43.37 42.36 42.04 42.01 41.53 40.96 40.28 39.36 39.20 38.21 38.53 38.89 38.29 35.82 33.37 30.60 31.54 33.53 34.02 37.30 37.61 38.35 38.94 39.56 40.46 41.86 40.19 41.66 44.43 46.01 45.29 45.53 46.33 48.11 48.15 47.65 48.14 50.20
45.05 45.68 44.88 43.67 44.42 43.50 42.51 42.70 41.49 41.05 40.52 40.34 40.02 39.52 38.84 38.76 38.97 37.89 36.14 34.91 31.29 26.90 28.24 32.43 32.43 36.40 36.92 37.60 38.41 40.01 41.26 40.09 38.92 42.88 42.65 43.12 43.56 44.22 45.28 47.18 47.61 47.02 46.79
44.68 44.87 43.93 44.06 43.61 43.18 42.60 41.78 40.69 40.72 39.51 39.41 38.69 38.59 38.49 37.30 36.28 36.06 35.15 34.21 32.79 29.61 26.38 30.89 31.45 33.27 34.42 34.96 37.25 37.98 39.91 39.39 38.44 39.45 40.74 40.80 41.12 41.82 42.54 44.20 45.98 47.56 46.31
43.93 43.67 43.82 43.12 42.50 41.14 40.60 40.14 40.02 38.87 37.17 37.64 38.37 36.86 35.63 35.49 34.47 34.36 33.91 32.68 31.11 30.27 26.49 29.32 31.23 32.63 33.47 34.00 34.95 37.08 39.61 40.32 40.17 39.28 39.50 39.53 39.88 39.98 40.12 41.62 43.63 45.32 46.21
42.40 41.74 41.77 40.75 41.25 41.40 40.39 38.66 37.78 37.07 36.36 36.18 35.81 34.84 33.77 33.78 33.27 33.30 32.39 30.74 30.10 30.33 27.83 25.58 29.25 30.43 31.96 34.17 34.86 35.24 37.72 38.46 39.57 38.61 37.25 37.85 38.22 38.20 38.64 39.72 41.80 43.08 43.63
41.22 41.25 40.75 40.22 39.48 40.63 38.79 37.27 36.24 35.83 35.55 34.85 33.90 33.16 32.90 32.28 31.51 31.77 30.84 29.71 29.16 28.86 28.57 26.63 26.76 29.42 30.63 32.90 33.60 34.86 35.69 37.49 37.25 36.24 36.43 36.34 36.07 36.91 37.70 38.10 39.98 42.07 41.99
41.21 41.69 40.76 39.06 38.79 37.06 36.45 35.89 35.27 34.83 33.68 33.13 32.98 32.54 31.99 31.20 30.23 29.83 28.63 28.45 27.69 26.68 26.41 25.57 25.70 26.75 28.82 31.24 31.42 31.32 32.43 35.38 34.50 35.05 35.07 35.13 34.82 35.57 35.37 37.27 38.53 40.50 41.51
40.95 41.68 40.47 37.35 37.01 35.83 34.55 34.91 34.04 33.40 32.79 32.43 32.15 30.95 30.35 29.53 28.57 28.34 27.60 27.01 26.41 25.24 25.78 25.55 25.01 25.96 27.19 27.30 27.49 29.78 30.22 32.66 33.69 34.72 34.12 35.51 36.37 37.44 39.30 38.17 38.43 38.96 40.53
39.78 39.82 37.89 37.12 35.94 33.69 32.77 32.93 33.16 32.78 31.63 30.08 28.07 28.48 28.29 27.21 27.35 26.80 26.51 26.86 26.96 25.75 25.60 25.25 26.91 25.39 25.89 27.05 28.41 28.60 28.18 27.67 27.65 35.46 33.08 32.88 35.21 34.25 36.53 38.64 34.72 37.10 39.77
38.20 38.55 37.90 35.22 33.44 33.91 32.41 31.70 30.05 30.75 29.08 28.18 27.34 26.55 26.30 26.76 26.55 26.89 26.69 27.15 27.99 27.90 27.75 27.37 25.98 25.93 25.97 27.67 27.92 27.40 27.57 27.42 27.36 31.97 31.12 29.36 33.65 32.46 35.03 35.02 33.69 35.61 37.37
37.10 37.54 35.08 33.27 33.31 32.00 30.60 28.99 27.90 29.35 28.19 27.50 26.65 26.49 26.11 25.97 26.79 25.85 27.33 26.68 26.56 26.83 27.34 27.63 28.19 28.14 28.24 28.97 28.54 28.46 28.14 27.94 29.52 30.95 31.76 26.96 32.07 31.39 34.20 35.28 33.70 33.51 35.73
35.32 34.44 33.93 32.77 31.84 30.92 28.59 27.50 27.83 27.94 26.71 26.05 26.40 26.75 26.25 25.63 25.64 27.15 26.03 25.22 24.58 25.39 27.82 27.67 28.21 28.69 28.91 28.70 28.48 27.93 26.50 26.07 25.25 27.20 31.05 28.63 29.80 30.52 32.33 33.42 35.47 32.75 33.91
33.25 33.69 32.08 31.66 28.20 29.20 26.82 26.63 27.30 27.76 25.82 25.69 26.26 25.97 24.79 24.94 25.29 25.75 24.86 24.05 22.06 24.09 24.92 25.71 26.21 27.34 27.99 28.54 27.81 28.30 27.36 25.19 26.23 25.93 29.82 27.36 27.67 29.60 28.60 34.45 35.04 35.35 34.73

GFSMA_sfc_wetblb_018.txt.gz
Wetbulb
66.43 65.37 66.34 65.45 64.56 64.14 62.94 61.77 61.30 60.50 59.80 59.16 59.27 58.60 57.91 57.99 58.00 58.02 58.85 54.52 54.90 56.69 57.81 58.37 58.37 58.26 58.22 58.07 58.68 60.07 61.04 61.65 62.95 63.66 64.10 64.39 64.85 65.08 64.68 64.77 64.59 64.50 64.43
64.75 65.39 64.98 62.88 62.95 62.27 61.61 60.39 59.83 58.61 58.10 58.10 57.22 57.41 57.09 56.99 56.99 57.41 57.23 57.66 52.53 53.01 54.05 54.93 55.39 55.46 55.67 55.89 55.81 56.70 58.01 59.32 60.65 61.59 63.79 63.94 64.32 64.28 64.20 64.39 64.33 64.22 64.24
62.03 61.43 61.50 60.47 60.22 60.74 59.68 59.48 58.46 58.19 57.28 56.81 56.23 56.30 56.33 56.28 55.69 56.03 56.45 56.27 55.65 51.96 51.42 51.93 52.29 52.49 53.04 53.49 54.11 54.65 55.53 56.45 57.96 59.44 60.84 62.80 63.62 63.95 63.91 63.80 63.78 63.93 64.02
60.06 60.79 60.65 60.83 59.18 58.61 57.99 57.47 56.45 55.69 55.31 54.79 54.30 54.14 54.80 54.63 54.37 55.09 56.04 55.42 55.03 54.27 53.75 50.84 50.27 50.38 50.29 51.30 52.35 53.04 53.85 54.65 56.00 57.01 58.39 60.17 62.49 62.85 63.19 63.54 63.45 63.32 63.36
59.00 60.35 58.69 57.81 57.49 56.87 56.32 55.13 54.87 53.84 53.10 52.94 52.48 52.72 53.23 53.22 53.31 53.64 54.82 54.27 53.91 53.38 52.77 52.43 50.55 50.53 49.16 49.50 50.36 51.37 52.46 53.25 54.07 55.36 56.47 56.98 58.40 61.55 62.34 62.79 63.23 63.07 62.97
56.99 57.59 56.79 56.28 55.78 55.05 54.51 54.09 53.37 54.06 53.00 52.23 50.91 50.82 51.95 51.52 52.13 52.94 53.38 52.22 51.97 51.64 51.22 50.55 50.38 49.96 49.46 48.55 49.17 49.88 51.28 51.99 52.92 53.96 54.73 55.52 56.03 57.18 60.19 61.85 62.68 62.92 62.22
55.47 55.34 55.33 55.38 55.00 54.06 53.72 53.61 53.05 52.21 51.07 51.72 48.92 48.52 48.88 49.92 50.88 51.19 50.95 50.56 50.80 50.07 49.94 49.54 49.35 48.48 48.35 48.25 48.46 49.05 50.18 50.20 50.80 51.02 51.76 53.09 54.36 55.14 56.87 59.69 61.49 62.22 61.31
54.31 54.20 54.61 54.16 54.18 53.09 53.11 52.72 51.53 49.52 49.65 50.36 46.82 46.16 43.28 45.69 48.06 49.44 48.87 48.50 48.80 48.93 48.52 48.27 47.52 47.06 47.23 47.43 47.84 47.45 48.24 48.41 49.05 49.32 49.55 50.41 52.45 54.16 55.26 56.42 59.69 61.01 60.92
54.10 53.81 53.76 53.42 52.94 52.28 50.78 51.25 50.28 48.43 46.73 48.04 47.15 44.49 41.22 39.86 42.08 45.35 46.50 46.05 46.97 46.64 46.49 46.11 46.03 45.67 46.07 46.24 46.51 47.08 46.51 45.17 46.12 47.28 48.21 49.22 50.68 52.80 54.45 55.53 58.28 59.80 60.71
53.91 53.34 52.80 52.48 51.88 51.50 50.70 50.57 49.53 47.49 45.65 43.93 44.89 45.18 44.68 43.26 38.42 37.69 43.26 44.39 43.72 43.38 43.98 43.88 44.28 43.86 44.59 44.30 44.28 45.67 43.34 42.71 43.37 45.01 46.48 48.32 50.22 51.94 52.86 54.83 56.54 58.92 59.97
53.63 52.63 52.21 51.61 51.51 51.13 50.35 49.29 47.29 46.20 45.86 44.30 43.84 42.71 41.64 41.32 41.09 37.65 34.98 38.18 40.96 42.03 42.29 42.40 42.26 42.85 42.84 43.02 42.78 43.98 42.56 42.87 42.12 43.04 45.18 47.59 49.57 51.13 52.17 54.16 55.29 58.24 58.60
49.70 50.36 50.96 51.51 51.31 50.52 49.26 47.80 46.50 46.23 45.16 43.74 42.54 41.39 39.80 38.07 37.35 37.02 35.60 36.39 36.71 39.10 41.03 41.59 41.60 41.77 42.03 41.99 41.72 42.21 42.83 41.96 42.06 41.82 45.05 47.55 49.35 50.37 51.33 52.57 54.29 56.85 57.88
46.49 47.18 48.39 49.18 49.66 49.65 48.07 46.55 45.28 45.63 43.46 42.16 41.61 40.48 40.71 39.76 39.65 38.71 37.15 35.95 35.34 37.69 38.60 40.51 40.95 41.26 40.85 41.51 41.37 41.69 40.37 39.83 41.39 40.74 44.69 45.83 47.28 48.40 49.56 50.35 50.63 52.44 55.69
45.81 47.35 47.97 48.93 49.46 48.15 45.52 44.82 46.08 44.89 43.71 42.50 41.63 41.14 40.66 40.59 40.18 39.31 37.22 35.59 32.89 34.58 36.42 36.78 39.78 39.98 40.08 40.06 39.70 39.51 39.78 39.98 40.01 39.41 43.14 43.74 44.97 45.72 46.67 47.99 48.88 48.82 49.59
45.18 46.42 48.15 48.25 47.86 47.11 46.25 45.12 45.11 43.81 43.54 42.75 41.83 41.42 40.55 40.46 40.59 39.94 38.98 37.72 34.16 29.92 30.99 34.78 35.06 38.61 38.64 38.77 38.34 38.72 38.76 39.33 40.32 38.53 40.86 41.73 42.11 42.73 43.72 44.64 46.51 48.50 48.56
45.32 45.56 46.32 46.87 46.24 46.79 46.34 44.57 44.23 43.50 42.33 41.97 41.25 40.47 40.22 40.15 39.55 39.45 38.34 37.63 35.76 33.07 30.81 34.43 35.03 36.70 37.49 37.10 38.02 38.75 38.91 38.50 38.27 38.04 40.39 40.32 40.67 41.09 41.25 41.99 43.03 45.31 47.84
44.60 44.18 44.59 45.34 45.19 44.52 43.64 43.97 43.43 42.92 41.42 40.29 40.30 38.74 39.43 39.51 38.24 38.16 37.95 36.85 35.25 34.39 30.55 33.47 34.65 35.97 35.45 35.10 36.64 37.35 38.33 39.31 39.53 39.61 38.41 38.39 39.34 39.40 39.29 39.88 40.67 42.58 44.90
44.35 44.01 43.84 43.54 43.44 43.23 43.48 42.44 42.38 41.52 39.61 38.99 38.98 38.91 38.16 37.57 37.46 37.40 36.46 35.12 34.47 33.66 30.94 28.79 31.68 32.04 32.92 34.16 35.26 35.45 35.79 38.23 38.66 39.97 38.29 37.44 37.94 38.26 38.44 38.48 39.37 40.61 42.73
43.46 43.69 43.58 43.06 42.62 42.45 42.46 42.10 40.50 39.55 39.43 38.96 38.60 37.60 37.10 36.76 35.65 35.58 34.96 33.81 32.59 31.49 30.62 28.88 28.85 30.67 32.19 32.89 32.58 34.19 35.17 36.36 38.05 39.05 37.64 38.02 37.72 37.17 37.24 37.69 39.03 39.79 41.68
42.70 42.85 43.27 43.04 42.92 41.34 40.35 40.12 39.37 38.89 38.46 37.86 37.66 37.17 36.34 34.74 33.59 32.81 31.84 31.58 30.69 29.63 30.04 29.18 28.09 28.93 30.75 32.80 32.43 30.55 32.42 35.12 36.06 37.73 37.48 35.27 35.59 36.55 37.31 37.08 38.71 39.34 40.11
42.49 42.62 42.23 42.31 41.77 40.59 39.26 38.66 38.85 38.00 37.61 36.78 36.62 35.49 34.19 31.97 29.08 28.87 29.25 28.98 28.24 27.59 26.74 27.14 26.37 27.04 28.09 28.46 28.73 30.62 30.30 31.92 33.64 35.95 36.26 36.46 36.70 37.58 38.23 38.02 39.20 38.65 38.73
41.60 41.54 41.32 41.50 40.92 39.67 32.57 33.07 32.80 36.55 36.06 34.88 33.36 33.15 33.03 31.02 30.52 27.91 28.04 27.63 28.01 27.11 26.08 26.34 27.46 26.68 26.73 28.56 30.01 29.55 29.41 29.50 27.64 35.26 34.42 33.21 36.75 35.75 37.76 39.16 34.34 36.25 37.64
40.94 40.46 40.79 40.75 39.63 38.84 32.54 30.97 29.46 35.17 34.39 33.38 32.30 31.59 30.94 30.93 30.09 29.64 28.38 28.03 28.89 28.98 28.53 28.53 26.07 26.33 27.17 29.47 29.50 28.59 28.65 28.87 28.57 31.96 32.29 29.96 34.34 33.44 37.07 37.33 34.01 35.10 36.58
39.83 39.79 39.48 38.90 38.17 36.17 30.64 28.67 28.32 34.42 33.48 32.29 31.61 31.14 30.73 30.44 29.85 27.73 27.20 27.50 28.99 30.02 29.90 29.30 28.49 28.66 29.19 29.79 30.11 29.68 29.39 29.23 30.72 31.35 32.79 28.07 32.92 32.60 34.84 37.38 34.30 33.04 35.61
39.39 39.04 38.48 37.78 37.38 36.21 29.21 27.60 28.62 32.88 31.63 30.86 30.87 30.88 29.45 28.79 27.06 26.42 26.34 25.98 27.21 28.27 29.43 28.35 28.12 28.02 28.19 28.40 29.22 29.40 27.19 26.08 26.34 28.64 32.38 30.79 31.20 31.69 33.78 35.20 37.15 33.33 33.84
38.11 37.91 37.23 37.45 32.05 34.88 28.22 27.15 28.36 32.39 30.18 29.98 30.62 29.86 27.17 26.53 24.98 25.45 25.34 25.03 23.80 25.58 25.82 26.63 27.68 28.62 29.03 29.31 28.78 29.75 28.19 25.44 25.98 26.94 31.65 29.18 29.35 31.09 28.93 35.32 36.21 37.39 36.16

GFSMA_sfc_wetblb_021.txt.gz
Wetbulb
66.34 65.79 65.54 65.00 64.45 63.81 63.26 62.66 62.00 60.74 60.69 59.82 59.48 58.79 58.42 58.29 58.17 57.50 58.55 56.46 57.02 56.53 56.61 57.19 57.23 57.25 57.05 56.74 56.66 57.27 58.10 58.78 60.03 61.25 61.88 63.63 64.37 64.43 64.75 64.45 64.27 64.34 64.54
63.95 62.27 63.19 63.82 62.54 62.60 62.02 60.95 59.83 58.89 58.95 59.03 58.18 58.01 57.58 57.32 57.66 57.48 56.88 57.49 55.95 55.40 54.62 54.22 54.76 55.06 55.33 55.20 54.81 55.17 55.83 56.55 57.39 58.46 59.49 60.89 62.59 63.45 63.94 63.90 64.08 64.05 64.05
63.64 64.15 62.76 61.54 61.37 60.92 60.51 59.89 59.35 58.43 57.39 57.02 56.53 56.35 55.88 56.04 56.03 55.71 55.58 56.46 55.99 54.29 53.52 52.73 51.97 52.36 52.41 52.59 53.04 53.68 54.16 54.40 55.20 56.28 57.26 57.94 58.60 60.84 62.74 63.52 63.75 63.68 63.77
61.35 61.43 60.81 60.40 59.98 59.64 58.28 57.83 56.97 55.88 55.38 55.23 54.72 54.65 54.37 54.27 54.64 54.91 54.80 55.70 55.81 55.37 52.91 51.46 50.62 50.49 50.21 50.67 51.26 52.00 52.48 53.29 53.82 54.33 55.27 56.17 57.08 57.55 58.92 61.28 63.13 63.37 63.39
60.43 60.69 59.61 58.96 58.68 57.57 57.11 56.31 55.82 55.42 54.39 54.22 53.54 53.24 53.62 52.85 53.49 52.18 52.66 54.16 55.28 54.08 53.14 53.65 52.81 52.30 48.82 50.04 50.28 51.25 51.65 51.91 52.53 53.13 53.73 54.21 54.93 55.77 56.53 57.65 60.16 62.67 63.20
58.81 59.26 58.50 57.75 57.16 56.37 56.09 55.93 55.06 55.06 54.06 52.97 50.89 50.84 52.45 51.41 51.29 51.32 52.27 53.38 52.95 52.32 52.33 51.19 50.53 50.20 51.11 49.39 49.41 50.19 51.39 51.72 51.68 51.69 51.65 51.79 52.28 53.26 54.58 55.66 56.62 59.66 62.41
57.05 57.04 56.98 56.80 56.71 55.57 55.14 54.93 53.98 52.75 50.32 51.46 49.33 48.95 49.07 51.27 51.94 50.97 51.00 51.23 50.76 50.32 50.64 49.80 49.65 48.87 48.12 49.54 48.72 49.43 50.16 50.65 50.72 50.46 50.09 49.98 50.38 50.85 51.67 53.77 55.45 56.93 59.98
56.45 56.09 55.93 55.49 55.30 53.89 53.42 52.55 51.96 49.82 49.35 50.35 46.97 46.22 42.05 44.36 48.12 49.01 48.74 48.26 50.12 48.71 48.37 48.42 47.93 47.16 46.83 46.44 47.13 47.11 48.27 48.11 48.12 48.17 48.32 48.81 48.96 49.76 50.88 52.20 53.83 55.53 57.82
56.08 55.63 55.11 54.46 53.57 52.25 50.40 50.98 50.69 49.62 46.65 47.66 48.73 44.74 40.03 38.65 42.16 45.52 46.05 46.69 48.62 46.69 46.69 46.06 45.88 45.46 45.46 44.90 45.12 45.32 45.55 44.21 45.24 46.17 46.80 47.05 47.95 48.70 49.74 51.43 52.65 54.06 55.99
55.14 54.65 53.60 53.05 52.34 51.52 50.81 50.32 49.95 48.77 47.25 44.44 46.34 46.28 46.36 44.43 38.72 37.05 42.15 43.25 44.33 43.88 45.43 44.14 43.77 43.74 43.79 43.64 44.78 44.87 42.88 42.59 42.77 44.08 45.61 46.55 47.39 48.24 49.15 50.42 51.83 52.72 54.30
51.77 51.10 50.85 51.22 51.82 51.23 50.95 50.32 49.37 48.21 47.01 45.73 44.33 43.67 42.93 42.22 41.84 38.28 35.17 37.97 40.89 42.13 42.76 42.94 42.96 42.86 43.12 43.21 43.09 43.51 43.46 43.43 40.91 41.54 42.80 45.05 46.75 48.02 49.07 49.74 51.29 52.48 53.96
48.58 48.90 48.61 48.95 49.45 50.14 49.95 49.65 49.11 47.53 46.67 45.72 44.05 43.17 41.17 38.96 37.82 37.45 35.70 36.65 37.49 39.60 41.25 42.04 43.28 42.67 43.16 43.27 43.27 43.82 43.17 41.78 41.00 40.77 41.65 43.84 45.10 47.29 48.24 49.20 50.58 52.02 53.18
46.69 47.20 47.97 48.11 48.16 48.98 49.50 48.86 47.56 46.45 46.35 44.06 43.06 42.11 41.78 40.67 40.78 39.16 37.17 35.88 35.63 38.53 39.57 41.44 42.11 42.24 41.51 42.95 42.43 42.28 40.86 40.18 40.57 40.90 41.72 42.35 43.41 45.39 46.64 47.79 48.95 50.47 51.45
46.18 47.10 47.07 47.87 48.47 48.71 48.26 47.30 46.20 46.24 45.57 44.19 43.08 42.42 41.56 41.35 41.06 39.89 37.78 36.16 33.77 34.96 36.80 36.95 41.10 41.31 41.36 41.13 41.30 41.12 39.61 39.75 39.52 39.95 41.05 41.10 41.94 43.57 43.79 44.45 45.82 47.28 49.51
45.78 46.15 46.63 46.52 47.47 47.58 47.57 46.91 46.24 45.75 44.70 43.90 43.36 42.63 41.45 41.23 41.14 40.48 39.48 38.29 35.42 31.06 31.45 35.99 36.47 39.68 40.18 40.39 40.40 40.04 39.60 39.82 39.72 39.57 39.23 40.01 41.58 42.40 42.55 42.77 43.19 43.87 45.79
45.88 45.52 45.30 45.37 45.67 46.24 46.71 46.84 45.52 45.09 43.82 43.71 42.76 41.42 40.90 40.64 40.24 40.03 38.97 38.89 37.70 34.97 31.09 35.78 36.52 37.97 38.53 37.60 38.71 38.83 38.52 39.12 38.90 39.16 38.87 39.55 40.21 40.04 40.68 41.23 41.65 42.27 43.21
45.32 44.60 44.57 44.42 44.31 44.36 44.58 44.18 43.80 43.70 42.80 42.44 42.22 40.72 40.15 40.23 38.99 38.64 39.37 38.44 37.19 36.38 32.27 35.60 36.40 36.85 35.88 35.54 35.84 37.38 37.74 38.29 38.84 38.95 39.48 39.91 38.86 38.97 39.15 39.48 39.94 40.77 41.62
44.98 44.22 43.95 43.79 43.89 43.85 43.46 43.24 42.54 42.59 41.65 40.57 40.13 39.79 38.86 38.72 37.83 38.11 37.42 36.32 36.01 36.02 34.09 30.87 32.68 33.31 33.18 34.06 34.94 34.78 35.75 36.46 37.43 37.87 39.66 39.04 38.22 38.68 38.64 38.77 38.52 39.77 40.31
44.05 43.89 43.73 43.23 42.92 42.54 42.00 42.35 40.95 40.70 40.23 40.01 39.35 38.68 37.71 37.13 36.06 35.64 34.94 33.87 33.95 33.42 33.22 30.45 29.49 32.04 32.59 33.67 33.55 34.42 34.25 35.28 36.21 38.12 37.83 37.71 38.30 38.91 38.06 38.45 38.41 39.04 39.93
43.44 43.22 43.44 42.97 42.95 42.11 41.42 40.90 39.99 40.02 39.68 39.38 38.82 38.27 37.30 35.89 34.45 33.08 31.39 31.31 31.42 30.24 29.83 28.72 28.64 28.91 30.54 32.26 32.66 31.34 31.40 33.43 33.88 36.01 36.75 37.82 37.57 38.30 38.45 38.69 38.64 38.95 39.00
43.32 43.11 42.62 42.49 42.60 42.14 40.34 40.34 39.84 39.50 38.50 37.70 37.86 36.92 36.42 33.09 30.26 29.90 29.66 29.28 28.79 27.60 27.06 26.76 26.31 27.40 28.19 29.18 29.06 30.95 30.37 31.15 32.67 34.70 34.48 36.06 36.64 37.34 37.86 37.63 37.85 38.34 37.66
42.78 42.27 41.84 41.44 41.61 41.06 33.18 33.10 32.66 36.61 37.11 36.30 34.96 35.11 34.91 34.24 33.09 30.79 30.17 29.01 28.76 26.71 26.27 26.88 26.81 25.77 26.16 28.03 30.01 29.47 29.49 28.08 26.01 34.17 32.69 31.94 35.86 35.83 36.89 38.10 34.96 35.92 36.97
42.40 41.56 40.96 40.56 39.91 38.92 33.44 31.36 29.83 34.55 35.78 35.49 34.42 33.41 32.90 33.13 31.69 32.00 30.58 29.71 29.39 30.15 30.05 29.06 26.59 26.73 26.73 28.40 28.32 27.72 27.90 28.05 27.83 31.22 31.49 29.58 34.26 33.11 35.85 37.18 35.46 34.88 36.08
41.50 40.53 40.18 40.02 39.36 36.64 32.00 29.75 29.35 33.59 35.49 34.78 33.79 33.12 32.37 31.87 30.65 28.10 27.65 27.41 28.52 29.35 30.06 29.76 28.95 28.12 28.39 28.58 27.96 27.85 27.81 28.53 29.99 31.36 32.60 27.14 32.35 31.98 35.14 36.48 35.82 34.52 34.69
40.79 40.26 40.08 38.98 38.13 36.50 30.98 29.69 28.64 34.03 33.80 32.80 33.02 32.96 31.45 30.04 27.62 26.55 25.81 25.46 26.21 27.51 30.30 30.20 28.88 28.87 29.07 29.40 29.21 28.89 26.83 26.33 25.89 27.27 31.63 29.49 30.75 31.68 33.98 34.67 37.12 35.32 34.21
39.56 40.11 38.76 38.77 33.69 37.22 30.40 29.17 29.10 33.05 32.06 31.74 32.25 32.09 28.85 27.17 25.50 25.33 24.99 24.24 23.21 25.48 25.30 25.70 26.61 28.26 29.65 30.24 30.74 29.82 28.49 25.66 25.69 25.43 30.30 29.22 29.76 30.52 28.49 34.54 35.94 37.66 36.25

GFSMA_sfc_wetblb_024.txt.gz
Wetbulb
64.19 63.40 63.15 61.67 62.53 61.51 59.90 59.26 58.03 57.22 56.74 56.84 57.05 56.44 55.14 54.52 54.32 54.20 54.11 57.97 58.27 57.00 56.59 56.68 56.63 56.48 56.24 55.94 55.84 55.93 56.41 56.74 57.48 58.32 58.92 59.59 60.41 61.90 63.06 63.76 63.93 63.67 63.78
61.71 61.24 61.55 60.79 60.79 59.37 58.52 57.99 57.08 56.29 55.14 55.16 54.39 54.81 54.22 53.20 53.50 54.11 52.70 53.72 56.76 56.78 55.13 55.07 54.87 54.35 54.00 53.48 53.39 53.77 54.43 54.94 55.41 56.03 56.46 57.05 58.10 58.80 60.08 60.79 62.72 63.58 63.71
62.16 60.77 60.40 59.69 58.94 58.30 57.20 56.33 55.37 54.59 53.22 53.52 52.48 52.63 52.47 51.88 51.47 52.08 52.35 51.43 53.50 55.83 54.57 53.11 52.17 52.47 52.08 52.08 52.15 52.40 53.10 53.01 53.96 54.62 54.88 55.66 56.34 56.68 57.38 58.47 59.61 60.66 63.43
60.41 59.41 58.99 58.26 57.27 56.99 55.43 54.28 53.78 52.37 51.95 51.62 50.76 50.88 50.67 50.34 49.36 50.50 50.68 49.93 52.45 51.60 53.39 53.17 52.17 51.73 50.59 51.00 51.54 51.89 52.42 52.29 52.36 53.13 53.47 53.55 53.57 54.00 54.57 55.71 56.85 58.01 59.72
59.60 58.56 57.03 56.57 55.52 55.23 54.36 54.03 52.71 52.06 50.71 50.20 50.09 48.05 47.93 47.36 48.29 49.68 48.36 48.88 50.01 51.39 50.97 53.80 53.74 52.79 49.90 50.17 50.75 51.71 52.13 52.39 52.61 52.53 52.20 51.95 52.27 52.29 52.41 52.78 54.16 55.86 57.44
57.48 56.64 56.29 54.79 54.33 53.99 53.24 52.73 51.69 51.44 50.22 47.40 48.33 47.23 46.52 47.03 46.86 47.03 47.98 49.80 48.74 49.54 49.01 48.35 46.89 47.11 51.33 49.78 49.47 50.07 50.90 51.61 51.72 51.52 50.92 50.61 50.45 50.75 51.05 51.56 52.35 53.25 55.34
55.74 54.41 54.61 54.46 53.93 52.38 51.87 50.98 48.98 47.81 46.87 46.93 44.39 44.32 44.44 44.57 44.17 44.00 44.60 44.56 45.80 46.67 47.62 47.93 45.09 44.06 44.11 47.99 47.72 48.70 49.56 50.46 49.88 49.38 48.98 48.44 48.48 48.96 49.54 50.37 51.30 52.15 53.43
54.60 54.62 53.43 52.66 52.12 50.36 49.31 48.71 47.46 45.88 45.59 45.94 41.62 41.08 37.97 39.76 42.15 43.35 42.72 43.28 41.79 45.08 45.10 44.16 43.85 43.83 42.20 41.19 42.83 46.54 46.83 46.69 47.13 47.16 47.07 47.00 47.15 48.10 48.64 49.54 50.33 51.20 52.45
54.35 53.55 52.77 51.36 49.98 48.95 47.21 47.38 46.29 45.82 42.69 43.00 43.53 40.37 35.99 34.34 38.14 40.86 40.31 40.74 40.32 40.65 41.30 41.91 42.34 42.21 41.03 39.58 41.06 42.86 44.26 42.58 43.16 44.70 45.27 45.40 45.61 46.44 47.77 48.91 49.81 50.41 51.42
53.17 51.81 50.86 50.09 49.76 49.08 47.83 47.26 47.04 44.89 43.12 40.15 41.61 44.24 40.88 39.02 33.79 32.69 36.95 37.68 38.24 38.92 38.34 39.29 39.24 40.37 40.15 39.39 42.28 45.02 43.56 43.59 42.05 42.85 43.80 44.50 45.16 45.38 46.60 48.13 49.30 50.02 50.63
49.02 48.30 47.72 47.27 46.60 46.43 47.37 46.93 46.34 44.57 43.05 41.10 40.41 38.90 38.00 37.42 36.75 33.11 30.53 32.14 35.69 37.36 38.13 37.89 39.25 38.55 39.77 39.49 38.57 40.87 44.48 42.58 41.13 41.62 42.64 43.50 44.15 44.68 45.47 47.24 48.58 49.81 50.38
46.43 46.75 46.97 45.77 45.97 45.86 45.69 46.52 45.50 44.93 43.72 42.52 41.83 39.72 37.50 34.84 33.39 32.22 30.59 31.33 31.95 34.31 36.14 37.44 37.41 37.29 38.48 38.38 41.15 43.92 42.87 41.99 41.60 40.82 41.30 41.98 42.41 43.81 44.57 45.54 47.66 48.73 49.88
44.17 44.48 44.59 44.51 44.71 45.43 46.02 45.79 44.29 43.03 42.39 41.38 40.89 38.54 38.49 37.27 36.94 35.42 33.26 32.24 31.07 34.12 34.47 34.96 36.03 36.42 38.47 36.32 37.16 42.54 41.65 41.36 41.36 40.43 40.43 40.92 41.11 41.70 43.11 43.97 45.92 46.70 47.42
43.57 44.12 44.16 44.39 44.44 45.45 45.14 44.68 43.17 42.47 42.37 42.08 40.40 39.98 38.23 38.69 38.34 36.36 33.88 31.21 29.54 31.00 32.34 31.79 34.61 35.25 35.18 36.50 38.23 41.69 36.64 39.98 40.53 40.67 39.88 39.77 40.24 40.60 40.55 42.08 43.40 45.01 45.35
44.15 43.72 43.78 43.35 43.40 43.31 44.30 42.30 43.28 43.20 43.20 41.37 39.68 40.63 38.59 39.71 39.00 36.40 36.62 34.39 30.69 26.58 27.94 31.77 31.84 34.62 34.96 34.47 35.88 35.21 34.77 38.18 39.22 39.19 39.22 40.03 40.39 40.32 40.05 40.96 42.42 43.18 43.43
43.67 43.57 43.15 42.74 42.54 42.33 42.20 42.62 42.22 41.57 40.34 39.96 41.31 40.04 39.08 39.13 37.29 36.31 35.04 34.08 33.88 30.66 27.48 31.46 32.22 32.85 33.40 35.21 35.88 34.31 34.21 37.35 37.51 37.84 38.42 38.79 39.85 40.69 40.15 40.56 40.94 41.19 41.64
43.55 42.90 42.75 42.15 41.62 41.47 41.62 41.04 40.30 40.38 39.87 39.04 39.22 38.82 38.97 38.14 34.81 34.26 33.96 34.00 31.83 31.22 27.90 29.96 32.01 31.55 30.76 30.80 32.30 33.10 34.08 33.22 33.96 37.62 38.15 38.55 38.91 39.79 40.09 39.67 39.35 39.45 39.84
43.43 42.46 42.41 41.78 41.82 41.60 40.72 40.00 39.23 39.45 38.49 37.74 37.04 36.78 36.51 37.51 34.62 33.83 32.37 30.46 29.71 29.68 27.88 25.87 28.40 28.82 28.88 30.37 30.93 30.82 32.96 34.89 33.63 36.58 37.82 38.01 38.74 38.79 38.77 39.33 39.38 39.21 39.40
42.46 42.13 41.88 41.31 41.04 40.83 40.54 39.84 39.10 37.83 36.97 36.66 36.33 35.42 35.40 34.72 31.55 30.27 28.93 27.41 27.70 29.77 27.98 25.77 25.24 27.77 28.23 29.11 29.11 30.20 30.90 31.57 34.14 36.53 36.61 37.16 37.12 37.39 38.59 38.65 39.15 39.11 39.02
41.89 41.28 41.32 41.12 41.00 40.57 40.27 40.19 38.80 36.85 36.68 36.63 36.71 35.36 34.64 32.72 28.75 27.07 27.22 25.37 26.27 24.86 25.21 24.54 24.59 25.09 25.87 27.56 28.25 26.79 27.20 29.10 29.43 33.44 34.95 35.68 36.86 37.71 37.66 38.32 38.74 39.16 39.17
41.95 41.68 40.79 40.22 40.08 40.21 38.43 37.32 36.66 35.54 34.90 34.31 34.51 34.74 33.19 31.97 31.29 28.72 27.19 24.72 24.64 23.53 23.48 23.01 23.00 23.98 24.38 24.11 23.37 26.41 26.20 27.18 28.50 29.89 29.84 32.65 33.61 35.32 35.02 36.65 38.01 38.47 37.16
41.29 40.90 40.09 39.72 39.22 38.90 34.14 33.47 32.20 31.38 33.22 32.77 31.05 31.02 30.97 33.21 31.76 31.06 31.38 30.56 27.85 23.32 22.59 22.82 23.50 22.95 23.33 24.40 26.11 25.36 24.12 23.48 23.14 29.17 28.04 27.04 32.39 32.33 34.00 36.27 36.90 36.38 36.46
40.90 40.22 39.89 39.06 38.09 34.19 33.79 32.24 30.75 30.57 31.05 30.92 29.92 29.14 29.90 32.12 29.35 27.41 28.62 28.42 27.81 29.49 29.62 26.36 24.54 24.89 25.62 25.29 24.49 23.15 22.35 21.99 22.31 26.09 26.70 24.21 27.43 29.10 32.69 34.82 35.87 35.62 35.60
39.47 39.05 37.94 38.39 37.80 34.73 33.36 31.65 30.16 27.78 30.25 30.78 29.58 29.28 27.94 27.37 25.14 25.52 24.38 23.38 24.40 25.11 26.08 27.36 23.60 23.35 24.24 24.96 25.01 25.15 24.14 24.07 25.16 26.05 26.71 22.37 26.59 27.60 29.14 30.37 36.20 36.46 35.04
38.21 38.11 38.52 37.57 36.38 32.07 32.62 31.33 29.21 28.13 29.63 29.32 30.35 29.87 29.42 26.59 26.66 27.23 23.70 22.67 22.42 23.28 28.31 27.89 27.05 28.05 29.36 30.16 29.98 26.61 23.43 22.40 21.12 23.43 25.63 25.71 26.22 27.35 26.78 27.33 29.10 35.59 35.07
38.40 38.11 36.97 36.41 34.48 31.80 32.07 30.79 29.14 27.47 27.82 27.76 28.20 28.17 28.05 26.06 26.23 25.97 22.04 21.41 19.68 21.68 22.01 21.79 23.46 26.14 27.46 27.99 30.81 30.24 27.20 23.35 23.07 22.45 25.89 25.51 27.20 27.95 22.20 25.13 26.94 27.97 26.76

GFSMA_sfc_wetblb_027.txt.gz
Wetbulb
59.24 58.84 59.08 58.65 58.25 57.11 56.35 55.64 54.77 54.10 53.12 52.97 52.52 52.44 52.00 51.06 50.99 51.25 52.20 57.90 58.44 57.96 57.39 57.15 56.31 55.66 55.00 54.26 53.95 54.35 54.91 55.05 55.68 56.18 56.27 56.47 57.25 57.73 58.12 58.57 59.27 60.09 62.40
59.04 59.20 58.81 58.21 56.11 55.28 54.37 53.77 52.07 51.56 50.34 50.75 50.97 51.08 50.75 50.21 48.93 48.86 49.89 52.16 57.21 58.01 56.49 55.66 54.54 53.56 53.15 53.02 52.70 52.88 53.39 53.68 53.92 54.63 54.76 55.41 54.88 54.99 55.51 56.18 56.85 58.06 59.34
59.33 57.67 57.10 55.18 54.21 54.14 52.84 51.83 51.59 50.95 50.34 51.41 50.12 50.26 49.62 48.41 47.28 47.33 47.93 47.65 53.12 56.17 55.82 53.77 52.24 52.51 51.88 51.91 52.20 52.15 52.46 52.37 52.86 53.40 53.59 53.52 53.28 53.38 53.55 53.67 54.21 55.16 56.94
58.29 56.75 55.22 53.01 52.78 52.86 51.78 50.71 50.45 49.64 49.25 48.73 47.43 46.64 46.42 46.26 46.63 46.53 46.36 46.03 50.01 51.31 54.36 54.31 52.67 51.68 51.09 51.28 51.43 51.81 52.11 52.28 52.33 52.34 52.66 52.56 52.24 51.77 51.89 52.25 52.62 53.24 54.24
57.17 54.38 53.14 51.76 51.70 51.56 51.19 50.66 49.44 49.02 47.64 46.93 45.48 43.86 43.70 44.22 43.96 46.63 45.79 46.16 46.64 47.68 49.78 53.68 53.36 52.84 50.64 50.38 50.55 51.09 51.51 51.45 51.49 52.31 51.81 50.78 50.10 50.20 50.23 50.71 51.28 51.97 52.77
53.44 53.11 51.77 50.92 51.13 50.34 49.17 48.28 47.36 46.76 46.96 44.24 46.86 44.73 43.22 43.21 42.87 41.91 42.13 44.47 43.83 43.93 45.54 46.31 44.53 45.84 50.16 48.47 48.45 48.63 49.67 50.49 50.35 50.29 50.14 49.68 49.17 48.69 48.90 49.30 50.19 50.84 51.59
52.49 51.06 50.37 50.45 49.42 48.33 46.92 46.71 45.48 44.19 43.44 43.65 41.20 40.10 40.73 41.41 41.21 40.30 41.07 40.97 41.23 42.72 43.04 42.85 43.64 43.44 43.86 46.96 46.04 46.64 47.89 47.74 47.08 47.36 47.31 47.11 47.06 47.05 47.12 47.75 48.90 49.92 50.76
51.39 51.57 49.92 48.95 47.71 46.51 45.46 44.83 43.71 42.57 43.05 41.69 38.77 37.45 35.26 37.62 39.38 40.70 39.00 39.26 37.90 39.80 41.45 43.48 42.32 42.27 40.66 39.24 40.73 44.13 44.96 44.75 45.32 46.17 45.71 45.54 45.65 46.15 46.53 46.79 47.80 48.61 49.94
51.38 50.42 49.37 47.76 46.45 45.76 44.39 43.77 43.26 42.24 39.78 40.16 40.44 38.01 33.94 31.79 34.10 37.13 37.33 37.41 35.93 35.82 36.34 37.87 39.30 39.57 38.88 37.50 39.46 40.44 44.13 44.34 43.45 44.18 44.61 44.88 45.01 45.41 45.88 46.21 46.75 47.64 49.13
48.15 46.29 45.69 44.33 43.43 44.28 43.94 44.13 45.25 42.44 40.63 38.16 38.89 41.83 37.44 36.16 30.88 29.71 33.57 34.59 35.18 36.20 35.15 35.85 36.86 37.71 37.91 37.30 40.54 43.46 44.81 42.93 41.26 42.11 43.21 44.07 44.40 44.57 44.85 45.31 46.13 46.65 48.06
45.53 45.19 44.33 42.41 41.85 42.43 41.84 42.37 42.87 42.63 40.56 38.84 38.45 37.22 35.53 34.84 33.78 30.44 27.03 29.87 32.80 34.09 34.91 34.67 35.25 35.54 37.31 36.48 35.58 38.22 44.05 41.63 41.49 41.15 42.18 43.06 43.64 44.12 44.12 44.19 44.94 45.82 46.70
42.61 44.55 43.38 42.40 42.48 42.04 41.99 42.26 42.19 40.83 40.37 39.83 39.44 39.23 36.29 33.83 31.83 30.54 28.46 28.95 29.27 31.46 33.73 34.87 33.99 34.48 35.39 34.95 39.61 42.66 43.35 42.18 41.34 40.63 41.06 41.77 42.56 43.06 43.13 43.58 44.26 45.33 45.90
40.43 40.21 40.93 41.14 40.52 41.38 42.37 42.47 41.05 40.66 40.07 38.94 38.61 37.71 37.01 36.60 35.66 34.21 31.36 29.51 28.40 30.56 31.48 32.75 33.82 33.87 36.62 34.22 34.89 40.27 40.19 40.14 40.31 39.68 39.88 40.31 40.88 41.27 41.66 42.06 43.18 43.75 44.70
40.71 40.54 41.34 40.43 40.50 40.94 40.54 41.10 41.21 40.32 40.04 39.29 38.57 37.75 37.44 36.77 37.19 35.73 33.78 29.91 26.48 27.33 28.40 29.44 32.44 33.39 33.75 33.51 35.63 39.18 34.01 38.39 38.98 39.38 38.59 38.58 39.15 39.55 39.88 40.75 41.82 42.31 42.93
41.87 40.87 41.01 39.67 40.00 39.76 39.70 39.38 39.31 40.76 40.25 39.58 39.75 40.45 38.48 38.75 39.42 38.90 37.17 33.97 30.86 23.17 26.27 28.15 28.12 32.29 32.07 31.93 33.63 32.76 32.00 36.12 38.23 38.21 37.74 37.90 38.28 38.96 39.47 39.86 40.56 41.05 41.77
41.01 40.62 39.74 39.27 39.21 39.41 39.54 38.68 38.47 38.20 37.51 37.30 38.83 37.89 38.43 38.39 39.14 38.18 35.74 32.47 30.88 28.69 23.33 27.96 27.89 29.07 30.08 32.69 33.85 32.39 31.97 36.17 36.02 37.00 37.26 38.05 38.66 38.37 38.65 38.82 39.86 40.54 40.94
40.59 39.92 39.75 39.33 38.98 38.88 38.68 37.81 37.30 37.65 37.70 36.93 37.69 37.08 36.59 37.31 36.52 35.35 33.14 30.38 28.60 27.58 22.91 25.24 27.25 28.06 27.37 27.78 29.87 30.50 32.18 31.60 32.08 36.02 36.98 37.40 37.72 38.20 38.07 38.51 39.48 39.85 39.87
40.09 39.75 39.72 39.97 39.83 39.31 38.44 37.81 37.12 36.66 35.77 35.50 35.65 34.61 34.66 36.06 31.78 31.17 28.26 26.58 26.02 25.19 23.74 22.17 24.16 25.17 25.18 26.88 27.43 27.57 30.67 32.93 31.76 34.69 36.55 36.74 37.09 37.12 37.80 37.51 38.30 38.99 39.23
39.58 39.74 39.70 39.05 39.39 39.04 38.04 38.33 38.44 36.36 35.85 35.59 34.59 33.39 32.69 32.07 28.67 26.46 25.84 24.40 24.15 26.73 23.58 22.01 22.72 24.45 24.43 25.60 26.30 27.59 28.47 28.62 31.80 33.98 34.09 35.18 36.26 36.32 37.03 37.00 37.42 38.60 38.47
39.52 38.75 38.78 39.29 38.89 39.16 39.46 38.93 37.20 35.71 35.82 35.47 35.29 33.54 32.52 29.41 26.92 25.52 25.57 23.65 24.54 22.80 22.68 21.93 22.26 22.69 23.75 25.55 25.61 23.65 24.54 27.08 27.00 30.56 31.99 33.19 34.90 35.13 35.71 36.18 36.43 37.28 38.71
39.89 40.41 40.08 39.01 39.14 38.30 37.71 35.78 34.88 33.78 32.42 31.83 31.96 32.07 30.25 30.42 32.38 28.23 25.91 23.09 23.21 22.29 21.84 21.78 21.27 22.02 22.69 23.12 23.07 25.66 23.78 24.01 24.61 26.06 26.83 28.14 29.08 30.82 32.09 34.61 35.36 37.03 37.68
39.44 39.57 38.58 38.19 37.23 37.50 34.54 34.16 32.82 30.93 31.50 30.41 28.92 27.75 28.27 30.19 30.91 31.37 30.43 29.64 27.85 22.89 21.49 20.47 21.89 21.43 22.52 23.44 26.18 22.53 21.96 20.52 18.53 24.45 24.08 24.00 27.12 26.95 29.44 33.83 34.44 35.37 37.20
38.29 38.55 38.18 37.75 36.70 34.41 34.31 33.57 31.83 29.69 29.63 28.77 27.11 26.82 28.02 29.68 27.61 25.67 26.24 26.60 25.99 27.23 27.21 23.24 21.36 20.40 19.90 21.61 22.31 21.52 21.50 21.14 20.76 23.71 23.81 22.11 24.82 24.08 29.08 32.57 34.22 35.69 36.51
37.30 36.69 36.75 37.07 36.32 34.73 34.18 33.18 30.97 27.07 28.08 28.85 27.60 27.26 26.09 24.56 25.35 25.17 23.50 22.45 22.68 23.10 23.98 24.51 21.22 20.69 21.58 23.58 23.70 24.53 23.69 23.66 23.99 24.96 24.53 20.50 23.91 24.21 26.72 29.98 32.92 34.27 36.46
35.70 36.07 36.95 36.15 34.41 32.43 33.52 32.21 29.17 26.69 27.84 27.70 28.58 28.03 27.91 24.83 27.10 27.26 23.56 22.32 21.43 22.36 26.01 27.34 26.69 27.37 28.06 28.92 28.83 27.17 25.56 24.94 20.82 22.55 23.96 22.95 23.02 22.87 24.64 26.95 28.22 33.36 35.18
36.42 36.60 34.89 34.55 34.19 31.23 33.18 32.39 29.89 25.36 26.51 26.37 26.52 26.32 28.45 25.08 26.48 26.51 22.64 20.63 18.88 20.66 22.06 21.71 22.40 23.90 25.82 26.27 29.40 26.34 25.19 23.55 23.56 22.71 24.80 23.40 23.73 23.79 21.68 23.91 26.36 26.26 26.94

GFSMA_sfc_wetblb_030.txt.gz
Wetbulb
57.78 58.28 57.29 56.50 55.34 54.53 54.02 52.74 52.34 50.89 50.61 50.58 50.57 50.12 49.37 48.72 47.31 48.20 50.03 56.54 58.11 58.54 56.87 57.48 56.63 55.53 54.82 54.35 54.26 54.40 54.35 54.24 54.28 54.98 54.71 54.49 54.48 54.44 54.52 54.67 55.06 55.71 56.74
58.44 57.87 56.45 54.82 53.71 53.08 52.34 51.03 50.18 49.63 49.10 49.48 49.52 49.11 48.55 46.95 46.22 45.83 47.02 48.47 56.10 57.93 57.46 56.31 54.75 54.27 53.40 53.25 53.15 53.17 52.97 53.02 53.63 53.82 53.68 53.66 53.29 52.86 52.69 52.90 53.45 53.99 54.73
57.41 56.18 54.55 52.86 52.59 52.40 50.54 50.34 49.85 49.51 48.83 49.48 47.74 46.94 46.71 45.69 45.96 45.20 44.82 44.76 50.15 56.66 57.07 54.64 52.49 52.86 52.10 52.07 51.90 51.85 52.37 52.87 52.38 52.15 53.22 52.36 51.47 51.60 51.48 51.45 51.83 52.45 53.12
57.18 55.28 52.62 51.66 51.38 50.98 50.01 49.39 48.63 48.18 47.65 47.08 44.21 43.03 43.39 44.38 43.73 43.69 43.94 44.45 46.54 49.65 54.04 54.41 52.75 51.68 50.82 50.71 51.11 51.17 51.79 51.14 51.49 52.11 52.06 51.16 50.61 50.29 50.33 50.02 50.44 51.01 51.68
56.18 53.15 51.45 49.94 50.59 50.01 48.94 48.71 47.49 46.85 46.11 43.88 44.35 42.81 42.42 42.20 41.56 44.12 42.13 42.30 42.35 43.93 47.44 51.11 50.83 51.14 49.88 49.51 49.72 50.46 50.47 50.58 50.49 50.62 50.04 49.97 49.74 49.20 48.61 48.80 48.96 49.57 50.47
53.54 51.38 49.99 49.65 49.36 47.81 46.07 45.85 44.70 44.50 44.24 42.45 45.19 42.18 40.64 40.70 39.70 39.91 39.96 41.56 40.90 42.26 42.37 42.23 40.99 44.99 49.66 47.18 47.69 48.13 48.63 49.19 48.72 48.36 47.99 48.06 47.73 47.41 47.30 47.47 48.09 48.32 49.21
51.05 49.83 48.99 48.04 47.55 46.22 44.61 45.19 43.56 42.80 42.08 41.47 39.31 38.81 38.86 39.28 38.94 38.67 38.55 38.17 38.47 39.59 39.70 40.21 40.66 39.94 41.21 46.44 45.78 46.06 46.75 47.51 46.97 46.23 46.44 46.59 46.25 46.29 46.51 46.93 47.12 47.60 48.13
49.91 49.67 48.16 47.11 46.72 45.35 44.07 43.26 42.44 41.17 41.54 39.93 37.55 36.30 33.76 36.21 37.81 38.67 36.59 37.71 34.91 36.61 37.80 38.81 38.35 39.67 38.60 37.99 40.96 45.67 46.16 45.06 45.32 45.69 45.47 45.13 45.08 45.47 45.99 46.35 46.43 46.64 47.27
49.93 49.02 48.08 46.34 45.24 45.14 44.19 43.17 42.87 41.62 39.09 39.21 38.86 37.05 32.88 31.02 32.47 35.12 35.45 34.52 33.77 33.95 34.29 35.80 37.39 37.37 36.81 35.64 38.22 40.48 43.82 43.33 42.90 43.02 43.81 44.32 44.64 45.00 45.60 45.78 45.85 46.06 46.29
45.92 45.25 43.88 42.75 42.33 42.02 40.92 41.38 44.25 40.88 39.23 37.72 37.68 40.24 36.41 35.27 30.42 28.67 32.59 32.87 33.59 34.91 33.27 33.91 34.48 35.78 36.33 35.32 38.32 40.81 43.79 43.37 41.06 41.61 42.74 43.91 44.30 44.67 44.93 45.16 45.30 45.20 45.62
43.78 43.96 42.96 41.45 41.25 41.05 40.47 40.42 40.61 40.69 39.56 37.56 37.42 36.98 35.41 34.19 32.50 30.18 26.46 29.38 32.05 33.29 33.40 33.69 33.37 33.46 35.20 34.85 33.84 37.04 43.23 43.17 41.24 40.99 41.59 42.52 43.42 43.75 43.90 44.07 44.17 44.72 45.16
42.78 42.12 42.25 40.83 40.31 40.33 40.73 41.02 40.34 39.65 39.61 39.09 38.55 40.42 38.61 36.13 31.53 29.96 27.55 28.03 28.44 31.05 32.83 33.66 32.99 32.96 33.86 33.85 38.37 41.20 41.92 40.61 39.23 39.66 40.61 41.22 41.96 42.57 42.97 43.14 43.47 44.13 44.58
41.69 40.90 40.69 41.32 39.92 40.06 39.83 40.98 39.75 39.32 38.73 37.76 37.48 37.22 36.60 36.06 34.93 33.70 31.10 28.93 27.71 29.45 30.28 31.44 32.39 32.65 35.21 33.31 33.51 38.96 38.70 38.22 37.93 38.44 38.98 39.57 39.96 40.43 40.98 41.51 42.20 42.81 43.80
41.24 41.19 41.20 39.78 39.33 39.32 38.21 37.90 38.29 38.98 39.03 37.79 37.49 37.31 37.09 36.99 36.48 35.56 34.95 33.99 29.58 27.88 27.39 28.31 30.82 31.39 31.40 31.66 34.09 37.64 32.37 36.06 36.42 37.04 37.55 37.71 37.86 38.33 39.03 39.82 40.53 41.36 42.35
42.23 41.41 39.78 38.54 40.53 39.61 38.18 37.60 37.44 38.00 38.56 38.06 37.63 37.43 37.71 37.69 37.72 38.15 38.47 37.36 33.63 25.52 24.60 26.28 26.80 29.73 29.72 30.19 31.68 31.66 30.53 34.48 35.99 36.01 36.07 36.64 37.32 37.91 38.25 38.76 39.21 40.04 40.57
41.73 41.43 40.34 40.00 38.25 38.00 37.73 37.77 37.26 36.92 36.48 36.31 37.31 37.05 36.88 36.80 38.31 37.64 35.82 34.36 32.05 29.78 25.56 25.68 25.73 26.79 28.28 30.50 31.55 30.58 30.00 34.53 34.16 35.04 35.78 35.80 36.39 36.93 37.38 37.77 38.27 38.72 39.65
41.78 40.64 39.41 39.87 38.20 38.26 37.64 36.48 36.49 36.65 36.44 36.28 35.66 35.55 36.76 36.41 35.20 34.07 32.15 29.93 28.37 27.75 23.23 23.78 25.19 25.68 24.79 25.15 27.30 28.32 29.82 28.97 29.80 33.96 34.23 35.14 35.34 35.50 36.63 36.52 37.03 37.90 38.55
40.85 39.45 38.75 38.61 38.52 38.71 38.08 36.79 36.45 36.79 36.10 34.90 35.06 34.83 34.71 37.08 32.37 30.93 28.61 26.70 25.38 24.88 23.38 21.14 22.18 22.64 23.39 24.46 25.61 25.43 28.62 30.82 29.35 32.60 33.47 33.59 33.67 34.74 36.25 36.57 36.94 36.83 37.27
38.82 38.36 38.06 38.01 38.27 38.43 38.37 38.41 37.24 36.08 34.54 34.96 34.96 33.22 32.80 32.24 29.72 27.83 26.25 24.77 23.68 26.45 22.98 21.60 21.38 22.71 22.81 24.03 24.62 25.86 26.20 26.35 30.04 31.95 31.43 31.59 32.30 34.16 34.46 34.90 35.34 36.30 36.30
39.76 38.44 38.26 38.15 39.05 37.73 38.25 38.36 36.28 34.82 34.65 34.76 35.00 33.31 31.82 30.19 27.45 25.90 24.82 23.27 23.70 22.20 22.51 21.55 21.63 21.93 21.93 24.11 23.89 23.14 24.17 25.94 25.05 27.98 29.11 29.45 30.94 32.28 32.21 33.14 33.89 35.45 35.77
39.19 38.83 38.11 38.60 38.63 38.11 37.70 36.64 35.37 33.26 31.48 31.01 31.19 30.79 29.43 30.16 32.59 27.96 25.13 22.89 22.70 22.00 21.46 21.28 21.00 21.34 21.69 21.85 21.84 23.82 24.03 22.87 23.35 24.42 23.91 25.40 26.02 26.57 27.86 30.95 32.19 34.59 34.31
38.38 38.53 37.87 37.29 36.00 37.38 36.02 36.20 33.46 30.48 31.26 30.15 28.40 27.35 27.47 30.63 31.22 31.25 30.42 29.24 26.24 21.56 20.25 19.53 20.54 19.64 19.72 19.79 21.36 20.81 20.97 19.96 19.06 23.55 22.37 23.03 25.36 24.80 26.78 27.78 31.91 34.61 34.79
37.87 37.46 36.50 36.68 36.48 35.95 35.27 35.16 33.73 29.94 28.96 27.92 27.39 26.76 27.48 29.23 28.39 26.12 26.92 26.25 25.14 25.96 25.16 21.66 19.00 19.17 18.73 20.09 20.53 20.65 21.44 21.49 21.30 24.26 24.05 22.22 23.39 22.84 26.15 29.11 31.82 32.98 34.20
36.69 35.84 35.70 36.35 35.83 35.20 34.85 34.66 32.38 27.55 27.53 28.37 27.63 26.93 25.96 25.37 25.33 25.07 23.51 22.77 22.71 22.71 23.13 23.67 21.49 20.63 21.20 22.99 24.18 25.41 25.37 25.55 25.25 25.28 24.69 20.98 23.04 22.48 25.26 26.80 31.53 33.14 33.83
35.19 34.99 35.73 35.66 34.40 33.05 34.51 33.61 30.40 26.16 27.17 28.06 28.57 27.85 27.26 24.95 27.12 28.60 24.00 22.92 21.65 21.92 25.48 26.73 26.88 27.39 27.46 27.67 28.02 26.31 23.11 22.31 20.46 22.44 24.97 24.41 22.61 21.54 22.63 24.13 26.96 32.61 32.97
34.72 34.22 33.37 33.09 33.35 31.10 33.87 33.78 31.02 25.42 26.43 26.45 26.71 26.46 29.47 25.97 28.14 27.66 23.07 21.56 18.85 20.68 21.66 22.22 22.62 23.21 24.55 24.72 27.44 24.99 24.48 21.75 21.59 20.60 24.71 25.02 24.31 22.93 20.30 22.59 23.99 24.16 28.97

GFSMA_sfc_wetblb_033.txt.gz
Wetbulb
57.10 56.64 55.74 55.09 54.00 53.36 52.04 50.82 49.76 49.58 49.32 49.43 48.73 48.38 46.91 45.59 45.22 45.46 45.96 53.32 57.28 57.69 56.93 57.44 56.88 55.54 54.87 54.85 54.67 54.42 54.29 54.62 54.79 54.56 54.35 53.83 53.30 53.12 52.81 52.93 53.24 53.55 53.88
57.16 55.91 54.30 53.07 52.09 51.45 50.43 49.67 48.86 48.64 48.09 48.18 46.73 46.89 45.33 44.78 43.83 43.62 43.70 44.06 52.98 56.94 57.49 56.40 55.05 54.26 53.69 53.22 52.77 52.61 52.82 53.87 53.29 53.17 53.50 52.68 51.68 51.73 51.65 51.61 51.71 52.18 52.67
56.87 54.64 53.00 51.96 51.62 50.10 49.87 49.29 48.75 48.24 47.68 47.34 44.50 44.60 44.17 43.93 42.93 42.42 42.59 44.13 49.45 54.52 56.50 54.44 52.64 52.67 51.90 52.08 51.40 51.49 51.95 51.45 51.89 52.97 52.50 51.69 51.17 50.61 50.32 50.25 50.28 50.52 51.14
55.92 53.22 51.27 50.58 50.76 50.00 48.84 48.09 47.61 46.33 45.68 43.64 42.14 41.74 42.48 41.84 41.92 41.29 41.16 41.23 43.29 48.97 50.84 53.20 52.29 51.75 50.96 50.89 50.71 50.83 51.22 51.12 51.15 50.86 50.85 50.39 50.09 49.49 49.13 48.90 49.09 49.23 49.68
55.03 51.77 50.18 50.14 49.37 47.90 47.23 47.39 44.84 45.18 43.19 42.17 43.07 40.85 41.03 39.76 39.92 41.71 39.92 40.34 42.01 43.93 43.44 47.53 49.90 50.35 49.06 48.62 48.69 49.10 49.60 50.04 50.31 50.31 49.55 49.08 48.68 48.15 47.93 47.86 47.90 48.35 48.66
52.57 50.23 49.61 48.81 47.48 45.59 44.71 44.04 42.85 42.87 42.09 41.27 43.65 40.66 38.57 38.66 38.72 38.00 37.55 39.75 39.26 39.15 39.55 39.68 39.76 41.06 49.01 47.79 47.67 47.87 48.40 48.56 48.77 48.28 47.58 47.77 47.34 47.07 46.87 47.08 47.37 47.54 47.84
50.61 48.90 47.71 47.04 46.11 44.60 43.88 43.76 42.32 41.24 41.18 39.84 38.49 38.25 37.79 37.77 37.34 37.38 36.73 35.79 36.90 37.35 37.36 37.69 38.02 37.66 38.71 44.61 45.67 46.63 47.07 47.35 47.33 47.42 47.20 46.90 46.21 45.91 45.95 46.40 46.79 46.88 47.18
49.21 48.54 46.95 45.82 44.74 43.80 42.75 42.19 41.58 40.51 40.59 38.89 37.00 35.49 33.04 35.74 36.81 37.17 34.99 35.89 33.40 35.10 36.27 37.33 36.73 37.04 36.23 35.48 40.02 44.39 45.14 45.79 45.97 46.03 45.80 45.35 45.49 45.50 45.81 45.92 46.26 46.52 46.69
48.85 47.68 46.16 44.89 44.02 43.98 41.99 41.54 41.53 40.54 38.82 39.43 38.44 37.17 32.44 30.45 31.82 34.59 34.27 33.28 32.74 32.91 33.43 34.66 35.74 35.98 35.26 34.46 37.70 39.08 42.27 42.00 42.64 43.56 44.18 44.73 44.97 45.20 45.54 45.94 46.02 46.00 46.15
45.27 43.77 42.69 41.83 41.38 41.17 40.26 40.55 41.93 40.10 38.79 37.34 36.93 39.44 35.67 34.53 30.82 30.17 32.26 32.40 32.65 33.75 32.74 33.21 33.54 34.57 35.11 34.49 37.32 40.02 42.13 43.18 41.95 42.70 43.47 43.83 44.28 44.57 44.85 45.00 45.03 45.15 45.38
42.87 43.10 42.62 42.25 41.68 40.38 39.73 39.51 39.92 39.80 38.96 37.01 36.38 36.28 35.23 33.85 32.96 31.12 27.02 29.16 31.47 32.65 32.90 33.32 33.19 32.80 34.02 34.14 32.96 35.85 41.60 42.63 41.96 41.29 41.83 42.70 43.27 43.77 44.07 44.12 44.12 44.29 44.57
41.36 41.17 41.85 41.13 42.30 41.68 40.27 40.92 39.38 39.29 39.27 38.48 37.68 37.29 36.27 34.14 32.01 30.45 28.69 27.67 27.62 30.82 31.95 33.63 32.90 32.80 33.17 33.28 37.24 39.67 40.08 38.98 38.64 39.26 39.98 41.02 41.71 42.44 42.88 43.03 43.10 43.20 43.81
40.25 41.08 42.09 41.78 41.64 40.98 41.05 40.99 39.24 38.94 37.69 36.91 36.47 36.88 36.39 35.41 34.81 33.03 30.46 29.22 28.29 29.06 31.89 33.00 32.91 32.82 34.10 31.73 32.87 37.38 37.63 36.84 36.87 37.42 38.35 39.26 39.88 40.36 40.79 41.03 41.32 42.35 43.04
41.63 41.73 41.76 41.73 41.11 41.01 39.63 36.71 36.83 37.41 38.06 37.33 37.64 37.51 36.70 36.68 36.22 34.83 32.29 33.23 33.23 32.12 29.77 31.19 31.46 31.34 30.84 30.55 32.68 36.05 31.23 34.74 35.35 36.08 36.83 37.05 37.31 37.91 38.44 39.26 40.14 41.01 41.78
42.11 41.71 41.24 40.70 40.84 39.89 37.57 36.94 36.31 36.64 37.84 37.40 37.06 36.71 37.03 37.67 36.50 36.73 37.02 37.21 35.24 28.78 25.12 27.67 27.79 29.09 28.87 28.67 29.51 29.57 28.40 32.94 34.40 34.53 34.61 35.56 36.35 36.88 37.45 38.00 38.69 39.44 40.06
42.41 41.37 40.70 40.54 39.80 38.64 37.75 36.35 36.49 37.29 36.68 35.70 36.10 35.68 35.48 36.39 36.86 36.51 35.65 33.83 33.40 28.47 24.31 26.07 25.68 25.96 26.43 28.69 29.20 28.04 27.74 32.94 32.62 33.53 34.01 34.20 34.81 35.84 36.18 36.36 37.12 37.87 38.34
41.76 41.47 41.24 39.99 38.35 37.41 37.73 37.00 36.20 35.77 35.17 34.74 34.75 33.95 34.73 35.46 35.02 34.04 33.11 30.92 28.81 28.28 25.44 24.17 24.64 24.64 23.77 23.72 25.25 25.73 27.74 27.01 27.63 32.39 32.96 33.60 33.60 33.67 33.90 34.83 35.85 36.67 36.96
40.98 40.79 39.27 38.12 37.70 37.56 37.41 36.29 35.04 35.87 34.91 33.26 33.77 34.00 34.17 36.47 33.12 31.28 29.39 27.83 25.98 24.71 23.32 21.00 21.88 22.33 22.61 23.43 23.91 23.97 27.01 29.26 26.98 30.94 32.38 32.21 32.05 32.00 32.45 33.07 35.29 35.43 35.82
38.94 38.19 37.57 37.29 37.50 38.00 37.67 36.39 35.49 35.21 34.07 33.39 33.65 32.99 32.37 31.85 29.13 27.98 26.52 25.04 23.75 25.68 23.12 21.41 21.39 22.31 22.42 22.99 23.44 24.54 25.12 25.83 28.36 30.87 30.27 30.39 30.68 31.14 31.74 32.55 33.43 33.61 34.38
38.81 38.34 38.46 38.68 38.37 37.58 36.84 36.68 35.98 34.25 33.55 33.66 33.84 32.92 32.07 30.29 28.36 26.21 25.21 23.72 23.39 22.12 22.18 21.21 21.36 21.42 21.54 23.11 22.85 22.24 22.23 24.55 24.32 26.68 27.93 28.54 29.87 30.72 31.52 31.18 31.68 32.76 33.37
39.67 39.38 38.93 38.81 38.68 38.06 36.85 35.97 34.83 33.42 31.92 31.15 31.00 30.55 29.27 29.54 31.79 28.18 24.97 22.88 22.30 21.36 21.03 20.34 19.81 20.18 20.61 20.05 19.61 20.71 20.13 21.31 22.80 24.22 23.83 24.61 25.50 26.36 26.72 28.98 30.35 31.88 32.40
38.76 38.89 38.54 37.92 37.11 36.73 36.54 36.64 34.51 31.27 30.74 29.19 28.24 27.88 27.44 31.65 32.24 32.34 31.75 30.01 25.58 21.72 19.92 18.60 19.09 18.71 18.37 18.85 19.03 18.92 19.32 19.60 18.90 23.79 22.82 23.76 26.00 24.73 26.05 26.80 29.77 31.63 32.59
38.59 37.57 36.79 36.25 35.98 36.03 36.23 36.72 35.22 30.02 28.88 28.00 27.58 27.11 27.02 28.18 29.45 27.97 29.99 28.52 27.16 26.97 26.39 20.60 18.43 18.56 18.34 19.65 20.04 20.24 21.12 22.00 21.64 24.20 24.16 22.54 24.49 22.81 25.78 27.64 30.35 32.03 33.54
37.57 36.84 35.62 35.30 34.87 34.74 35.65 35.80 34.32 28.56 27.44 27.45 27.69 26.85 26.01 25.88 26.53 25.63 24.03 23.03 23.03 23.45 23.25 23.10 21.00 20.75 20.89 22.05 22.41 23.99 25.15 25.06 24.19 24.27 24.37 21.16 23.79 22.64 25.46 25.89 30.37 32.29 33.45
36.55 34.73 34.87 32.94 31.69 31.41 34.49 34.96 32.56 26.79 26.59 27.10 28.44 27.64 27.06 25.83 28.15 30.14 24.51 23.34 22.76 22.91 25.65 27.02 27.17 27.37 27.48 27.27 26.24 22.83 20.81 20.78 18.90 20.79 23.16 23.10 23.04 22.90 24.30 25.60 26.06 31.41 32.70
34.44 33.00 31.34 30.76 31.87 30.56 33.02 34.79 33.22 26.07 26.27 26.60 26.86 27.29 31.10 27.45 28.67 29.75 24.07 22.17 20.18 21.81 21.64 21.71 22.55 23.65 24.34 24.04 26.12 23.60 22.40 20.16 19.64 18.83 22.59 22.02 23.07 25.14 22.29 22.31 22.32 25.09 24.83

GFSMA_sfc_wetblb_036.txt.gz
Wetbulb
57.00 55.92 55.11 54.33 52.71 51.79 50.33 49.26 49.20 49.16 48.55 47.71 47.35 46.15 45.53 44.75 44.53 44.53 44.73 51.92 55.04 57.36 57.60 58.23 57.60 56.14 55.33 54.85 54.49 54.45 54.63 54.79 54.25 54.59 53.99 52.86 52.57 52.49 52.26 52.00 51.75 51.86 52.18
55.73 54.43 53.10 51.66 50.59 50.12 49.46 49.20 48.54 47.89 46.86 46.03 45.60 44.99 44.72 43.39 42.90 43.07 43.94 46.55 55.73 57.15 57.12 56.71 56.34 55.13 54.26 53.51 52.79 52.91 53.70 52.60 52.78 53.98 52.98 52.29 51.83 51.61 50.92 50.61 50.71 50.79 51.23
55.79 53.26 51.68 50.88 49.52 49.44 49.26 48.85 47.91 47.36 45.80 45.44 43.54 43.77 43.39 42.54 41.91 41.64 41.93 44.01 49.05 54.02 55.73 54.45 53.88 52.74 52.51 53.03 51.36 51.32 51.96 51.59 51.68 51.94 51.68 51.12 50.80 49.91 49.54 49.39 49.53 49.81 50.05
55.02 52.04 50.78 50.12 49.68 49.25 48.56 47.52 46.36 45.52 43.85 43.33 41.77 41.65 41.11 41.74 41.35 40.91 41.52 43.13 46.96 47.31 49.00 53.12 52.89 52.01 51.48 51.06 50.55 50.90 51.15 50.99 50.68 50.82 50.39 50.11 49.32 48.82 48.53 48.69 48.58 48.66 48.82
54.05 51.27 50.16 49.54 49.07 48.03 46.84 46.07 44.43 44.39 42.02 42.17 42.23 40.73 39.97 39.76 39.88 40.54 40.33 40.97 42.00 41.90 41.70 47.64 49.69 50.29 49.18 48.35 48.39 49.07 49.80 49.99 50.02 49.72 49.59 48.60 48.35 47.98 47.67 47.44 47.76 48.21 48.43
51.79 50.12 49.53 47.96 46.48 45.14 44.26 43.26 42.35 42.27 41.90 41.50 42.92 40.63 38.74 38.80 38.93 37.75 37.90 39.63 39.09 39.18 39.39 40.11 40.69 42.01 47.35 47.26 47.03 47.36 48.00 48.69 49.09 49.29 49.13 48.28 48.03 47.18 46.92 46.63 46.77 47.09 47.65
50.34 49.15 47.72 46.15 45.27 44.04 43.12 42.87 42.00 40.92 40.72 39.54 38.87 38.53 37.88 38.27 38.22 37.47 37.19 36.77 37.76 37.60 38.47 38.63 39.46 38.54 39.06 43.84 44.95 46.20 46.99 47.43 47.85 47.98 47.58 47.54 46.96 46.14 46.26 46.35 46.58 46.68 46.99
48.76 47.92 46.08 44.75 43.80 42.99 42.36 41.98 41.31 40.36 40.38 38.72 37.41 35.66 33.70 36.23 37.26 37.51 36.02 36.53 35.22 36.05 37.46 38.47 38.18 38.41 37.94 37.97 42.41 43.75 43.84 44.48 44.82 45.36 45.81 45.54 45.67 45.82 46.09 46.51 46.57 46.90 47.00
48.01 46.53 45.32 44.02 42.95 42.36 40.86 40.90 40.76 40.12 38.37 38.51 38.02 37.29 33.54 31.72 32.99 35.82 35.75 34.70 34.84 34.79 35.20 36.28 37.69 37.88 37.51 37.00 38.35 39.30 42.24 42.30 42.78 44.15 44.71 45.17 45.23 45.58 45.68 45.95 46.16 46.27 46.08
45.11 44.02 42.43 41.34 40.60 40.48 39.86 40.44 40.88 40.36 39.48 37.55 38.54 38.78 36.13 35.39 32.40 31.63 34.14 33.97 33.76 34.49 34.48 35.03 35.73 36.30 36.93 36.51 37.81 39.30 40.87 42.52 42.68 43.25 43.84 44.02 44.46 44.71 44.93 45.10 45.44 45.53 45.76
41.94 41.85 41.54 40.38 40.05 40.32 40.64 42.48 42.39 41.42 39.36 37.67 36.59 36.47 35.91 34.99 34.06 31.87 29.46 30.68 32.90 34.31 34.43 34.45 35.13 34.71 35.08 35.08 34.87 36.72 41.06 40.67 40.32 41.39 41.91 42.96 43.24 43.70 44.03 44.24 44.44 44.72 44.75
40.43 40.42 40.26 39.98 39.89 40.06 41.54 41.87 39.59 39.27 38.53 38.22 38.04 37.22 37.12 35.16 33.69 30.83 28.53 28.91 28.93 31.84 33.48 34.37 34.48 35.06 35.09 34.27 37.05 38.88 38.98 38.17 38.10 38.94 39.92 40.87 41.76 42.53 43.05 43.34 43.59 43.74 43.60
39.32 39.94 41.11 40.51 41.41 41.48 41.60 41.04 39.46 39.95 38.22 37.19 37.03 36.96 37.31 36.45 35.27 33.63 31.57 30.01 29.74 32.91 33.84 35.66 35.21 33.65 34.08 33.78 34.01 36.57 37.08 35.74 36.33 37.09 37.96 38.90 39.54 40.26 40.81 41.22 41.55 42.01 42.58
41.74 42.57 42.04 42.21 42.31 41.87 40.28 39.49 37.99 36.83 37.19 37.24 36.63 36.40 36.99 36.81 36.18 34.59 33.04 31.09 31.74 34.40 32.34 31.95 32.13 32.57 33.16 32.56 32.79 34.39 30.81 33.56 33.94 34.50 35.79 36.58 36.80 37.24 37.97 38.88 39.68 40.22 40.87
41.40 40.73 43.56 42.31 41.79 40.56 39.66 38.95 38.00 37.01 37.58 37.64 37.19 37.08 36.07 36.57 36.46 36.26 35.38 35.72 35.98 29.68 29.88 29.55 29.40 30.97 30.03 29.93 29.87 30.56 28.99 31.52 33.49 33.88 34.04 34.67 35.54 36.37 36.50 37.25 38.24 39.04 39.22
41.58 43.14 42.55 41.11 40.54 40.07 39.29 38.36 37.54 37.14 36.79 35.68 36.01 35.30 34.98 35.54 35.73 35.63 35.54 35.12 36.28 33.01 28.68 28.58 28.37 28.13 28.49 29.13 29.31 29.60 28.24 32.27 31.68 32.43 33.24 33.58 34.26 34.86 35.26 35.41 35.81 36.25 37.07
42.85 42.60 41.08 40.51 39.80 38.97 38.24 36.43 36.85 36.24 35.53 35.17 35.00 35.27 34.62 34.67 34.95 34.53 33.38 32.26 30.58 30.28 27.86 28.73 26.89 26.80 25.95 26.06 26.77 26.92 28.03 27.71 28.63 31.59 32.18 32.75 33.05 33.11 33.24 33.46 33.79 34.42 35.01
42.57 41.28 40.85 39.53 39.40 38.46 37.32 36.18 36.07 36.34 35.31 34.30 34.20 33.25 34.26 36.17 33.69 32.83 31.21 29.73 28.12 27.04 25.16 22.92 23.70 24.19 24.39 25.43 25.24 25.20 26.65 28.52 28.68 30.34 31.59 32.06 31.59 31.73 31.91 32.17 32.36 32.83 33.97
40.08 39.50 39.80 39.32 38.83 37.94 37.70 37.63 35.89 35.30 34.82 34.19 33.29 32.71 32.53 31.73 30.77 29.46 28.42 27.33 25.88 26.49 24.58 23.01 22.46 24.11 24.36 24.69 24.67 25.55 25.81 26.83 27.87 29.99 30.00 30.16 30.79 31.43 31.76 32.16 32.51 32.84 32.77
39.45 38.06 39.40 38.93 38.42 38.07 38.07 37.25 36.02 34.88 34.45 34.00 33.36 32.91 32.50 31.18 30.00 28.81 27.45 25.96 25.01 23.51 23.05 22.34 22.30 22.48 22.69 24.03 24.05 22.73 22.11 24.30 24.02 26.44 28.12 28.85 30.23 30.95 31.32 31.59 31.72 32.25 32.31
39.22 39.29 38.86 39.30 39.32 38.90 37.58 36.75 35.44 34.26 32.91 32.04 32.27 32.00 31.65 31.75 33.39 29.54 26.44 24.97 23.36 22.40 22.29 21.98 20.79 20.94 20.67 20.46 20.01 21.91 20.31 22.17 23.51 25.41 25.41 26.55 27.88 28.34 28.88 29.77 30.18 31.05 31.40
39.18 39.79 39.28 38.42 38.04 37.69 36.55 36.87 35.46 32.76 31.62 30.49 29.67 29.29 28.64 32.37 32.80 34.31 33.56 30.11 25.80 23.25 21.89 20.18 20.13 19.17 19.21 19.77 21.39 20.14 20.32 20.10 19.13 26.39 24.76 24.79 27.49 26.71 28.18 29.18 29.70 31.09 31.94
39.20 38.65 38.09 37.77 37.30 36.39 35.97 36.85 36.26 31.76 30.42 29.54 28.84 28.42 27.82 27.95 29.97 28.51 31.42 31.64 29.73 29.03 27.18 22.95 20.13 19.72 19.20 21.25 21.46 20.63 21.42 21.83 22.07 25.33 25.32 22.76 26.12 24.84 28.02 28.68 30.28 31.27 32.15
38.34 38.03 37.20 36.90 35.59 35.05 35.10 35.47 35.08 31.89 29.65 29.08 28.38 27.85 27.10 27.04 27.32 27.27 26.39 24.86 24.51 24.47 24.75 24.38 21.90 21.40 22.00 22.87 22.99 23.48 23.08 23.44 24.03 24.74 25.38 20.32 25.29 24.55 27.45 28.67 30.16 30.78 31.97
37.38 37.00 36.24 34.74 32.33 31.10 33.65 34.45 33.81 30.00 28.14 27.90 28.41 28.75 27.83 26.87 28.81 31.31 25.69 24.04 23.78 24.31 27.25 28.07 27.49 27.41 27.90 27.84 27.24 24.16 20.85 20.23 18.54 20.56 24.13 22.35 24.29 24.05 26.47 27.23 29.18 30.15 31.67
36.33 34.10 32.59 31.20 31.48 30.12 32.32 33.95 33.59 27.67 27.16 28.79 28.76 28.91 31.39 28.53 29.90 30.73 27.09 23.90 21.60 23.38 23.52 22.63 23.05 24.24 26.08 24.90 26.73 24.48 22.64 19.37 19.17 18.28 24.16 21.73 22.72 24.23 23.41 27.02 26.83 29.24 29.05

GFSMA_sfc_wetblb_039.txt.gz
Wetbulb
61.84 62.10 60.29 59.27 58.10 57.68 57.09 56.49 56.30 55.64 54.94 53.84 53.50 53.03 52.27 52.17 52.29 53.29 54.38 54.59 57.17 57.09 57.96 58.74 58.35 56.79 55.95 54.87 54.24 54.10 54.84 53.44 53.86 54.22 53.35 52.97 52.41 51.99 51.46 51.29 51.34 51.61 51.90
61.97 60.65 58.88 57.79 57.20 57.17 57.01 56.61 55.87 55.01 53.74 53.62 52.39 51.75 50.76 50.62 50.78 51.68 53.08 55.16 56.15 57.27 56.92 56.49 57.92 56.36 55.34 53.59 52.65 52.83 52.99 51.94 53.31 52.88 51.85 51.22 50.90 50.51 50.15 50.06 50.11 50.29 50.75
61.08 59.77 58.14 56.75 56.27 56.45 56.15 55.89 54.94 54.39 53.05 51.83 51.21 50.79 50.40 49.71 49.48 50.33 51.66 54.06 55.35 55.17 56.18 55.75 55.29 53.53 53.73 53.56 51.65 51.34 52.33 51.22 50.69 50.90 50.85 50.57 50.31 49.85 49.04 48.87 48.89 49.13 49.36
59.96 58.60 57.18 56.26 56.24 56.22 55.73 54.78 53.79 52.37 51.79 51.66 51.01 50.35 50.11 49.73 48.49 49.44 51.21 53.84 54.13 53.26 54.11 54.47 53.72 52.49 51.91 51.23 50.76 51.25 51.09 50.94 50.97 51.17 50.43 49.93 49.88 49.15 48.51 48.22 47.92 47.85 48.46
59.52 58.53 57.21 56.09 56.12 54.91 54.00 53.28 52.57 52.71 51.04 51.00 50.11 50.66 49.92 49.11 48.07 48.11 48.17 49.84 49.97 50.76 51.56 49.01 49.73 50.69 49.05 48.42 49.09 49.71 50.47 50.40 50.54 50.37 50.30 49.70 48.98 48.57 48.00 47.80 47.56 47.54 47.52
57.96 57.19 56.02 55.11 54.73 53.28 52.33 52.02 51.30 51.05 50.71 50.40 48.42 48.68 49.17 47.87 48.31 47.78 47.58 47.43 47.74 47.85 48.70 48.73 49.80 49.11 47.50 47.22 47.24 47.81 48.46 49.10 49.54 49.61 49.21 48.95 48.72 48.26 47.51 46.92 47.10 47.33 47.66
56.61 56.16 54.88 53.66 53.49 52.81 51.53 51.49 50.50 50.13 49.87 49.92 48.18 47.49 47.58 46.51 46.56 47.28 47.44 47.33 45.97 46.48 47.02 47.67 47.99 47.81 47.27 43.47 44.60 45.44 46.30 47.12 47.51 47.62 47.39 47.26 47.19 47.02 46.71 46.72 47.16 47.40 47.60
56.13 55.30 53.97 52.84 52.26 51.00 50.98 50.96 50.79 49.38 49.82 48.91 46.59 45.71 43.71 44.25 45.92 46.24 46.86 45.50 45.43 45.90 45.35 45.59 45.63 46.06 46.18 45.94 45.34 44.01 44.42 44.77 45.05 45.62 45.82 46.06 46.24 46.49 46.53 46.67 46.94 47.06 47.14
54.94 54.05 53.15 51.92 51.49 51.54 49.91 49.94 49.58 48.51 46.09 47.04 46.77 45.77 42.33 41.24 43.71 45.56 44.99 45.77 45.16 44.97 44.81 44.30 43.92 44.13 44.34 44.77 43.41 43.00 42.26 42.85 43.96 44.44 44.87 45.25 45.56 45.67 46.05 46.22 46.44 46.53 46.73
53.15 52.63 51.74 51.08 49.74 49.15 48.66 48.24 48.38 48.22 47.25 45.22 46.10 46.26 46.63 45.60 41.64 39.87 44.80 45.04 45.02 43.73 44.24 44.28 43.80 43.48 43.04 43.69 41.35 39.92 41.02 42.09 42.50 43.45 43.90 44.24 44.76 45.04 45.42 45.56 45.78 45.82 45.80
51.71 50.12 49.48 48.71 48.36 47.98 48.21 48.20 47.64 46.28 45.47 44.16 45.88 45.83 45.29 45.35 44.70 40.56 37.51 40.26 42.49 43.57 44.30 43.90 43.64 43.31 42.32 42.52 43.01 42.19 40.04 39.64 39.64 40.76 42.14 42.79 43.56 44.01 44.17 44.40 44.55 44.88 45.03
48.52 48.30 47.69 48.16 48.01 47.21 47.31 46.07 44.73 44.61 43.33 46.81 46.51 45.78 44.36 42.67 41.57 40.61 38.76 39.38 39.19 40.99 42.68 42.99 43.35 42.92 42.37 42.65 39.15 37.88 37.78 37.73 37.51 38.28 39.52 40.63 41.53 42.40 42.91 43.14 43.71 43.86 44.10
46.98 46.04 46.97 46.24 45.98 46.74 45.36 43.55 43.37 44.37 46.47 45.86 45.53 45.14 45.57 44.63 44.33 42.67 40.35 38.88 37.92 40.38 40.70 42.41 42.96 42.47 41.36 42.00 40.54 36.22 36.94 34.90 35.23 35.80 36.56 37.51 38.50 39.27 39.91 40.49 41.15 41.80 42.46
46.41 46.49 46.46 46.97 46.49 45.96 45.38 42.56 43.38 44.75 45.56 45.46 45.05 45.07 45.32 45.36 44.77 43.21 40.87 39.15 36.70 38.08 38.52 36.87 41.31 40.90 41.35 41.03 36.91 34.88 36.99 34.23 33.69 34.15 35.27 36.00 36.42 37.02 37.66 38.42 39.20 39.49 40.35
46.17 46.41 46.97 46.93 46.38 43.26 44.00 43.78 43.97 44.56 45.08 45.37 45.31 45.67 44.73 44.54 44.30 43.58 42.68 41.62 38.83 32.86 34.39 37.59 37.32 40.24 40.31 39.18 36.97 36.76 36.22 34.42 33.20 33.63 33.77 34.08 35.28 35.83 36.35 36.79 37.22 37.85 38.69
46.39 45.86 46.60 46.72 44.35 45.24 41.55 44.43 44.42 44.17 43.98 44.90 44.89 43.86 43.44 43.43 42.99 42.86 42.22 41.96 40.35 36.92 31.88 37.39 37.59 38.34 38.31 36.40 35.83 35.34 34.85 32.74 32.69 32.24 32.51 33.03 33.86 34.52 34.94 35.36 35.76 36.18 36.63
46.89 45.72 46.36 43.56 42.20 44.23 44.28 43.95 43.10 43.03 42.77 43.45 43.00 42.60 42.36 42.64 41.87 41.93 42.27 41.51 39.92 38.34 34.62 36.25 37.60 37.18 35.42 34.61 34.77 34.71 33.57 33.12 33.49 32.23 31.97 32.34 32.52 32.90 33.37 33.26 33.49 33.96 34.31
46.32 45.96 44.58 42.41 42.25 43.61 43.60 42.71 42.04 41.26 41.60 41.56 41.77 41.66 41.28 40.65 41.18 41.63 40.95 40.06 38.89 38.82 35.91 33.03 35.27 33.81 32.90 33.97 33.35 31.87 31.51 32.13 32.80 31.91 31.01 31.53 31.67 31.69 32.03 32.40 32.94 33.32 33.58
45.60 43.31 41.96 41.28 43.35 43.69 42.73 41.52 41.15 42.65 41.30 41.41 41.57 40.99 40.86 40.89 39.99 40.38 39.85 38.59 38.02 36.27 35.38 33.12 32.16 33.30 32.62 32.76 31.35 31.36 31.02 31.68 31.47 30.90 30.45 30.63 30.91 31.67 31.96 32.34 32.81 33.25 33.57
42.20 43.65 42.33 41.86 42.17 41.06 42.30 41.91 41.54 41.28 41.04 40.83 41.15 40.57 40.84 40.13 39.67 39.54 38.33 37.54 36.38 34.88 33.78 31.79 31.07 30.92 31.24 31.65 30.29 28.07 28.22 30.35 29.71 30.77 31.07 30.66 30.66 31.43 31.60 32.00 32.31 32.70 32.90
41.51 41.14 41.65 42.09 41.64 41.37 41.26 40.65 41.14 41.41 40.58 40.22 40.35 40.01 40.10 39.95 38.44 38.19 37.17 36.96 35.16 33.09 32.08 30.73 29.91 29.92 29.32 29.07 27.07 28.10 26.95 28.06 29.33 30.99 30.56 31.46 32.05 32.60 33.17 32.80 33.02 32.60 32.30
41.62 42.18 40.37 40.61 40.34 41.15 37.67 37.42 37.75 39.58 39.82 38.78 39.09 39.69 39.60 36.93 36.85 35.33 33.99 33.05 33.44 33.03 31.02 30.22 29.44 27.94 28.35 28.25 27.82 27.07 26.37 25.24 24.02 31.58 29.15 28.82 31.73 31.07 32.61 33.88 32.68 31.78 31.93
41.32 40.30 40.57 41.42 40.78 40.09 37.55 37.18 36.20 38.70 39.36 39.49 39.08 38.90 38.15 35.96 34.44 36.07 33.91 33.75 31.55 29.91 30.21 31.91 28.78 28.89 28.20 27.71 27.72 26.31 26.67 26.10 25.60 28.64 28.30 26.12 30.52 29.83 32.84 33.06 32.90 32.13 32.06
40.70 40.89 41.82 40.03 38.67 38.77 36.01 35.23 34.41 38.57 38.55 38.53 38.86 38.78 38.12 37.52 36.35 34.62 33.75 33.34 33.50 33.24 32.10 30.60 30.83 30.69 29.70 29.15 28.73 27.96 27.27 27.14 27.92 28.88 29.46 23.61 29.25 28.98 31.96 33.07 33.00 32.54 32.21
41.74 39.81 38.51 38.00 39.35 38.78 34.75 34.16 34.65 36.97 37.03 37.15 37.53 37.38 36.77 36.06 34.58 32.48 31.98 31.54 31.84 31.60 30.79 29.54 29.73 29.35 27.61 27.89 28.89 28.77 26.03 25.05 23.69 25.63 28.86 26.44 27.97 27.77 30.01 31.33 34.19 32.36 31.87
38.38 39.49 38.66 38.67 36.63 36.86 34.85 33.85 34.66 36.72 35.19 35.17 36.41 35.93 32.77 34.39 32.83 31.81 32.58 31.74 29.93 30.91 30.87 29.94 29.77 28.87 28.91 29.45 28.40 29.16 28.13 24.35 23.90 23.13 28.74 24.60 25.41 26.00 24.83 31.30 32.68 33.94 34.48

GFSMA_sfc_wetblb_042.txt.gz
Wetbulb
64.00 64.78 64.59 64.28 63.37 62.50 61.76 61.02 60.20 59.54 58.97 58.54 58.14 57.21 56.48 55.65 54.74 54.24 55.44 57.04 57.32 57.36 58.17 58.41 58.79 57.48 56.40 55.31 54.36 54.68 53.43 52.95 54.45 53.41 52.46 51.84 51.67 51.36 50.94 50.71 50.55 50.63 50.79
64.77 65.24 64.30 63.06 62.00 61.92 61.47 61.03 60.36 59.74 59.04 58.19 57.09 55.77 54.14 53.48 53.65 54.26 54.40 56.68 55.88 56.62 57.20 56.99 58.97 57.39 55.97 54.09 52.89 52.89 52.29 51.64 52.76 51.93 51.58 51.43 50.46 50.11 49.90 49.59 49.30 49.29 49.85
65.71 64.97 63.60 62.35 61.64 61.64 61.44 60.72 59.83 59.26 58.07 57.60 55.51 54.46 54.71 54.37 54.17 53.62 53.88 54.83 56.08 55.19 56.25 56.13 56.40 55.30 55.02 54.48 52.24 51.79 52.48 51.94 51.12 51.82 51.25 50.73 50.27 49.95 49.43 48.67 48.54 48.39 48.52
65.59 64.34 62.74 61.76 61.56 61.24 60.99 60.31 59.27 57.86 57.61 56.95 55.69 54.87 54.88 54.54 53.63 53.76 54.57 54.46 54.24 55.03 54.34 53.94 54.10 52.97 52.41 51.80 51.85 52.05 52.47 51.93 51.90 51.77 51.49 51.00 50.75 49.86 49.24 48.59 48.12 48.07 48.09
63.95 63.59 62.64 61.80 61.78 60.82 60.14 58.86 58.12 58.48 55.48 55.37 53.99 54.47 54.50 53.65 52.61 51.90 52.64 53.48 53.37 53.83 53.84 50.39 50.24 50.44 50.15 49.64 50.04 50.83 51.10 51.01 50.73 50.65 50.67 50.33 50.40 50.08 49.17 48.54 47.77 47.89 48.06
63.13 63.35 62.52 61.62 61.17 59.53 58.37 57.66 56.60 55.46 55.71 54.69 50.61 50.99 52.84 52.43 52.11 51.71 51.10 50.86 52.23 51.68 50.65 50.17 50.81 50.35 47.91 47.78 47.90 48.34 48.52 49.36 49.77 49.61 49.54 49.26 49.17 49.10 48.62 48.09 47.71 47.87 48.14
63.82 63.27 61.98 60.75 60.07 58.70 57.91 57.00 55.29 53.88 53.42 53.83 52.37 52.21 51.95 51.48 50.85 50.60 50.67 50.39 49.66 49.63 49.77 49.13 49.54 49.66 49.59 46.41 45.51 45.84 46.91 47.93 48.21 48.00 47.38 47.34 47.35 47.49 47.55 47.67 47.65 47.88 47.94
63.12 62.23 61.16 59.69 59.10 57.72 56.54 55.58 54.43 53.01 53.25 53.73 51.12 50.32 49.50 49.43 49.55 50.12 50.27 49.71 49.31 49.73 48.43 48.27 48.40 48.33 48.66 48.64 47.75 44.14 44.31 45.38 45.82 46.17 46.38 45.99 46.40 46.65 47.01 47.28 47.22 47.43 47.56
62.31 61.29 60.26 59.36 58.11 57.26 55.60 55.00 53.71 51.52 51.31 52.26 51.02 48.76 46.19 45.63 48.11 49.70 49.29 49.36 48.71 48.60 48.33 47.94 47.48 47.70 47.54 47.42 46.24 45.93 42.03 42.18 43.90 45.14 45.76 45.75 46.10 46.34 46.51 46.67 46.81 47.12 47.14
61.29 60.08 59.04 58.26 57.47 56.63 54.84 53.69 52.13 52.63 50.18 47.70 47.15 48.34 48.76 47.89 44.46 44.25 48.06 48.13 48.79 47.08 47.42 47.66 47.33 47.45 47.21 47.02 44.76 41.30 41.53 41.05 41.17 42.27 43.38 44.42 44.67 45.17 45.54 45.75 46.11 46.30 46.50
59.51 58.67 57.89 57.35 56.28 54.83 54.02 52.33 52.02 50.64 48.41 46.87 48.44 48.53 48.54 48.25 48.10 44.50 41.96 44.43 46.97 47.31 47.53 47.05 46.90 46.95 46.96 46.48 46.17 43.69 39.18 38.58 39.15 40.00 40.85 41.93 42.98 43.74 44.28 44.71 45.10 45.19 45.39
57.29 55.99 55.68 55.56 55.20 53.49 52.46 52.04 52.30 49.82 46.40 48.03 48.99 48.67 47.22 46.27 45.34 44.27 42.91 43.62 43.30 44.95 46.78 46.39 46.13 46.32 46.24 45.43 42.56 37.68 37.81 37.76 37.09 37.65 38.48 39.27 40.14 41.03 41.60 42.30 42.90 43.36 43.65
54.25 53.61 53.55 53.21 52.72 51.48 51.65 51.88 48.23 48.57 46.55 48.94 48.51 48.00 48.30 46.99 46.81 45.60 43.57 42.46 41.59 43.95 44.39 46.63 45.54 45.54 44.93 44.95 44.41 36.67 39.56 38.03 35.90 36.16 36.71 37.34 38.04 38.81 39.41 40.13 40.82 41.61 42.18
53.44 51.97 51.69 51.73 50.75 50.55 49.75 47.96 46.07 45.32 48.19 47.38 48.23 47.82 47.25 47.81 47.33 45.71 43.40 41.80 39.75 40.97 42.64 43.05 45.71 44.59 44.12 43.81 41.40 35.69 40.51 39.37 37.12 35.64 35.24 35.66 36.25 36.57 37.21 38.07 38.94 39.61 40.29
51.25 51.03 50.67 49.38 49.63 48.65 47.65 45.19 45.65 45.13 47.27 48.47 48.06 47.73 47.08 46.68 46.42 45.91 45.17 43.81 40.85 37.19 38.31 41.61 40.94 43.75 43.38 43.07 42.49 41.36 39.89 38.77 36.19 34.77 34.27 34.26 34.84 35.51 36.07 36.83 37.27 37.64 38.36
51.41 50.56 50.22 49.55 48.89 47.36 45.83 42.90 42.84 46.86 47.16 47.98 46.37 46.13 45.81 45.63 45.67 45.41 44.49 43.97 43.23 40.51 37.06 40.76 41.06 42.22 42.38 41.56 41.40 39.66 39.08 37.25 36.42 35.72 34.05 33.55 33.88 34.35 34.72 35.07 35.37 36.08 36.35
50.92 48.70 48.46 49.03 47.28 45.07 44.18 44.09 45.92 45.18 45.81 44.26 46.21 44.76 44.16 45.11 44.59 44.49 44.19 43.61 42.40 41.64 37.44 40.23 41.31 41.97 40.96 39.53 39.34 39.50 38.84 37.78 37.16 36.02 34.58 33.48 32.82 32.74 33.08 33.40 33.62 34.12 34.65
48.22 49.27 49.91 47.82 45.31 46.72 45.45 44.37 43.98 44.58 44.56 44.49 44.42 44.93 43.94 43.85 43.88 44.14 43.32 42.58 41.85 41.97 39.39 37.06 39.54 39.52 39.50 39.38 38.36 37.32 36.54 36.32 36.30 35.87 33.95 32.66 32.33 31.95 32.15 32.66 33.07 33.52 33.83
49.09 48.90 47.78 45.34 44.88 45.51 43.84 43.90 43.86 43.51 43.85 45.22 44.82 44.33 44.05 44.14 43.21 43.32 42.71 41.90 41.66 40.54 40.29 38.08 36.91 38.98 38.48 38.16 36.97 36.85 35.94 35.70 35.90 35.23 34.66 34.33 32.94 32.64 32.48 32.54 32.98 33.27 33.61
48.12 44.78 44.99 44.76 43.92 43.29 43.19 43.33 43.20 42.90 42.63 44.13 43.96 44.13 44.20 43.83 43.32 42.80 41.98 41.77 40.82 39.69 39.33 37.81 36.73 36.28 36.44 37.00 36.17 33.79 33.13 34.70 34.03 34.94 34.98 34.28 33.35 33.33 33.12 33.24 33.23 33.41 33.56
47.05 43.87 43.09 42.26 43.86 43.44 43.14 43.80 43.43 41.24 42.19 43.48 44.00 44.20 44.38 43.37 41.25 41.17 41.57 41.39 40.71 39.10 37.77 36.36 35.31 34.88 34.49 34.28 33.14 34.01 31.43 32.84 33.62 34.75 34.16 34.88 34.90 35.02 35.73 35.37 35.00 34.74 34.03
42.67 42.23 42.98 42.34 42.53 43.65 39.07 38.12 38.70 40.07 42.39 41.82 41.98 42.94 43.67 41.33 40.08 37.57 36.69 36.46 37.38 38.25 36.83 35.83 34.66 33.22 33.73 33.87 34.29 32.25 31.13 29.88 28.30 35.37 32.75 32.07 34.56 33.62 35.10 36.20 35.10 33.82 33.33
42.00 42.08 42.50 44.53 42.93 43.36 38.37 38.33 37.63 40.86 41.18 41.77 42.07 41.74 41.53 41.70 40.07 41.77 36.47 34.74 33.68 32.87 32.39 36.42 34.21 34.06 33.50 34.21 33.87 31.05 30.94 30.44 29.77 32.54 31.82 29.63 33.63 32.31 34.89 35.55 34.99 34.62 34.14
42.12 42.90 43.53 43.19 44.63 43.36 37.55 37.80 35.60 39.77 40.69 41.19 41.21 41.28 41.02 41.45 41.96 40.91 40.10 39.32 38.54 38.22 36.54 34.70 34.83 35.66 35.76 35.39 33.56 32.07 31.32 30.97 31.85 33.01 33.28 27.60 32.51 31.54 33.69 35.38 34.56 35.18 33.78
44.80 44.18 42.29 39.71 38.76 39.62 38.19 35.83 35.28 39.98 39.41 39.76 40.28 40.57 40.57 40.30 38.38 36.94 38.30 37.83 37.39 37.00 36.41 34.17 33.71 32.52 30.83 29.05 29.35 31.34 29.22 28.73 27.82 29.55 32.59 30.16 30.68 30.25 31.40 32.62 35.28 34.61 34.42
40.05 40.97 42.21 42.96 40.19 41.41 37.84 35.81 36.04 39.00 38.21 38.39 39.68 39.73 35.77 37.09 35.58 34.52 36.89 36.34 35.37 35.82 36.33 36.12 33.63 31.82 31.15 32.27 29.09 30.85 30.75 27.84 28.00 27.13 31.75 28.76 29.10 29.04 26.51 31.34 32.88 34.02 35.45

GFSMA_sfc_wetblb_045.txt.gz
Wetbulb
65.78 65.00 65.14 65.26 64.92 64.79 63.90 62.83 62.08 61.26 60.72 60.19 59.41 58.65 56.92 55.54 55.08 54.59 56.49 57.32 56.94 56.78 56.67 58.52 59.68 58.53 57.36 56.03 55.04 55.74 53.46 53.17 54.25 53.03 52.54 51.92 51.32 50.89 50.69 50.32 50.14 50.14 50.52
65.84 64.66 64.70 64.76 64.45 64.24 63.66 62.74 62.02 61.16 60.40 59.33 58.26 56.93 54.98 54.57 54.95 54.91 54.63 55.89 56.63 56.89 57.35 56.57 60.20 58.46 57.38 55.44 54.22 53.75 52.50 52.28 52.63 51.83 52.29 51.84 50.66 50.20 50.46 49.44 49.50 49.09 49.22
66.62 66.15 65.24 64.34 63.96 64.15 63.66 62.96 62.11 61.42 59.59 58.55 56.90 55.61 54.81 54.48 54.51 54.11 54.03 55.23 55.39 56.33 56.88 56.71 58.11 57.90 56.90 55.58 53.43 52.57 53.20 52.65 51.76 52.32 51.78 51.31 51.66 51.31 50.70 49.06 49.01 48.90 48.79
66.05 65.86 64.71 64.28 64.01 63.47 62.91 62.19 61.43 59.99 58.47 57.86 56.41 55.64 55.27 54.80 53.98 53.61 54.41 54.37 54.28 54.97 55.31 55.12 54.58 53.74 53.20 52.92 52.84 52.87 53.04 52.60 52.45 51.92 51.52 51.32 51.46 51.40 50.55 49.32 49.03 48.72 48.63
66.69 65.81 64.68 64.37 64.06 63.04 62.43 61.95 60.65 59.66 57.24 55.80 55.03 54.68 55.22 54.24 53.74 52.51 53.04 53.55 53.58 52.93 53.49 53.53 53.10 51.63 50.67 50.09 50.24 50.93 51.41 51.18 50.86 50.96 50.94 50.83 50.61 50.35 50.37 50.03 49.70 48.83 48.40
65.79 65.07 64.71 64.22 63.47 62.50 61.67 60.92 59.77 58.35 56.74 55.89 52.68 52.20 54.56 54.48 53.78 52.96 52.41 52.01 51.85 51.67 51.20 51.24 51.50 51.41 50.60 49.25 47.54 47.40 48.37 48.89 49.45 49.60 49.48 49.25 48.74 48.35 48.43 48.69 48.71 48.63 48.63
65.37 64.76 64.39 63.73 63.10 62.00 61.16 60.42 58.56 56.28 54.87 54.67 53.08 54.81 55.28 54.56 53.10 52.66 52.45 51.77 51.16 50.78 50.78 50.13 50.06 49.88 49.51 48.40 48.37 45.96 46.36 47.27 48.14 48.31 48.22 48.05 47.46 47.36 47.59 47.81 48.19 48.46 48.63
65.60 64.68 64.51 63.15 62.65 61.19 60.51 59.03 57.41 55.44 55.10 54.28 53.32 53.28 51.02 51.40 52.19 52.21 51.94 51.33 51.28 51.11 49.79 50.18 49.50 49.28 49.20 48.98 48.48 46.31 44.93 44.41 45.31 46.56 46.97 46.93 47.16 47.06 47.45 47.88 48.02 48.17 48.41
65.68 64.86 64.39 63.07 62.00 61.42 58.82 57.92 57.00 55.83 52.72 54.16 54.52 50.34 46.22 47.12 49.27 52.27 51.08 51.45 51.39 49.98 50.16 49.60 49.18 48.80 48.64 48.43 48.19 47.34 43.31 43.19 43.31 44.37 45.05 45.65 46.09 46.49 46.78 47.06 47.18 47.56 47.58
64.93 64.18 63.01 62.44 61.20 60.18 59.16 57.90 56.85 55.75 54.51 52.87 51.82 51.33 51.10 50.39 45.97 45.48 50.52 50.46 50.34 49.19 49.82 48.86 48.76 48.60 48.57 48.06 48.59 43.78 42.84 41.60 41.02 41.76 42.94 44.10 44.58 44.99 45.54 45.97 46.27 46.59 46.87
63.98 62.91 62.21 61.39 60.33 59.39 58.96 57.72 55.62 54.52 53.91 51.12 51.54 51.13 50.77 50.46 49.94 46.70 44.43 47.06 49.25 49.01 49.12 48.51 48.18 47.78 47.83 47.64 47.35 43.33 40.77 38.86 38.76 39.98 41.55 42.48 42.84 43.02 43.48 43.77 44.03 44.35 44.58
62.38 61.89 60.92 60.33 59.94 58.32 57.32 55.85 54.60 53.31 51.15 50.65 48.17 49.88 49.27 47.24 47.55 46.96 45.06 45.48 45.49 47.26 48.29 48.11 47.60 47.26 47.24 47.10 44.77 41.52 39.52 38.25 37.74 38.62 39.54 40.13 40.68 41.00 41.43 42.02 42.47 42.81 43.13
60.14 60.01 59.82 58.14 56.43 55.12 55.68 54.29 51.98 50.55 49.07 46.49 48.45 49.88 49.65 49.18 48.79 47.27 45.58 44.07 43.07 45.28 45.78 47.46 47.67 47.22 46.11 46.27 45.78 40.59 41.49 39.61 39.48 38.41 38.23 38.41 38.77 39.07 39.61 40.12 40.44 41.21 41.85
58.65 59.34 57.03 54.02 53.20 53.41 52.04 50.75 50.29 48.16 46.89 47.53 47.81 49.03 48.69 48.47 48.69 47.46 45.52 43.11 40.44 41.75 43.28 43.75 46.58 46.63 46.21 45.51 42.93 40.51 42.58 41.41 40.20 37.89 37.06 37.41 37.30 37.28 37.49 38.06 38.58 39.24 40.16
58.50 56.21 53.04 51.43 51.60 50.24 50.97 51.08 47.81 45.15 48.47 47.86 46.34 48.96 47.65 48.07 48.17 47.35 46.24 44.54 41.79 37.39 38.41 42.19 42.26 45.64 45.00 45.00 44.44 43.83 42.90 41.68 40.28 38.14 37.76 36.60 36.13 36.22 36.28 36.65 36.98 37.54 38.16
56.10 52.84 51.78 50.92 50.75 50.93 50.64 48.45 47.40 46.57 45.75 48.15 46.68 46.40 47.09 47.97 47.02 46.41 45.81 45.11 43.70 41.00 38.09 41.54 41.85 43.88 44.54 43.07 43.78 42.39 41.55 41.23 39.67 39.05 38.38 36.91 35.42 35.25 35.33 35.44 35.49 35.78 36.36
54.06 52.63 52.18 50.32 48.81 49.45 47.64 46.56 44.69 45.29 46.22 45.90 45.66 45.88 46.12 46.38 45.89 45.86 46.00 44.40 42.99 42.08 39.18 41.48 42.55 44.16 43.38 42.72 42.44 42.38 41.43 40.25 40.01 39.15 37.92 36.64 35.48 34.53 33.94 33.96 33.99 34.38 34.71
55.77 53.52 50.69 48.24 49.12 47.99 45.48 43.95 44.83 44.81 45.33 44.30 44.03 44.69 44.81 45.25 45.88 44.82 44.40 43.97 43.16 43.48 40.94 39.11 41.51 41.44 41.95 42.68 42.30 40.42 39.10 39.02 38.49 38.21 37.98 36.14 35.29 35.01 33.97 33.80 33.57 33.61 33.93
52.03 49.52 48.80 49.50 46.56 45.79 44.91 43.88 44.33 43.80 43.85 44.00 44.01 44.69 44.56 45.31 44.53 44.84 44.17 43.89 43.42 42.15 42.46 40.45 39.34 41.59 41.18 41.42 39.75 39.84 39.15 38.44 37.95 38.51 37.84 36.46 36.13 35.29 34.53 34.58 34.28 34.12 34.11
49.40 49.81 48.40 45.38 45.89 44.65 43.74 43.92 43.19 42.85 43.10 43.92 43.63 45.30 45.29 44.25 43.92 44.09 44.66 44.32 42.96 42.46 41.85 40.26 39.29 39.16 39.55 40.18 38.80 36.50 35.90 37.89 35.82 36.25 37.01 36.06 36.49 36.34 36.40 36.11 35.68 34.83 34.77
48.66 46.16 45.26 45.33 43.94 43.11 43.33 42.98 43.21 44.47 43.85 43.01 42.68 44.07 44.97 44.25 42.13 42.02 43.00 43.88 43.34 41.60 40.76 39.55 38.11 38.23 37.63 36.86 35.46 36.63 34.63 35.13 35.17 36.21 35.61 35.76 36.07 36.03 36.42 36.79 36.86 36.84 36.34
47.52 45.74 42.58 43.13 43.18 43.88 40.83 39.33 40.33 44.06 41.99 41.33 41.28 43.59 44.32 42.18 42.37 38.84 38.67 38.08 38.53 40.04 39.66 38.60 37.80 36.34 37.06 36.93 37.07 35.50 34.23 31.76 29.03 36.21 34.09 33.08 35.22 34.27 35.67 36.36 36.13 34.45 34.48
45.88 44.60 44.12 44.41 44.13 45.70 38.91 38.69 37.86 41.13 40.52 40.71 42.15 42.22 41.91 42.23 40.92 42.52 39.40 36.64 36.44 35.52 34.90 37.55 36.31 37.25 36.46 37.29 36.33 34.18 33.63 31.87 30.80 33.35 33.09 30.95 34.40 33.41 35.46 35.41 35.79 35.58 35.33
45.53 45.19 45.20 45.50 45.21 42.86 38.35 38.26 37.19 40.94 41.97 41.63 41.65 41.59 41.57 41.72 42.11 41.28 41.58 41.44 41.44 41.31 39.59 37.24 36.73 37.29 38.50 38.74 37.30 35.53 33.80 32.05 32.39 33.58 34.54 29.03 33.38 32.17 34.35 34.88 34.93 35.40 35.63
45.48 44.93 42.73 42.82 42.31 43.72 38.60 37.69 38.07 40.84 40.14 40.01 40.63 40.87 40.90 40.86 38.98 37.79 38.45 38.91 39.58 39.92 39.28 37.35 36.94 36.49 32.09 30.63 30.65 34.03 30.53 28.90 28.95 29.65 33.58 31.45 31.56 31.28 32.71 32.76 34.92 34.08 33.72
44.36 44.31 43.79 43.99 40.71 42.30 38.04 36.94 37.14 39.46 37.91 38.26 39.17 39.97 37.23 38.18 36.14 35.57 37.95 37.09 35.66 37.55 38.95 38.55 37.71 35.60 33.07 33.73 30.81 31.06 31.01 28.28 28.64 28.36 32.44 29.91 29.48 29.43 26.98 31.70 32.78 33.92 34.81

GFSMA_sfc_wetblb_048.txt.gz
Wetbulb
62.00 61.50 61.64 61.76 61.38 61.89 59.97 60.47 59.39 58.58 57.86 57.26 56.36 55.38 53.08 51.64 51.38 51.52 51.43 56.86 57.54 56.26 56.11 60.11 60.08 59.29 58.03 56.60 56.42 55.52 53.76 54.68 53.99 53.01 52.70 52.34 51.42 50.94 50.83 50.22 50.23 49.88 50.10
62.30 62.70 63.66 63.30 63.20 61.96 61.32 59.99 58.91 58.15 57.60 56.11 54.93 52.94 51.81 51.16 50.91 50.51 51.37 52.17 56.76 57.89 56.88 56.35 59.95 59.76 58.44 56.63 54.83 55.02 52.83 53.12 52.72 51.90 52.74 51.51 51.03 50.70 50.96 50.18 49.57 49.59 49.54
62.96 63.66 62.38 62.95 61.59 61.96 61.35 60.34 58.88 58.52 56.56 56.35 53.95 51.85 51.73 50.78 50.84 50.26 50.08 51.05 53.29 56.98 57.76 58.73 59.18 59.01 58.00 56.45 54.54 53.53 53.72 52.76 52.43 52.33 52.43 52.13 51.52 51.75 51.18 50.49 49.41 49.32 49.35
63.51 63.13 63.28 62.07 62.13 61.36 60.30 59.44 58.14 56.94 56.17 54.27 51.81 50.94 50.48 50.47 49.93 49.74 50.47 49.95 50.97 52.98 55.76 57.02 56.26 55.27 54.39 54.27 55.23 53.81 53.52 53.23 53.10 52.17 51.72 51.40 51.24 51.27 51.20 50.89 50.41 50.13 49.57
64.51 63.79 62.93 62.58 61.88 60.64 60.01 59.54 58.43 57.24 54.24 52.33 52.13 50.57 50.05 49.93 49.71 51.08 49.50 49.83 49.02 48.88 51.46 55.53 55.13 54.25 52.96 52.24 51.66 51.30 51.42 51.57 51.14 50.87 50.78 50.52 50.55 50.01 49.65 49.47 49.55 49.59 49.46
64.66 63.77 62.92 61.97 60.93 60.21 59.40 58.65 57.00 55.91 54.13 52.35 52.87 50.10 50.21 50.55 50.00 48.69 48.81 49.79 48.39 47.90 47.26 48.40 49.46 49.74 53.73 52.85 51.94 50.93 49.76 49.76 49.38 49.34 49.65 49.38 49.10 48.80 48.38 48.38 48.56 48.71 48.96
64.38 63.47 62.51 61.94 60.54 59.89 58.91 58.72 56.48 53.83 50.97 50.60 47.82 49.19 50.43 51.00 49.76 48.83 48.66 47.81 47.84 47.49 46.62 45.82 45.39 45.03 48.46 51.58 50.14 47.96 47.58 47.77 47.49 47.97 48.20 48.24 48.17 47.88 47.81 47.97 48.32 48.81 49.08
63.87 63.07 62.11 61.21 60.31 59.68 58.87 57.27 55.48 52.31 52.16 51.16 48.05 48.71 46.43 47.06 48.31 49.30 48.00 47.76 46.41 47.23 47.39 47.14 45.96 45.32 44.42 44.16 44.92 47.38 46.94 45.78 45.22 45.48 46.21 46.86 47.05 47.37 47.52 47.75 47.85 47.99 48.26
63.54 63.09 62.36 61.75 60.61 59.90 57.80 56.48 55.42 53.24 49.85 49.52 49.86 47.64 43.75 43.25 43.50 47.35 47.17 47.08 47.12 46.10 45.53 46.20 46.10 45.90 44.99 43.79 45.74 45.96 45.30 44.67 44.23 43.78 44.16 44.61 45.24 46.00 46.31 46.52 46.78 46.85 46.96
63.14 63.39 63.05 61.86 60.43 59.02 57.25 56.11 55.60 53.35 51.45 48.66 49.05 49.85 48.94 47.39 41.12 39.87 45.27 45.96 46.90 46.08 45.14 45.31 44.45 45.16 44.82 43.79 47.22 44.80 44.23 42.96 42.30 41.87 42.27 43.55 44.78 45.14 45.08 45.08 45.28 45.52 45.75
63.38 62.85 62.24 61.06 59.75 59.01 58.00 56.30 55.01 53.98 50.93 48.96 49.24 47.86 48.57 48.40 45.95 42.60 39.26 42.33 44.91 45.11 45.24 44.93 43.84 43.49 44.28 44.03 41.80 43.19 43.03 41.59 40.95 40.31 41.13 42.16 42.57 43.24 43.07 43.17 43.25 43.64 44.04
61.84 61.32 61.42 59.80 59.29 58.03 57.42 56.39 54.31 52.37 48.65 48.68 47.89 46.67 45.92 45.35 44.49 43.95 41.99 41.08 40.57 43.02 45.39 45.05 43.08 42.77 43.15 42.77 44.72 43.81 42.28 40.79 40.07 40.39 40.25 40.46 40.94 41.76 41.79 41.90 42.20 42.59 42.73
59.13 59.20 59.89 58.58 57.44 56.91 54.97 53.27 51.41 50.37 48.17 46.66 46.09 45.89 47.06 46.03 46.39 45.03 42.98 40.38 39.15 41.23 41.35 42.39 42.72 42.99 44.48 42.81 42.12 41.89 41.71 41.09 40.76 40.50 40.02 39.48 39.83 40.30 40.31 40.03 40.49 41.08 41.40
59.16 58.32 58.05 57.25 55.03 53.53 51.87 50.57 49.58 48.42 46.72 45.55 44.16 46.70 45.86 44.77 46.21 45.52 42.37 40.35 36.79 37.82 39.04 39.95 41.89 43.11 42.56 41.26 40.18 44.03 40.69 41.73 41.46 41.43 39.45 38.95 39.13 39.34 38.22 38.21 38.58 39.32 39.78
58.86 57.74 57.05 52.92 51.94 50.57 49.60 48.64 47.18 45.06 45.08 46.02 45.98 45.57 44.69 45.67 46.14 45.29 44.43 42.38 38.77 33.71 34.89 38.23 38.44 41.03 40.61 40.41 40.58 38.63 37.99 42.87 41.32 40.19 38.99 39.31 39.47 38.66 37.59 37.45 37.45 37.81 38.04
57.91 55.74 52.60 51.52 50.10 49.01 49.48 47.06 45.46 44.84 45.21 45.48 45.73 44.87 44.74 45.28 45.31 45.11 42.15 42.33 40.66 37.14 33.00 37.16 37.33 38.72 39.30 41.19 41.33 39.05 37.94 42.25 40.90 40.15 40.02 40.06 39.77 37.95 36.90 36.59 36.58 36.32 36.71
54.45 52.25 51.39 50.44 49.29 48.64 48.07 46.25 44.86 44.07 44.08 43.51 45.30 44.58 44.44 44.97 44.31 42.46 42.14 40.88 39.77 38.90 35.26 35.70 37.84 37.82 37.66 37.97 38.34 38.45 39.30 36.22 35.82 40.31 39.75 39.32 38.86 37.60 36.43 36.12 35.69 35.77 35.75
52.79 51.65 51.04 49.84 48.73 47.88 47.09 45.17 42.86 42.92 44.59 43.49 43.64 44.13 43.80 44.60 42.07 43.15 41.12 39.99 39.26 38.71 36.25 33.60 34.91 35.45 35.87 36.48 36.26 35.29 37.96 38.19 34.66 39.25 39.25 39.02 38.27 37.28 36.82 36.18 35.84 35.66 35.52
53.19 50.63 49.43 47.87 47.51 46.25 44.92 43.29 43.88 44.02 43.35 43.45 43.62 43.08 43.13 43.29 42.88 42.16 42.46 40.19 40.00 41.26 38.54 34.67 33.19 35.37 34.97 35.21 34.44 35.09 34.31 33.57 36.92 39.85 39.06 38.48 38.50 37.90 37.28 37.04 36.44 36.55 36.53
47.90 47.30 47.79 47.03 45.22 44.15 44.12 44.47 43.66 42.75 42.39 42.83 43.20 42.99 43.17 43.02 42.80 42.13 41.19 39.51 40.24 39.32 39.27 36.08 35.08 33.43 33.18 34.48 33.67 31.21 29.66 31.37 31.19 36.05 36.45 35.81 36.70 37.54 38.05 37.82 37.13 37.23 37.26
48.26 45.87 44.74 44.22 44.19 43.55 43.43 43.05 42.80 41.86 41.36 40.97 42.20 42.87 42.53 42.70 42.16 41.35 41.23 38.20 37.02 37.00 36.13 34.42 32.18 31.58 31.12 30.76 30.27 30.65 29.95 29.60 29.43 29.96 28.65 29.32 29.67 29.94 30.62 34.92 36.44 37.99 37.64
45.52 44.67 43.60 42.50 41.19 43.01 40.04 40.74 41.22 41.91 42.21 41.23 40.23 41.33 41.33 41.44 41.29 38.98 38.45 38.33 38.24 36.63 35.37 34.83 34.83 33.38 31.00 30.75 30.68 30.39 29.03 26.29 24.47 29.52 27.31 26.50 28.73 27.81 30.51 30.35 35.61 35.61 35.15
44.25 42.54 42.15 42.49 42.77 43.08 39.42 39.09 38.08 40.42 40.33 40.38 39.94 39.78 40.57 40.97 38.17 38.71 37.85 36.88 35.69 36.26 36.25 36.21 33.90 33.81 33.22 33.23 31.95 31.20 29.31 27.58 25.71 27.08 26.45 24.38 26.51 27.18 29.94 33.42 35.53 35.52 35.34
43.23 42.89 42.67 43.68 43.78 40.94 38.77 38.75 37.87 39.38 39.04 39.14 38.71 37.82 36.77 36.66 37.21 36.97 35.49 33.78 34.94 35.97 36.74 36.07 34.37 34.86 35.23 35.26 33.00 32.26 31.12 29.39 26.51 26.97 27.42 23.94 26.30 25.56 27.88 29.10 34.83 35.05 35.22
44.33 43.68 43.17 42.59 41.18 41.68 38.01 37.86 37.27 37.95 37.03 36.11 37.81 36.83 37.08 35.99 36.68 36.27 34.23 33.35 34.10 34.71 37.37 37.39 37.42 37.07 36.44 35.54 33.10 30.15 26.54 27.18 24.04 25.38 26.94 25.45 26.10 24.84 25.34 25.36 27.04 34.44 34.20
43.21 43.12 42.90 42.55 38.72 39.00 37.16 35.79 35.74 34.19 32.41 31.00 32.88 34.21 34.50 34.53 34.60 34.77 32.17 31.91 31.11 32.34 34.51 34.19 34.06 33.75 33.18 32.64 32.83 31.25 28.31 28.04 26.56 24.62 27.88 25.44 25.06 23.01 19.93 24.82 25.69 26.72 26.88

GFSMA_sfc_wetblb_051.txt.gz
Wetbulb
59.52 59.56 59.47 58.91 58.03 57.11 54.94 55.95 56.78 56.50 55.31 54.59 53.13 51.28 49.74 48.72 49.73 49.93 50.02 57.42 57.94 57.74 57.99 61.11 60.09 59.71 58.60 57.52 57.17 55.20 53.99 55.40 53.75 52.99 52.74 52.51 51.33 51.11 51.49 50.70 50.43 50.20 50.18
60.86 59.58 59.90 59.85 58.34 58.63 57.39 57.60 56.77 55.55 54.86 53.38 51.52 49.74 49.02 48.61 47.93 49.44 48.87 50.63 56.74 57.74 57.18 57.43 60.11 60.36 59.11 57.39 56.50 55.63 53.58 53.90 53.12 51.80 52.09 51.22 51.23 51.23 51.68 50.86 49.17 49.26 49.72
60.63 60.83 61.18 60.84 61.44 59.50 58.76 57.08 56.57 55.44 53.80 54.03 51.35 49.56 49.23 48.35 48.15 47.98 49.13 49.30 52.31 56.57 58.13 59.65 58.30 60.38 59.20 57.68 55.81 54.89 54.01 53.28 53.01 52.33 51.91 51.37 51.28 51.54 51.51 51.53 50.01 50.20 50.34
61.92 60.51 59.82 59.88 59.83 59.33 57.98 56.76 55.99 54.66 53.44 51.53 48.91 47.92 48.00 47.91 47.54 47.86 48.33 49.63 49.59 52.90 55.71 57.48 59.00 58.37 57.88 57.51 56.47 55.18 54.46 54.15 53.86 52.19 51.14 50.58 50.83 50.77 50.50 50.33 50.22 50.18 50.23
62.32 60.25 61.11 60.01 59.51 58.16 57.39 57.12 55.78 54.75 52.74 50.34 49.02 47.82 47.23 47.36 46.77 49.09 47.93 47.86 46.81 50.47 51.13 56.03 56.08 55.65 54.88 54.19 54.96 54.59 53.56 52.82 51.91 51.33 50.41 50.07 49.94 49.53 49.14 49.15 49.02 49.06 49.19
61.52 61.70 60.96 60.16 59.29 57.75 57.02 56.51 55.43 54.33 52.16 49.92 51.69 48.67 46.50 46.99 47.15 46.27 46.23 48.08 46.93 47.39 49.27 50.07 49.95 49.97 54.53 54.45 53.81 53.46 52.30 51.36 50.79 49.47 49.15 49.19 49.10 48.78 48.56 48.49 48.32 48.41 48.80
62.02 61.35 60.51 59.82 59.17 57.60 56.69 56.17 54.73 52.49 49.28 47.71 45.66 45.30 46.08 46.67 47.05 46.51 46.15 45.52 45.57 45.39 44.68 45.51 44.27 43.68 47.77 54.68 52.89 50.82 50.19 49.64 48.03 47.89 47.72 47.72 47.76 48.15 48.19 48.15 48.21 48.37 48.40
61.95 61.44 60.35 59.21 58.44 57.67 56.97 55.77 53.28 50.03 48.95 47.20 44.84 45.89 43.91 45.72 46.52 46.85 45.75 45.49 44.01 44.99 44.87 44.84 44.17 43.65 44.73 43.94 44.29 49.99 48.79 47.83 47.02 46.18 45.92 45.83 45.83 46.06 46.76 46.76 47.14 47.41 47.71
61.79 61.67 60.63 59.72 58.18 57.84 56.22 54.42 52.69 50.50 48.23 47.77 47.54 46.69 42.17 41.35 41.75 44.60 45.72 45.34 43.89 43.39 43.82 44.37 44.28 43.94 42.94 42.15 46.81 48.10 48.56 47.19 46.91 45.89 44.37 44.08 44.46 45.15 45.95 46.12 46.26 46.19 46.32
61.24 61.81 61.06 59.95 58.41 58.52 56.71 54.97 54.62 52.57 51.57 48.10 48.30 48.30 45.64 45.67 40.65 39.13 45.13 45.64 44.37 44.27 43.21 42.88 43.50 43.67 43.23 41.94 44.75 45.58 46.75 46.24 45.54 45.36 44.48 43.77 44.04 44.43 44.58 44.65 44.61 44.53 44.70
60.55 60.63 60.42 59.82 58.76 59.24 58.04 56.16 54.55 53.28 52.30 49.73 48.07 47.52 46.07 47.25 46.57 42.91 38.29 42.53 43.90 43.63 43.30 42.96 43.10 41.87 42.73 41.94 41.59 44.50 45.91 44.55 44.74 44.81 44.44 43.65 43.15 43.08 42.99 43.30 43.24 43.56 43.77
60.32 61.55 61.38 59.69 59.37 57.72 57.29 55.62 53.60 52.96 50.36 49.29 47.96 47.00 46.37 45.18 44.89 44.15 41.95 39.30 41.06 40.37 43.16 43.41 42.39 41.46 41.25 40.85 44.09 45.38 45.06 43.78 43.85 43.58 43.54 43.33 42.52 42.11 42.41 42.74 42.60 42.41 42.64
57.56 58.74 59.58 58.46 57.88 57.02 55.82 54.26 51.76 49.54 49.15 48.46 47.37 46.32 46.79 46.20 46.29 44.76 40.72 38.44 39.75 38.39 39.76 41.57 42.85 41.38 42.45 40.47 41.92 44.79 44.60 42.80 42.77 42.96 43.34 42.40 41.81 41.69 41.75 41.52 41.08 40.73 41.05
58.46 58.13 58.20 57.37 56.00 54.97 52.74 51.44 49.96 48.84 48.49 47.39 45.52 45.86 46.87 45.53 45.55 44.71 42.38 40.61 35.60 35.45 36.43 37.93 40.31 40.00 40.27 39.19 41.29 44.93 41.72 42.11 42.28 42.79 42.56 41.87 41.32 41.06 40.75 39.89 39.33 39.18 39.64
56.26 56.08 57.02 55.29 54.58 51.95 50.44 49.79 48.64 47.67 47.38 45.13 44.50 45.57 44.91 45.10 45.43 45.44 44.74 41.84 37.86 31.99 32.10 35.22 35.84 39.08 38.36 39.19 39.69 40.93 38.25 42.19 42.32 42.12 41.86 41.89 40.97 40.79 40.52 39.29 38.65 38.36 38.40
56.26 55.24 55.16 53.44 51.70 50.05 49.01 48.07 46.85 45.83 45.27 44.74 45.44 43.83 44.71 45.24 45.60 45.33 44.58 42.40 39.31 35.64 33.32 35.19 35.80 36.55 37.84 39.92 39.35 39.50 37.32 41.62 42.41 41.17 40.66 40.64 40.82 40.90 40.01 38.86 38.11 37.80 37.70
54.84 54.16 52.29 51.59 49.85 48.83 48.17 46.46 45.46 44.68 45.16 44.30 44.31 43.85 44.15 44.92 44.25 44.23 41.61 39.42 37.76 36.56 33.22 34.28 35.32 36.46 34.99 35.73 37.67 37.84 38.35 37.75 37.31 40.95 39.97 40.39 40.45 40.11 39.88 39.22 37.81 37.47 37.15
53.44 52.01 51.50 50.31 48.87 48.08 46.95 45.62 44.10 43.78 43.81 43.67 43.67 43.85 43.84 44.60 42.69 40.95 40.24 39.20 37.78 39.02 36.20 35.22 33.91 34.23 34.52 35.11 34.88 33.95 37.08 38.56 35.60 38.88 40.82 40.15 39.72 39.20 38.76 38.19 37.55 37.61 37.04
52.17 51.12 50.40 49.22 48.05 47.21 46.00 44.86 43.36 43.86 44.14 43.79 43.55 43.28 43.08 42.90 41.38 42.29 42.68 41.59 41.54 41.36 39.44 37.48 37.43 34.39 36.16 34.63 34.37 33.41 33.96 33.90 35.24 38.97 39.36 39.00 39.29 39.42 39.30 38.09 37.93 37.64 37.42
50.46 49.21 48.85 47.91 47.13 45.84 44.49 43.93 43.79 43.61 43.61 43.17 43.15 42.81 42.86 41.81 41.78 41.27 40.19 39.03 38.50 35.56 36.10 37.36 36.58 36.37 33.43 36.73 34.04 33.59 31.25 31.81 30.72 35.43 37.13 34.87 35.85 37.19 38.61 38.70 38.60 38.46 38.25
48.04 47.61 46.13 44.86 44.36 44.11 43.76 43.68 43.77 42.70 41.67 41.22 41.88 42.39 42.09 42.35 41.75 40.13 40.46 39.21 35.21 35.17 34.97 33.94 33.81 31.26 31.04 31.64 31.78 33.10 31.54 29.73 31.03 28.82 29.24 27.88 28.15 28.23 29.25 33.43 35.06 37.11 37.05
45.34 44.36 43.60 43.45 42.72 43.05 39.95 40.42 41.44 40.84 41.12 40.62 39.63 41.22 41.25 40.78 40.06 39.05 38.76 38.25 37.21 34.08 32.08 31.18 32.91 32.59 33.32 28.97 29.26 30.26 29.89 28.75 28.16 30.40 28.33 26.90 27.71 26.57 27.92 28.06 33.55 35.61 35.82
40.79 39.97 39.56 40.11 40.09 40.62 39.21 39.13 38.28 39.85 39.69 39.80 39.55 38.90 38.30 40.68 37.14 35.58 34.95 34.80 33.90 35.07 35.08 31.97 31.12 32.17 32.73 33.00 30.25 30.56 31.75 31.39 31.49 32.09 26.37 23.56 25.07 25.02 27.17 31.76 34.89 36.07 35.34
39.74 39.46 39.69 40.11 40.11 39.79 38.42 38.55 37.57 38.95 36.76 36.66 36.49 36.34 33.90 32.96 33.69 34.25 32.83 31.33 32.08 33.42 33.95 34.25 31.61 32.57 33.40 34.52 34.14 34.39 33.52 33.08 30.54 28.11 26.74 22.33 23.92 24.15 26.47 27.01 32.56 34.77 34.58
40.24 39.90 40.37 39.63 40.06 40.06 38.00 37.66 36.86 35.50 34.74 32.49 34.30 32.72 32.81 31.56 34.16 33.48 29.30 26.86 26.53 27.49 32.66 35.08 35.34 35.63 34.93 34.90 34.86 33.32 29.49 29.96 28.27 25.73 28.02 24.92 26.06 25.07 24.77 24.21 26.30 32.61 33.67
42.14 41.03 40.48 40.32 36.90 34.20 34.87 35.59 33.74 29.25 27.69 26.55 28.64 30.40 31.56 30.92 31.79 31.34 26.94 25.34 24.10 24.84 25.32 26.70 29.15 30.79 32.27 33.07 34.88 33.71 32.36 28.00 28.11 26.06 27.46 24.81 24.61 23.28 19.59 23.25 24.82 25.44 24.58

GFSMA_sfc_wetblb_054.txt.gz
Wetbulb
57.59 58.27 58.39 57.41 56.66 56.27 53.60 54.08 55.25 55.04 53.14 52.98 51.07 49.45 47.95 48.46 48.30 49.39 50.08 58.15 59.71 60.89 61.23 61.17 60.74 59.85 58.77 58.11 56.41 55.05 55.97 54.91 53.64 52.93 52.97 52.05 51.12 50.67 52.35 50.70 50.03 49.87 50.22
57.87 57.54 57.31 56.41 55.90 56.26 54.45 55.31 55.33 54.20 53.13 51.62 49.20 48.34 47.78 48.16 48.61 47.80 48.62 50.51 56.49 57.58 58.31 59.40 60.98 60.65 59.46 57.96 57.25 55.03 54.08 54.22 52.95 51.90 51.72 52.41 51.45 51.47 51.56 51.23 49.56 50.27 50.24
58.80 58.05 58.54 58.62 57.65 56.98 56.27 56.40 55.38 54.52 52.92 52.55 49.38 48.01 47.52 46.82 48.16 48.18 47.42 48.70 52.27 56.32 57.84 59.02 58.47 60.18 59.82 58.38 56.64 56.13 54.11 53.84 53.26 53.04 51.69 51.11 50.93 51.34 51.44 51.02 51.22 51.18 50.91
60.19 59.66 59.68 60.11 59.83 58.93 57.21 55.90 55.29 54.21 52.39 51.50 48.29 46.87 46.63 46.74 46.31 46.30 48.36 48.77 49.00 52.38 55.92 58.73 60.68 60.70 59.60 58.85 57.69 56.34 55.48 54.89 54.35 53.81 51.09 50.45 50.39 50.21 49.92 49.63 49.74 49.68 49.62
61.29 59.76 59.85 59.29 59.25 58.10 56.83 56.72 54.75 53.83 51.77 49.99 48.56 46.67 45.86 45.83 45.59 47.55 47.27 48.60 48.01 50.22 50.72 56.44 57.12 56.93 57.60 57.24 57.82 57.45 56.77 54.80 53.08 52.21 51.54 49.72 49.56 49.28 49.01 48.86 48.99 48.95 48.93
59.89 59.86 59.76 59.31 59.16 57.00 55.77 55.16 54.38 53.76 52.51 50.72 50.82 48.53 45.02 45.52 45.05 44.87 45.56 47.45 46.48 49.10 49.92 50.67 50.70 51.05 55.35 55.86 55.05 55.16 55.07 54.05 52.36 50.82 48.92 48.66 48.41 48.52 48.41 48.67 48.68 48.64 48.97
59.55 59.08 60.01 58.94 58.48 57.50 56.51 55.55 54.32 52.94 49.71 48.33 45.55 44.39 44.86 45.38 45.00 44.48 44.24 44.57 45.24 47.67 47.62 47.86 47.33 46.23 48.02 55.38 54.08 54.11 53.97 52.03 50.17 48.78 48.85 47.63 47.09 46.47 46.66 47.07 47.42 47.44 47.65
59.77 59.84 59.57 59.01 58.32 57.18 56.03 55.17 53.49 50.20 49.72 46.46 45.45 46.00 45.37 45.71 45.74 45.91 44.26 44.61 43.07 43.63 44.25 45.84 44.60 43.92 43.02 47.48 48.29 53.64 52.03 50.85 50.42 49.94 48.56 47.40 45.97 45.36 45.53 46.12 46.52 46.78 47.22
59.49 59.96 59.75 58.73 57.56 56.92 56.18 54.82 53.03 51.37 50.21 48.86 48.20 47.79 44.05 42.84 41.35 43.21 44.91 44.37 43.64 42.70 42.92 43.01 43.13 43.04 43.20 43.43 46.96 49.41 51.43 50.64 50.41 49.94 49.09 47.28 46.06 45.39 45.22 45.42 45.60 45.69 45.83
59.69 60.52 60.48 58.85 57.75 57.88 56.39 55.51 54.32 52.20 52.52 49.43 47.80 48.70 47.32 46.29 42.58 41.58 44.86 44.69 44.97 44.54 42.30 42.15 42.68 42.38 41.83 41.29 44.77 46.95 48.84 48.32 49.52 49.38 48.71 47.64 46.53 45.33 44.79 44.62 44.54 44.72 44.69
59.91 60.54 60.14 58.78 58.15 58.18 58.45 56.71 55.05 53.04 52.55 50.21 48.70 46.72 47.45 46.69 45.90 43.10 40.29 41.69 44.66 44.93 43.77 42.32 43.62 41.72 42.27 41.14 41.29 44.45 47.89 46.91 47.68 48.22 48.16 47.65 46.69 45.67 44.73 43.96 44.20 44.43 44.34
59.17 59.81 60.47 59.39 58.39 58.38 58.04 57.85 55.95 54.46 51.84 50.19 49.72 48.83 47.85 46.40 45.85 44.79 41.73 41.51 41.17 41.75 43.93 44.96 43.86 42.33 41.31 40.42 43.62 45.91 47.24 45.70 46.08 47.35 47.11 47.07 46.50 45.70 44.60 44.36 44.18 44.01 43.20
57.33 58.99 59.80 58.85 58.54 57.75 57.98 57.29 54.40 53.19 50.06 49.02 48.89 48.22 48.22 47.78 46.96 45.38 42.67 40.74 39.64 41.14 41.47 42.40 42.77 40.77 41.93 40.26 41.07 45.74 47.16 44.53 44.79 46.11 46.52 45.92 45.69 44.94 44.22 44.09 43.43 43.17 42.17
58.17 57.95 58.06 57.38 57.09 56.87 55.53 53.84 51.92 50.18 49.39 48.98 48.23 47.71 47.72 47.30 45.94 45.34 43.57 41.21 38.48 38.09 38.20 38.83 40.74 40.04 39.04 39.29 40.11 45.56 43.26 44.07 43.67 44.37 45.20 45.29 44.72 43.86 43.46 42.93 42.23 41.63 40.79
56.89 57.19 57.20 56.17 55.05 54.93 53.00 50.85 49.37 48.33 48.80 47.91 47.04 46.97 46.06 45.50 44.26 45.43 44.96 43.49 40.33 36.05 36.61 35.95 35.70 38.24 37.81 37.64 39.54 42.05 40.70 44.11 43.40 42.91 43.10 44.14 44.29 43.37 42.68 42.14 41.83 40.96 40.18
55.79 55.55 55.17 54.85 53.75 51.83 49.98 49.40 48.25 47.75 46.61 45.83 45.65 45.40 44.82 45.26 45.18 45.14 44.61 43.93 41.89 38.84 35.20 34.82 35.44 36.28 37.42 38.92 39.02 40.39 39.92 41.97 42.91 41.88 41.88 42.43 42.70 43.12 43.07 42.09 41.67 40.36 39.76
56.61 55.29 55.07 53.01 51.07 48.84 47.71 48.21 47.19 46.24 45.60 45.02 45.09 44.47 44.42 45.08 44.19 43.81 43.17 41.62 39.94 38.16 36.58 36.29 34.86 35.55 34.34 35.11 36.94 37.41 39.38 38.17 38.60 42.19 41.66 41.41 40.97 41.26 41.37 41.46 41.31 40.59 39.47
56.09 55.63 53.36 51.47 49.94 48.42 47.19 46.80 45.43 45.87 44.89 43.85 43.77 44.40 44.27 44.97 43.31 42.55 41.48 39.52 37.68 37.64 35.68 35.92 34.66 33.73 34.01 35.35 35.59 34.20 37.03 38.64 37.81 39.89 41.94 41.32 40.63 40.13 40.02 40.15 39.72 39.41 39.13
54.48 53.36 52.27 50.69 49.33 47.79 46.41 45.96 44.98 44.21 44.29 43.96 44.11 43.65 43.57 43.16 41.84 40.95 39.81 39.03 39.83 41.06 39.86 38.12 36.89 36.20 34.62 35.34 35.90 35.24 35.57 35.10 37.92 40.87 39.95 40.55 40.44 40.37 40.14 39.15 39.18 38.96 38.75
53.19 52.34 51.92 49.73 48.13 46.57 45.66 44.12 43.96 43.84 43.81 43.84 43.81 43.48 43.01 42.58 40.55 39.55 38.79 36.45 37.44 34.93 35.20 34.94 35.66 35.31 33.10 34.22 33.09 33.15 33.01 31.55 32.87 37.07 38.83 38.25 39.24 39.71 39.83 39.40 38.96 38.93 38.88
51.40 49.63 47.52 46.56 46.04 44.85 44.16 43.76 43.54 43.46 43.13 42.39 42.55 42.40 42.51 42.13 41.49 40.12 38.58 36.05 34.42 32.77 33.46 32.98 32.07 31.58 30.20 29.00 29.64 30.89 30.07 32.92 31.96 30.78 31.96 31.06 33.72 32.20 33.17 37.70 36.67 38.44 38.64
48.66 46.11 45.12 44.12 43.49 43.92 39.86 40.52 42.28 42.19 41.74 41.18 39.76 40.58 40.74 40.82 39.79 36.88 35.77 35.28 33.66 29.98 28.50 27.67 28.46 28.79 30.52 30.48 30.00 31.03 30.65 27.11 29.67 30.21 28.71 30.49 31.79 32.01 31.94 30.19 33.21 34.94 35.69
45.68 43.42 43.28 43.32 42.89 42.98 39.19 39.54 38.83 40.86 40.08 39.39 38.22 39.67 38.55 37.15 34.26 33.02 33.29 32.89 32.08 33.53 33.62 29.79 28.38 28.91 29.35 29.96 32.01 30.93 29.11 29.95 30.33 32.45 28.82 31.13 30.56 29.74 31.59 31.28 34.47 35.46 36.00
42.10 41.31 41.30 41.20 40.71 40.09 38.32 38.11 37.01 37.20 36.37 36.07 34.94 33.60 32.23 30.77 32.22 30.92 28.34 26.22 26.10 27.04 27.40 28.48 28.28 30.06 31.09 31.92 32.30 31.56 30.75 31.93 33.70 32.71 31.37 29.22 26.48 27.14 27.90 27.15 32.66 34.28 35.52
39.03 38.44 38.82 38.03 37.87 38.01 37.87 36.94 37.29 35.67 32.73 31.70 31.66 31.01 30.42 28.59 30.92 31.23 27.12 25.17 25.08 26.06 30.11 31.40 31.72 31.91 31.88 32.46 33.01 31.02 28.56 28.14 27.11 30.37 27.91 29.43 25.59 27.00 26.43 25.68 27.00 34.22 33.54
39.07 39.60 39.03 39.03 37.49 37.57 36.37 36.27 33.76 30.17 27.11 26.10 27.62 27.68 29.36 28.23 29.35 28.89 25.86 24.90 24.88 25.83 26.93 28.51 29.13 28.85 29.90 29.90 32.26 30.86 29.96 27.56 27.93 24.72 27.31 26.66 25.71 26.40 21.50 23.11 23.74 24.53 24.64

GFSMA_sfc_wetblb_057.txt.gz
Wetbulb
58.43 58.03 57.54 56.83 56.08 54.47 53.85 52.99 54.37 52.69 51.98 50.30 48.25 49.17 48.99 48.83 49.46 50.40 52.23 59.72 60.78 62.04 60.74 60.36 60.23 60.16 59.22 58.04 57.30 57.02 56.20 54.69 53.46 54.10 52.73 51.64 51.31 51.55 52.00 50.78 50.22 50.68 50.76
58.14 57.25 56.70 56.23 54.69 54.24 53.74 53.83 54.57 52.24 51.50 49.08 47.26 47.07 47.42 46.94 47.08 47.22 48.35 50.92 56.94 59.34 60.77 61.14 60.91 60.50 59.66 58.86 56.65 55.17 55.79 54.75 52.97 52.48 52.20 52.47 51.34 51.61 51.85 51.35 51.82 51.42 51.42
57.31 57.00 56.63 56.47 55.04 54.90 53.62 54.76 53.96 52.67 50.58 49.88 47.51 46.76 46.60 46.96 47.44 46.69 47.19 48.64 52.11 56.28 56.81 58.65 61.03 60.71 59.94 58.56 58.24 56.53 54.78 54.37 53.42 52.59 51.85 51.09 50.56 51.09 50.60 50.40 50.17 50.28 50.42
58.05 57.32 57.81 57.11 56.84 55.88 54.43 54.65 53.85 52.48 51.00 50.45 47.04 45.76 45.19 45.34 46.67 46.89 46.74 47.62 49.06 51.40 56.10 58.01 59.01 58.76 60.62 59.54 58.36 57.02 56.51 54.86 54.61 54.08 51.38 50.44 50.11 49.95 49.36 49.13 49.04 49.15 49.41
59.48 58.64 58.73 58.84 58.07 57.74 56.20 55.16 53.76 52.89 50.83 50.06 48.32 45.73 45.05 44.78 44.54 46.56 47.17 47.72 47.34 50.09 50.25 57.19 58.97 59.58 60.49 59.58 59.05 57.87 57.28 56.70 54.96 52.93 52.26 49.94 49.52 48.87 48.39 48.51 48.68 48.98 49.05
60.08 59.46 59.02 58.83 59.35 57.86 56.75 54.84 53.76 52.95 51.77 50.27 50.75 47.56 44.49 44.61 44.18 43.76 45.33 48.30 46.91 48.72 49.59 50.85 52.00 52.67 56.93 58.16 57.73 57.12 57.13 56.67 55.07 53.47 50.57 50.06 49.16 48.42 47.82 47.94 48.04 48.27 48.33
58.89 58.70 58.79 58.28 57.98 56.72 56.04 55.28 53.27 52.32 50.41 49.00 45.58 44.22 44.31 44.45 44.31 43.53 43.42 44.77 44.79 47.47 48.09 48.65 48.16 47.51 50.03 56.01 54.99 54.42 55.09 55.47 54.65 51.98 51.05 50.45 49.45 48.00 46.60 46.35 46.80 47.11 47.36
58.20 58.29 58.58 58.24 58.22 56.92 55.31 54.28 53.00 50.71 51.00 47.47 45.70 45.49 41.85 44.36 45.29 44.83 43.10 43.41 43.08 44.42 46.98 47.08 46.55 45.88 44.63 44.86 49.57 54.59 54.65 54.62 53.37 51.96 51.47 50.42 49.54 47.95 46.61 46.07 46.20 46.22 46.72
57.62 58.50 58.10 57.78 56.81 56.23 55.89 54.28 53.51 51.35 50.90 47.36 47.75 48.31 44.64 43.38 43.91 44.46 45.59 45.28 43.39 41.79 42.70 43.60 45.32 44.41 43.16 42.70 47.74 51.79 53.58 52.91 52.90 52.16 51.70 50.53 49.32 48.32 47.08 45.90 45.36 45.28 45.42
56.58 57.99 58.43 57.90 57.05 57.11 55.63 55.51 54.96 52.36 51.81 49.70 48.85 49.74 48.15 47.65 44.15 43.80 45.79 45.72 45.79 44.80 41.99 43.35 42.11 42.14 42.23 42.25 45.59 47.77 48.89 49.82 51.39 51.90 51.93 51.27 50.20 48.76 47.80 46.44 45.28 44.78 45.11
56.29 57.59 58.24 57.66 57.46 57.61 57.36 55.89 54.16 52.08 51.81 51.97 50.46 48.77 48.75 47.30 47.02 45.13 41.33 43.77 45.14 45.48 45.71 43.66 42.05 42.16 41.91 42.63 42.16 43.28 48.00 48.50 49.29 51.69 51.44 51.17 50.66 49.59 48.13 47.07 45.82 45.22 45.41
55.89 57.26 58.32 58.43 58.02 57.57 56.73 56.65 55.75 54.45 53.38 52.91 50.95 50.06 49.56 48.00 46.34 44.99 42.85 42.92 42.19 43.75 42.08 42.99 42.96 43.64 43.06 43.22 43.85 45.64 46.89 47.50 47.69 49.74 50.90 50.48 50.27 49.83 48.79 47.60 46.50 46.06 45.55
54.22 56.72 57.78 57.45 58.39 58.75 58.61 57.83 56.41 55.91 54.10 52.36 50.15 49.66 50.09 49.01 48.20 46.83 45.06 42.84 40.42 41.69 41.78 42.49 41.42 42.46 42.77 42.41 42.88 46.06 46.88 46.18 46.24 47.82 48.90 49.89 49.29 49.00 48.29 47.56 46.75 46.05 45.27
55.17 56.70 57.09 58.02 58.33 56.53 55.77 55.47 55.16 54.50 52.11 50.79 49.46 48.94 49.28 48.51 47.38 45.62 43.81 41.73 38.53 39.02 38.87 38.40 38.66 39.72 39.51 38.72 39.97 44.02 42.43 45.31 45.38 45.61 46.64 47.68 48.39 48.31 47.34 46.74 45.99 45.31 44.66
55.59 55.79 57.66 57.36 55.79 55.47 55.36 53.38 51.91 50.41 49.86 49.67 49.17 48.69 47.64 46.66 45.78 45.40 44.74 43.47 40.93 35.75 37.02 37.74 36.50 37.78 37.81 37.34 38.73 38.97 40.62 43.41 44.97 44.21 44.22 45.27 46.58 46.98 46.75 46.37 45.10 44.36 43.74
56.83 55.87 55.61 55.49 54.73 54.34 53.78 51.68 48.60 47.94 48.41 48.04 47.47 46.70 45.73 45.24 45.63 45.40 44.59 44.20 43.00 40.25 36.72 37.67 38.27 36.21 37.40 38.61 38.78 38.67 39.20 43.62 43.67 43.57 42.97 43.26 44.07 45.12 45.51 45.30 44.83 44.09 43.07
57.50 57.09 56.49 55.47 54.52 52.53 50.18 48.12 46.95 47.62 47.09 46.16 46.18 45.54 44.79 45.37 44.76 44.47 43.87 42.79 41.41 39.87 36.53 37.61 36.65 35.95 34.33 35.01 36.45 36.60 38.27 37.75 38.94 41.92 42.44 42.47 42.19 42.30 43.02 43.24 43.29 43.49 43.04
57.80 57.52 57.82 55.45 53.26 52.20 51.11 49.82 47.38 47.22 46.20 45.52 45.14 44.92 44.32 45.23 43.90 43.17 42.16 40.93 39.96 39.28 35.45 33.45 34.64 33.67 33.13 34.66 35.18 34.40 37.39 38.26 36.69 39.66 40.85 41.82 42.06 41.45 41.26 41.34 41.35 41.46 41.34
58.14 56.47 55.19 53.78 51.94 51.59 49.83 49.50 47.72 46.93 45.97 45.35 44.76 44.33 44.25 43.94 42.25 41.37 40.83 40.36 39.75 38.96 35.80 33.96 35.02 34.30 33.80 34.12 34.18 34.47 34.35 34.93 36.24 39.95 39.92 40.10 40.87 41.57 41.61 40.88 40.56 40.53 40.26
56.99 54.46 53.76 52.31 50.93 49.97 49.20 47.63 46.70 45.01 44.50 44.61 44.43 44.20 43.79 42.97 41.80 40.60 40.20 38.13 35.80 33.33 32.41 31.23 31.14 31.29 31.53 32.96 31.61 30.76 32.21 32.03 32.97 36.42 38.16 37.99 38.72 39.90 41.00 40.98 40.23 40.19 39.76
55.03 53.31 52.06 50.16 49.23 47.93 46.61 44.90 44.72 44.27 43.54 42.95 43.33 43.18 42.97 42.80 41.57 40.38 39.02 35.63 31.51 29.67 29.08 28.21 27.44 27.59 27.69 27.26 27.68 29.17 30.04 31.76 32.59 31.50 32.75 33.03 32.50 33.49 35.29 38.52 40.17 40.07 39.10
52.13 50.37 48.70 47.31 46.69 45.76 40.64 40.78 43.13 43.43 43.07 42.32 41.42 41.49 41.50 40.64 36.88 35.78 35.60 34.83 32.23 28.28 26.15 25.71 25.82 26.34 26.19 27.26 27.27 27.67 29.71 28.65 26.77 31.03 29.19 30.69 29.47 29.39 30.52 30.61 35.81 37.21 36.94
48.73 46.50 46.14 45.28 45.10 44.79 39.53 40.06 39.65 42.32 41.49 40.83 40.18 39.62 37.69 35.45 34.31 32.79 31.64 30.69 30.14 30.90 31.92 27.04 24.24 24.71 24.76 25.61 27.66 27.67 26.34 25.80 25.60 28.52 29.96 28.84 32.42 30.25 32.01 33.54 35.36 35.65 35.82
45.58 45.00 44.79 45.01 43.85 42.18 38.54 38.43 37.68 39.92 38.54 37.29 36.20 35.63 32.91 31.98 31.41 28.84 26.57 25.15 25.77 26.14 26.53 27.19 25.26 25.36 26.20 27.67 28.32 28.08 27.35 28.52 28.62 29.54 30.59 27.18 30.39 28.92 29.18 29.79 33.95 34.66 34.59
43.87 43.24 43.36 42.37 40.92 39.98 37.49 36.81 37.14 35.56 33.41 31.23 30.34 29.57 28.41 27.42 30.15 29.81 26.39 25.41 25.85 27.28 30.14 31.03 31.28 31.78 31.75 31.81 31.69 29.79 28.11 26.68 24.70 25.80 28.04 29.27 29.11 27.51 27.11 26.37 29.16 32.89 34.73
41.22 40.34 38.89 39.28 37.40 37.28 36.37 36.46 34.66 31.14 28.18 27.08 27.06 26.93 29.12 27.53 28.13 28.30 26.33 25.87 24.91 24.98 25.07 25.91 27.37 28.03 29.10 29.02 30.69 29.58 27.97 26.07 25.96 25.27 27.42 27.29 27.36 26.17 25.13 25.37 25.35 26.59 29.90

GFSMA_sfc_wetblb_060.txt.gz
Wetbulb
57.77 57.61 57.59 56.53 54.60 53.69 53.23 53.67 51.98 51.44 50.87 50.79 52.10 52.26 51.92 52.45 53.09 54.03 55.33 60.78 61.51 61.90 60.94 61.12 60.94 60.32 59.31 58.13 57.65 56.92 55.99 54.92 54.93 54.07 53.21 52.47 52.29 52.75 52.45 51.37 51.77 51.67 51.94
57.58 57.26 56.43 54.65 53.62 52.68 53.46 54.09 52.43 51.25 50.05 48.81 48.50 49.12 48.99 48.92 49.36 49.40 51.02 54.61 59.13 61.10 61.81 60.93 60.88 60.91 60.14 58.62 57.30 57.21 56.56 54.82 53.66 53.51 53.11 52.92 51.69 52.20 52.23 51.71 50.98 50.76 50.91
56.89 56.17 56.28 55.42 54.46 52.82 53.69 54.56 52.62 51.71 49.12 48.19 47.33 47.74 47.85 47.56 47.36 47.39 48.41 49.50 52.37 56.19 57.70 60.96 61.54 60.96 60.39 59.62 57.96 56.54 55.45 55.35 53.93 52.76 52.43 51.98 51.32 51.79 50.78 50.11 49.63 49.52 49.43
57.01 56.04 56.03 55.85 55.17 53.97 54.14 54.07 52.76 51.21 50.27 48.57 46.63 46.29 46.67 47.20 48.02 47.05 47.42 48.55 50.12 51.07 55.26 57.19 59.09 61.52 60.89 59.82 59.57 58.25 56.94 55.42 55.08 54.61 52.27 51.55 51.10 51.13 50.03 49.17 48.78 48.75 48.96
57.42 56.54 56.24 56.35 56.08 55.35 53.93 54.49 53.11 52.63 50.68 50.45 48.28 46.54 45.75 45.63 46.26 47.70 47.35 47.85 48.90 50.61 51.65 55.67 57.74 58.34 60.31 60.65 59.64 58.81 57.96 57.45 56.42 55.63 53.64 52.20 51.17 50.65 49.59 48.68 48.28 48.55 48.70
58.00 57.24 57.64 57.60 57.31 56.64 55.27 54.66 53.91 52.98 52.19 50.93 50.54 47.84 45.68 45.39 45.05 44.82 46.35 48.27 47.99 49.70 50.21 51.82 55.25 56.19 58.94 60.48 59.80 58.65 58.17 58.24 57.66 55.59 54.49 52.07 51.52 50.60 49.50 48.10 47.01 47.27 47.55
59.38 58.52 58.54 58.29 58.20 57.28 56.58 55.82 53.68 52.72 51.23 50.22 47.63 46.53 45.95 45.35 44.87 44.55 44.80 45.83 47.21 48.03 48.99 50.09 50.76 51.03 53.66 58.06 58.29 55.95 55.35 55.85 56.42 55.76 53.97 52.11 51.66 50.68 49.37 47.38 46.56 46.44 46.72
58.93 58.76 58.81 58.23 57.92 57.14 55.98 54.81 53.70 51.83 51.67 48.79 47.36 45.18 43.72 45.23 45.79 45.61 44.69 43.94 44.97 46.08 48.00 48.66 48.69 48.52 48.00 49.73 51.94 55.30 54.82 54.95 55.54 55.44 53.46 52.40 51.75 50.79 49.29 48.07 46.90 46.07 45.88
57.27 58.43 57.98 58.12 57.42 57.08 55.33 53.99 53.28 52.19 50.96 48.53 47.77 49.19 44.35 43.29 44.06 45.16 45.40 44.56 45.11 44.98 45.09 47.25 47.33 47.40 46.76 45.61 47.92 51.27 53.90 54.43 55.34 54.46 53.74 52.79 52.24 51.25 49.79 48.84 47.70 46.34 45.96
55.72 57.06 57.26 56.78 56.56 56.22 55.41 54.87 54.70 52.97 51.81 49.09 47.12 48.52 49.01 48.41 45.23 44.08 45.18 45.81 46.32 45.18 45.05 44.70 45.07 45.49 45.55 44.54 45.57 47.24 48.88 50.95 52.93 54.26 53.39 53.28 52.90 52.02 50.89 49.78 48.48 47.44 46.49
55.16 55.58 56.59 56.56 56.40 56.38 56.00 55.03 53.75 52.05 51.86 50.14 48.19 47.18 47.66 47.83 48.12 47.02 45.27 45.33 45.64 46.57 46.57 44.85 44.36 44.23 43.69 43.32 43.54 44.80 47.82 48.46 49.96 52.82 53.71 53.23 53.16 52.75 51.71 50.72 49.54 48.39 47.35
53.81 55.21 56.12 55.77 55.87 55.98 56.02 55.74 54.76 54.74 53.88 53.33 51.58 50.73 49.45 47.90 47.11 46.57 44.83 44.41 43.99 45.02 44.60 45.60 44.78 44.73 44.77 44.46 45.00 46.06 46.30 46.12 47.65 50.05 52.04 53.28 52.75 52.24 52.02 51.46 50.65 49.55 48.37
51.93 53.27 54.97 55.33 55.32 56.26 57.04 57.14 56.72 56.16 55.24 54.11 53.63 53.11 52.29 51.45 50.35 48.99 46.63 45.21 43.37 43.05 42.51 43.06 43.67 43.05 43.81 44.72 44.57 46.36 46.92 45.47 46.08 48.06 49.63 50.91 51.81 52.00 51.43 50.86 50.69 50.20 49.38
52.47 53.44 54.32 55.33 55.67 56.12 56.96 57.56 57.16 56.50 55.48 54.52 53.28 52.70 51.61 50.45 49.51 47.96 46.56 43.60 40.33 39.67 40.11 41.72 41.35 41.82 42.13 42.13 41.53 43.74 43.53 44.44 45.03 45.91 47.17 48.27 49.15 49.65 49.98 50.02 49.61 49.37 48.42
53.36 53.35 54.73 55.05 55.01 55.08 55.22 56.00 55.62 54.25 52.86 51.54 50.26 49.75 50.54 48.65 47.75 46.47 45.37 44.14 43.14 38.67 38.39 40.63 40.15 40.39 41.26 40.69 40.25 40.70 40.28 41.97 43.67 44.25 45.00 45.75 47.08 48.00 48.26 48.41 48.66 48.58 48.07
54.27 53.92 53.88 54.61 54.91 54.62 54.12 53.31 52.18 50.08 50.80 47.91 49.06 49.25 47.92 46.58 45.77 45.94 45.02 44.34 43.66 41.61 38.80 40.95 39.36 40.31 40.51 39.61 40.31 40.62 39.44 42.32 43.17 43.08 43.27 43.97 44.57 45.35 46.13 46.55 46.98 47.07 46.99
56.38 56.52 56.50 56.42 56.12 54.84 54.68 54.03 52.08 49.70 49.64 48.16 46.82 47.40 46.15 45.20 45.22 45.04 44.88 43.99 43.00 41.48 38.56 39.44 38.60 37.87 37.52 37.69 38.54 38.54 38.73 38.73 39.39 41.61 42.21 42.54 42.76 42.97 43.36 43.75 44.18 45.12 45.41
56.91 57.20 57.39 57.29 57.12 55.16 52.37 51.67 50.24 49.92 49.25 47.01 46.83 46.31 45.45 45.52 44.65 44.39 43.10 41.63 40.98 40.24 38.47 35.77 37.16 37.04 35.78 37.13 36.66 36.13 37.91 39.13 38.03 39.36 40.73 41.25 41.41 41.57 41.72 41.76 42.02 42.20 42.76
57.06 56.90 57.12 56.68 56.20 54.40 53.45 52.12 51.41 49.99 48.80 47.24 46.38 46.20 45.37 44.77 43.34 42.64 41.67 40.10 40.83 40.45 38.31 37.11 36.89 35.93 35.23 35.21 35.26 35.45 35.51 36.13 37.03 39.32 39.86 39.93 40.23 40.65 40.75 40.96 41.63 41.51 41.72
56.82 57.34 57.28 57.06 55.70 52.78 51.87 50.93 49.51 47.90 47.74 47.42 46.03 45.83 45.18 44.56 43.28 41.25 40.48 39.05 37.92 36.40 35.09 33.55 31.86 32.03 32.48 33.56 32.38 31.32 31.05 33.40 33.03 35.43 37.09 37.27 38.06 38.97 39.53 39.84 40.22 40.93 41.28
57.26 57.61 57.24 54.50 52.51 50.61 49.60 48.62 48.06 47.35 45.52 44.69 44.57 44.59 44.31 43.52 41.79 41.24 40.09 37.15 35.10 32.85 31.67 30.71 28.70 28.85 28.49 28.72 28.34 29.78 28.82 29.34 30.47 32.07 32.34 33.62 34.27 34.53 34.89 36.12 37.19 38.41 39.91
57.71 57.51 54.68 53.18 49.88 49.03 43.09 42.53 44.95 45.31 44.58 43.65 42.53 42.29 42.21 40.34 38.23 36.75 35.83 34.83 33.98 30.59 29.40 27.25 27.13 26.25 25.41 26.65 27.75 27.07 27.16 26.50 24.62 30.03 29.10 28.62 30.90 30.51 32.32 34.03 35.17 35.80 37.09
54.39 52.89 50.78 49.84 48.43 46.79 40.40 41.05 40.38 44.10 43.08 42.58 41.65 40.38 37.67 36.21 35.07 33.40 32.45 31.18 30.01 30.37 30.58 27.33 24.82 24.76 25.27 26.56 26.35 26.00 26.67 26.30 26.10 29.19 29.25 26.80 30.50 29.35 32.08 33.46 35.48 36.45 36.26
51.10 48.97 48.79 47.55 46.23 42.61 39.54 38.95 38.72 41.47 40.23 39.76 39.63 36.82 34.02 32.17 31.83 30.33 27.78 26.90 26.79 27.61 28.00 27.71 25.95 26.55 27.02 27.79 28.43 29.03 28.13 28.01 28.44 29.65 30.27 25.28 29.66 28.99 31.59 33.15 34.11 35.58 35.98
47.06 44.92 44.44 43.88 42.55 39.91 39.03 37.66 38.00 36.59 34.18 32.41 32.24 32.26 31.29 29.93 30.68 30.06 27.15 26.70 27.08 27.77 29.41 28.89 29.02 30.05 30.39 30.16 29.32 28.21 25.81 24.91 23.71 25.79 29.32 27.46 28.39 28.45 30.40 30.77 32.48 32.62 34.05
42.09 41.21 39.97 41.41 39.36 38.23 36.89 36.61 36.01 33.24 30.35 28.60 28.54 28.81 29.45 28.53 28.89 29.27 27.71 26.46 24.98 24.61 24.08 23.84 24.96 25.91 26.27 26.75 27.16 27.12 26.47 23.25 23.23 22.73 28.24 26.55 28.13 28.54 27.11 29.74 27.61 29.38 31.58

GFSMA_sfc_wetblb_063.txt.gz
Wetbulb
60.32 61.15 60.48 60.03 59.49 60.01 60.65 59.62 60.12 59.82 59.57 59.73 59.98 59.66 59.54 60.21 61.08 61.34 61.97 61.27 61.50 62.13 61.58 61.49 60.87 60.00 59.09 57.99 57.22 56.66 56.19 56.18 55.40 54.54 53.59 53.28 53.59 53.18 52.25 52.86 52.27 52.07 51.92
60.88 60.42 59.73 59.08 58.99 59.64 59.38 59.67 59.34 59.07 58.92 59.06 58.48 58.65 58.11 59.03 60.16 60.90 60.87 61.77 60.88 61.72 61.98 61.44 61.48 61.17 60.48 59.44 58.26 57.39 56.30 54.68 55.31 54.01 54.12 53.02 52.82 53.19 52.58 51.61 50.76 50.71 50.59
61.64 61.30 60.37 58.93 58.83 59.34 58.90 58.06 57.65 57.19 56.13 56.28 56.27 56.06 55.76 56.40 56.20 57.13 58.34 60.20 60.30 58.88 59.61 62.14 61.65 61.41 61.03 59.94 58.86 57.90 57.14 55.46 54.39 53.89 53.45 52.88 52.43 52.68 51.75 50.54 49.90 49.29 49.25
61.33 60.58 59.58 59.14 59.70 59.82 59.65 58.05 57.07 55.87 54.48 53.90 53.66 53.69 54.01 54.28 54.43 54.30 54.58 55.06 55.95 56.55 56.71 58.31 60.81 62.25 61.34 60.60 59.30 58.22 57.20 56.61 55.60 54.79 53.81 53.21 52.54 52.39 51.36 50.15 49.15 48.57 48.87
60.86 60.50 59.50 59.69 59.84 59.42 59.61 58.64 57.41 57.03 54.91 53.64 53.41 53.29 53.66 53.54 53.99 52.58 53.14 53.99 55.39 55.34 55.50 56.38 57.24 59.12 61.44 61.28 60.60 60.23 59.34 57.76 56.83 56.51 55.55 53.41 52.65 52.39 51.40 50.39 49.13 48.10 48.12
60.15 60.25 60.33 60.07 60.24 58.97 59.56 59.22 58.20 57.77 56.38 55.70 53.31 52.24 52.59 52.37 52.48 52.60 53.31 53.51 54.48 54.96 55.67 55.99 56.84 56.61 57.63 60.90 60.83 59.99 59.45 59.32 58.98 57.78 56.00 55.11 53.32 52.62 51.58 50.81 49.06 47.86 47.09
60.24 60.73 60.75 60.52 60.50 59.90 59.54 59.11 58.88 57.54 56.44 56.19 54.16 54.03 53.54 51.98 52.01 52.30 52.55 52.97 53.53 53.86 55.08 55.61 56.52 57.42 58.08 59.93 60.73 59.49 58.24 57.36 57.33 58.28 57.55 55.16 53.77 52.89 51.96 50.91 49.29 48.10 47.35
60.56 60.74 60.90 60.77 60.39 60.32 59.54 59.33 58.82 58.02 58.37 56.20 55.51 54.46 53.10 52.77 52.45 52.87 52.29 51.62 51.83 53.62 53.73 53.59 54.47 54.39 55.47 56.88 57.11 58.40 56.76 56.03 56.40 56.61 56.62 55.83 53.80 53.44 52.59 51.48 49.95 48.90 48.03
61.23 61.60 61.53 61.02 61.17 61.48 60.17 60.17 59.52 58.53 57.75 56.04 56.34 57.15 51.75 52.08 53.51 53.16 52.31 51.64 52.32 51.99 51.63 49.54 50.86 54.29 54.42 52.45 53.74 54.46 54.03 54.68 55.91 55.85 55.77 56.58 54.39 53.82 53.20 52.27 50.81 49.81 48.53
60.75 60.62 60.36 60.26 60.93 61.34 60.46 60.04 59.70 59.76 59.39 57.03 54.55 54.41 55.31 55.52 52.80 52.55 53.03 49.98 49.27 51.21 47.48 48.08 51.50 51.39 50.38 51.26 52.67 50.61 48.87 49.28 51.70 54.25 55.09 54.93 54.59 54.26 53.65 53.04 51.78 50.85 49.58
59.01 59.19 58.85 60.08 60.50 61.18 61.46 61.40 60.18 59.20 59.20 58.88 57.08 54.30 54.23 54.41 54.25 52.02 50.84 50.93 48.36 51.21 48.28 48.47 50.74 49.58 49.41 50.03 51.61 50.88 48.07 47.90 49.09 50.95 53.12 54.25 54.27 53.90 54.21 53.76 53.09 52.17 51.03
57.97 59.20 59.11 59.93 61.01 60.75 60.83 61.31 61.31 60.40 59.49 58.65 57.69 56.64 55.72 51.13 52.50 50.18 49.68 51.06 47.59 49.85 51.04 50.93 50.15 47.78 48.53 48.90 49.50 47.79 46.80 46.54 47.20 48.69 50.02 51.14 52.39 53.24 53.50 53.49 53.51 53.21 52.53
57.52 58.01 59.41 59.61 60.23 60.74 61.13 61.53 61.07 60.53 60.06 58.44 56.25 54.37 53.19 54.15 56.88 52.39 50.76 49.04 48.14 47.34 47.04 48.38 49.37 49.56 48.66 50.11 49.36 47.34 48.02 45.89 46.24 47.09 47.99 49.18 50.29 50.81 51.75 52.31 52.15 52.17 52.23
58.69 58.67 58.87 59.58 60.19 60.72 60.97 61.22 60.79 60.79 60.25 56.19 55.37 56.17 56.72 56.80 57.24 54.48 51.62 48.39 43.29 45.92 46.09 48.28 48.41 45.73 44.81 45.79 44.95 44.06 46.52 44.50 44.36 45.18 46.10 46.89 47.74 48.65 49.92 50.44 50.88 51.28 51.01
57.46 58.03 58.84 59.01 59.79 60.44 60.91 61.26 60.90 60.66 59.42 57.98 58.85 59.46 57.92 57.50 56.25 53.95 51.04 52.89 49.68 44.75 44.29 47.10 49.02 48.14 48.22 45.33 46.01 45.13 47.68 45.34 43.05 43.37 43.97 45.03 46.19 46.85 47.58 48.17 48.85 49.60 49.82
57.24 57.51 58.12 58.64 59.22 59.84 60.25 60.38 60.11 59.32 58.10 58.08 57.76 56.51 55.53 55.23 53.39 51.23 51.61 50.50 49.31 49.09 47.01 47.53 44.85 45.29 45.49 45.65 43.65 46.12 47.32 42.02 43.18 42.39 42.45 43.04 43.69 44.81 45.42 46.00 46.26 46.74 47.08
57.82 57.79 58.13 58.20 58.22 58.52 59.03 58.75 57.43 56.91 55.75 56.43 54.17 53.27 53.29 52.63 50.86 50.12 50.06 50.14 49.05 46.04 44.26 43.05 43.75 42.99 43.19 42.48 44.08 46.65 45.88 45.96 45.58 41.70 41.37 41.63 41.83 42.05 42.54 43.00 43.35 43.97 44.39
57.95 57.69 58.15 57.76 56.25 57.09 57.52 56.15 55.99 54.79 52.78 52.12 51.21 50.69 51.60 49.58 48.70 49.33 46.97 45.09 47.06 44.27 41.77 40.62 41.81 41.45 41.31 45.31 45.23 44.06 43.20 42.69 43.53 41.75 40.51 40.52 40.79 40.86 40.57 40.88 41.12 41.42 41.84
57.26 57.90 58.01 58.24 57.88 57.30 57.03 56.35 55.71 54.18 53.45 53.40 51.32 50.37 50.43 49.14 47.73 45.53 44.63 43.00 43.81 42.91 44.89 41.11 41.59 42.42 40.46 43.41 42.37 41.78 41.21 41.06 39.91 38.91 38.14 38.44 39.06 39.59 39.06 39.19 39.56 39.75 40.32
56.65 57.43 58.49 58.22 57.96 58.08 57.57 55.71 54.19 53.00 51.90 51.45 50.69 50.00 48.82 47.64 45.72 44.94 44.08 41.77 44.15 39.69 38.92 40.48 36.19 36.89 38.86 41.07 39.56 37.43 35.79 36.72 35.92 36.59 36.94 36.10 36.71 37.32 37.65 37.81 37.56 37.30 37.91
56.96 56.86 57.41 58.30 58.92 58.55 56.76 55.85 54.50 53.88 51.53 49.11 48.08 47.84 46.79 46.14 43.55 43.29 42.59 39.71 39.01 37.27 34.90 33.91 33.49 34.23 35.39 36.77 34.85 34.87 32.81 34.31 35.75 35.95 35.64 36.12 36.48 36.14 36.75 36.49 36.79 36.85 36.74
57.36 58.03 57.44 57.97 56.76 55.45 46.50 46.68 50.98 51.12 49.31 47.04 45.22 45.18 44.39 42.50 40.38 38.68 38.27 37.41 38.94 34.70 32.72 32.89 32.59 31.71 32.84 32.92 33.62 32.77 31.94 31.28 30.60 36.93 34.25 33.73 36.07 34.68 36.14 37.55 36.19 35.55 35.86
58.17 57.71 57.24 57.29 56.45 54.67 44.32 44.68 43.96 48.63 46.99 45.35 43.79 42.02 40.00 37.85 36.49 35.11 33.77 32.80 32.11 31.81 32.45 33.28 30.82 30.08 30.40 32.91 32.28 31.26 31.06 30.75 30.48 33.51 32.78 30.63 34.71 33.23 36.03 36.56 36.05 35.78 35.74
57.30 56.78 56.19 53.56 53.36 49.32 42.47 40.84 39.61 44.98 43.18 42.75 41.65 39.33 36.15 34.59 33.94 31.88 29.59 28.11 28.36 29.26 29.48 29.51 31.11 32.16 32.47 32.99 32.96 31.94 31.22 30.94 31.76 32.73 33.51 28.53 33.31 32.16 35.59 36.77 36.07 36.02 35.03
49.97 48.34 47.78 47.42 45.94 42.12 38.42 38.59 40.29 38.76 36.09 35.04 35.12 34.85 33.85 32.23 32.23 32.15 29.38 28.11 27.98 28.84 29.82 28.46 28.17 28.35 28.78 28.30 28.84 30.12 28.66 27.74 27.30 28.97 31.49 29.50 31.26 31.49 33.45 34.13 37.24 35.34 33.59
43.91 42.91 41.92 43.07 39.85 38.71 37.04 37.37 37.32 35.15 31.76 30.89 30.92 31.01 31.10 30.79 30.49 29.80 29.06 28.63 26.87 27.23 26.82 27.24 27.95 27.11 26.82 27.85 25.81 27.66 27.91 25.64 26.15 25.40 31.82 28.69 29.11 29.41 27.43 33.76 35.74 36.78 36.59

GFSMA_sfc_wetblb_066.txt.gz
Wetbulb
63.45 62.85 64.65 65.35 65.05 65.45 64.90 63.88 63.69 62.89 62.27 61.78 61.74 61.19 61.55 62.29 62.95 62.83 62.86 61.78 62.01 62.20 61.64 61.43 60.52 59.89 59.21 58.48 57.74 57.28 56.94 56.13 55.57 54.85 54.26 54.45 53.97 53.14 53.31 52.97 52.37 51.87 51.62
63.06 62.22 62.62 62.71 63.46 64.75 64.93 63.87 62.97 62.16 61.69 61.59 61.23 60.89 60.48 61.40 62.06 62.92 62.60 62.25 61.37 61.88 62.38 61.83 61.66 60.66 60.16 59.39 58.15 57.43 56.48 56.83 55.70 55.20 54.04 53.66 54.15 53.41 53.07 51.64 51.24 50.46 50.06
63.33 63.31 61.86 61.64 62.47 63.63 63.76 63.26 62.62 62.13 61.01 60.84 60.40 60.28 59.52 60.17 60.57 61.05 61.90 62.42 61.68 60.56 61.49 62.40 62.08 61.55 60.85 60.17 59.17 58.55 57.29 55.82 56.02 55.17 55.05 54.10 53.87 53.67 52.64 51.47 50.53 49.48 49.13
63.15 62.70 61.81 61.82 63.00 62.60 62.08 61.47 61.63 60.97 60.52 60.00 58.93 58.21 58.33 58.47 58.63 59.00 59.49 60.71 60.91 61.08 59.82 60.46 62.15 62.45 61.66 60.92 60.18 59.46 58.80 57.12 56.02 55.40 54.88 54.49 53.88 53.73 52.83 51.70 50.62 49.43 49.16
62.79 61.66 61.10 61.44 62.98 62.18 61.52 60.99 60.85 60.67 59.14 58.70 57.93 57.57 57.56 56.98 57.33 56.62 56.78 57.64 58.07 58.30 59.40 59.15 59.54 60.87 61.83 61.60 60.51 60.11 59.33 58.71 57.64 56.79 56.42 55.25 54.44 54.00 53.38 52.24 51.23 50.00 49.21
62.30 61.83 61.60 61.74 62.19 62.22 62.08 61.56 61.28 61.31 60.39 59.53 57.30 56.71 57.06 56.90 57.49 56.79 56.84 57.26 57.85 57.93 57.98 58.10 57.95 58.53 59.27 61.94 61.76 61.35 60.97 60.30 59.53 58.56 57.76 56.55 55.18 54.14 53.69 52.80 51.80 50.58 49.55
61.94 62.90 61.68 61.44 61.92 61.47 62.59 62.38 61.79 60.74 59.75 60.56 58.21 57.60 56.79 56.62 57.00 57.37 57.48 56.74 57.11 57.64 58.15 58.07 58.31 58.40 57.49 58.90 61.31 61.36 60.66 60.08 59.74 60.01 59.16 57.96 56.55 55.15 54.15 53.44 52.54 51.10 49.98
60.57 60.76 62.15 61.05 61.77 61.76 62.08 62.21 61.92 60.47 60.86 60.39 58.97 59.27 56.30 57.10 57.46 57.00 57.29 56.43 57.26 56.89 56.71 57.03 58.10 57.76 57.40 59.03 58.99 60.98 60.11 59.26 57.94 57.50 58.48 58.46 57.62 55.53 54.62 53.97 53.10 51.81 50.58
59.40 60.18 61.49 62.09 62.46 62.45 61.26 61.73 61.64 61.54 59.68 60.61 61.07 59.47 55.90 54.67 59.14 59.44 58.16 57.72 57.12 55.64 53.31 55.12 55.96 55.66 55.96 58.21 57.46 57.77 56.59 56.35 57.15 56.64 57.16 58.08 57.95 55.82 55.14 54.42 53.78 52.69 51.69
59.90 60.07 62.09 62.75 62.63 62.81 61.88 62.11 62.08 61.64 61.79 59.70 60.39 60.61 61.72 60.19 55.73 54.66 57.81 57.84 57.86 55.09 53.41 52.20 50.75 51.56 55.26 57.23 55.94 53.26 51.66 51.71 52.90 54.38 54.95 55.41 55.94 56.75 55.60 55.00 54.58 54.05 53.00
61.12 61.11 62.27 62.66 62.28 63.12 62.83 63.63 62.26 62.49 62.59 62.02 60.47 60.28 59.74 59.84 59.75 56.96 54.83 56.55 56.06 55.07 53.20 50.20 51.83 52.27 54.46 56.37 55.62 53.44 50.06 48.37 48.78 50.48 51.71 52.51 54.01 54.96 55.20 55.47 55.20 54.96 54.46
59.93 59.84 60.29 61.56 62.03 61.87 62.37 61.84 63.25 63.54 62.98 62.75 62.23 61.82 60.15 58.75 57.29 57.25 53.89 56.75 55.86 51.00 51.41 52.66 52.77 52.22 54.19 53.73 52.20 50.47 48.21 47.21 47.50 48.31 49.67 50.67 51.63 52.37 53.09 54.07 54.41 54.71 54.71
57.49 58.11 60.66 61.26 60.99 60.77 61.47 61.20 62.44 62.94 62.88 62.23 62.11 61.83 61.74 60.41 57.55 55.31 53.72 55.24 54.53 53.97 52.90 54.03 51.79 55.32 55.05 54.95 52.91 48.66 48.33 46.10 46.70 47.55 48.10 48.80 49.28 50.02 50.39 51.01 51.73 52.59 53.16
59.08 58.72 60.16 60.85 60.73 61.76 62.26 62.45 63.00 62.42 63.21 62.66 62.58 62.56 61.77 59.88 55.65 58.08 54.47 53.52 50.59 53.55 51.09 53.78 55.16 54.72 55.59 52.88 50.78 45.40 50.67 45.01 44.90 45.11 45.94 46.32 47.00 47.74 48.36 48.56 48.89 49.39 49.78
59.07 59.96 61.20 59.72 60.29 61.48 61.94 62.02 62.35 61.97 62.49 63.12 62.86 62.47 60.64 58.12 57.62 58.36 58.20 57.18 54.34 50.35 50.02 54.61 53.85 53.38 53.13 52.58 49.95 51.23 51.46 47.13 44.15 43.45 43.85 44.54 45.45 46.03 46.45 46.68 47.07 47.41 47.76
61.13 61.39 61.32 61.11 61.18 61.23 61.31 61.69 61.85 61.87 61.84 62.98 62.41 60.98 60.85 60.87 59.71 59.05 57.71 56.35 55.12 52.56 50.03 54.70 53.20 54.60 52.67 48.25 47.18 49.91 50.53 44.33 44.15 42.99 42.69 42.87 43.31 43.85 44.10 44.22 44.39 44.39 44.84
61.08 60.58 60.53 60.28 60.33 60.30 61.47 61.43 61.07 61.03 60.72 60.86 60.15 58.48 57.67 57.44 56.27 55.87 54.64 54.47 53.08 52.48 50.23 51.42 50.83 50.67 47.72 46.47 45.65 47.76 49.10 48.20 49.87 43.16 41.99 41.48 41.33 41.46 41.90 42.09 42.24 42.39 42.48
61.37 61.23 61.05 59.97 60.19 60.68 61.37 61.15 60.97 60.09 59.65 57.92 57.35 56.13 54.59 54.41 52.35 53.35 52.79 50.65 50.49 51.29 52.72 48.88 46.90 44.84 44.20 47.36 49.13 48.62 46.79 47.17 47.33 44.28 41.35 40.44 40.17 40.16 39.96 40.12 40.68 40.54 40.43
60.98 61.27 60.51 60.68 60.71 60.58 60.51 60.87 60.05 58.09 56.46 55.73 55.79 54.98 53.44 52.94 51.94 51.74 50.12 49.20 49.56 49.12 46.33 43.46 46.67 44.39 44.99 43.44 42.84 44.15 44.01 45.53 45.11 42.39 38.42 38.26 38.32 38.68 39.22 38.57 38.68 38.93 39.22
59.56 60.07 60.84 60.37 60.86 60.65 60.22 60.57 59.75 57.07 56.40 55.27 54.54 54.46 53.82 52.79 51.19 50.09 47.58 47.47 45.09 42.76 44.30 41.77 40.43 39.04 39.99 41.44 40.95 39.73 40.88 43.39 40.72 40.43 39.82 37.50 37.57 38.26 38.25 37.99 37.97 37.92 37.66
59.53 59.60 59.96 60.49 60.86 60.14 59.87 60.48 59.52 59.07 57.60 56.41 55.55 54.50 53.73 50.72 47.64 48.13 46.23 44.37 43.26 41.37 39.94 39.76 37.88 35.42 36.58 36.93 36.87 39.87 38.68 38.68 39.74 40.49 39.76 39.63 39.77 39.70 39.64 39.22 38.54 38.32 38.18
59.28 59.35 59.67 59.92 60.03 58.98 49.72 45.99 52.13 58.91 57.35 55.85 54.02 51.95 50.20 45.34 43.72 41.62 41.34 40.73 41.48 40.14 37.37 34.78 34.83 34.16 35.55 37.90 38.77 37.46 36.64 35.49 34.25 41.23 37.93 36.84 39.02 37.55 39.16 39.43 37.92 36.69 36.62
59.40 59.30 59.43 59.26 59.24 59.86 45.61 44.88 45.07 56.28 55.37 53.51 50.60 47.17 44.11 44.16 42.00 40.71 36.36 35.53 34.43 35.09 36.24 37.95 34.77 35.99 36.26 36.84 36.73 35.78 35.24 35.15 34.70 36.75 36.26 33.94 37.79 36.43 38.82 38.36 37.27 37.07 36.89
59.14 59.25 59.03 59.16 59.69 59.44 44.88 45.43 44.16 52.58 49.38 47.82 46.03 44.81 42.73 39.41 38.93 36.44 34.53 32.45 31.85 30.38 30.83 31.02 33.15 33.42 33.76 34.98 35.99 35.54 34.80 33.85 34.01 34.72 36.16 31.22 36.40 35.08 36.91 37.93 37.10 37.37 37.11
59.62 59.51 58.61 58.10 57.14 51.18 40.71 39.99 43.13 43.79 40.73 38.90 38.91 39.14 37.82 34.42 34.06 34.51 30.85 29.25 29.18 28.85 30.28 29.82 29.49 29.51 29.37 28.80 29.62 32.24 30.54 29.99 30.16 32.08 35.19 32.63 33.90 34.29 34.94 34.89 37.09 36.50 36.00
54.88 48.12 44.14 44.95 41.54 42.01 37.57 38.82 40.85 38.06 34.50 32.71 33.10 33.93 33.76 33.15 32.44 32.40 31.41 30.02 27.63 27.26 27.12 27.16 27.87 27.86 27.71 29.37 26.60 28.87 30.20 27.70 28.81 28.90 34.85 31.12 31.66 30.87 29.49 34.71 36.21 37.29 37.78

GFSMA_sfc_wetblb_069.txt.gz
Wetbulb
63.44 65.34 64.68 63.87 63.60 64.95 63.22 62.40 63.25 62.62 62.20 61.70 61.84 62.37 62.58 63.33 63.31 62.55 61.84 61.97 62.10 62.31 61.57 61.19 60.59 59.84 59.16 58.32 57.83 57.03 56.69 56.27 55.91 55.47 55.34 54.56 54.05 53.75 53.64 53.17 52.45 52.07 51.60
63.57 64.50 64.78 65.32 64.65 65.19 64.15 63.57 63.16 62.31 61.56 61.47 61.05 61.90 62.12 62.91 63.31 63.12 62.14 61.67 61.65 62.15 62.34 61.52 60.84 60.63 60.09 59.04 58.17 57.74 57.23 56.61 56.02 55.34 55.04 54.96 54.34 53.68 53.15 52.19 51.53 50.88 50.43
64.29 64.56 65.08 64.22 65.21 64.21 66.01 64.70 63.05 62.35 61.36 61.26 60.70 60.94 61.25 62.26 62.23 62.72 62.01 61.27 61.18 60.85 61.75 62.51 61.85 61.09 60.78 60.12 58.98 58.38 57.79 57.60 56.71 56.07 55.28 54.72 54.74 54.01 53.39 52.20 51.03 50.10 49.59
65.23 64.77 63.72 63.43 64.74 65.24 64.64 63.14 61.96 60.63 60.48 60.56 60.13 59.95 59.87 60.54 60.92 61.34 62.04 62.61 61.29 61.08 60.73 61.78 62.33 62.37 61.65 60.95 60.24 59.40 58.46 57.27 57.32 56.53 56.37 55.60 54.93 54.75 53.89 52.68 51.71 50.45 49.76
64.29 64.21 63.06 63.37 65.65 64.20 64.05 62.96 61.98 61.69 60.37 60.11 59.25 59.03 59.02 58.65 59.01 58.84 59.45 60.84 61.88 61.45 61.04 59.99 60.91 61.46 61.74 61.99 61.23 60.71 60.65 59.28 57.79 57.11 56.59 56.08 55.55 55.21 54.64 53.63 52.61 51.49 50.50
63.17 62.64 62.82 63.99 63.82 61.85 61.62 62.28 62.37 61.99 61.34 60.53 58.64 57.75 58.60 58.46 58.19 58.01 57.60 58.15 58.66 59.34 59.82 61.01 60.57 60.30 60.35 61.87 62.00 61.34 61.09 60.83 60.23 59.09 58.15 57.41 56.60 55.69 55.17 54.69 53.47 52.45 51.35
62.68 62.89 61.54 62.50 62.58 61.92 61.67 62.92 62.64 62.38 60.81 61.48 58.46 57.67 58.13 58.59 58.82 58.43 58.19 57.88 58.10 58.50 59.37 58.99 59.10 58.85 59.51 60.60 62.05 61.79 62.00 61.94 61.34 60.58 59.69 58.92 57.73 56.36 55.73 55.31 54.49 53.46 52.43
62.43 61.95 61.69 61.86 62.41 62.18 63.48 63.38 62.74 60.96 60.89 62.14 58.03 58.25 55.11 56.40 57.61 58.97 59.53 58.67 59.98 58.45 57.94 58.97 59.23 59.29 59.39 58.50 60.41 61.52 61.78 61.44 61.10 60.61 60.43 59.78 59.41 58.62 57.74 55.87 55.26 54.45 53.59
62.21 61.67 62.95 62.56 61.90 63.31 62.91 63.41 63.65 62.74 59.42 61.61 61.57 60.35 55.50 54.06 57.50 59.97 59.49 59.46 59.39 58.87 58.95 58.47 57.81 57.49 57.79 58.33 57.88 57.75 58.34 58.98 60.32 60.34 59.65 59.27 59.59 58.78 58.01 56.80 55.96 55.16 54.58
61.24 62.00 62.68 61.66 62.28 63.52 63.52 63.40 63.65 63.40 60.99 58.40 60.86 60.77 61.96 60.78 56.19 53.67 59.36 59.76 60.48 58.63 58.81 57.78 57.24 56.03 55.02 55.39 56.32 55.38 55.25 54.94 56.04 57.43 57.06 56.97 56.96 56.91 57.71 57.28 56.38 55.99 55.39
61.25 60.71 60.68 60.72 60.37 63.35 63.37 64.02 62.88 62.65 62.04 59.52 58.47 61.06 60.70 59.98 60.45 57.10 54.20 56.53 58.04 59.23 58.69 58.41 56.19 54.30 52.80 55.34 55.96 56.52 51.12 50.83 51.36 53.36 53.88 54.24 54.25 54.33 54.81 55.54 56.15 56.24 56.04
61.32 61.73 60.05 60.01 61.00 61.54 62.70 62.12 60.87 61.05 60.98 62.21 60.89 61.69 60.20 58.19 57.33 57.90 56.82 57.94 57.96 57.77 55.12 56.48 53.82 53.08 55.56 56.23 55.10 53.03 51.20 49.26 49.30 50.40 51.24 51.70 52.29 52.83 53.28 53.82 54.44 54.80 55.17
59.09 61.12 60.01 58.88 58.80 59.71 60.89 61.81 59.62 61.21 61.56 61.99 61.98 60.76 60.96 60.82 61.03 60.37 58.73 57.89 55.81 55.27 54.92 54.80 55.60 57.17 57.68 55.78 56.25 51.92 49.51 46.95 47.24 48.30 49.53 50.12 50.43 50.66 50.73 51.19 51.43 52.10 52.57
57.73 59.93 60.29 59.49 61.05 60.77 61.55 61.66 62.03 60.47 62.43 60.57 61.75 61.39 61.90 61.80 62.08 61.76 59.73 54.63 50.74 53.72 55.77 54.84 56.50 58.89 57.69 58.19 57.14 49.06 52.17 46.48 46.52 46.86 47.77 48.42 48.47 48.43 48.57 48.63 48.81 49.14 49.61
58.54 58.25 59.31 60.82 61.56 61.70 61.78 61.79 61.48 61.37 60.20 60.44 62.39 62.35 62.02 62.46 63.31 62.07 59.98 57.08 53.51 50.79 51.64 55.39 55.29 58.31 58.04 58.71 53.17 51.76 52.55 46.69 46.00 45.03 44.94 45.72 46.52 46.80 47.03 47.00 46.75 46.94 46.96
60.66 60.05 59.83 60.24 59.96 59.63 60.44 60.53 60.44 62.00 61.50 61.85 62.11 62.20 62.20 62.48 62.32 61.58 59.43 58.09 57.38 53.87 50.81 56.34 56.08 55.00 54.49 54.03 51.03 52.73 52.93 48.21 45.18 44.21 43.53 43.78 44.30 44.98 44.89 44.38 44.22 44.05 44.11
61.98 61.25 60.96 60.88 60.45 60.53 60.97 61.35 61.15 61.22 61.02 61.25 61.97 61.80 61.52 61.66 60.73 59.49 59.22 57.52 55.57 54.21 51.67 53.33 50.22 54.49 51.64 52.65 48.89 50.59 50.83 50.37 49.87 44.17 43.23 42.80 42.12 41.74 41.76 42.01 42.05 41.78 41.49
63.02 62.13 62.53 61.87 61.80 61.59 61.82 61.29 61.09 61.05 60.81 60.66 61.25 61.26 60.15 59.47 59.21 58.84 55.55 54.39 54.64 54.06 52.76 50.71 50.37 49.62 50.40 49.91 46.57 47.70 49.05 50.28 50.50 46.70 44.42 42.58 41.31 40.30 39.56 39.55 39.66 40.12 40.16
62.69 62.53 62.08 61.38 61.59 61.67 61.64 61.85 61.56 61.28 61.05 60.88 60.91 60.96 59.83 58.23 55.53 55.17 54.69 53.83 53.30 52.76 52.98 51.10 48.12 45.23 47.93 45.08 45.79 48.00 46.15 47.30 47.86 45.67 41.14 40.01 39.38 39.13 38.96 39.15 39.27 38.89 38.86
62.38 62.19 61.93 61.67 61.61 61.46 61.47 61.48 61.28 61.01 61.09 60.96 60.72 60.77 58.66 57.03 54.63 54.68 53.35 52.66 52.02 50.10 49.15 46.72 44.61 43.13 42.11 41.68 42.47 40.63 40.86 43.75 44.62 45.30 42.63 38.93 39.61 39.60 39.53 39.06 38.40 38.52 38.67
62.28 62.37 62.09 61.93 61.99 61.71 61.15 61.23 61.20 60.72 59.84 59.28 59.83 59.18 57.10 55.79 51.24 52.72 53.81 51.72 49.91 47.37 45.44 43.62 40.34 37.44 38.33 38.23 37.98 39.72 36.94 39.42 42.56 42.58 41.24 41.59 41.75 41.21 41.19 39.05 38.78 39.68 38.90
61.89 61.84 61.31 61.34 61.25 60.54 51.57 47.17 53.67 61.00 59.05 59.54 58.42 57.10 56.84 50.17 49.51 44.72 44.65 44.73 46.69 45.10 43.95 42.46 40.69 39.41 36.33 37.54 36.60 36.29 34.60 34.59 35.44 42.46 39.99 39.02 40.71 39.19 39.73 40.14 39.53 38.12 37.14
61.85 61.43 61.15 61.06 60.98 61.44 48.00 45.83 44.51 58.41 59.32 56.84 55.60 57.46 55.20 52.08 47.17 48.76 40.14 38.00 34.90 36.76 37.05 40.75 37.27 35.77 35.26 36.88 36.00 34.48 35.01 35.51 35.18 38.74 38.05 35.22 38.49 36.67 39.61 39.51 38.65 38.04 37.55
60.82 60.72 61.00 61.22 61.05 60.57 46.48 44.19 42.72 57.26 58.90 58.73 58.02 56.49 52.48 45.22 44.35 40.67 36.79 31.86 31.11 31.27 31.61 32.47 32.69 31.61 32.33 33.83 35.11 35.39 35.67 35.80 35.69 35.75 36.24 30.80 36.47 35.74 38.55 39.02 38.12 38.01 37.82
61.07 60.65 60.66 60.30 59.49 60.14 43.84 41.64 43.71 52.69 45.69 39.91 40.41 40.75 40.31 37.79 37.17 36.75 32.72 30.97 31.11 30.34 32.20 32.55 31.94 31.52 30.86 30.39 29.94 33.66 32.22 30.35 30.85 31.86 36.20 33.84 34.61 34.19 36.75 36.63 36.80 36.36 36.43
60.49 59.50 52.50 47.77 41.76 49.72 40.87 41.82 43.57 40.17 35.65 33.44 33.47 34.66 34.70 34.95 34.05 35.57 34.17 31.87 28.29 27.41 27.59 26.99 27.14 27.36 28.30 27.82 27.03 29.25 30.72 28.82 29.16 28.43 33.94 32.08 32.01 32.53 29.03 34.55 35.84 34.68 34.71

GFSMA_sfc_wetblb_072.txt.gz
Wetbulb
62.52 62.89 60.39 59.80 59.81 59.86 59.18 57.59 58.60 58.95 58.12 57.83 59.83 59.92 60.96 60.41 59.39 58.99 58.85 61.45 61.91 61.82 61.63 61.52 60.83 60.06 59.28 58.56 57.91 57.41 57.07 56.80 56.93 56.13 55.38 54.78 54.39 54.17 53.87 53.14 52.72 52.39 52.11
61.87 62.20 60.66 59.56 60.48 59.96 60.28 58.82 60.07 59.17 58.10 58.09 58.75 59.33 59.72 60.77 59.66 59.18 58.88 59.10 60.87 61.52 61.58 61.35 61.16 60.51 60.01 59.06 58.06 57.59 57.19 56.67 56.19 56.05 55.79 54.79 54.12 54.16 53.19 52.46 51.89 51.44 51.03
61.28 61.28 61.65 59.85 60.77 60.98 60.88 60.04 59.95 59.25 58.12 58.15 57.54 58.54 59.15 59.39 60.57 59.21 58.89 58.74 59.21 60.72 61.28 61.93 61.60 60.79 60.52 60.02 58.84 58.46 57.90 57.27 56.77 56.20 55.65 55.61 54.86 54.17 53.37 52.61 51.44 50.70 50.36
61.34 60.80 61.42 61.77 61.61 61.40 61.54 61.08 59.05 58.23 57.42 56.74 55.96 56.15 56.98 57.94 58.74 59.16 59.11 58.84 58.88 59.49 60.33 61.63 61.74 61.93 61.30 60.79 60.06 59.56 58.94 58.37 57.62 57.14 56.36 55.80 55.69 55.16 54.50 53.31 52.40 51.41 50.96
61.48 61.16 61.32 62.05 62.63 61.73 61.44 59.91 58.71 57.59 56.83 56.64 56.41 55.70 55.79 55.79 56.90 57.69 58.26 58.25 58.49 58.78 59.05 60.33 61.10 61.09 61.58 61.90 60.97 60.45 59.98 59.00 58.62 58.17 57.52 57.15 56.56 55.90 55.54 54.53 53.65 52.52 51.76
60.89 61.58 61.33 60.91 62.31 60.85 60.30 59.62 58.43 58.79 57.98 56.89 56.76 55.65 54.90 54.84 54.96 54.90 55.35 57.24 58.36 58.48 58.75 58.76 59.28 59.47 60.19 61.61 62.04 61.81 61.79 61.47 60.32 59.11 58.48 57.83 57.27 56.72 56.27 55.70 54.86 53.99 52.95
61.20 61.42 61.17 61.62 61.05 59.54 59.29 60.09 59.56 58.62 58.40 58.26 55.73 54.25 54.66 55.46 54.82 54.28 54.20 54.15 54.83 55.95 55.17 57.58 58.11 58.70 59.17 60.74 61.98 62.15 62.53 62.34 62.04 61.43 60.07 59.09 58.36 58.39 57.61 56.38 55.82 55.26 54.41
60.57 60.37 60.24 60.12 60.34 60.04 59.55 59.34 58.93 57.96 57.93 58.00 54.51 53.65 51.15 52.39 53.71 54.87 53.96 54.18 53.70 54.58 54.98 55.47 56.55 56.90 56.75 58.02 59.26 62.04 62.20 62.07 62.01 61.94 61.33 60.82 60.09 59.75 58.68 57.18 56.59 56.16 55.47
60.34 60.29 59.77 59.41 59.99 59.92 59.73 59.88 59.79 58.46 56.64 57.52 57.96 55.60 51.58 50.73 52.70 53.91 54.17 54.10 53.45 53.98 53.41 53.98 54.58 54.95 55.03 55.50 57.75 59.20 58.97 58.97 61.49 62.50 61.85 61.23 60.83 60.18 59.75 58.83 58.08 57.21 56.35
59.89 60.18 60.11 59.84 59.75 60.20 60.51 60.15 61.13 59.32 58.83 55.93 57.38 59.10 57.95 57.14 52.75 52.48 55.00 54.82 55.20 54.36 53.79 53.84 53.33 53.88 53.96 54.07 54.91 54.89 54.88 55.40 57.48 60.57 61.12 60.70 59.92 59.90 59.79 58.96 58.62 58.30 57.44
59.30 59.92 60.09 60.31 59.67 59.56 60.71 60.25 60.06 59.68 59.20 57.03 56.56 56.21 56.27 56.67 56.68 52.89 50.19 52.66 54.52 55.25 54.30 53.89 53.42 53.09 53.68 52.72 52.24 53.60 52.49 53.13 54.55 57.60 59.34 59.32 58.69 57.85 57.19 56.92 57.01 57.03 57.40
59.27 59.09 60.03 60.46 59.88 60.90 60.66 59.61 59.73 59.45 58.18 57.38 57.27 57.52 56.28 54.62 54.62 53.47 52.22 52.74 52.76 54.06 54.68 54.34 53.96 52.10 52.32 50.79 53.14 52.66 51.81 51.20 52.43 54.49 55.90 56.68 56.52 55.88 55.05 55.04 54.95 55.03 55.47
57.28 58.80 58.85 59.29 58.60 59.26 60.35 60.41 58.99 58.49 58.04 57.11 56.73 56.46 57.15 56.70 57.26 56.19 54.24 52.61 52.32 53.53 53.41 53.59 53.51 52.74 53.49 52.39 53.04 52.52 51.72 48.34 48.72 50.32 51.91 52.79 53.51 53.83 53.39 53.49 53.61 53.78 53.98
57.81 58.83 59.11 58.81 58.70 59.00 58.89 58.42 57.81 58.23 57.60 57.54 56.90 57.17 57.09 57.23 57.09 56.78 55.22 53.16 49.99 51.10 51.55 52.29 53.73 54.78 54.02 55.39 54.85 51.24 51.74 47.51 47.46 48.21 49.18 50.06 50.97 51.37 51.47 51.16 50.65 50.50 50.47
58.04 58.19 59.05 58.64 57.94 57.71 57.68 57.41 57.52 57.22 57.52 57.42 57.16 56.77 57.55 57.89 58.18 57.79 57.18 56.57 53.79 50.49 50.37 52.27 53.20 55.19 55.11 56.59 53.93 52.93 52.54 47.47 46.23 45.94 46.41 47.77 48.90 49.13 49.01 49.06 48.84 48.53 48.56
58.69 57.94 58.09 58.85 58.09 57.56 57.60 57.62 57.40 57.54 57.49 57.41 57.45 57.06 57.32 57.74 58.22 58.50 58.33 57.15 55.82 54.33 51.60 53.94 53.67 55.07 55.42 55.56 53.74 49.70 49.52 47.69 45.54 44.93 45.01 45.13 45.96 46.61 47.03 46.94 46.75 46.27 46.03
59.37 58.17 57.73 57.64 57.44 57.07 57.61 57.67 57.59 57.48 56.69 56.47 57.30 57.13 57.42 58.24 57.98 58.22 58.24 58.12 56.53 55.86 53.53 54.90 53.78 53.76 51.39 52.08 48.13 49.18 49.51 47.90 45.00 43.98 43.67 43.56 43.50 43.72 43.73 43.41 43.14 43.17 43.01
59.35 59.02 58.13 57.84 57.61 57.75 57.66 57.10 56.71 57.06 56.26 55.69 56.49 56.63 56.95 57.66 57.38 58.07 58.22 57.35 57.09 56.85 55.15 53.14 53.68 51.37 51.24 51.59 47.65 46.81 49.56 49.98 48.35 45.34 44.14 43.87 42.95 41.86 41.19 40.74 40.58 40.14 40.13
59.13 59.19 58.87 57.98 57.92 57.80 57.40 57.35 56.95 56.66 56.72 56.66 56.62 56.54 56.52 56.88 56.56 57.77 57.82 56.63 56.53 55.80 55.02 53.66 53.20 48.61 48.61 46.52 45.79 45.62 45.38 46.06 48.29 47.92 44.47 42.60 42.11 41.44 40.90 39.89 39.01 39.10 39.60
59.19 59.08 59.17 58.74 58.78 58.42 58.51 58.09 57.68 57.11 56.90 57.20 57.34 57.37 57.08 56.88 56.60 57.12 56.78 56.03 55.08 53.86 53.60 52.67 52.24 43.42 45.51 43.80 45.87 44.34 42.67 43.36 43.57 45.70 44.01 42.14 41.33 40.88 40.21 39.26 38.73 39.11 39.22
59.92 59.67 59.31 59.31 59.13 58.81 59.04 58.39 58.47 57.83 57.47 57.54 57.66 57.69 57.52 55.96 51.68 54.47 55.91 54.65 53.79 52.56 52.15 50.69 49.74 40.32 41.01 38.66 42.00 42.71 41.24 39.77 41.17 42.35 39.29 38.33 37.62 35.56 36.32 39.35 38.82 39.52 39.31
59.96 59.74 59.29 58.86 58.51 58.64 51.24 47.08 52.61 57.49 57.33 56.73 56.30 56.94 57.08 49.35 49.60 46.19 45.70 46.44 51.78 52.90 50.69 49.43 48.17 43.92 43.73 40.12 37.60 36.82 35.35 33.92 31.76 40.11 37.13 35.98 36.51 34.74 36.69 37.09 39.03 38.81 38.91
59.55 59.07 59.04 59.02 58.67 58.63 47.89 45.87 44.74 56.29 56.91 56.86 56.33 56.22 55.54 54.56 48.46 52.64 44.34 39.84 35.76 35.29 39.48 46.89 43.83 36.59 34.78 36.52 36.59 33.60 32.28 32.11 31.84 35.04 34.87 31.77 34.44 32.99 35.62 37.86 38.41 38.76 38.00
58.74 58.51 58.36 58.65 58.35 58.46 46.71 45.71 43.02 52.27 55.51 55.98 55.98 55.77 53.37 52.76 49.33 45.60 37.11 33.05 32.72 33.03 34.01 34.87 33.99 33.60 34.16 35.19 34.86 33.71 32.26 32.23 32.14 33.49 34.20 28.24 31.77 30.63 34.04 34.54 37.53 38.08 38.05
58.48 58.42 58.52 58.07 57.64 57.66 45.57 43.87 43.28 51.20 53.61 42.44 40.05 39.71 42.23 40.81 38.90 38.50 34.31 32.84 30.87 30.05 32.87 33.59 33.29 33.26 33.24 33.30 33.23 32.46 30.50 29.41 29.18 28.98 32.81 30.68 30.37 29.16 29.79 29.70 32.71 36.24 35.74
58.13 58.31 56.09 46.05 40.09 47.24 39.12 40.78 43.69 42.84 36.83 33.72 33.60 34.18 34.88 35.21 35.10 35.38 34.01 31.78 29.03 27.46 27.73 27.51 27.24 28.95 29.47 29.12 29.04 29.91 29.55 28.48 28.50 26.66 29.06 27.58 27.39 26.72 24.68 28.11 28.77 28.90 28.31

GFSMA_sfc_wetblb_075.txt.gz
Wetbulb
61.31 60.58 60.42 59.31 57.33 58.53 57.60 55.79 55.79 54.95 55.66 56.29 57.77 58.66 58.01 57.84 58.08 58.53 57.67 61.08 61.87 62.23 61.83 61.57 60.84 60.27 59.70 59.11 58.66 58.30 57.81 57.37 56.92 56.52 56.15 55.69 55.31 54.72 54.08 53.74 53.25 53.10 52.78
60.57 59.48 58.63 57.37 57.12 56.94 55.70 56.42 57.35 55.26 54.82 55.89 56.75 58.12 58.10 57.72 57.84 57.78 57.31 58.44 60.44 60.83 61.98 61.45 61.14 60.55 60.10 59.16 58.44 58.06 57.88 57.84 57.07 56.46 55.74 55.19 54.85 54.38 53.52 52.94 52.66 52.22 51.81
61.12 59.66 57.93 58.27 58.77 57.90 56.04 56.96 57.64 57.12 55.25 56.86 56.29 56.86 59.01 57.64 57.59 57.56 57.55 57.11 58.26 59.75 61.02 61.72 61.45 60.83 60.33 59.58 58.67 58.12 57.66 57.34 57.03 56.95 56.37 55.41 54.76 54.61 53.40 52.81 52.07 51.46 51.03
61.56 60.33 58.32 58.58 59.26 58.72 57.62 57.92 57.86 56.66 54.95 54.50 54.10 55.16 56.33 57.93 57.57 57.39 57.64 57.55 57.25 58.64 59.53 61.17 61.63 61.66 61.22 60.49 59.93 59.49 58.78 58.08 57.63 57.13 56.64 56.43 55.91 54.94 54.46 53.52 52.58 51.98 51.43
60.74 60.93 59.64 59.32 60.01 58.93 58.66 59.21 57.14 56.57 54.52 53.92 54.19 53.27 54.11 56.43 57.32 57.99 57.32 57.25 57.14 57.74 58.09 60.18 60.58 60.78 61.25 61.54 60.86 60.72 60.35 59.72 58.69 58.24 57.78 56.83 56.45 56.40 55.76 54.88 53.96 52.99 52.32
60.55 60.28 60.93 60.85 60.94 59.11 59.09 58.40 57.12 55.41 55.66 55.25 56.30 54.03 53.19 53.95 55.12 56.48 57.09 57.51 57.21 57.62 58.06 58.38 59.27 58.95 59.84 61.52 61.97 61.46 61.73 60.93 60.22 59.84 58.99 58.47 57.91 57.14 56.70 56.35 55.51 54.65 53.84
60.46 60.29 60.63 60.29 60.77 59.71 58.68 57.77 56.17 55.87 54.65 55.08 52.40 51.13 52.09 53.12 53.12 53.07 53.18 56.18 56.75 57.32 57.36 57.87 58.26 58.86 58.91 60.50 61.93 62.28 62.91 62.55 62.08 61.16 60.08 59.50 58.80 58.95 58.00 56.98 56.73 56.16 55.43
59.60 59.53 59.88 59.54 60.36 59.48 58.97 57.04 56.77 56.04 55.88 55.41 52.01 51.85 49.48 51.25 51.72 51.80 51.62 52.20 51.82 54.42 56.27 56.84 57.09 57.53 57.95 58.56 59.14 61.85 62.47 62.95 63.07 62.58 62.26 61.03 60.06 59.72 59.17 58.81 57.40 57.17 56.69
59.85 59.67 60.00 59.73 59.71 59.59 58.16 57.12 56.81 56.00 55.11 55.90 55.08 53.64 50.56 48.04 49.88 52.26 51.78 51.58 51.13 51.33 51.87 52.22 55.88 56.62 56.78 56.40 58.13 59.12 58.81 59.26 61.95 62.99 62.72 62.01 61.32 60.76 60.29 60.03 59.11 58.28 57.55
59.17 58.98 59.00 58.38 58.57 58.29 57.68 57.91 58.06 56.87 56.84 55.03 55.92 57.82 56.21 54.97 50.95 49.18 53.95 52.02 52.28 52.08 51.35 51.04 52.40 54.00 55.18 55.05 55.79 56.00 55.21 55.59 57.91 61.00 62.40 62.29 62.13 61.48 61.13 60.55 60.27 59.64 59.11
59.19 58.82 58.70 57.89 56.99 57.47 57.99 58.45 57.96 58.04 57.32 55.93 54.85 54.58 54.36 54.84 54.54 51.92 49.70 52.24 53.35 53.02 52.85 52.95 53.06 53.20 53.58 53.78 53.48 54.07 53.52 53.68 55.15 58.26 60.30 61.48 61.71 61.44 60.98 60.76 60.61 60.16 59.62
58.19 58.34 58.29 57.76 57.04 57.21 58.22 58.79 58.40 58.13 57.32 56.59 56.65 56.20 54.05 52.92 52.45 51.75 49.95 50.43 51.03 51.78 53.70 53.84 53.33 53.28 52.53 53.19 54.08 52.65 51.65 50.68 51.94 55.27 57.68 59.41 60.37 60.44 59.79 59.49 59.01 58.17 57.85
56.34 56.89 57.22 57.91 57.83 57.69 58.18 58.94 58.76 58.46 57.66 56.74 56.30 56.10 56.87 56.14 56.20 55.60 54.12 52.79 52.29 52.54 52.81 53.23 53.78 53.71 53.04 51.13 52.15 52.01 51.58 49.07 49.48 51.70 53.99 55.97 57.60 58.11 58.23 58.23 57.68 56.46 55.55
56.76 58.46 57.80 59.05 57.91 57.65 59.61 58.34 58.08 58.05 57.96 57.44 56.74 56.65 56.32 55.88 56.41 56.19 54.98 52.90 49.42 50.68 51.36 52.04 52.45 53.51 52.63 51.86 51.69 50.33 51.62 48.50 48.50 49.06 51.35 53.50 54.48 54.45 54.07 54.24 54.60 54.77 54.39
57.24 57.35 58.01 57.58 58.20 57.73 57.81 57.93 57.78 57.06 57.35 57.43 56.95 56.37 56.15 55.72 55.88 56.13 56.15 55.90 53.21 49.52 49.75 50.56 51.33 53.23 54.42 54.14 53.18 53.56 53.26 51.49 47.95 47.47 47.64 49.01 50.57 51.16 51.34 51.54 51.73 51.56 51.53
56.96 57.42 57.86 58.21 57.83 57.63 57.65 57.14 56.39 56.25 56.29 56.55 56.80 56.17 55.86 56.05 56.10 56.69 56.85 56.46 56.03 54.13 51.50 52.83 52.22 53.09 53.69 54.89 54.32 54.36 54.73 51.35 46.93 46.13 45.91 46.77 47.71 48.80 49.07 48.94 48.80 49.14 49.43
56.12 56.88 57.68 58.20 58.18 57.31 56.80 56.37 56.25 55.78 55.69 55.80 56.41 56.10 56.02 55.80 55.76 55.89 56.47 56.37 55.82 55.57 52.80 54.51 54.97 55.07 53.15 54.52 54.59 54.20 54.16 52.36 51.14 45.40 45.13 45.22 45.41 45.71 45.77 45.82 46.33 46.61 46.72
57.70 56.98 56.80 57.02 57.56 57.26 56.66 55.68 55.37 55.82 55.53 55.38 55.75 55.79 55.52 55.84 55.42 56.44 56.35 55.91 55.88 56.03 54.66 52.77 54.84 54.13 51.26 52.87 54.38 49.94 49.94 50.54 48.36 45.52 44.48 44.37 44.67 43.52 43.06 43.11 43.06 42.82 42.68
57.81 58.04 57.41 56.41 56.26 56.58 56.31 55.83 55.62 55.49 55.64 55.78 55.47 54.54 54.73 54.78 54.97 56.02 56.06 56.22 56.61 56.37 56.18 55.27 54.56 55.58 53.52 48.39 49.33 47.87 48.83 49.28 48.78 47.85 43.54 43.31 42.80 42.83 42.42 41.70 41.22 40.83 40.49
57.11 57.55 57.68 57.00 56.44 56.39 56.21 56.02 55.78 55.37 55.41 55.64 55.50 55.24 55.13 54.75 54.71 55.27 55.40 55.72 56.50 56.50 56.30 55.13 54.36 54.02 50.16 47.74 49.70 50.33 44.82 46.68 46.77 47.73 45.76 43.64 43.26 42.59 41.94 41.14 40.30 39.53 39.36
57.74 57.58 57.30 57.47 57.20 56.69 56.67 56.17 56.25 55.62 55.13 54.95 55.17 55.50 55.45 54.30 50.74 52.91 55.24 55.29 56.16 55.69 55.27 53.98 52.55 52.40 46.08 40.10 44.11 47.04 47.42 46.41 41.65 42.77 41.41 40.80 40.50 39.83 39.51 40.09 38.58 39.70 39.81
57.63 57.62 57.30 57.17 56.84 57.11 50.34 46.55 51.69 55.75 55.56 54.97 54.40 55.17 55.68 49.57 49.57 45.85 45.57 47.55 53.82 55.19 54.26 53.32 52.50 51.16 50.80 47.72 44.76 40.78 36.42 35.49 35.19 39.08 36.74 35.99 38.61 37.13 38.62 38.94 38.38 38.85 38.66
57.62 57.17 57.32 57.30 56.77 57.15 47.12 45.66 44.52 55.56 55.88 55.92 55.48 55.45 54.91 54.86 48.76 53.53 43.85 38.65 36.38 36.33 38.42 48.87 51.13 50.52 42.81 37.37 36.88 34.24 33.32 33.29 32.49 33.14 34.51 32.12 35.52 33.50 37.42 38.44 38.24 38.43 38.49
57.73 57.61 57.59 57.55 57.40 57.60 46.42 44.67 42.38 51.42 55.16 55.43 55.19 55.02 54.57 54.32 51.64 49.48 39.85 34.17 32.99 33.52 34.44 36.11 36.86 34.47 35.03 35.72 36.09 35.29 33.63 32.18 31.96 33.38 33.94 29.59 32.66 31.71 34.85 35.52 37.45 38.33 37.79
57.48 57.67 57.86 57.17 56.69 57.44 45.79 45.14 44.25 52.56 53.21 53.79 42.80 41.03 45.58 47.54 43.11 41.17 36.47 32.13 30.66 30.54 33.91 34.49 34.19 33.85 33.91 34.48 34.99 34.04 31.44 30.74 28.71 29.77 32.28 30.57 31.16 30.85 31.13 31.01 33.18 35.80 33.61
57.00 57.22 55.38 47.98 40.12 49.70 38.49 40.53 42.12 49.85 44.93 36.46 34.59 35.12 35.72 37.68 36.02 36.07 34.34 31.75 28.42 27.59 28.49 29.18 29.39 29.19 29.80 30.80 32.32 31.83 31.17 28.62 28.84 27.64 29.61 28.02 27.40 27.13 25.52 28.00 28.04 28.57 28.32

GFSMA_sfc_wetblb_078.txt.gz
Wetbulb
62.53 61.96 61.35 60.49 58.91 57.66 56.88 55.62 55.21 55.53 55.59 56.63 57.97 57.12 57.18 57.18 57.59 58.24 57.72 61.42 61.93 62.27 62.06 61.87 61.35 61.06 60.59 59.88 59.21 58.72 58.44 58.26 57.69 57.17 56.77 56.25 55.52 55.14 54.71 54.22 53.80 53.90 54.13
61.65 60.43 59.55 58.46 56.95 55.97 55.37 54.35 53.93 53.22 53.82 55.86 57.25 57.14 57.10 57.24 57.77 57.10 57.06 59.19 60.86 61.77 61.95 61.63 61.35 60.90 60.40 59.89 58.83 58.54 58.20 57.95 57.29 56.95 56.39 55.87 55.30 54.47 54.15 53.53 53.14 52.97 52.67
59.89 59.87 58.33 57.55 56.90 54.40 52.98 53.98 54.82 53.43 52.99 56.26 57.07 56.63 56.82 56.77 57.24 56.81 56.55 56.35 58.47 60.10 61.08 61.58 61.35 60.87 60.49 60.01 59.13 58.85 58.56 57.83 57.27 56.93 56.22 55.64 55.07 54.51 53.64 53.05 52.92 52.42 52.03
59.59 57.63 56.51 56.93 56.57 55.44 54.38 54.46 55.11 53.24 53.41 54.67 56.07 56.49 55.95 56.14 56.76 56.63 56.47 56.13 56.07 56.97 59.60 61.16 61.36 61.36 60.42 60.04 59.55 59.29 58.72 58.32 58.07 57.60 56.84 56.11 55.49 55.29 54.21 53.74 53.02 52.52 52.11
58.95 56.66 56.17 57.54 56.77 55.48 55.28 56.19 55.29 54.28 53.42 53.05 55.34 55.25 55.79 55.29 55.61 56.86 56.10 55.88 56.17 56.96 57.08 59.98 60.53 60.49 61.03 60.95 60.54 60.45 60.06 59.25 58.64 58.18 57.75 57.41 56.96 56.28 55.73 54.93 54.14 53.51 52.77
59.58 57.56 57.77 59.03 57.01 56.34 56.20 56.57 55.37 54.48 54.37 53.44 55.48 54.07 54.54 55.41 55.27 55.18 55.89 57.03 56.69 56.91 56.77 56.95 58.46 58.56 59.58 61.18 61.74 61.35 61.22 61.06 60.27 59.53 59.13 58.27 57.71 57.47 56.93 56.51 55.67 55.02 54.37
60.28 58.75 57.80 59.56 58.50 57.55 57.52 56.91 55.23 54.32 52.29 52.79 51.44 50.47 51.06 53.45 54.65 55.31 55.52 55.96 55.70 56.21 55.76 57.02 57.58 57.95 58.42 60.34 61.55 61.89 62.65 62.75 62.26 61.29 60.54 59.66 59.05 58.92 58.12 57.48 57.33 56.70 56.05
59.54 59.57 58.65 59.54 59.92 58.46 56.97 55.01 55.13 53.94 53.58 53.65 51.60 50.02 47.45 50.06 51.81 52.41 53.77 55.04 54.35 56.16 56.18 56.82 56.93 57.50 57.60 57.90 58.83 61.68 62.47 62.76 63.09 62.55 62.07 61.49 60.81 60.15 59.85 59.31 57.99 57.73 57.25
59.57 59.50 59.58 59.67 59.74 59.08 57.03 55.09 54.85 55.67 53.52 52.92 53.34 51.61 48.92 46.89 49.81 50.65 50.57 51.04 52.05 53.13 55.61 56.08 56.16 56.63 57.37 57.48 58.15 58.71 58.52 59.09 61.97 63.55 63.14 62.22 61.46 61.12 60.54 60.23 59.80 59.42 58.27
59.16 58.98 59.16 59.26 59.09 59.00 57.58 57.46 56.91 54.82 54.50 53.28 53.23 56.00 55.14 53.66 49.06 48.97 52.59 50.98 50.34 50.25 51.03 52.31 54.85 55.80 56.18 56.51 56.80 56.40 55.33 55.23 57.57 61.02 62.55 63.03 62.37 61.75 61.25 60.75 60.17 59.98 59.82
58.79 58.52 58.90 58.96 58.77 58.27 57.85 58.01 57.96 56.31 55.47 54.56 52.82 54.46 54.64 54.41 53.14 50.44 47.49 50.75 51.51 51.59 51.62 51.69 51.79 52.30 54.61 55.53 55.10 54.96 53.38 52.98 54.62 58.06 60.38 61.68 62.31 62.24 62.01 61.57 61.01 60.77 60.53
58.08 57.98 57.91 58.46 58.51 58.35 57.19 57.86 58.68 57.30 56.10 55.80 54.86 54.72 54.27 52.62 51.59 50.75 48.73 49.50 49.74 51.87 52.72 52.09 51.21 51.82 52.23 52.68 54.47 53.50 52.13 51.24 52.53 55.29 57.66 59.39 60.70 61.21 61.92 61.71 61.59 61.53 61.16
56.79 57.48 57.31 57.26 57.69 58.14 58.21 58.09 58.26 56.34 55.61 54.94 55.69 55.25 55.38 54.79 54.64 53.44 51.30 50.35 50.64 52.22 51.76 52.70 53.64 53.75 53.47 52.89 52.93 52.05 52.08 49.53 50.37 52.99 55.05 56.62 57.87 58.88 59.81 60.53 60.75 60.97 60.73
56.95 57.98 57.71 57.57 57.36 57.09 57.66 58.10 57.37 56.98 57.02 56.28 54.76 55.13 56.00 55.90 56.12 55.70 54.38 52.64 50.08 50.84 52.32 53.41 53.53 54.07 53.67 53.46 52.67 50.86 52.33 48.86 48.61 49.41 51.15 52.88 54.48 55.52 56.54 57.76 58.54 58.60 58.73
57.12 57.47 57.46 58.07 57.82 57.69 57.78 57.69 57.35 56.68 57.10 56.26 56.43 56.20 55.78 56.06 55.88 56.16 55.99 54.90 52.67 49.39 50.39 51.65 52.00 53.80 54.86 55.30 53.49 52.81 52.05 50.97 48.18 47.70 47.93 49.22 51.02 52.44 53.49 54.87 55.82 56.02 56.09
56.31 57.04 57.36 56.76 58.00 57.82 58.02 58.04 57.21 57.00 57.10 56.70 56.71 55.95 56.12 56.31 56.52 56.56 55.96 55.80 55.22 53.27 50.13 53.17 52.48 53.80 54.15 54.73 54.27 53.23 53.66 51.23 48.84 46.94 46.62 47.14 48.04 49.98 51.48 52.56 52.64 52.28 52.59
55.17 55.83 56.89 57.26 57.30 57.88 57.53 57.15 57.45 57.06 56.62 56.53 56.40 55.48 55.34 56.07 55.88 55.85 55.93 55.78 55.01 54.46 51.98 53.02 53.83 54.30 51.19 52.73 53.62 53.06 53.74 53.76 53.91 48.33 46.62 46.32 46.20 46.78 48.41 48.32 48.79 49.14 49.21
54.33 55.35 56.22 56.70 57.17 57.26 57.12 57.15 56.54 56.29 55.20 55.48 55.48 55.30 54.89 55.38 54.60 55.24 55.33 54.94 54.44 54.54 53.00 51.32 53.49 53.43 51.72 53.93 53.97 53.05 53.54 54.24 54.11 50.96 46.66 46.11 45.77 45.22 45.30 45.24 45.13 45.52 45.68
55.02 54.54 55.51 55.77 56.18 56.72 56.54 56.02 55.59 55.20 55.04 54.82 54.85 54.29 54.57 54.30 54.01 54.65 54.79 54.34 54.09 54.17 54.01 53.31 53.12 54.70 54.91 52.34 52.33 51.81 53.43 52.98 52.22 49.91 45.13 44.12 44.70 45.18 44.71 44.11 43.91 43.43 42.49
57.19 56.80 55.69 55.66 55.71 56.06 56.65 56.41 55.74 54.96 54.39 54.20 54.31 54.47 54.30 54.21 54.14 54.15 53.72 53.90 54.32 54.05 54.21 54.08 53.93 54.29 55.34 54.23 51.90 53.08 50.81 50.04 50.83 50.91 47.32 44.36 43.96 44.10 43.44 42.14 41.62 41.48 40.40
57.01 57.07 57.15 56.91 56.34 56.09 55.73 55.77 55.82 55.07 54.35 54.12 54.32 54.59 54.96 53.75 50.48 52.23 54.21 53.98 53.90 53.48 53.43 53.39 53.56 54.03 54.03 44.37 47.32 51.87 49.51 51.61 42.29 43.08 42.62 41.78 42.38 42.31 42.04 41.41 40.59 38.58 38.60
57.72 57.49 56.41 56.47 56.37 56.47 49.78 46.61 51.61 54.83 54.69 54.01 53.43 53.90 54.44 49.03 48.99 44.93 44.66 45.99 51.22 52.80 52.64 53.27 53.53 52.86 53.60 53.88 51.26 50.11 50.60 37.83 39.20 39.23 37.61 36.34 38.47 37.28 38.19 38.47 38.34 37.51 37.07
56.59 56.43 56.30 56.28 55.95 56.38 46.96 45.33 44.17 54.52 54.74 54.21 53.92 53.86 53.65 54.11 48.64 52.77 46.48 42.37 42.00 39.13 41.04 52.71 53.58 53.95 53.82 54.55 51.88 37.50 36.19 35.43 33.14 34.56 35.60 32.23 35.67 35.02 38.37 38.87 38.06 37.53 37.53
56.18 56.15 56.15 56.52 56.41 56.66 45.95 44.78 43.06 52.09 54.75 55.28 55.32 54.96 54.39 54.21 53.61 52.48 52.03 45.40 40.64 35.01 35.52 37.36 39.63 39.63 36.25 37.83 39.45 38.25 35.36 32.29 32.07 32.64 34.16 30.37 32.93 31.86 34.69 34.87 35.30 36.17 36.38
56.62 56.53 56.77 56.27 56.08 56.43 43.54 44.21 44.27 53.37 54.18 54.68 55.21 55.43 53.72 53.91 50.61 45.43 47.91 37.71 31.80 31.60 34.19 34.61 33.92 33.50 33.62 34.40 35.84 35.58 32.55 32.78 29.09 29.47 32.31 30.94 30.91 30.91 31.87 31.90 34.45 36.04 33.56
52.28 55.47 45.95 38.17 35.55 37.86 35.01 36.35 39.18 49.99 51.76 51.28 40.68 36.83 35.17 37.83 39.00 39.36 47.91 37.04 30.96 29.15 29.79 29.56 29.36 30.01 30.47 30.94 31.53 30.95 31.57 29.40 28.72 27.20 27.32 28.04 27.58 27.65 25.80 28.03 29.31 28.81 28.31

GFSMA_sfc_wetblb_081.txt.gz
Wetbulb
62.99 63.86 63.17 62.43 61.40 59.60 58.50 55.38 54.59 55.84 56.47 56.64 56.64 57.23 56.82 57.22 57.28 57.87 58.24 61.58 61.98 62.75 62.54 62.59 62.33 61.61 61.01 60.39 59.75 59.41 59.11 58.98 58.70 58.33 57.62 56.73 56.07 55.73 55.37 54.81 55.02 55.32 55.35
63.65 62.87 61.76 60.40 59.56 59.07 57.51 55.29 54.90 54.68 56.18 56.47 55.89 56.84 57.03 56.96 57.09 56.66 57.56 59.21 60.97 61.88 62.33 62.02 61.97 61.49 60.92 60.25 59.41 58.99 58.86 58.49 58.11 57.62 56.93 56.29 55.77 55.33 54.65 54.33 54.02 54.15 54.33
62.99 62.01 60.75 58.77 58.17 57.06 55.33 53.78 52.70 53.21 55.20 56.87 55.87 56.13 56.89 56.75 56.80 56.36 56.30 56.94 58.82 59.99 61.02 61.87 61.52 61.04 60.94 60.27 59.43 59.13 58.69 58.24 58.04 57.40 56.80 56.35 55.56 55.06 54.55 54.17 53.78 53.48 53.22
62.60 60.99 59.36 57.77 57.41 54.68 54.09 54.41 53.04 51.90 55.18 56.00 55.37 55.01 55.89 56.22 56.01 55.76 55.68 55.98 56.20 57.37 59.66 60.84 61.13 61.24 60.73 60.46 60.02 59.47 59.06 58.32 57.75 57.31 56.91 56.47 55.90 55.11 54.48 54.19 53.57 53.30 53.02
60.81 59.50 57.99 56.16 56.52 54.92 54.31 54.85 53.55 52.74 53.52 54.36 55.23 54.35 55.04 55.32 55.03 56.22 55.17 55.01 55.11 55.53 56.26 59.94 60.32 60.19 60.73 60.43 60.19 60.39 60.00 59.43 58.89 58.16 57.58 56.95 56.31 56.13 55.28 54.76 54.21 53.75 53.42
58.91 57.36 56.46 55.24 55.37 53.89 54.18 54.86 54.47 52.57 54.11 54.78 56.03 54.34 53.56 54.22 54.32 54.29 54.22 55.49 55.27 55.57 55.92 56.58 57.59 57.85 59.45 60.84 60.48 60.67 60.85 60.50 59.70 59.30 58.89 58.47 57.97 57.30 56.63 56.24 55.58 55.04 54.49
57.53 56.01 56.47 55.11 55.01 53.36 54.65 56.01 54.62 52.64 51.70 53.27 51.86 50.51 51.23 53.86 53.88 54.12 54.62 54.68 55.27 55.91 54.85 55.92 56.66 56.68 57.59 60.20 61.41 61.66 61.91 62.13 61.78 60.59 59.89 59.60 58.88 58.80 58.57 57.89 57.21 56.81 56.13
57.23 56.37 57.34 55.30 55.67 54.70 55.65 55.44 54.02 52.09 51.45 52.06 51.35 49.85 47.81 50.03 51.75 53.32 54.34 55.34 54.93 55.40 55.54 56.29 56.10 56.71 56.57 57.03 58.19 61.43 62.04 62.53 62.99 62.64 62.23 61.39 60.72 60.36 59.77 59.02 58.44 58.08 57.85
59.14 56.91 57.72 56.97 56.82 56.89 56.22 55.90 54.57 53.48 52.01 51.46 52.94 50.37 47.13 46.40 49.78 50.34 52.03 54.27 54.09 53.77 55.22 55.65 56.02 56.20 56.62 56.41 57.51 58.34 58.17 58.80 61.80 63.55 63.14 62.40 61.83 61.40 60.91 60.63 60.15 59.74 59.44
59.30 58.96 58.61 59.29 57.88 57.52 57.10 56.22 56.01 55.28 54.03 51.73 51.00 54.32 52.80 51.75 47.88 47.59 51.77 51.58 52.98 53.03 54.07 54.58 55.16 55.69 56.04 56.72 57.01 56.13 55.05 54.99 57.33 60.79 62.30 63.08 62.88 62.19 61.64 61.43 61.04 60.84 60.43
59.02 58.74 59.12 58.89 58.88 58.62 57.96 57.14 55.72 55.01 54.17 52.49 50.81 53.08 53.34 53.06 52.15 50.28 48.88 50.86 49.77 50.48 52.11 53.37 53.93 54.76 55.41 55.92 56.30 55.94 53.79 53.31 54.44 57.76 60.23 61.49 62.19 62.91 62.52 62.08 61.58 61.25 61.10
58.17 58.40 58.61 58.80 58.79 58.28 58.05 57.79 57.58 56.14 55.45 54.38 53.29 53.65 53.01 52.16 51.50 50.51 49.68 48.86 49.29 50.76 51.41 50.87 50.95 51.98 52.92 54.71 55.86 54.44 52.85 51.81 52.82 55.19 57.32 59.24 60.54 61.34 61.73 62.06 62.23 62.03 61.64
57.22 57.70 57.99 58.02 58.01 57.91 57.66 57.76 57.62 57.20 56.14 54.20 53.73 53.85 54.56 53.80 53.70 52.73 51.22 50.58 49.27 50.69 51.21 52.14 52.88 52.70 52.23 51.85 52.58 52.71 52.92 50.13 50.84 52.58 54.46 56.09 57.61 58.66 59.68 60.47 61.21 61.68 62.01
56.95 58.06 57.34 57.79 57.88 58.03 57.15 56.94 57.08 57.14 56.58 55.95 55.07 54.56 55.12 54.48 55.03 54.70 52.90 51.69 48.85 48.66 49.94 51.63 53.03 53.52 53.65 53.43 53.20 50.83 52.70 49.04 49.06 49.68 51.10 52.80 54.21 55.36 56.10 57.25 58.47 59.42 60.02
56.56 57.39 57.40 57.00 56.95 57.59 57.33 56.94 56.56 56.49 57.04 56.65 55.83 55.37 55.87 55.83 55.85 55.92 55.39 54.46 52.16 48.77 49.03 51.01 52.01 53.93 54.76 54.72 53.52 53.14 52.54 51.27 48.42 47.95 48.14 49.37 51.33 52.69 53.56 54.40 55.32 56.39 57.56
55.17 55.79 56.55 56.39 56.92 57.09 57.36 57.26 57.03 56.83 56.65 56.86 56.43 55.13 54.99 55.19 55.61 55.79 55.43 55.03 54.51 53.12 50.21 53.75 53.06 53.48 54.43 54.86 54.90 53.73 53.34 50.89 48.61 46.93 46.51 47.06 47.95 49.40 50.39 51.36 52.39 53.14 54.32
54.15 55.35 56.62 56.89 56.69 57.01 57.10 56.85 57.12 56.84 56.26 56.16 55.84 55.27 55.09 56.10 55.32 55.50 55.49 55.02 54.42 54.25 51.86 53.59 54.57 53.72 51.85 53.05 53.79 53.93 53.93 53.33 53.12 47.73 46.56 46.37 46.07 46.14 47.07 47.80 48.53 49.82 51.03
53.41 54.82 55.56 56.72 57.05 56.81 56.64 56.76 56.23 56.26 55.63 55.45 55.56 55.44 55.28 55.45 54.91 55.13 54.86 54.14 54.24 54.54 53.17 51.76 53.88 53.76 51.63 53.39 53.47 53.21 53.43 53.89 53.93 51.76 48.22 47.22 46.76 45.94 45.41 45.54 45.87 46.92 48.12
52.55 53.80 54.77 55.06 55.72 56.06 55.78 56.12 56.69 56.40 56.10 55.99 55.94 55.49 55.48 55.16 54.27 54.67 54.33 54.03 53.99 54.26 54.32 53.01 52.71 54.67 54.25 50.87 51.23 51.37 53.05 53.81 53.97 52.03 48.05 46.47 46.26 46.06 45.40 44.88 45.02 45.94 46.38
54.70 53.40 53.50 54.45 54.92 55.37 55.98 56.03 55.68 55.43 55.45 55.27 55.27 55.64 55.16 54.50 54.17 54.27 53.80 54.07 54.36 53.91 53.64 52.81 52.54 52.71 53.19 53.66 52.30 53.64 53.05 51.99 52.91 53.81 50.44 48.29 46.69 44.91 44.35 44.13 43.86 44.63 43.46
56.81 56.10 55.11 54.38 54.36 54.49 54.80 55.06 55.61 55.34 54.57 54.05 53.97 53.85 54.07 53.23 49.90 51.75 53.98 53.42 52.84 52.21 52.15 52.09 52.01 52.47 52.22 52.29 49.21 53.08 52.27 52.95 53.58 51.29 49.17 43.07 43.54 43.48 43.79 42.90 43.28 42.38 40.19
55.64 56.18 56.57 56.34 55.49 55.03 48.07 45.34 49.66 54.51 54.54 53.99 53.43 53.71 53.88 48.46 48.37 44.44 44.39 45.74 50.99 51.97 51.01 51.30 51.36 50.91 51.16 52.38 53.23 52.74 52.03 51.61 47.95 41.05 40.47 36.87 38.98 38.47 40.14 39.55 39.16 38.95 38.53
55.55 55.45 55.32 55.58 55.70 56.48 46.63 45.42 44.37 53.78 54.45 54.30 53.91 53.87 53.64 53.73 48.40 52.56 46.69 42.24 42.88 42.48 44.97 52.41 51.36 51.41 51.31 52.77 53.31 52.72 51.53 51.50 50.28 36.72 36.11 32.54 36.03 35.49 38.69 38.64 38.28 37.99 37.52
55.05 55.59 55.78 56.27 56.03 55.67 42.21 43.80 43.07 52.01 54.53 54.55 54.75 54.46 54.22 54.29 53.75 52.40 51.95 51.08 48.73 48.91 44.08 43.16 46.88 47.47 42.98 39.62 43.11 42.85 38.56 32.60 32.54 32.63 34.12 31.73 32.19 31.47 34.23 34.72 35.62 35.90 36.13
53.07 55.97 56.36 55.80 52.51 43.57 36.23 36.62 38.47 49.86 52.97 54.15 55.08 55.12 47.31 50.44 48.14 44.53 49.67 49.32 40.29 32.03 34.24 34.73 34.13 33.79 33.73 33.97 35.68 36.14 33.26 34.03 31.20 28.73 28.73 31.12 29.89 30.49 31.06 31.63 33.46 34.58 34.21
42.62 40.53 35.01 33.61 33.98 33.74 34.37 35.46 36.97 41.61 48.06 49.37 38.12 34.82 34.14 34.15 34.09 35.13 38.51 46.47 35.48 29.36 29.77 29.84 29.32 29.22 29.87 30.32 30.91 29.74 31.91 30.20 28.66 25.56 26.56 27.50 27.26 27.39 26.53 28.80 28.61 28.55 28.74

GFSMA_sfc_wetblb_084.txt.gz
Wetbulb
62.71 62.31 63.57 63.14 63.23 60.28 58.05 57.26 57.28 58.00 56.42 56.14 56.71 57.48 57.01 57.11 57.54 58.30 59.16 61.73 62.49 63.44 63.24 63.34 62.70 62.07 61.63 60.93 60.43 60.18 59.92 59.78 59.50 58.91 58.57 58.17 57.73 57.26 56.88 56.93 56.89 56.76 56.09
63.23 62.88 63.24 62.40 61.13 60.34 57.29 55.51 56.67 57.08 56.44 56.62 56.12 56.37 56.86 57.61 57.56 57.84 58.39 60.01 61.12 62.29 62.23 62.28 62.19 62.14 61.54 60.90 60.31 59.76 59.63 59.40 59.21 58.75 58.09 57.13 56.71 56.23 55.69 55.50 55.86 55.88 55.47
62.43 63.10 62.28 60.76 60.24 59.33 56.35 54.61 54.29 55.21 55.69 56.04 55.73 55.93 56.70 57.45 57.41 57.23 57.49 58.18 59.57 60.25 61.44 62.42 62.26 61.45 61.23 60.80 60.00 59.60 59.36 58.92 58.77 58.18 57.33 56.69 56.40 55.84 55.22 54.92 54.71 54.73 54.89
62.98 62.51 61.79 60.25 59.62 58.09 55.72 54.97 54.98 54.99 54.95 54.99 54.32 54.83 55.89 56.61 56.46 56.68 56.96 57.39 57.53 58.24 59.97 60.99 61.43 61.81 60.87 60.68 60.22 59.84 59.49 58.96 58.62 57.96 57.40 56.88 56.23 55.77 55.32 54.76 54.48 54.22 53.92
63.03 62.57 61.40 59.73 57.11 56.55 55.86 53.93 52.97 55.49 54.77 54.55 54.73 54.43 54.71 55.00 55.32 56.54 55.82 56.11 56.55 57.05 57.40 59.98 60.06 60.17 60.86 60.95 60.24 60.33 60.10 59.29 58.71 58.39 57.89 57.19 56.75 56.07 55.46 54.94 54.56 54.37 53.91
62.84 62.20 60.07 57.63 57.72 56.13 55.34 54.16 53.53 54.34 55.26 54.87 55.55 53.85 53.50 54.13 54.89 54.87 54.83 55.86 55.72 56.26 56.99 58.02 58.73 58.39 59.22 60.79 60.60 60.70 60.84 60.64 59.81 59.14 58.62 58.00 57.44 57.01 56.58 55.78 55.49 55.03 54.81
62.31 60.26 57.54 55.87 56.59 56.03 54.91 54.22 53.68 53.32 52.61 54.18 52.69 51.22 51.54 53.03 53.86 54.01 54.69 54.81 55.16 55.79 56.40 56.95 57.71 57.52 58.40 59.99 61.23 60.95 61.34 61.71 61.12 60.27 59.85 59.44 59.05 58.77 58.01 57.26 57.05 56.50 56.00
58.58 57.96 56.07 55.61 54.56 54.39 54.63 54.54 53.69 51.52 51.83 54.60 51.53 50.64 48.64 50.85 53.00 54.26 54.63 55.01 55.13 56.03 55.92 56.39 56.54 57.12 57.15 58.03 58.89 61.23 61.63 62.34 62.64 62.26 61.63 61.14 60.63 60.25 59.85 59.10 58.71 58.22 57.80
56.99 57.26 55.93 55.32 53.85 54.40 54.15 54.76 53.54 52.91 52.86 52.47 54.88 51.60 47.86 48.29 50.47 52.15 53.22 54.57 54.87 54.89 56.02 56.18 56.20 56.56 57.16 57.42 57.72 58.63 58.29 58.78 61.81 63.49 63.27 62.43 61.48 61.07 60.97 60.60 60.17 59.93 59.93
56.76 57.15 56.00 54.88 54.63 54.73 54.54 55.40 55.11 53.82 53.92 51.71 51.63 53.30 52.72 51.48 49.55 47.66 51.39 53.28 54.61 53.98 54.87 55.12 55.87 56.28 56.65 56.99 56.97 55.85 54.83 54.95 57.17 60.59 62.47 63.23 63.12 62.49 62.03 61.49 61.23 60.79 60.69
57.20 57.59 58.23 56.47 55.59 55.93 56.20 56.13 55.30 54.57 54.26 53.01 51.82 52.55 52.68 52.97 52.27 49.47 48.03 50.31 51.13 53.17 54.84 55.02 55.26 55.66 56.10 56.53 56.85 56.32 53.56 53.01 54.04 57.65 59.97 61.42 62.18 62.92 62.77 62.49 62.14 61.81 61.46
58.01 57.62 57.97 58.35 58.12 57.21 57.16 56.34 55.91 55.28 54.18 53.67 53.15 53.56 53.01 51.99 51.63 51.07 49.75 49.97 49.75 51.08 52.51 53.48 54.10 54.71 55.63 55.87 56.34 54.69 53.12 51.88 52.71 55.01 57.20 59.01 60.47 61.40 61.79 62.31 62.82 62.75 62.40
57.54 57.84 58.00 56.96 58.11 57.89 57.54 57.35 56.58 55.81 54.87 53.87 53.01 53.22 54.10 53.60 54.26 53.10 51.63 50.46 50.08 51.98 52.12 52.04 52.01 52.64 53.33 54.23 55.33 53.67 53.61 50.66 51.25 53.09 54.75 56.15 57.40 58.61 59.76 60.74 61.42 61.81 62.09
57.97 58.49 58.39 58.63 58.14 57.97 57.74 57.61 57.47 56.99 56.02 55.20 53.96 53.36 53.81 54.36 54.42 54.30 52.90 51.65 49.66 50.19 51.49 52.34 53.53 53.80 53.46 53.11 52.30 50.70 53.62 49.86 49.60 50.19 51.37 52.96 54.34 55.30 56.14 57.16 58.41 59.11 59.78
57.87 57.97 58.15 57.99 58.34 58.48 57.84 57.15 57.20 56.94 56.79 55.98 55.50 55.16 54.51 54.88 55.60 55.12 54.90 54.34 52.41 48.88 49.83 51.37 52.39 54.41 54.85 54.85 53.50 53.77 52.99 51.32 48.65 48.27 48.57 49.75 51.24 52.62 53.38 54.12 54.95 55.55 56.67
56.99 57.21 57.29 57.39 57.41 57.80 57.98 57.05 56.34 56.52 56.61 56.62 56.60 55.60 55.26 55.85 55.72 56.09 55.66 54.85 54.12 53.44 50.39 52.12 52.85 53.80 54.75 55.20 55.12 54.59 54.65 51.49 48.94 47.22 46.85 47.36 48.22 49.68 50.52 51.12 51.80 52.75 53.64
55.05 56.38 57.09 57.18 56.68 56.90 56.98 56.51 56.16 56.16 55.61 55.71 55.99 55.70 55.48 56.04 55.97 55.84 56.09 55.71 54.89 54.10 51.46 52.95 54.44 55.48 53.20 54.44 54.86 55.08 54.89 54.55 54.18 47.90 46.56 46.57 46.22 46.47 47.28 47.84 48.59 49.56 50.59
53.79 54.94 56.10 56.42 56.56 56.42 56.63 56.55 56.29 56.64 55.80 55.58 55.75 55.55 55.31 55.72 55.46 56.04 55.34 54.87 54.59 54.84 53.40 51.42 53.71 53.93 52.67 54.89 54.43 54.92 54.56 54.41 54.81 51.66 48.40 47.20 46.84 45.90 45.26 45.44 45.67 46.11 46.84
52.58 53.67 54.65 55.32 55.72 56.14 56.43 56.30 56.12 55.56 55.50 55.48 55.71 55.88 55.47 55.64 54.89 55.20 54.85 54.53 54.75 54.48 54.27 52.68 52.41 54.47 54.69 55.04 53.60 53.16 53.89 54.44 54.34 51.96 48.17 47.07 46.95 47.05 46.52 45.83 45.63 45.40 45.14
51.82 52.40 54.00 54.49 54.35 54.49 55.70 56.14 56.09 55.81 55.79 55.75 55.96 56.00 55.94 55.36 55.13 54.95 54.51 54.42 54.22 53.81 53.65 52.70 52.67 53.09 54.02 55.07 53.60 52.66 52.32 53.10 52.64 54.47 52.15 50.37 49.04 48.06 46.48 45.40 44.57 44.63 44.57
54.04 52.80 52.72 53.34 53.87 54.12 54.77 54.95 55.11 54.77 54.63 54.41 54.25 54.59 55.03 54.30 50.55 52.47 55.06 54.51 53.83 53.05 53.08 52.81 52.28 52.51 52.51 52.17 51.79 53.07 52.40 53.17 54.00 54.45 53.37 53.86 52.03 51.62 49.33 44.10 45.21 44.27 43.72
54.27 53.99 53.53 53.73 53.26 53.64 47.17 45.08 51.02 55.10 55.33 54.85 54.44 54.40 54.40 48.78 48.66 44.78 44.94 46.36 51.78 53.78 51.93 51.69 51.77 50.82 51.23 52.18 53.29 52.70 52.14 50.88 49.31 52.87 51.42 50.73 41.79 40.69 41.73 42.68 42.79 41.68 40.72
55.20 54.43 54.55 55.21 55.11 54.81 43.45 44.10 43.48 53.48 54.29 54.42 54.59 54.34 53.77 53.94 48.29 52.58 46.36 42.02 42.87 42.42 44.66 52.66 51.75 51.53 51.46 52.59 52.04 51.79 51.33 50.98 50.79 41.33 37.36 33.39 36.29 35.40 38.30 38.87 38.95 38.89 38.71
55.10 55.24 55.04 55.32 55.60 39.75 35.93 36.60 36.78 47.95 53.30 54.23 54.44 54.55 54.03 54.26 53.87 52.01 52.31 51.34 49.74 47.30 38.59 41.72 43.06 40.03 34.58 34.30 38.19 42.17 40.20 33.13 33.64 31.75 32.68 31.89 32.21 31.16 32.71 32.66 34.73 35.21 35.06
44.39 39.35 38.23 39.19 38.94 35.56 35.02 35.46 36.57 43.69 49.18 52.08 51.59 36.96 36.83 38.14 36.81 38.46 41.66 45.75 40.33 31.68 32.64 33.31 32.97 32.05 32.06 32.09 32.98 36.57 33.66 35.83 31.98 27.21 27.93 30.95 28.51 29.43 29.41 29.07 31.68 33.66 32.62
35.79 35.10 32.50 32.87 32.72 32.81 34.06 35.04 35.85 40.94 41.17 36.24 33.21 32.95 33.22 33.79 34.27 35.55 38.18 39.03 32.44 29.85 29.24 29.04 29.10 29.09 29.60 29.57 30.06 28.92 30.46 29.60 28.30 25.29 26.79 26.95 27.22 27.94 25.89 28.86 28.08 28.63 28.69

GFSMA_sfc_wetblb_087.txt.gz
Wetbulb
62.84 63.90 65.22 65.30 63.75 62.50 62.48 64.54 64.06 63.68 63.54 62.78 63.10 62.76 62.09 62.22 61.89 62.36 62.30 62.10 62.64 63.60 63.08 63.84 63.38 62.94 62.26 61.67 61.15 60.67 60.55 60.31 60.05 59.83 59.42 59.00 58.83 58.66 58.48 58.21 58.00 57.62 56.83
63.23 64.23 65.80 63.69 63.81 61.73 62.59 63.41 63.20 63.22 62.60 62.59 62.05 62.11 61.92 61.75 61.93 62.60 62.64 62.34 61.26 62.49 63.42 63.33 63.14 62.66 62.22 61.49 60.74 60.34 60.43 60.07 59.86 59.64 59.09 58.63 58.04 57.60 57.41 57.63 57.38 56.91 56.04
64.22 64.79 63.87 63.75 62.38 60.91 61.59 62.94 63.09 62.63 61.20 60.85 61.32 61.34 61.47 61.75 61.50 62.05 62.27 62.67 61.64 60.81 61.88 63.20 62.77 61.83 61.57 61.28 60.39 60.42 60.08 59.84 59.73 59.35 58.56 57.78 57.25 56.64 56.14 56.36 56.53 56.59 56.03
64.40 63.55 62.96 62.43 62.05 60.18 61.68 61.00 61.13 60.35 60.68 60.36 59.22 60.20 59.85 61.09 61.66 61.76 62.22 62.36 62.06 61.25 60.62 61.27 62.03 62.08 61.74 60.98 60.64 60.48 60.22 59.70 59.67 59.30 58.16 57.38 57.21 56.61 56.11 55.81 55.54 55.56 55.73
63.64 63.50 62.43 61.92 60.71 59.15 61.05 60.69 60.31 60.52 59.83 59.82 59.59 59.87 60.13 59.99 61.01 61.12 61.41 61.81 62.02 61.74 61.09 60.42 60.32 60.47 60.91 61.23 60.71 60.67 60.62 60.06 59.58 59.14 58.47 57.80 57.23 56.86 56.40 55.96 55.61 55.39 55.22
63.79 63.00 62.28 59.92 60.63 60.17 59.70 59.68 59.48 60.23 59.92 59.52 58.44 58.77 59.82 60.54 60.93 60.77 60.99 61.07 61.25 61.79 61.83 61.38 60.82 59.96 59.38 61.11 60.82 60.95 61.40 61.00 60.30 59.74 59.20 58.51 57.82 57.35 56.76 56.34 55.96 55.75 55.37
63.06 62.53 60.98 59.47 60.11 60.23 59.51 59.63 59.72 59.15 58.83 60.08 58.11 57.52 58.06 59.26 59.68 60.15 60.38 60.02 59.89 60.87 61.18 61.27 60.93 60.99 60.32 60.03 61.27 61.11 61.78 61.93 61.28 60.52 59.72 59.33 58.76 58.95 58.45 57.45 56.83 56.53 56.11
62.63 61.18 59.15 59.05 59.41 60.71 59.37 58.20 58.64 58.33 58.43 58.97 57.43 56.55 52.81 55.60 58.02 58.40 59.07 59.37 60.20 60.33 60.07 60.59 60.59 60.87 60.89 61.10 60.56 61.29 61.85 62.18 62.35 61.96 61.50 61.11 60.85 60.42 59.86 59.03 58.73 58.13 57.60
62.02 60.32 59.33 59.58 60.51 59.72 58.52 58.75 59.13 58.72 56.11 58.13 59.28 57.81 53.98 53.44 55.60 58.07 58.40 59.02 59.26 59.24 59.51 59.70 59.24 59.83 60.63 60.96 60.21 59.75 58.24 58.72 61.70 63.41 63.28 62.22 61.45 61.22 61.07 60.92 60.42 60.34 60.04
60.49 58.68 59.41 59.54 58.68 58.24 58.79 58.40 58.16 58.11 58.58 57.09 58.49 57.87 59.47 58.61 55.31 53.92 56.53 57.82 58.89 57.94 58.87 58.90 58.87 59.82 60.06 60.70 59.49 57.05 55.23 55.08 56.97 60.60 62.62 63.42 63.09 62.59 61.81 61.55 61.44 60.98 60.96
57.53 57.64 58.29 57.55 56.92 57.48 58.47 57.77 56.38 58.35 60.00 58.61 57.38 57.05 57.43 57.69 57.91 55.92 53.65 54.59 57.25 57.55 57.97 59.05 59.44 59.53 59.81 59.86 60.14 58.56 53.88 53.25 54.05 57.54 59.95 61.24 62.29 63.01 63.10 62.86 62.25 62.01 61.70
57.17 56.47 56.42 56.30 56.74 57.75 57.78 58.45 58.19 58.12 58.27 59.11 58.71 58.98 57.41 55.75 54.90 55.94 55.09 55.24 55.86 57.08 58.38 59.22 59.08 59.16 59.52 59.55 58.50 55.29 53.48 51.83 52.57 54.92 57.05 58.89 60.19 61.33 61.88 62.42 62.90 63.19 62.90
56.59 57.51 57.25 57.12 57.32 58.33 57.08 57.21 58.65 57.54 56.78 57.23 57.29 57.73 58.57 58.61 58.56 57.60 56.85 55.11 54.88 56.26 56.12 57.38 58.42 58.37 57.67 59.40 58.84 54.43 54.10 50.67 51.04 52.98 54.65 56.14 57.21 58.65 59.68 60.82 61.44 62.12 62.53
56.79 57.10 56.66 56.77 57.85 57.99 57.83 57.39 57.82 58.15 57.27 58.29 57.97 58.28 58.31 58.21 58.13 57.92 56.52 56.15 54.27 55.50 56.25 57.12 55.64 56.77 56.31 56.26 56.19 51.84 55.87 50.33 49.55 50.46 51.81 53.16 54.31 55.28 55.96 56.96 58.28 59.35 60.37
58.35 57.19 56.55 55.93 55.79 55.42 56.57 57.74 57.31 56.85 57.32 58.63 58.63 58.53 58.09 57.67 58.94 58.37 58.62 58.64 56.27 53.05 52.90 56.42 55.29 55.38 55.62 55.44 54.98 57.91 57.56 53.01 49.28 48.78 49.08 50.27 51.61 52.82 53.53 54.22 54.92 55.82 56.91
58.77 58.51 57.96 57.10 56.45 56.28 55.29 56.40 56.88 57.97 57.65 57.36 57.29 56.24 56.04 57.76 57.84 57.84 58.74 58.83 58.19 56.19 52.62 57.09 54.74 55.71 56.37 56.66 56.17 56.39 57.14 52.70 49.64 47.36 46.83 47.47 48.71 49.97 50.64 51.32 51.92 52.74 53.80
57.73 57.81 57.94 57.85 57.86 56.86 55.62 55.10 54.79 56.73 56.80 56.50 56.68 56.27 55.91 56.43 55.99 55.95 56.23 56.29 57.13 56.66 54.00 54.44 56.57 55.50 54.90 56.14 56.25 57.16 56.40 56.42 56.71 48.46 46.95 46.83 46.42 46.48 47.39 48.06 48.78 49.77 50.55
59.22 58.85 58.21 57.55 57.35 57.37 57.60 56.78 55.35 55.60 56.54 56.53 56.43 56.32 56.04 56.23 55.89 56.37 56.07 55.67 55.40 55.70 54.45 53.82 57.91 59.43 58.91 59.36 59.85 59.08 58.07 58.92 59.34 54.01 48.64 47.47 47.10 46.39 45.93 45.95 46.09 46.46 47.01
58.00 58.45 58.77 58.58 58.37 57.27 56.65 56.90 57.10 56.98 56.20 56.16 56.23 56.07 55.86 56.36 55.77 57.76 58.38 57.46 56.41 56.22 56.64 55.62 56.40 59.11 59.40 60.21 58.95 59.37 59.14 60.38 60.03 54.34 48.85 46.95 46.90 47.17 46.60 46.07 45.84 45.87 45.91
56.99 58.07 58.47 58.82 58.99 59.03 58.99 57.90 57.23 57.29 57.18 57.00 57.23 57.95 58.23 57.83 58.03 58.00 56.48 55.99 55.19 55.16 55.27 54.37 53.94 54.41 56.32 59.10 58.81 57.84 57.71 59.54 58.71 58.43 54.24 51.04 50.21 49.04 46.65 46.35 45.96 45.65 45.37
56.56 56.84 57.43 58.14 58.60 58.77 58.53 58.77 57.97 57.36 57.03 56.89 57.59 58.03 59.41 57.49 51.58 54.73 58.05 58.65 58.39 56.82 55.70 55.46 54.38 54.78 54.45 54.94 55.25 56.78 54.61 55.68 58.52 57.63 56.92 57.01 57.62 57.61 55.04 46.81 47.98 45.43 44.72
57.58 56.95 56.42 56.97 56.76 55.57 47.62 46.22 52.64 56.78 56.98 56.88 57.23 58.41 58.50 50.67 50.46 45.04 45.15 46.35 52.54 55.96 54.57 53.70 53.08 52.23 52.72 53.39 54.20 53.55 53.24 52.32 50.60 56.99 55.30 54.15 42.69 39.39 39.86 40.01 39.58 39.73 40.07
57.52 56.62 56.27 55.56 55.08 49.77 37.02 39.02 40.83 55.98 56.67 56.32 56.44 55.95 55.53 55.52 50.69 55.72 48.10 42.65 43.27 41.99 42.78 50.72 52.00 52.53 52.17 51.07 49.15 51.43 52.45 52.88 51.13 37.93 39.39 35.78 35.27 32.35 34.17 35.15 36.52 36.70 36.41
45.02 46.78 44.48 47.44 40.38 36.41 35.62 35.93 35.71 48.17 51.52 53.88 48.48 42.80 43.85 44.95 39.30 40.02 44.66 48.95 45.68 33.93 35.06 36.87 35.39 33.98 32.95 34.41 36.53 38.92 38.54 34.01 33.81 32.46 33.29 32.58 32.14 30.32 32.08 33.24 34.29 34.59 34.28
37.54 36.28 35.67 36.42 35.56 34.27 34.72 35.50 38.63 46.07 46.63 38.44 35.68 34.94 35.10 35.54 34.71 35.88 39.45 39.88 32.27 31.33 33.48 33.58 32.70 31.81 31.32 31.15 31.35 36.75 35.10 34.90 33.47 30.12 28.66 31.70 30.26 28.71 28.79 28.46 31.47 32.00 31.94
34.11 33.09 31.83 32.38 32.59 32.34 33.72 35.08 37.63 41.97 36.70 33.17 31.90 31.83 32.37 32.94 33.15 34.24 36.81 37.90 32.64 31.16 31.49 29.62 28.74 28.40 28.87 28.12 28.99 29.14 30.29 31.66 30.13 26.76 27.60 28.44 29.64 31.08 28.94 30.69 30.70 31.27 31.24

GFSMA_sfc_wetblb_090.txt.gz
Wetbulb
66.00 65.98 64.12 65.14 67.22 65.48 64.58 64.13 65.14 66.12 66.28 66.11 66.75 66.29 65.87 65.28 65.15 64.49 64.37 62.42 63.40 64.64 63.88 63.47 63.83 63.02 62.49 62.16 61.82 61.38 60.65 60.43 60.42 60.32 60.05 59.76 59.49 59.27 59.20 59.27 58.47 58.07 57.55
65.21 65.36 64.87 65.78 66.66 65.76 64.60 64.27 64.43 65.77 65.49 66.09 65.83 65.84 64.93 64.70 64.25 63.70 63.49 62.74 61.87 62.92 63.63 63.93 63.66 63.40 63.03 62.50 61.71 60.64 60.61 60.47 60.47 60.09 59.76 59.33 59.23 58.83 58.71 58.37 58.14 57.53 56.66
64.70 64.69 64.65 64.20 65.91 65.16 63.44 63.61 65.23 65.86 65.08 65.25 64.82 64.90 64.53 63.88 63.20 63.17 63.20 62.43 61.89 61.05 62.38 63.72 63.68 63.13 62.67 62.40 61.41 60.62 60.51 60.36 60.29 59.89 59.39 59.06 58.63 58.27 57.89 58.00 57.73 57.45 56.54
64.28 66.43 63.80 63.55 65.29 63.74 62.85 62.75 64.37 64.38 64.10 64.22 63.87 63.96 63.29 62.61 62.73 63.11 62.70 62.13 61.82 61.93 61.62 62.08 62.72 62.98 62.55 62.12 61.54 60.94 60.73 60.48 60.16 59.79 59.40 58.69 58.24 57.31 56.87 56.94 57.20 57.09 56.87
64.08 64.61 64.70 63.70 63.35 62.13 60.89 62.52 63.22 63.90 62.99 63.19 62.95 62.75 62.99 62.70 62.52 62.25 62.40 63.13 63.05 62.32 61.79 60.89 60.87 61.04 61.79 62.13 61.55 61.30 61.19 60.43 60.38 60.03 59.44 58.51 57.91 57.57 57.15 56.65 56.42 56.56 56.60
63.85 63.89 63.08 62.66 62.00 60.54 60.30 61.59 62.69 63.76 63.54 62.84 61.57 61.50 62.59 62.57 62.73 61.33 62.02 62.45 63.08 62.72 62.58 62.25 61.37 60.87 59.61 61.58 61.79 60.93 61.54 61.35 60.68 60.36 60.04 59.12 58.62 57.91 57.58 57.09 56.80 56.46 56.39
63.33 63.46 62.71 61.69 60.75 59.84 60.03 62.52 62.63 62.88 62.38 63.05 60.35 59.28 60.20 60.80 61.01 61.89 62.04 62.13 61.96 62.53 62.85 62.87 62.33 61.93 61.03 60.16 61.57 61.21 61.87 62.18 61.68 61.10 60.54 59.86 59.28 59.21 58.93 57.69 57.33 57.01 56.80
63.53 63.07 61.74 60.96 60.68 59.53 59.38 62.82 62.44 61.92 61.87 62.51 58.96 58.82 54.35 56.51 59.05 60.48 61.57 61.29 61.85 62.05 61.68 62.01 62.50 62.26 62.30 61.41 60.67 61.41 61.72 62.40 62.80 62.22 61.61 61.28 60.79 60.50 60.03 59.53 59.23 58.31 57.61
63.21 62.42 61.10 60.77 60.40 60.13 59.31 61.80 62.91 62.17 59.89 61.49 62.19 59.39 55.11 54.44 57.54 59.78 60.73 60.98 61.28 61.29 61.81 61.97 62.00 62.19 62.35 61.88 60.60 59.68 58.35 58.99 61.97 63.43 63.38 62.24 61.68 61.30 61.08 60.74 60.35 60.05 60.03
61.98 61.32 60.94 60.59 60.55 60.55 60.66 62.20 63.56 62.86 62.22 59.63 61.09 61.47 61.47 60.37 56.51 55.07 59.88 60.51 61.22 60.76 61.74 61.67 61.75 62.10 61.92 61.89 60.28 57.65 55.17 55.15 57.05 60.77 62.65 63.52 63.21 62.42 61.86 61.78 61.43 61.26 61.06
61.23 60.40 60.29 60.24 59.81 60.14 61.60 63.02 62.95 62.67 61.92 61.38 60.34 60.26 61.05 61.33 61.08 57.77 55.68 57.85 60.47 61.27 61.92 62.21 61.52 61.19 61.42 61.93 62.47 59.95 54.01 52.96 54.33 57.46 59.83 61.43 62.52 63.18 63.05 62.98 62.26 62.04 61.87
59.87 59.70 60.07 60.10 59.80 60.00 61.22 61.79 61.40 63.05 62.58 62.66 61.64 61.08 59.89 58.43 58.61 58.39 56.53 57.82 57.97 59.76 61.30 61.76 61.65 61.68 62.13 62.27 60.45 55.83 53.39 52.24 52.74 55.19 57.40 59.08 60.16 61.13 61.85 62.26 62.96 63.31 63.13
55.88 56.87 57.72 57.70 58.23 60.15 61.23 61.03 61.47 62.26 61.85 62.08 62.32 61.36 61.42 60.45 60.59 60.01 58.37 56.33 56.56 58.96 60.01 61.56 61.79 62.20 61.84 62.00 61.68 55.41 54.65 50.87 51.03 52.72 54.50 55.95 57.22 58.49 59.51 60.36 61.15 61.87 62.41
56.36 56.72 56.44 56.88 57.93 58.99 60.01 60.54 60.85 60.22 60.73 61.20 61.28 61.50 61.12 61.38 61.14 60.46 58.57 56.42 54.78 55.97 57.96 58.31 60.58 61.47 62.24 62.19 59.88 52.78 59.71 50.84 49.95 50.24 51.55 53.18 54.15 55.01 55.88 56.76 58.07 59.17 60.35
57.16 57.47 57.37 57.86 58.48 58.56 58.72 59.71 59.38 57.65 59.00 60.32 61.18 61.34 60.77 60.99 61.37 61.42 60.50 58.90 56.59 53.24 53.77 57.88 58.89 60.71 60.54 60.45 58.42 60.09 60.27 54.68 50.16 49.06 49.29 50.34 51.65 52.86 53.47 54.09 54.78 55.52 56.64
57.26 56.58 56.38 56.58 56.65 56.20 56.66 56.81 57.12 57.36 57.35 57.33 58.21 59.58 59.00 60.18 60.94 60.89 60.09 59.42 59.02 56.98 54.14 58.20 59.21 61.11 61.14 56.94 57.71 56.99 58.04 53.60 50.97 48.42 47.43 47.99 48.90 50.48 51.21 51.62 52.10 52.69 53.62
57.40 56.36 55.57 55.43 54.55 54.23 54.65 53.76 53.69 55.53 57.42 57.13 57.65 58.91 58.53 59.43 58.27 59.16 59.41 58.69 56.55 57.85 53.83 57.38 60.37 61.38 60.90 60.65 60.74 59.09 57.60 59.06 60.46 49.58 47.81 47.00 46.70 46.84 47.74 48.38 48.92 49.81 50.69
58.86 58.75 58.03 57.30 56.63 55.63 54.58 53.97 53.74 53.77 55.94 56.37 58.02 57.00 56.93 57.36 56.93 56.82 56.33 56.01 56.01 56.41 54.70 53.24 55.81 56.33 56.36 58.02 59.37 60.90 61.32 61.13 61.79 55.50 49.88 48.21 47.12 46.38 45.77 45.73 46.31 46.44 46.82
59.05 58.71 58.13 57.68 57.30 56.68 55.43 54.92 54.57 53.44 54.39 56.18 57.50 58.10 57.75 57.15 56.25 56.22 55.70 55.32 55.95 58.06 57.49 56.84 57.19 58.98 60.41 61.74 61.66 61.89 61.98 62.89 62.57 56.07 49.00 47.13 47.01 46.83 46.56 46.05 45.96 45.73 45.92
59.80 60.13 59.96 59.09 58.67 58.33 58.10 57.00 55.54 55.81 55.42 56.58 57.32 57.28 57.36 56.84 56.58 56.47 56.52 57.18 56.59 56.74 56.96 55.32 54.83 56.13 57.99 60.79 61.05 59.74 59.72 61.84 60.50 60.92 56.77 53.08 51.83 49.32 45.99 44.28 44.33 44.92 45.23
59.20 60.43 60.10 60.05 60.15 59.49 58.96 58.60 58.49 57.96 57.01 58.59 59.73 59.00 59.27 56.15 51.75 55.01 59.50 58.77 58.71 58.60 58.48 58.32 56.82 56.67 57.05 57.91 57.05 58.10 56.11 57.09 58.55 60.98 58.95 58.06 46.83 43.95 41.36 40.67 41.38 41.28 41.97
57.79 57.66 57.96 59.22 60.01 58.25 37.97 40.56 53.41 59.77 59.32 59.00 58.54 59.04 59.62 51.88 52.38 45.70 45.64 46.29 52.40 58.38 56.23 55.76 54.64 53.46 53.77 54.42 54.89 54.23 53.87 53.04 51.95 44.69 46.90 41.52 37.88 35.14 36.25 37.04 37.53 37.80 37.87
59.17 57.52 57.10 57.48 47.02 42.58 36.32 37.35 37.19 55.68 58.11 57.84 57.19 56.92 56.71 56.39 50.25 55.91 47.31 43.08 42.97 37.16 38.16 46.63 49.35 50.54 45.31 38.64 39.59 42.51 42.32 39.84 38.05 36.87 38.64 35.20 35.33 32.73 34.26 35.25 35.85 35.80 35.72
42.87 42.72 41.73 40.18 38.12 36.33 35.58 36.31 36.10 49.25 54.02 40.59 38.76 39.52 42.19 41.70 37.51 39.00 43.61 40.04 35.26 34.05 34.75 35.19 33.75 31.73 31.69 32.35 34.08 38.04 39.08 37.29 34.39 32.61 32.68 35.84 32.76 29.73 32.08 32.43 33.47 33.87 33.79
35.93 35.80 36.04 35.80 35.32 34.15 34.96 36.15 41.26 43.72 37.58 34.48 33.59 34.03 35.11 34.44 34.12 35.97 40.69 35.78 32.06 31.16 32.51 32.13 31.64 31.17 30.76 31.08 32.79 38.08 33.98 35.47 35.66 29.43 29.42 32.23 30.96 29.07 30.14 30.77 31.86 31.88 31.34
33.19 32.78 32.09 32.49 32.55 32.34 33.94 35.32 39.16 36.87 32.34 30.84 30.87 31.24 31.97 32.18 32.43 34.08 39.77 35.08 30.80 30.41 29.37 29.77 29.43 29.58 30.72 29.86 29.77 31.13 35.15 32.13 31.71 29.76 30.00 30.51 31.65 32.64 30.06 33.84 32.93 33.62 34.50

GFSMA_sfc_wetblb_093.txt.gz
Wetbulb
68.99 68.44 65.99 66.74 67.11 66.05 64.62 64.28 64.48 64.62 64.50 65.84 66.00 66.19 65.18 66.04 64.64 64.94 64.91 63.07 64.00 65.07 64.37 63.59 63.45 63.52 62.19 62.60 62.43 61.90 61.06 60.90 60.61 60.58 60.22 60.23 60.04 60.11 60.18 59.41 59.05 58.60 58.17
68.68 66.89 66.34 65.61 65.43 65.52 64.79 64.37 63.99 63.55 63.84 64.17 65.92 64.86 64.56 65.15 64.75 64.32 64.07 63.44 62.57 63.68 64.06 63.95 63.46 63.64 63.32 62.92 62.53 61.80 60.78 60.39 60.50 60.15 60.12 59.82 59.65 59.36 59.39 59.15 58.59 57.97 57.49
68.15 67.11 65.22 65.39 66.99 65.12 65.85 63.85 63.75 63.69 63.17 64.04 64.27 64.53 64.76 64.31 63.32 63.17 63.50 63.48 62.87 61.32 62.65 63.80 64.52 63.58 63.13 63.18 62.32 61.25 60.86 60.63 60.56 60.32 60.09 59.72 59.31 58.97 58.87 58.75 58.28 57.81 57.13
67.15 66.15 64.09 65.68 65.16 64.79 64.51 63.27 62.71 62.12 61.96 62.72 63.32 63.03 63.62 63.42 62.99 62.84 62.88 63.01 62.95 62.12 61.62 62.59 63.63 63.64 63.51 62.92 61.98 61.00 60.95 61.03 60.50 60.20 59.96 59.52 59.15 58.58 58.18 58.16 58.12 57.90 57.32
66.67 64.94 66.39 64.52 64.62 63.10 63.39 63.70 62.25 62.06 61.21 62.77 61.99 63.55 63.03 61.52 62.01 61.90 63.00 62.66 62.67 61.72 62.40 61.81 61.85 61.87 62.45 63.22 62.20 61.49 61.47 61.03 60.75 60.52 60.08 59.67 58.91 58.47 57.68 57.26 57.61 57.76 57.61
65.53 66.16 64.81 63.71 65.10 62.50 62.23 62.66 61.42 61.75 61.98 62.12 61.36 61.17 61.67 61.96 61.54 61.45 61.84 62.68 62.30 62.76 62.20 62.84 62.33 61.25 60.62 62.26 62.66 61.72 61.94 61.68 61.25 60.96 60.63 59.96 59.14 58.46 58.16 57.76 57.35 57.29 57.18
64.26 63.93 63.28 63.55 63.55 61.25 61.58 61.72 61.40 60.36 60.36 64.11 60.67 59.50 60.90 62.29 62.28 61.07 61.95 61.67 62.05 62.76 62.45 62.85 62.22 61.73 60.76 60.61 62.02 61.93 61.96 62.45 61.87 61.39 60.85 60.47 59.83 59.83 59.51 58.66 57.99 57.59 57.53
64.08 63.20 63.42 62.78 61.91 60.85 60.73 60.35 60.83 59.43 59.79 62.22 59.69 58.88 55.67 56.94 59.78 61.17 61.03 61.10 62.95 61.85 61.72 62.85 62.27 61.99 62.01 61.15 60.37 61.54 61.79 62.43 62.62 62.07 61.96 61.63 61.04 60.68 60.27 59.92 59.00 58.57 58.19
63.57 63.32 62.92 61.92 61.03 60.83 60.60 60.35 60.92 59.78 59.23 60.95 61.79 58.77 55.00 53.07 56.63 59.73 61.16 60.48 62.39 61.17 61.75 61.66 61.89 61.92 62.61 62.47 60.58 59.78 58.30 58.95 62.01 63.46 63.22 62.24 61.80 61.52 61.18 60.94 60.55 60.29 60.12
62.51 62.83 62.34 61.69 60.70 60.85 60.09 60.30 61.10 60.50 61.03 59.17 61.09 62.17 61.60 59.99 55.66 54.02 58.51 60.18 60.80 60.58 62.25 61.53 61.87 61.78 62.30 62.40 61.24 58.41 55.69 55.14 57.09 60.95 63.13 63.67 63.02 62.30 61.83 61.70 61.50 61.18 61.02
62.00 62.19 61.66 61.09 60.44 60.34 60.39 60.43 60.49 61.57 61.47 61.17 60.84 60.71 61.32 60.85 61.02 57.64 54.50 57.25 59.62 60.35 61.27 62.21 62.26 62.55 62.66 62.91 63.14 60.41 53.79 53.42 54.51 57.64 60.21 62.04 63.12 63.33 63.33 62.77 62.29 62.24 62.18
61.06 61.05 60.97 60.82 60.63 60.27 60.46 60.50 61.50 61.35 61.79 62.76 62.56 61.78 60.36 58.28 58.48 58.35 57.05 57.82 58.24 59.73 61.28 62.50 62.63 62.61 62.81 62.64 61.03 56.36 53.84 51.88 52.64 55.22 57.45 59.07 60.48 61.48 62.22 62.59 63.25 63.38 63.27
59.45 60.22 60.08 60.18 60.17 60.14 60.41 60.69 60.77 62.36 63.09 62.47 62.79 60.81 62.08 61.73 61.68 60.09 58.17 57.49 56.68 58.94 60.15 62.19 62.56 63.14 62.56 63.07 62.32 56.18 54.02 50.65 51.12 52.94 54.95 56.46 57.65 58.59 59.62 60.31 61.24 61.89 62.24
58.35 59.53 60.08 60.08 60.15 60.20 60.20 60.77 61.49 62.49 62.39 62.31 61.18 61.37 60.98 62.25 61.64 60.61 58.98 57.47 55.09 55.94 57.76 59.57 62.69 62.67 63.13 63.41 61.68 54.00 60.55 51.37 50.49 50.95 51.98 53.25 54.48 55.34 55.77 56.83 57.84 58.90 59.79
56.84 57.32 58.26 59.08 59.55 59.91 59.99 59.96 60.05 59.98 60.93 61.24 61.45 62.02 60.68 60.79 62.16 62.52 61.64 60.01 57.79 53.14 53.93 58.64 58.71 62.59 62.65 63.08 60.79 62.55 62.22 55.00 49.88 49.51 49.35 50.30 51.93 53.23 53.61 54.12 54.81 55.58 56.62
56.98 56.74 56.98 57.18 58.04 58.94 59.23 59.02 58.95 59.86 60.61 61.30 60.72 60.40 59.73 61.16 61.25 61.63 60.82 60.84 60.06 57.25 53.52 57.79 59.13 60.90 61.72 58.97 58.85 61.58 61.77 54.98 50.10 48.20 48.14 48.39 49.16 50.68 51.39 51.85 52.40 53.09 53.78
56.88 56.81 57.11 57.14 57.20 57.54 58.37 58.59 59.12 58.59 58.52 58.12 57.40 57.38 57.82 58.81 59.86 61.01 60.31 58.71 59.76 58.68 55.79 57.68 59.61 60.86 58.43 61.00 60.95 60.81 60.36 60.97 60.83 49.44 48.39 48.09 47.45 46.88 47.40 48.35 49.04 50.11 50.97
56.68 56.51 56.10 55.74 55.08 54.91 55.20 54.94 54.53 55.09 54.61 54.61 55.91 56.84 57.12 58.05 58.56 58.64 60.38 58.95 58.98 58.66 56.29 54.20 56.75 55.87 56.37 57.79 59.06 61.37 60.93 60.92 60.40 55.86 49.72 48.43 47.68 46.75 46.65 46.42 46.37 46.44 47.20
57.03 56.47 56.00 55.56 54.45 54.06 53.89 54.22 53.63 53.60 53.97 54.12 55.34 57.33 57.03 58.17 58.31 58.48 58.45 56.71 56.69 56.04 55.30 54.18 53.79 57.56 58.86 60.34 59.87 59.96 60.25 61.60 62.27 55.82 50.12 47.53 48.09 48.36 45.55 43.91 44.21 44.52 44.84
58.39 58.28 58.07 57.51 56.90 55.96 55.16 54.53 53.98 53.73 53.79 54.31 56.00 57.42 58.02 58.13 57.93 58.32 57.06 56.50 55.55 54.73 55.13 55.12 53.99 54.85 56.85 59.53 59.36 58.66 58.84 61.02 60.79 61.52 56.53 45.46 44.81 41.82 41.00 41.84 41.67 42.35 42.73
60.05 59.63 59.59 59.09 58.66 57.89 56.64 55.64 55.22 54.79 54.32 53.87 55.56 57.58 58.19 56.92 51.23 54.51 57.16 57.38 57.03 55.85 56.87 55.76 55.24 56.50 57.40 58.09 58.06 59.15 56.94 57.34 57.00 48.32 50.67 42.13 42.16 39.85 38.47 38.96 39.17 39.29 39.73
59.49 59.92 59.62 59.84 59.23 45.25 37.51 38.88 50.60 56.53 56.03 57.18 55.70 56.87 58.81 50.48 50.13 45.71 45.90 45.48 48.55 54.89 55.97 55.38 55.08 54.36 54.99 55.26 53.37 50.48 49.70 50.63 49.35 39.59 43.26 38.68 38.10 34.60 35.12 36.26 36.83 36.81 36.93
57.17 53.36 51.94 46.23 42.04 39.86 36.46 37.84 37.98 54.12 56.02 52.11 50.16 49.42 54.51 46.70 43.13 48.49 45.49 38.48 36.08 35.78 36.31 44.52 47.75 44.12 40.65 35.09 36.78 40.84 43.61 42.35 41.43 34.51 37.99 36.75 35.44 32.29 33.98 34.41 35.22 35.16 35.00
41.93 41.99 40.83 40.42 39.09 36.65 35.87 37.05 37.49 49.33 40.89 38.17 37.46 38.93 39.75 38.99 36.48 39.02 43.96 36.47 33.25 32.77 33.30 33.95 33.02 31.82 31.82 32.80 34.21 36.65 37.12 35.55 34.10 32.47 32.90 34.28 32.81 30.33 32.23 32.67 33.35 33.49 33.50
35.17 34.46 34.84 34.97 35.06 34.61 35.77 37.53 42.50 40.50 35.92 33.67 33.47 33.97 33.76 33.42 34.12 36.57 39.63 33.34 31.71 30.60 32.35 32.76 32.32 31.84 31.64 31.93 33.27 39.86 35.46 36.32 35.00 31.03 31.28 32.78 32.03 30.57 31.37 31.92 32.83 31.50 31.44
32.43 32.18 31.22 32.01 32.53 32.54 34.54 35.94 36.32 34.40 31.28 30.37 31.00 31.19 32.10 32.43 33.34 36.21 35.35 32.59 29.04 29.03 30.18 30.42 30.31 31.10 31.46 31.80 31.46 32.17 34.60 33.96 34.21 32.86 31.53 31.78 33.77 33.98 31.77 34.37 34.46 34.84 34.34

GFSMA_sfc_wetblb_096.txt.gz
Wetbulb
68.08 67.50 66.73 65.90 64.65 64.61 64.80 64.61 63.85 63.20 63.97 64.12 64.82 64.51 63.85 63.41 63.21 63.75 63.82 63.60 64.07 64.96 64.63 64.10 63.88 63.54 62.85 62.69 63.57 62.51 61.04 60.90 60.73 61.20 60.77 60.71 61.23 60.33 60.42 60.10 59.71 59.13 58.82
68.29 67.12 66.08 65.20 65.11 64.84 65.09 64.37 63.78 62.45 63.27 63.67 63.73 64.10 63.39 63.61 63.27 63.02 62.39 62.22 62.94 63.62 63.98 63.53 63.87 63.02 62.87 62.77 62.97 61.53 60.80 60.64 60.47 60.65 60.45 60.46 60.92 60.76 60.66 59.55 58.93 58.46 58.08
67.61 66.31 65.58 65.01 64.86 65.08 64.04 63.58 63.15 63.24 62.81 63.34 62.70 62.92 63.69 62.94 62.21 61.87 61.26 61.60 61.52 61.79 62.59 63.57 64.17 63.81 62.97 62.64 62.55 61.52 60.70 60.83 60.46 60.03 60.39 59.96 59.71 59.67 59.88 59.84 58.79 57.95 57.53
67.42 66.06 65.34 64.79 64.83 64.41 63.94 63.29 62.86 62.64 62.02 61.64 60.86 62.00 61.96 60.95 61.03 60.69 60.85 60.77 60.66 60.78 61.40 62.22 63.38 63.59 63.67 63.07 62.38 61.37 61.19 60.38 60.79 60.73 60.29 59.84 59.89 59.40 59.11 59.09 58.72 58.30 57.54
66.87 65.71 64.66 64.72 64.51 64.03 63.69 62.80 62.32 62.12 61.08 61.01 60.79 61.42 60.65 59.87 59.17 60.88 60.15 60.19 60.22 59.88 59.75 61.56 61.92 62.16 62.76 63.55 62.33 61.65 61.65 61.17 61.12 60.88 60.54 59.93 59.83 59.36 58.83 58.62 58.68 58.51 58.15
66.57 65.68 64.68 64.16 64.31 63.17 62.85 62.42 61.19 61.66 61.12 60.65 62.32 61.01 58.84 58.31 58.29 59.08 59.76 60.48 59.82 59.73 59.74 60.51 60.78 60.40 60.73 62.55 62.93 61.91 62.03 61.98 61.65 61.20 60.94 60.53 59.89 59.49 58.79 58.04 57.93 57.94 58.13
65.16 65.08 64.19 63.58 63.48 62.53 62.23 62.15 61.20 60.34 60.12 61.01 59.41 57.94 58.19 57.66 57.17 57.21 59.94 59.25 59.22 59.49 59.52 60.86 60.20 59.54 59.51 61.04 62.52 62.71 62.54 62.47 62.33 61.68 61.15 60.89 60.62 60.27 59.69 58.79 58.43 58.04 57.91
64.48 64.31 64.06 63.12 62.69 62.07 61.65 61.60 60.87 59.57 59.98 60.65 57.41 56.17 53.31 55.18 57.54 58.29 59.13 59.33 59.15 59.83 59.40 60.12 59.66 59.22 58.82 58.72 58.52 62.04 62.11 62.61 62.78 62.09 62.28 61.78 61.48 61.01 60.32 59.41 58.98 58.88 58.62
63.92 63.53 63.46 62.96 62.42 62.06 61.05 61.15 60.56 59.25 58.30 59.44 59.29 55.98 52.10 50.53 53.54 55.95 57.35 56.59 58.60 59.24 58.85 59.34 60.15 59.46 58.90 58.33 58.60 59.03 58.63 58.87 62.01 63.42 62.97 62.35 61.91 61.74 61.29 60.94 60.75 60.49 60.06
63.42 63.43 62.92 62.73 62.17 61.64 61.03 60.79 61.14 60.05 59.20 57.24 58.80 58.71 56.73 56.03 51.96 50.65 55.34 56.89 57.96 57.44 57.84 58.13 58.60 59.01 58.60 58.96 58.57 56.85 55.34 54.97 57.13 61.13 63.03 63.29 62.78 62.35 62.11 61.83 61.53 61.24 61.24
62.78 62.65 62.74 62.38 61.47 61.31 61.01 60.80 60.56 59.93 59.77 58.44 57.90 57.27 56.00 56.91 55.97 52.85 50.45 52.64 55.89 56.88 57.01 57.67 57.16 57.34 58.42 58.70 58.24 57.39 54.32 53.35 54.39 57.91 60.28 62.09 63.47 63.42 62.48 62.40 62.35 62.05 61.92
61.51 61.83 62.06 61.80 61.00 60.81 60.59 60.53 60.67 60.28 59.69 59.23 58.82 58.17 56.46 55.46 54.67 54.56 52.40 52.82 53.46 55.34 57.07 57.36 57.31 57.94 57.99 58.42 59.27 56.37 53.26 52.05 52.84 55.38 57.77 59.50 60.78 61.87 62.59 63.21 63.32 63.34 63.16
60.25 60.77 61.26 60.90 60.35 60.38 60.46 60.93 60.46 60.19 59.68 59.18 58.95 58.47 58.88 56.99 57.96 57.55 55.94 54.50 54.09 54.90 55.30 57.26 58.36 58.55 59.66 58.90 58.79 55.31 53.74 50.55 51.18 53.19 55.07 56.67 57.87 58.79 59.87 60.52 61.37 62.09 62.51
59.79 60.91 60.52 60.60 60.53 60.29 60.39 60.58 60.22 59.92 59.68 59.40 59.13 59.24 58.81 58.58 58.57 58.16 56.20 54.45 51.77 53.13 55.61 56.21 58.17 59.06 59.13 58.86 57.99 54.19 57.66 50.36 49.61 50.42 52.14 53.66 55.00 55.96 56.64 57.47 58.42 59.08 60.03
58.73 59.35 59.93 59.93 60.12 59.97 60.05 60.25 59.87 59.06 59.02 59.68 59.27 59.37 58.45 58.71 58.99 58.64 58.06 56.95 54.25 50.55 50.71 55.95 55.72 58.43 59.11 59.31 58.45 58.33 58.20 53.20 49.57 49.33 49.55 50.83 52.63 53.62 54.13 54.76 55.43 56.15 56.95
57.62 57.61 58.01 59.61 59.54 59.62 59.79 59.93 59.47 59.56 59.26 59.39 59.62 58.80 57.95 57.92 57.97 58.22 58.00 58.16 56.83 53.71 50.32 54.24 55.41 58.17 59.02 59.75 58.26 58.56 59.39 54.60 50.36 48.49 48.39 48.65 49.70 51.14 51.89 52.42 52.83 53.16 54.11
56.97 56.79 56.85 57.17 58.81 59.03 59.34 59.20 59.14 59.05 58.65 58.70 58.37 57.68 57.36 57.52 57.32 57.32 57.37 57.66 56.55 54.56 51.95 53.85 55.45 56.76 56.45 56.90 57.85 56.84 57.64 58.56 58.54 50.05 48.40 47.85 47.43 47.64 48.05 48.31 48.94 50.11 50.94
56.96 56.81 57.01 56.59 56.23 57.25 59.00 58.44 57.84 57.95 58.04 57.32 56.56 56.21 56.15 57.39 56.20 56.04 56.95 56.47 55.57 56.05 54.13 52.47 54.62 54.13 55.04 55.92 56.55 57.80 58.47 59.10 58.22 54.13 49.67 48.19 47.83 46.79 46.29 44.37 44.81 45.10 45.77
56.51 56.45 56.01 55.07 54.73 54.60 54.40 55.91 55.97 55.25 55.23 55.15 55.61 55.41 55.69 56.02 55.47 55.81 55.79 56.22 55.98 55.79 55.63 52.97 52.59 54.85 55.23 55.82 55.74 56.72 56.86 57.85 59.20 54.99 49.79 43.66 42.81 42.29 42.33 41.96 42.39 43.17 43.39
56.09 55.79 55.89 55.13 54.52 54.01 54.03 53.81 53.45 53.35 53.81 54.02 54.01 54.15 54.33 55.31 54.83 55.60 55.75 55.88 54.72 54.70 54.19 53.36 53.02 52.86 52.89 54.57 55.13 54.53 54.70 57.00 57.39 59.40 45.18 43.08 41.60 40.79 40.40 40.19 40.48 40.68 40.82
56.89 56.63 56.68 55.87 55.04 54.56 54.45 53.78 53.63 53.21 53.07 53.52 54.42 55.10 55.71 53.84 50.43 52.96 56.09 55.35 54.22 54.06 53.54 53.04 52.67 53.04 52.91 53.41 53.96 55.76 55.22 55.24 46.01 43.94 49.29 41.47 39.54 38.20 37.79 38.41 38.72 38.83 38.66
58.35 58.00 57.26 57.15 54.73 42.68 37.84 40.81 50.89 54.12 54.06 53.94 52.74 53.47 54.33 48.89 48.98 45.81 43.71 37.71 42.45 52.22 54.30 53.56 53.73 53.50 53.13 44.98 44.11 44.62 45.04 45.92 46.01 37.63 41.17 39.26 37.65 34.36 34.80 35.72 36.71 36.64 36.60
47.63 45.44 43.92 42.18 39.29 38.79 36.85 38.80 43.23 54.05 53.76 51.10 50.00 50.77 49.44 43.86 43.86 46.38 36.57 35.54 34.77 34.97 35.61 44.87 47.78 38.46 39.52 35.11 36.28 39.84 41.85 41.48 40.41 34.00 36.90 34.47 34.40 31.59 33.83 34.97 35.44 35.34 35.10
39.87 39.28 38.45 38.44 37.37 36.89 36.83 38.14 40.76 42.43 38.93 36.93 37.22 38.34 39.30 38.44 36.33 42.93 36.92 33.58 32.39 32.62 32.89 33.65 32.90 31.84 31.75 32.52 34.36 37.00 36.63 34.53 33.23 32.03 32.66 32.67 32.16 30.23 32.12 33.08 33.71 33.52 33.17
33.83 33.28 33.58 33.71 34.26 34.37 35.80 37.17 39.50 36.60 33.61 32.44 33.09 33.99 34.13 34.52 35.44 39.92 35.16 31.85 30.07 29.96 33.05 33.43 33.19 32.73 32.58 32.86 33.93 37.32 33.38 33.59 32.14 30.09 29.94 31.18 30.41 29.32 30.03 30.19 31.25 32.14 31.85
31.33 30.97 30.34 31.49 32.65 32.74 34.46 35.17 35.04 33.41 31.23 30.83 31.42 31.73 33.08 33.49 35.73 35.40 33.19 31.47 29.08 29.06 29.94 30.40 31.14 31.54 31.74 30.98 31.53 30.46 31.38 32.27 32.06 30.06 27.59 29.84 31.32 31.84 30.48 32.10 32.13 32.33 30.32

GFSMA_sfc_wetblb_099.txt.gz
Wetbulb
65.82 65.23 64.33 64.30 64.23 64.21 63.46 62.69 63.25 62.86 63.49 64.25 64.54 63.91 62.45 62.66 63.20 63.45 63.84 63.79 64.33 65.35 64.88 64.17 64.38 64.17 63.45 62.81 63.07 62.08 61.80 61.23 61.39 61.33 61.36 61.54 60.70 60.13 60.23 59.92 59.45 59.32 59.17
66.21 65.44 64.22 63.49 63.18 63.72 63.23 63.42 62.38 61.98 62.85 63.63 63.77 63.64 63.42 62.83 62.92 63.17 63.55 63.02 62.76 63.94 64.45 64.38 64.55 63.78 63.26 62.81 63.37 61.26 61.24 61.33 61.48 61.32 61.15 60.80 61.42 60.61 60.48 59.77 59.25 58.88 58.72
66.27 65.18 64.69 63.74 63.90 63.49 63.87 63.20 62.66 62.17 62.09 63.32 62.76 63.25 63.17 63.03 62.28 62.42 62.15 61.80 61.71 61.69 62.63 64.06 64.00 63.50 63.00 62.60 62.48 61.14 60.90 60.73 61.06 60.95 60.86 60.59 60.47 60.39 59.99 59.43 59.06 58.72 58.24
66.03 64.71 64.03 63.34 63.83 63.64 63.80 63.01 62.65 61.45 61.12 61.68 61.76 61.78 62.23 62.51 61.95 61.75 61.79 61.22 60.46 60.49 60.81 62.11 62.99 62.74 63.10 62.93 62.41 61.66 61.16 60.66 60.58 60.71 60.66 60.51 60.23 59.85 59.75 59.51 59.13 58.55 58.03
65.67 64.66 63.88 64.03 64.34 63.88 63.28 62.78 62.40 61.65 60.68 60.98 61.27 61.04 61.45 60.63 60.61 60.96 60.48 60.42 59.44 58.79 58.93 61.12 61.50 61.67 62.19 62.47 62.54 62.15 61.96 61.09 60.85 60.54 60.60 60.20 60.19 59.81 59.58 59.28 59.21 58.85 58.36
64.82 63.83 63.23 63.25 63.32 62.84 62.61 62.44 61.88 62.22 61.76 61.14 61.22 60.54 60.76 59.67 60.03 59.53 59.25 60.00 59.26 58.70 58.58 59.94 60.38 60.28 60.54 62.58 62.91 62.13 62.27 61.96 61.70 61.56 60.81 60.40 60.32 59.92 59.43 59.26 59.11 58.98 58.79
65.36 64.56 64.02 63.64 63.42 62.60 61.76 62.06 61.57 60.98 59.98 61.29 59.02 58.34 58.43 57.92 57.82 59.06 58.89 58.51 58.04 58.04 58.52 59.89 60.10 59.20 60.02 61.37 62.35 62.61 62.58 62.53 62.34 61.86 61.40 61.03 60.68 60.46 60.29 59.06 58.57 58.32 58.36
65.18 64.57 63.86 63.31 63.22 62.43 61.95 61.53 60.88 59.98 60.03 60.73 57.18 56.84 53.63 55.12 55.55 57.94 58.06 58.06 57.21 58.19 58.95 59.62 59.47 58.42 58.53 58.93 58.96 62.16 62.46 62.77 62.89 62.21 62.14 61.94 61.45 61.20 60.38 59.26 59.15 58.96 58.76
64.43 63.96 63.61 63.14 63.03 62.71 61.66 61.59 60.84 60.03 58.37 59.54 59.40 55.98 51.97 50.62 53.42 55.39 56.45 57.01 56.72 57.06 58.21 59.11 58.83 58.85 58.28 58.08 58.60 59.57 58.75 59.17 62.35 63.40 62.80 62.09 61.95 61.80 61.30 60.55 60.35 60.07 59.69
63.69 63.40 63.48 62.88 62.68 62.41 61.48 61.41 61.21 60.23 59.48 57.64 59.31 59.40 56.12 55.64 51.62 51.09 55.53 56.65 57.19 57.23 56.58 58.14 58.40 58.36 58.19 57.73 57.73 56.97 55.47 55.33 57.49 61.50 63.07 62.81 62.56 62.28 62.04 61.76 61.35 61.15 61.09
63.30 62.63 62.58 62.63 62.12 61.83 61.38 61.10 60.80 60.14 59.96 58.84 58.42 57.53 55.08 55.05 53.93 52.78 50.25 52.59 55.12 57.45 57.64 57.07 58.38 57.89 57.49 57.87 56.84 56.34 54.17 53.68 54.48 58.12 60.58 62.33 63.24 62.83 62.52 62.44 62.33 62.02 61.89
61.87 62.11 62.41 62.30 62.31 62.00 61.26 61.11 61.06 59.98 59.88 59.38 59.42 58.18 55.78 54.31 53.19 53.04 51.48 51.90 52.62 54.07 56.08 56.76 56.40 57.51 57.51 57.38 57.89 55.60 53.21 51.79 52.62 55.38 57.79 59.73 60.95 62.35 63.27 63.29 62.98 62.81 62.70
60.33 60.76 61.68 61.39 61.63 61.66 61.21 61.03 60.76 60.46 59.91 59.03 58.84 58.04 57.41 56.75 56.70 54.58 53.04 52.85 51.86 52.18 53.33 55.25 56.26 57.19 56.99 56.58 57.32 55.27 53.59 50.86 51.04 53.13 55.09 56.60 57.98 59.28 60.49 61.38 62.47 63.24 63.35
59.96 60.17 60.75 61.32 61.42 61.32 61.08 61.07 60.74 60.63 60.02 59.39 58.86 58.74 58.05 57.19 57.39 57.04 55.03 53.31 51.40 52.47 52.59 53.49 55.95 56.14 57.20 57.83 56.96 53.12 55.13 49.78 49.92 50.71 52.07 53.68 54.82 55.76 56.68 57.71 58.74 59.63 60.38
59.05 60.21 60.92 60.62 60.69 60.58 60.51 60.53 60.28 59.84 59.77 59.54 59.01 58.96 58.58 58.62 57.89 58.12 56.65 56.30 54.00 50.58 51.79 55.23 55.43 57.86 57.70 57.27 56.94 56.58 56.05 51.68 49.24 48.73 49.23 50.65 52.45 53.60 54.11 54.84 55.59 56.43 57.31
57.84 57.89 59.35 59.93 60.11 60.16 59.96 60.03 59.67 60.06 59.56 59.20 59.07 58.76 58.71 58.61 57.78 57.99 57.27 56.57 55.77 52.54 50.69 54.15 55.29 56.81 58.39 59.14 56.67 57.71 57.50 53.50 50.11 48.19 48.05 48.41 49.79 51.22 51.95 52.45 52.70 53.17 54.13
56.79 56.75 57.11 57.93 59.01 59.41 59.59 59.35 59.39 59.34 58.65 58.59 58.88 58.44 58.17 57.57 56.66 55.90 56.14 56.34 54.78 53.59 51.67 53.28 53.82 55.68 55.67 56.55 56.46 57.16 57.71 57.65 57.49 48.77 47.77 48.06 47.70 48.44 49.19 48.17 48.65 49.19 49.85
56.83 56.65 56.81 57.13 57.45 58.57 59.05 58.97 58.39 58.54 58.08 57.91 58.14 58.02 57.67 57.21 56.07 56.02 55.54 55.09 55.02 54.76 53.31 51.65 53.25 53.10 53.37 56.15 56.52 55.41 56.79 57.83 57.40 53.54 49.53 48.70 45.75 46.00 44.49 43.68 44.14 44.80 45.29
56.59 56.77 56.37 55.70 55.20 56.63 58.49 58.60 58.73 58.26 58.05 57.89 57.98 57.64 57.39 56.86 55.45 55.12 54.96 55.29 55.59 55.15 54.45 52.70 51.99 54.46 54.73 54.87 54.54 54.64 55.86 56.84 57.62 50.45 42.35 42.24 42.08 41.89 41.63 41.90 42.08 42.42 43.01
56.23 56.11 55.87 55.37 55.21 54.50 55.70 57.25 57.07 57.29 57.01 56.91 56.69 56.87 56.60 56.03 55.21 55.49 55.08 54.82 55.11 54.80 54.38 53.34 51.25 51.66 52.69 53.33 53.95 52.39 51.95 54.90 53.90 48.14 43.03 41.14 40.73 40.72 40.57 40.52 40.61 40.75 40.91
56.11 56.30 55.69 55.07 54.70 54.41 52.30 54.52 55.03 55.51 54.99 54.24 54.86 55.15 55.17 53.17 49.57 51.73 55.55 55.11 54.76 54.30 53.82 52.70 51.39 50.84 50.77 51.80 52.15 52.94 52.17 52.13 43.07 45.13 43.14 41.02 39.19 37.98 38.15 38.68 38.89 38.75 38.75
56.17 55.95 55.71 55.17 47.08 43.02 38.09 41.42 50.50 53.55 53.78 53.42 53.09 54.06 55.13 49.60 48.67 42.14 39.71 38.48 45.67 53.44 52.09 51.18 50.49 49.63 51.12 46.37 44.63 45.60 46.65 46.94 45.57 37.34 42.36 36.56 36.79 34.25 35.69 36.66 37.21 36.99 36.80
43.39 42.57 41.63 41.47 39.52 39.18 37.40 39.38 42.18 53.56 53.04 52.40 51.92 52.80 52.59 44.38 45.60 40.97 36.29 35.77 34.69 34.93 36.26 47.06 50.89 42.59 41.86 37.10 37.63 40.68 43.28 42.51 39.58 33.39 36.67 32.86 34.08 31.81 34.50 35.73 35.70 35.20 34.88
37.10 36.87 36.74 37.15 37.10 36.94 38.05 38.79 38.71 39.86 36.92 36.09 36.69 38.32 40.43 39.25 39.43 39.81 36.23 33.51 32.65 32.82 32.97 33.60 32.71 31.52 32.00 33.07 35.49 37.66 37.67 33.29 32.38 31.21 31.89 31.55 31.96 30.28 32.25 33.30 34.04 33.47 33.08
33.06 32.79 33.53 33.91 33.97 34.65 36.29 36.55 36.49 35.00 33.36 32.65 33.44 34.82 35.41 36.55 37.12 37.40 34.12 31.45 30.44 30.71 33.38 33.78 33.18 32.78 32.93 33.27 34.93 36.44 33.44 33.24 31.41 28.81 29.93 31.70 30.91 29.85 30.05 29.57 31.67 33.60 32.83
30.99 31.06 30.67 31.87 33.18 33.04 35.01 35.41 34.79 33.32 31.21 30.95 31.64 32.28 33.87 34.73 34.74 34.15 32.59 31.41 29.10 29.14 30.55 30.60 30.28 30.57 30.48 30.47 30.96 30.87 32.10 31.95 31.06 27.67 28.37 30.23 30.80 30.77 29.92 31.04 31.03 29.57 23.27

GFSMA_sfc_wetblb_102.txt.gz
Wetbulb
65.30 64.53 64.05 64.21 64.13 63.99 62.77 61.99 62.02 62.15 62.71 64.05 64.13 63.66 63.39 63.44 63.12 63.39 64.20 64.00 64.97 66.41 66.20 65.58 65.15 63.84 63.29 62.46 62.77 62.39 61.71 61.65 61.50 61.14 61.01 61.65 61.40 61.25 60.30 59.99 60.01 59.90 59.66
65.40 64.47 63.65 63.83 64.17 63.50 62.27 62.17 62.12 61.54 60.94 62.79 62.85 63.57 63.04 63.13 63.02 63.16 63.54 63.63 62.99 64.22 64.87 64.89 64.08 64.08 63.67 62.99 62.86 62.14 61.66 61.41 61.40 61.44 61.28 61.26 61.09 60.80 60.75 59.84 59.59 59.43 59.32
65.32 64.13 63.46 63.29 63.87 63.43 62.12 61.48 61.24 62.50 62.24 62.62 62.98 63.20 63.25 62.80 63.00 62.80 62.99 62.77 62.27 61.78 62.77 63.98 64.33 64.11 63.55 63.19 62.51 61.99 61.93 61.77 61.06 60.74 61.19 60.84 61.24 60.38 60.43 59.87 59.40 59.09 59.15
65.64 64.46 63.35 62.80 63.37 63.51 62.98 62.56 61.93 61.34 61.56 61.95 61.56 61.90 62.39 62.85 62.62 62.75 62.32 61.88 61.44 61.76 61.29 62.29 63.52 63.51 63.58 62.96 62.37 61.82 61.48 61.34 61.24 61.13 61.03 60.76 60.57 60.36 60.11 59.72 59.25 58.84 58.43
65.44 64.70 63.63 63.15 63.69 63.55 63.13 62.66 62.05 61.18 60.06 60.83 61.02 61.46 61.84 61.90 61.89 62.76 61.50 60.95 60.09 59.43 59.11 61.48 61.34 61.38 62.18 63.19 62.76 62.17 62.11 61.38 61.10 60.98 60.69 60.72 60.44 60.26 60.06 59.81 59.21 58.69 58.43
64.85 64.35 63.49 63.40 63.45 62.95 62.77 62.54 61.70 61.67 60.31 60.33 61.10 61.22 61.26 60.53 61.22 61.25 61.03 60.80 60.01 58.98 58.34 59.23 60.30 59.46 60.19 62.15 62.83 62.19 62.62 62.01 61.63 61.36 61.09 60.63 60.03 60.15 59.85 59.74 59.50 59.36 58.93
64.24 63.74 63.21 63.24 63.88 63.13 62.53 62.51 61.83 60.97 60.63 61.21 60.05 58.98 59.60 59.10 59.95 60.00 60.58 59.66 59.05 58.61 58.11 58.40 58.79 58.60 59.38 60.95 62.37 62.90 62.58 62.75 61.99 61.41 60.85 60.60 60.29 60.62 60.45 59.68 59.55 59.55 59.40
65.01 64.30 63.53 63.41 63.52 62.76 62.30 61.81 61.00 60.49 60.57 61.31 58.35 57.16 54.47 55.39 56.44 58.91 58.81 58.52 58.05 58.11 58.01 58.78 58.81 58.41 58.56 59.03 59.52 62.21 62.91 62.89 62.32 61.85 62.11 61.23 61.24 61.21 60.49 59.96 59.53 59.03 58.92
65.12 64.52 64.04 63.77 63.41 63.07 61.67 61.46 60.87 60.46 58.87 60.18 59.36 56.74 52.78 51.54 54.13 56.74 57.16 57.41 57.24 56.98 57.75 58.37 58.98 58.97 58.68 58.16 58.86 59.51 58.56 59.08 62.24 62.99 62.69 62.32 61.88 61.66 61.12 60.34 59.91 59.57 59.40
64.70 64.17 63.70 63.25 63.05 62.96 62.03 61.73 61.84 60.82 60.00 58.11 58.67 59.18 57.57 55.41 52.91 51.51 55.72 56.46 56.65 56.52 56.79 57.57 57.97 58.28 58.10 57.77 57.99 56.86 55.76 55.14 57.57 61.92 62.83 62.91 62.47 62.25 62.01 61.51 61.21 60.75 60.62
63.77 63.24 63.53 62.87 62.77 62.91 62.30 61.92 61.42 60.58 60.25 59.00 58.34 57.50 57.06 54.82 55.55 53.88 51.76 53.26 55.12 56.67 56.74 57.24 57.92 57.56 57.58 57.64 56.82 56.41 54.17 53.81 54.58 58.30 61.20 62.68 62.96 62.62 62.56 62.40 62.18 61.90 61.83
63.11 62.97 62.80 62.73 62.63 62.52 61.93 61.82 61.43 60.70 60.24 59.12 59.38 58.37 56.52 53.97 53.54 53.51 51.71 53.37 53.37 54.83 56.35 56.76 57.11 57.52 57.49 57.28 57.33 55.06 53.26 52.33 53.10 55.46 58.14 60.05 61.65 62.64 62.71 62.66 62.77 62.64 62.68
61.48 61.98 62.06 61.85 61.97 61.99 61.72 61.60 61.21 60.63 60.28 59.28 58.97 58.73 58.00 56.25 56.25 55.14 53.62 52.94 52.28 51.90 52.96 55.64 56.69 57.67 57.66 56.94 57.14 54.48 53.40 50.77 51.23 53.40 55.21 56.87 58.30 59.72 60.77 62.06 62.83 63.30 63.16
60.11 61.22 61.71 61.85 61.75 61.85 61.76 61.46 60.95 60.69 60.44 60.03 59.07 59.18 58.49 56.86 56.70 56.19 54.69 53.10 49.98 50.94 51.31 52.03 55.30 56.36 57.26 56.84 56.41 52.86 56.20 50.04 49.81 50.50 52.14 53.83 54.83 55.95 56.85 57.99 59.18 60.17 61.15
59.75 60.47 60.62 60.35 61.23 61.45 61.35 60.97 60.51 60.24 60.04 59.90 59.34 59.26 58.72 57.42 56.90 56.55 56.29 55.49 52.96 49.55 50.63 52.29 52.80 55.26 56.73 56.81 55.88 55.45 56.84 51.57 49.30 48.98 49.35 50.54 52.51 53.70 54.15 54.87 55.62 56.37 57.49
59.03 58.92 59.45 60.15 60.49 60.45 60.76 60.63 60.13 60.37 59.91 59.61 59.54 58.74 58.57 58.12 57.54 57.16 56.59 55.73 54.63 52.77 50.07 53.23 54.09 56.35 56.84 57.25 55.92 56.23 55.89 51.93 48.47 47.58 47.63 48.52 49.69 51.11 51.81 52.30 52.99 53.59 54.52
56.30 57.35 58.49 58.77 59.41 59.69 59.88 59.73 59.77 59.88 59.34 59.15 59.18 58.74 58.17 58.49 57.41 56.90 57.21 56.08 55.38 53.62 51.50 51.80 54.71 56.14 56.14 56.69 56.88 57.04 56.64 56.15 55.88 47.90 47.42 47.32 47.19 46.99 47.82 48.29 48.61 49.26 49.92
55.90 56.76 55.42 56.72 57.10 57.81 59.35 58.99 58.79 59.07 59.02 58.52 58.36 58.36 57.99 58.35 57.11 56.08 56.06 55.63 54.78 54.15 52.80 51.28 52.78 53.97 54.91 56.40 56.99 56.18 57.43 58.69 58.23 51.05 47.79 48.11 46.81 45.82 44.42 43.84 44.10 44.86 45.44
56.38 56.16 56.40 56.30 56.26 56.36 57.66 58.62 58.84 58.41 58.58 58.56 58.41 58.14 57.96 57.77 56.82 56.18 55.27 55.09 55.37 54.42 53.66 52.91 52.52 54.27 54.64 55.41 54.80 55.09 55.29 55.90 52.93 44.05 42.05 41.82 41.99 41.99 41.95 42.15 42.41 42.66 42.50
56.28 56.24 56.26 55.80 55.14 54.78 55.78 58.01 58.11 58.08 58.32 58.16 58.20 58.54 58.27 57.83 57.11 56.22 55.11 55.33 54.99 54.23 53.60 52.32 52.09 52.34 53.24 53.77 53.40 52.07 52.64 54.62 49.52 45.16 41.81 40.64 40.90 41.29 41.00 40.82 41.07 41.13 41.03
56.30 56.12 55.63 55.16 54.66 51.37 47.12 49.59 57.85 57.75 57.49 57.39 57.72 57.76 58.10 55.65 50.39 53.10 56.02 54.98 54.92 54.14 53.00 52.28 51.52 51.50 51.67 51.29 51.34 51.81 51.55 49.76 42.72 44.23 42.22 40.44 38.79 38.28 38.59 39.02 39.31 39.25 38.90
53.61 53.26 53.25 51.76 46.96 44.37 37.52 39.42 49.85 55.50 56.12 55.82 55.66 56.18 54.24 49.18 47.75 45.14 42.75 39.87 47.84 54.15 53.34 52.63 51.70 51.12 50.44 49.61 47.79 48.53 49.20 47.93 43.28 37.47 41.23 35.30 36.43 34.74 36.02 37.00 37.56 37.22 36.83
41.54 40.52 40.66 41.05 39.91 39.34 37.53 39.95 42.24 50.73 46.74 48.53 51.33 53.07 49.30 46.47 45.18 40.60 36.42 36.19 34.88 35.19 36.90 51.35 51.70 47.50 44.93 41.57 42.14 42.60 43.83 42.94 36.92 33.33 37.30 32.00 33.64 32.29 34.46 35.72 35.80 35.36 34.96
35.62 35.62 35.59 36.18 36.66 36.91 36.49 37.78 37.66 39.57 37.59 37.01 38.16 41.17 44.22 42.65 41.73 40.70 36.54 33.69 32.83 32.62 32.86 33.88 33.72 32.01 32.45 34.02 37.84 39.49 38.60 32.30 31.75 31.65 32.63 30.43 31.82 30.17 32.35 33.37 34.29 34.11 33.66
32.37 32.04 33.04 33.37 33.88 34.36 35.34 35.81 36.79 35.45 33.91 33.22 34.62 36.40 38.04 37.68 37.38 38.07 34.63 31.57 30.54 30.77 33.52 33.88 33.43 33.52 33.61 34.52 36.21 36.98 33.31 33.60 30.55 28.25 29.94 31.93 30.88 29.44 30.12 30.53 32.16 34.02 33.17
30.48 30.91 30.69 31.68 33.01 32.58 34.50 34.54 34.53 33.42 31.69 31.72 32.18 33.30 34.40 34.52 34.86 35.01 33.75 32.49 29.92 29.68 30.08 29.98 29.82 29.76 30.17 31.01 31.82 32.21 33.51 32.74 29.78 27.40 28.82 30.41 30.87 30.62 28.77 28.84 28.81 24.23 24.25

GFSMA_sfc_wetblb_105.txt.gz
Wetbulb
67.24 65.97 64.72 64.85 64.36 63.18 62.86 61.77 61.88 61.37 61.73 62.37 62.70 63.44 62.89 63.01 63.63 63.73 63.29 63.38 64.91 67.16 68.06 66.82 65.88 64.87 64.15 63.15 63.05 62.36 62.01 62.07 61.28 61.12 60.77 60.57 60.37 61.21 61.09 60.88 60.32 59.89 59.63
66.83 65.65 64.43 64.43 64.52 63.15 62.41 62.29 61.06 60.96 61.25 61.77 61.80 62.68 62.90 63.07 63.62 63.62 63.65 63.29 62.92 65.01 66.44 66.56 65.75 64.42 63.85 63.20 63.42 62.59 61.95 62.15 61.87 61.27 60.64 60.80 60.73 60.60 60.52 60.14 60.01 59.61 59.38
65.22 64.64 64.50 64.40 64.52 63.45 61.74 61.38 60.20 60.62 61.40 61.31 61.42 62.46 62.69 62.90 63.06 63.30 63.52 63.27 62.92 62.42 63.64 65.04 65.21 64.41 63.55 63.08 63.29 62.61 61.78 62.13 61.79 60.76 60.82 60.61 60.23 60.50 59.84 59.84 59.69 59.45 59.04
64.89 63.83 63.64 64.21 64.45 63.34 61.53 60.94 60.70 60.54 61.45 61.75 61.01 61.69 62.22 62.45 62.84 62.95 63.17 63.04 62.29 62.00 61.65 62.70 63.62 63.88 64.00 63.21 63.59 62.85 61.97 62.16 61.79 61.69 60.99 60.53 60.05 60.18 60.16 59.64 59.37 59.09 58.98
64.92 64.11 63.15 63.82 63.61 63.05 62.15 60.91 61.29 61.03 60.45 60.80 61.06 61.45 61.74 61.95 62.30 63.06 62.24 62.25 61.60 61.06 60.54 61.35 61.80 61.96 62.78 63.47 63.15 62.53 62.42 62.18 61.84 61.56 61.22 61.09 60.42 60.50 60.31 59.90 59.45 59.09 58.60
64.88 64.18 63.01 63.11 63.07 62.68 62.59 62.31 61.18 61.35 60.69 60.54 60.99 60.81 61.14 61.55 62.14 62.23 61.87 62.05 60.90 59.80 59.26 59.77 60.75 60.48 60.79 62.33 63.30 62.54 62.99 62.61 61.99 61.79 61.36 60.93 60.90 60.68 60.46 60.01 59.60 59.28 58.85
64.70 64.20 63.73 63.45 63.34 62.19 62.31 62.53 61.70 60.56 59.96 60.46 59.56 59.39 60.21 60.99 61.19 61.72 61.93 61.05 60.36 59.33 58.86 59.42 59.01 58.96 59.57 60.85 62.32 62.91 63.14 63.31 62.33 61.84 61.73 60.99 60.65 59.64 60.53 60.16 59.88 59.62 59.47
64.56 64.55 63.96 63.22 63.34 62.53 61.96 62.18 61.51 60.59 60.46 60.62 58.30 57.04 54.48 55.53 58.56 60.42 60.94 60.57 59.90 59.07 58.13 58.50 58.30 57.30 57.55 57.81 59.32 62.10 62.73 62.95 62.49 61.81 61.93 60.82 61.02 59.73 60.31 60.18 59.92 59.84 59.82
64.50 64.21 64.12 63.82 63.52 63.39 62.25 62.18 61.69 60.56 59.26 60.59 60.40 57.21 53.39 51.96 54.54 57.66 58.16 59.34 58.87 57.88 58.14 57.93 58.10 58.18 57.41 57.27 58.16 59.42 58.83 59.37 62.28 62.77 62.20 62.07 60.08 60.70 61.07 60.44 60.25 59.97 59.45
64.84 64.62 63.83 63.67 63.55 63.41 62.44 62.10 62.26 61.25 60.27 58.52 60.03 59.95 57.41 55.86 53.25 51.56 56.35 57.14 57.83 57.14 56.97 57.50 58.05 57.99 57.71 57.49 57.88 57.11 55.65 55.12 57.45 61.75 62.33 62.28 61.98 61.69 61.70 61.39 61.11 60.57 60.16
64.32 64.48 63.91 63.53 63.27 63.23 62.52 61.93 61.62 61.05 60.96 59.73 59.06 58.32 57.69 56.68 56.12 53.86 52.02 53.86 55.58 56.54 56.93 57.14 57.76 57.88 57.91 57.75 57.20 56.90 54.43 53.67 54.57 58.26 61.22 62.32 62.58 62.41 62.30 62.24 61.97 61.47 61.54
63.79 63.79 63.69 63.56 63.24 62.99 62.31 62.09 62.02 61.35 60.75 60.38 60.01 59.00 57.86 55.28 54.20 54.26 53.04 53.84 53.91 55.08 56.38 56.74 56.87 57.32 57.37 57.38 57.55 55.47 53.45 52.43 53.19 55.51 58.14 60.52 61.89 62.33 62.26 62.35 62.43 62.61 62.47
62.25 62.75 63.09 62.59 62.48 62.86 62.48 62.21 61.77 61.39 60.75 59.99 59.71 59.03 58.91 57.36 57.05 56.35 55.13 53.92 53.24 53.04 54.41 56.11 57.00 57.06 57.14 57.12 57.12 54.36 53.54 50.99 51.54 53.64 55.30 56.91 58.65 59.99 61.07 61.79 62.39 62.80 62.89
62.55 62.64 62.62 62.61 62.66 62.32 62.12 62.16 61.79 61.51 61.08 60.47 59.64 59.68 58.77 58.16 56.89 56.34 55.08 54.04 50.48 51.14 51.56 53.02 56.37 56.33 57.21 56.97 56.43 52.79 55.76 50.07 49.97 50.83 52.34 53.92 55.24 56.30 57.19 58.47 59.88 61.23 61.85
59.76 61.02 62.01 61.84 61.64 61.60 61.70 61.40 60.90 60.26 60.62 60.29 59.97 59.49 59.14 58.51 57.18 56.93 56.08 55.76 53.35 49.73 50.25 52.00 52.41 55.78 56.64 57.05 55.63 55.82 55.81 51.86 49.38 48.93 49.30 50.92 52.80 53.85 54.14 54.89 55.93 56.76 57.98
59.40 59.38 59.50 59.95 60.27 60.80 61.01 60.90 60.58 60.17 59.83 59.97 60.02 59.21 59.17 58.63 57.41 56.66 56.21 55.77 54.48 52.56 50.07 53.73 53.34 53.47 56.35 56.47 55.39 55.91 55.82 52.99 48.95 47.83 47.47 48.38 49.35 51.02 51.73 51.88 52.61 53.32 54.33
58.74 58.91 58.95 58.83 59.09 59.80 60.22 60.20 60.28 60.01 59.43 59.39 59.69 59.17 58.60 59.09 57.27 56.40 56.30 55.94 54.89 53.44 50.89 52.05 53.94 54.23 54.45 55.12 55.68 55.27 55.78 55.23 54.61 47.45 47.06 46.76 46.74 47.06 47.38 48.05 48.68 49.61 50.38
57.42 58.02 57.56 57.66 57.82 58.00 59.12 59.26 59.16 59.42 59.05 58.75 59.00 58.63 58.42 58.71 57.16 56.78 56.46 55.57 55.11 54.23 52.61 50.78 52.49 52.84 54.19 55.26 55.30 55.30 56.25 56.72 56.43 47.76 47.44 46.09 45.83 45.10 44.60 44.46 44.85 45.16 45.75
56.12 55.57 56.19 55.89 55.87 56.11 56.01 56.59 57.36 58.52 58.69 58.59 58.81 58.55 58.26 58.22 56.93 56.83 56.51 55.84 55.60 54.51 53.53 52.46 52.03 53.92 54.37 55.23 54.69 55.20 55.80 52.05 47.47 44.18 42.13 41.94 42.42 42.55 42.44 42.53 42.77 42.32 41.92
54.85 55.27 56.07 55.93 55.67 54.91 55.01 55.03 56.13 57.20 57.59 58.52 59.04 58.94 58.91 58.20 57.55 56.89 55.84 55.80 55.34 54.61 53.70 52.87 52.34 52.35 53.25 53.94 54.18 53.78 53.25 53.52 46.11 43.13 41.58 40.79 41.22 41.45 41.37 41.38 41.31 41.45 40.85
56.38 56.26 55.85 55.39 54.35 51.25 45.85 43.25 48.12 56.31 57.58 57.50 57.74 58.28 58.45 56.72 51.98 54.77 56.48 55.66 55.38 54.42 53.36 52.43 51.24 51.34 51.58 51.41 51.84 52.62 52.55 48.05 43.31 42.98 40.68 39.80 38.81 38.62 39.18 39.81 40.18 39.83 39.42
49.11 48.34 47.00 47.79 45.32 44.30 37.22 38.27 42.21 53.04 55.83 57.16 56.58 57.16 58.07 50.66 48.96 45.52 46.42 46.60 52.59 54.34 53.21 52.27 51.68 50.63 50.82 51.49 50.50 51.08 50.32 45.93 43.29 38.94 38.65 35.25 36.62 35.34 36.53 37.57 38.22 37.89 37.73
40.23 39.29 39.53 40.17 38.88 37.27 36.71 38.84 40.42 46.20 45.07 43.14 46.93 53.24 50.97 46.68 43.50 41.09 37.35 36.49 35.24 35.96 41.84 53.32 51.95 50.69 49.25 48.48 47.15 45.34 45.88 45.52 39.88 34.14 37.16 31.45 33.79 32.15 35.31 36.36 36.51 36.33 35.98
35.25 35.24 35.24 35.97 35.93 35.62 35.75 36.99 37.24 39.53 37.67 37.19 37.96 39.94 45.12 44.07 42.56 41.17 37.96 34.89 33.26 33.26 33.75 35.77 40.03 35.91 34.28 37.49 42.70 43.01 40.67 32.07 32.14 31.65 34.11 30.48 31.85 30.40 32.75 33.81 34.92 34.83 34.47
32.08 32.09 32.97 33.17 33.19 33.46 35.14 35.43 36.26 35.65 34.10 33.61 34.40 36.12 37.27 37.68 37.21 39.85 36.60 32.98 31.97 31.39 33.44 34.51 34.48 34.42 34.86 35.63 37.30 38.37 34.21 35.52 30.02 28.89 30.40 31.83 30.58 29.48 30.67 30.73 32.06 33.92 33.50
30.58 31.02 30.71 31.64 32.65 32.39 34.27 34.52 34.41 33.41 31.87 32.42 32.69 32.60 33.84 34.38 34.77 35.14 34.33 33.32 31.30 30.10 31.07 30.76 29.89 29.31 29.95 31.02 32.08 32.93 34.59 33.28 29.79 28.61 28.79 30.93 31.09 30.22 27.97 30.73 30.73 30.34 29.33

GFSMA_sfc_wetblb_108.txt.gz
Wetbulb
67.78 67.57 66.39 65.72 64.77 63.54 63.42 62.74 62.31 62.47 61.85 62.74 63.21 63.17 62.90 63.01 63.06 63.71 63.73 63.60 64.35 66.94 68.40 67.64 66.70 65.69 64.73 63.82 63.50 63.11 62.30 62.96 62.17 61.30 61.01 61.28 61.51 61.40 60.50 60.70 59.86 60.41 60.36
67.70 67.06 65.76 65.75 63.93 63.78 62.81 62.48 62.15 62.02 61.89 61.80 61.81 62.26 62.24 63.06 63.58 63.38 63.47 63.69 62.94 64.58 66.79 67.43 66.78 65.97 64.78 63.43 63.65 63.13 62.22 62.12 61.77 61.24 60.67 61.13 61.09 60.90 59.68 60.06 60.26 59.32 59.80
67.37 66.54 65.64 65.46 65.20 62.53 61.43 60.91 59.90 60.00 60.15 61.09 61.08 61.39 62.08 63.15 63.30 63.04 63.01 63.32 63.33 62.35 64.02 65.65 66.10 65.80 64.74 63.33 63.67 63.18 62.55 62.88 61.85 61.61 60.70 60.86 60.73 60.24 60.04 60.20 60.14 59.57 59.42
66.83 65.98 65.35 65.05 65.12 63.29 61.43 60.94 60.21 59.86 60.08 60.95 61.13 60.51 61.15 62.30 62.53 62.84 63.50 63.40 63.04 63.48 62.82 63.55 64.67 64.63 64.63 63.48 63.72 63.01 62.58 62.33 62.06 61.67 61.09 60.97 60.55 60.50 60.16 59.99 59.88 59.67 59.24
66.39 65.53 65.29 64.83 64.45 63.13 62.30 61.45 59.90 60.15 60.14 60.53 61.40 61.71 62.13 62.09 62.47 63.02 62.94 62.75 62.58 62.27 62.59 62.24 62.45 62.17 62.93 63.69 63.47 63.44 62.88 62.68 62.32 61.79 61.69 60.29 60.42 60.15 60.38 59.97 59.56 59.39 59.24
66.01 65.80 64.48 64.16 63.78 62.93 62.09 61.46 60.59 61.48 61.08 60.89 61.21 60.74 61.53 61.95 62.32 62.43 62.37 62.81 62.28 61.78 60.65 61.04 61.59 60.96 61.08 62.93 63.55 63.98 63.42 62.25 62.70 62.05 62.03 61.11 60.57 60.76 60.55 60.29 59.88 59.45 59.24
65.63 65.31 64.27 63.55 63.09 62.38 62.14 61.78 61.64 60.46 59.70 60.79 59.40 59.20 60.01 61.11 61.47 61.82 62.49 62.25 61.49 61.13 60.34 60.25 60.68 60.72 60.79 61.52 62.64 63.56 63.43 63.13 62.84 61.99 61.55 61.54 61.21 61.33 61.17 60.46 60.01 59.64 59.47
65.39 64.98 64.21 63.41 62.81 62.47 62.36 62.17 61.54 60.30 60.29 60.28 57.57 57.53 54.98 56.61 59.78 61.10 61.76 61.46 61.05 60.64 59.61 59.55 59.98 59.14 60.18 60.30 59.87 62.53 63.15 63.33 63.18 62.41 62.16 62.15 61.41 60.92 59.60 60.36 60.25 60.14 59.82
65.07 64.96 64.62 63.87 63.23 62.79 62.18 62.34 62.04 60.90 59.36 60.00 60.42 56.97 53.67 52.68 54.82 57.86 60.16 61.04 60.67 59.66 59.71 59.02 59.06 58.26 57.17 58.32 59.19 60.07 58.95 59.58 62.80 62.85 62.84 62.32 61.56 61.01 59.71 59.72 60.29 60.10 59.73
65.07 65.16 64.76 64.03 63.40 63.44 62.64 62.30 62.58 61.61 60.31 58.83 59.50 60.05 57.38 56.39 53.58 52.01 56.85 58.28 60.14 58.95 58.87 58.59 58.52 58.52 57.67 57.21 57.78 56.78 55.61 55.06 58.31 62.00 62.35 62.47 61.07 59.89 60.65 60.70 60.94 60.53 60.31
64.97 64.76 64.58 64.27 63.66 63.45 63.14 62.63 62.09 61.69 61.01 60.10 59.38 59.02 58.75 56.45 56.45 54.04 51.85 54.44 56.69 58.31 58.46 58.04 58.25 58.33 58.03 57.61 57.66 56.94 54.25 53.76 54.63 58.54 61.09 61.75 62.08 61.81 61.34 61.52 61.48 61.22 61.28
64.29 64.47 64.10 63.94 63.89 63.46 63.21 62.65 62.18 61.78 61.16 60.76 60.40 59.28 58.59 57.01 55.00 54.89 53.52 54.06 54.68 55.81 57.25 57.70 57.49 57.88 58.16 58.14 57.61 55.49 53.57 52.47 53.21 55.57 58.40 60.31 61.50 61.80 61.88 62.00 62.00 61.96 61.93
63.35 63.53 63.50 63.46 63.29 63.40 63.09 62.71 61.93 61.71 61.17 60.69 60.29 59.73 59.54 58.86 58.35 56.60 55.86 54.44 53.83 54.36 55.41 56.79 57.35 57.93 57.89 58.15 58.01 54.84 53.73 51.34 51.71 53.68 55.32 57.24 58.70 59.93 60.89 61.48 61.50 62.02 62.48
63.02 63.08 62.99 63.00 63.22 63.27 62.97 62.52 62.11 61.73 61.64 61.07 60.56 60.17 59.80 59.44 59.22 57.62 56.20 54.90 52.43 52.25 52.81 53.75 56.99 57.53 57.88 57.69 57.12 52.74 56.68 50.35 50.67 51.15 52.57 54.13 55.34 56.60 57.34 58.73 59.77 60.55 61.39
61.23 61.31 62.39 62.42 62.81 62.49 62.21 61.82 61.78 61.18 61.20 61.19 60.72 60.27 59.69 59.73 59.45 58.49 57.80 56.99 54.89 51.17 51.49 53.09 53.67 57.22 57.57 57.65 56.26 56.86 57.07 51.81 49.67 49.27 49.72 51.12 52.89 54.05 54.53 55.38 56.13 57.32 58.68
60.48 61.34 61.10 61.43 61.47 61.59 61.37 61.21 60.98 61.20 60.55 60.60 60.55 59.81 59.60 59.73 59.02 57.73 56.77 56.91 56.60 54.88 51.73 54.33 54.47 55.36 57.10 57.15 55.94 56.76 56.50 52.93 48.92 48.07 47.88 48.61 49.85 51.38 52.23 52.73 53.12 53.75 54.64
59.12 59.66 60.12 59.96 59.56 59.98 60.09 60.09 60.44 60.23 59.68 59.74 59.63 59.18 58.97 59.56 58.76 57.73 56.88 56.26 55.49 54.15 52.37 53.10 54.39 54.82 55.87 56.12 56.40 56.24 56.37 56.00 55.54 47.48 47.03 47.12 46.69 47.03 47.72 48.51 49.06 49.93 50.98
58.46 58.08 58.42 58.05 58.26 58.32 58.78 59.28 59.26 59.76 59.21 58.91 58.92 58.95 58.76 59.09 58.72 57.93 56.74 55.79 55.45 55.06 52.71 50.83 52.66 53.63 53.95 55.98 56.00 55.04 55.81 56.22 53.97 46.42 46.13 46.17 45.97 45.36 45.18 45.26 45.37 45.80 46.54
57.74 57.42 57.37 57.21 57.03 56.79 56.47 56.53 56.53 56.81 57.71 58.67 58.77 58.89 58.77 58.75 58.03 57.29 56.15 55.73 55.62 55.32 54.61 52.42 52.02 53.63 54.24 55.20 54.68 55.08 55.24 48.86 46.50 43.91 42.57 42.80 43.12 43.25 43.15 43.36 43.26 43.01 42.91
56.29 55.97 55.95 55.59 55.61 55.11 55.01 53.20 52.39 53.21 55.27 56.87 57.44 58.43 59.01 58.71 58.25 58.06 56.73 55.79 55.53 54.96 54.21 53.45 52.39 52.51 53.18 54.51 55.24 54.31 51.78 48.95 44.60 43.30 42.07 41.70 42.08 42.15 42.02 41.68 41.63 41.62 41.05
55.87 55.95 55.93 55.33 53.25 49.44 43.19 43.13 47.09 49.09 52.10 54.35 56.25 57.54 58.10 57.24 52.98 55.60 57.10 56.53 55.75 54.80 53.95 53.40 52.60 52.10 52.20 52.85 53.19 53.97 52.36 47.61 43.80 42.32 40.31 39.80 39.51 39.72 40.65 40.89 40.95 40.37 39.88
43.02 44.94 45.43 45.64 42.84 42.34 36.82 38.14 39.77 50.67 49.89 47.75 51.32 56.47 57.95 51.90 50.25 46.74 47.28 48.84 53.87 55.00 53.95 53.30 53.11 52.30 52.72 53.15 51.67 52.81 48.98 45.84 44.17 41.87 38.64 35.42 37.41 36.19 37.41 38.66 38.80 38.59 37.87
35.90 35.98 37.05 38.37 37.42 36.48 36.22 38.00 37.75 44.39 42.95 41.73 42.15 44.29 49.67 50.00 49.98 47.88 39.42 38.72 37.43 39.09 47.45 54.43 53.52 53.23 51.52 51.78 51.65 49.74 49.22 47.19 44.46 36.74 36.88 31.76 34.44 33.34 36.49 37.28 37.65 36.99 35.97
32.31 32.61 32.91 34.07 34.67 34.96 35.45 36.40 36.51 38.74 37.38 36.19 36.51 39.11 41.54 40.26 39.03 43.07 39.74 35.19 33.75 33.91 34.80 37.58 44.54 37.50 36.77 43.81 50.62 49.60 47.54 33.63 32.99 32.54 35.20 30.60 32.19 31.21 33.36 34.89 36.15 35.60 34.85
30.52 30.61 31.27 31.67 32.07 32.76 34.81 35.17 35.72 35.55 34.00 33.14 33.79 34.99 36.21 36.32 36.61 38.92 35.84 33.23 32.33 31.77 33.37 34.00 34.02 34.15 34.27 35.06 37.55 41.45 36.56 38.18 31.37 30.31 31.59 31.22 30.52 29.89 31.20 31.38 32.90 34.50 34.00
30.37 30.34 29.77 30.28 31.01 30.43 32.83 34.34 34.01 33.42 31.67 31.87 31.93 32.39 33.67 34.32 34.83 35.91 35.37 34.75 32.75 31.82 32.00 31.21 31.06 30.51 30.85 31.54 32.44 32.90 36.01 38.88 30.98 29.48 29.48 31.10 30.22 29.85 27.59 30.67 31.00 30.78 30.65

GFSMA_sfc_wetblb_111.txt.gz
Wetbulb
68.55 69.24 70.01 70.65 71.01 70.68 69.99 69.80 69.34 69.30 69.08 68.70 68.70 68.55 68.43 68.68 68.53 68.62 68.77 63.84 64.20 67.01 68.63 68.43 67.57 66.62 65.60 64.74 64.79 64.06 63.37 62.81 62.39 62.02 62.20 62.22 62.12 61.91 61.64 61.26 60.90 60.00 60.39
68.54 68.72 68.35 69.33 69.79 69.80 69.41 69.33 68.48 68.37 68.47 68.35 68.01 68.36 68.11 68.38 68.28 68.29 68.40 67.58 62.81 63.89 66.49 67.85 67.66 66.75 65.86 64.17 64.38 63.93 63.28 63.69 62.55 61.82 61.54 61.95 62.04 61.85 61.28 61.18 60.46 60.74 60.55
69.85 68.43 68.01 67.50 68.63 68.58 68.69 68.29 68.16 68.32 68.02 67.64 67.66 67.68 67.75 67.85 67.77 67.17 66.73 65.09 65.60 62.05 62.86 65.92 66.90 66.83 65.88 64.50 63.56 63.90 63.65 63.59 62.70 62.03 61.28 61.56 61.48 61.12 60.99 60.91 60.60 59.85 60.29
69.94 68.70 67.11 67.24 68.19 67.15 67.37 67.14 66.94 66.72 66.73 66.69 66.50 66.49 66.96 67.12 66.86 66.33 65.28 64.79 64.85 64.00 62.71 62.64 64.89 65.53 65.51 64.72 63.66 63.24 62.81 62.96 62.50 62.00 61.53 61.24 60.91 60.66 60.58 60.63 60.71 60.04 59.78
68.41 68.09 67.32 66.56 66.98 66.24 65.64 66.10 66.14 66.46 65.35 65.16 65.39 65.84 66.14 65.07 64.92 65.63 64.05 63.91 64.20 63.63 63.67 63.61 62.93 63.15 64.13 64.42 64.08 63.74 62.99 62.94 62.57 62.49 61.63 61.36 60.95 60.90 60.99 60.56 60.41 60.24 59.87
66.99 67.51 67.28 66.15 66.00 65.05 64.45 63.98 64.35 64.84 65.45 65.35 64.05 64.47 64.96 64.00 65.76 64.58 63.47 63.81 64.08 63.32 64.05 63.53 63.83 64.08 61.51 63.12 63.68 64.31 63.39 63.34 63.27 63.00 61.81 61.35 61.04 61.29 61.21 60.69 60.24 60.15 60.00
66.69 66.81 67.16 65.28 65.44 64.54 64.06 63.26 63.54 62.89 62.64 63.53 61.92 61.57 62.42 63.92 63.38 63.48 64.01 63.63 63.42 62.94 63.34 62.16 63.61 64.84 63.50 61.68 62.98 64.18 64.01 63.62 63.22 63.00 62.56 61.96 61.53 61.29 60.18 61.06 60.37 60.13 59.68
66.47 65.91 65.99 64.88 64.82 64.52 63.61 63.01 62.70 61.77 62.30 62.69 60.80 60.13 57.75 60.23 62.55 63.65 63.89 63.15 63.31 62.74 62.09 61.65 61.99 62.97 64.09 63.17 62.62 63.03 64.40 63.85 63.21 63.09 62.91 62.40 61.97 61.40 59.83 61.25 60.50 60.32 60.11
66.20 65.73 65.66 65.18 64.53 64.40 63.29 63.29 63.02 62.29 60.60 61.31 62.73 60.33 56.45 55.41 58.31 61.49 61.55 61.86 62.08 61.87 62.17 61.66 61.06 61.55 63.27 63.25 62.06 61.27 59.36 59.99 62.91 63.52 63.32 62.57 61.92 61.36 60.44 60.80 60.91 60.63 60.41
65.91 65.76 65.06 64.91 64.31 64.13 64.12 63.61 63.59 63.10 62.79 59.83 60.82 61.43 63.47 61.65 57.30 55.12 59.13 60.60 61.73 60.92 60.90 60.60 60.26 60.41 61.36 63.15 60.89 58.50 55.80 55.35 58.78 62.38 63.04 62.81 62.17 61.53 60.34 60.43 60.54 60.91 60.60
65.53 65.16 65.15 64.62 64.04 64.44 64.66 63.56 63.30 63.20 63.53 61.94 60.67 60.38 61.32 60.65 59.49 56.87 55.43 56.67 58.78 60.72 60.98 60.28 59.93 59.82 59.57 60.54 61.73 59.07 54.60 53.80 55.16 59.81 61.90 61.99 62.19 61.73 61.13 60.93 60.75 61.06 61.56
64.52 64.88 64.78 64.42 64.38 64.00 64.24 63.43 63.81 63.56 62.50 62.33 61.92 61.88 60.22 58.74 56.81 56.86 56.00 56.14 57.60 57.68 59.31 59.55 59.27 59.79 60.58 61.31 59.66 55.77 53.57 52.58 53.27 55.94 59.11 60.60 61.27 61.28 61.24 61.18 61.40 61.57 61.73
63.59 63.90 64.57 63.91 63.93 63.89 64.20 64.31 63.61 63.17 62.84 61.98 62.07 61.67 61.46 61.15 59.94 58.55 57.82 56.95 55.29 56.90 56.83 58.59 58.94 59.54 59.85 61.80 61.16 55.37 53.44 51.20 51.64 53.47 55.55 57.63 59.06 59.74 60.52 60.71 61.04 61.61 62.01
64.07 64.40 64.26 64.28 64.17 64.05 63.93 64.15 63.72 63.08 63.02 62.31 62.37 61.91 61.46 61.07 60.74 59.34 58.66 57.58 53.88 54.03 55.99 55.43 58.61 58.78 59.83 60.22 60.11 52.88 59.26 50.50 50.46 51.23 52.85 54.35 55.76 56.78 57.57 58.41 59.26 60.04 60.84
64.56 64.49 64.51 63.45 63.67 63.52 63.14 63.71 63.70 62.40 62.44 62.31 62.19 62.13 61.63 61.46 61.09 61.42 60.54 59.81 57.40 52.34 51.85 55.15 55.19 58.53 59.13 60.61 59.14 60.94 60.91 53.72 49.87 49.64 50.14 51.54 53.24 54.41 54.88 55.61 56.48 57.57 58.57
64.16 63.73 63.57 63.31 63.20 62.63 63.25 62.70 62.67 62.59 61.89 61.91 61.92 61.52 61.13 61.53 61.40 61.00 60.86 59.61 59.72 56.14 52.98 57.90 55.59 57.14 58.51 58.40 57.31 60.76 61.08 54.31 49.32 48.47 48.31 49.09 50.38 51.97 52.47 53.22 53.68 54.31 55.41
62.60 62.73 63.30 64.07 62.87 61.56 62.29 62.06 62.05 61.59 61.00 61.19 61.23 61.53 60.96 61.26 60.56 60.82 60.81 61.17 57.55 57.11 54.69 57.99 56.19 56.52 57.02 57.28 57.84 59.62 60.87 60.57 59.46 47.85 47.77 47.81 47.79 48.45 49.17 49.81 50.19 51.04 51.94
62.42 62.54 62.20 61.28 60.60 60.98 61.25 60.66 59.88 60.38 60.42 60.68 61.15 60.77 59.99 60.13 59.86 60.45 59.24 58.14 58.55 57.70 57.27 54.31 54.57 54.96 55.61 57.02 58.18 59.36 59.57 59.96 60.54 49.42 47.18 46.82 46.43 45.92 45.98 46.42 46.82 47.31 47.78
59.38 59.65 60.31 60.28 59.63 59.20 58.82 58.70 59.22 58.58 58.87 58.94 59.51 59.66 60.25 60.33 58.91 58.68 58.81 57.86 57.05 56.72 56.51 55.41 52.88 55.02 55.22 55.93 56.11 57.06 59.09 58.82 55.02 45.05 43.54 43.87 45.04 45.18 44.93 44.52 44.74 44.90 44.80
57.57 57.77 58.03 57.13 56.81 55.33 52.70 53.03 54.13 54.80 55.26 56.24 57.54 58.60 58.08 58.17 58.61 58.57 58.75 58.13 57.34 56.01 55.59 54.68 53.36 53.32 54.12 55.01 56.29 54.58 51.56 51.23 48.79 46.40 43.65 43.35 43.16 42.88 42.70 42.47 42.22 42.27 42.11
44.75 45.97 49.99 47.94 46.79 42.55 39.55 41.26 46.98 51.00 53.17 54.43 55.22 55.76 57.48 57.25 51.94 54.52 58.08 57.72 57.12 55.67 55.11 54.18 53.33 53.21 53.06 53.14 53.02 55.10 52.60 48.01 46.16 45.00 42.96 43.45 43.75 43.27 42.62 41.96 41.81 41.08 40.33
38.21 37.97 38.24 38.21 37.38 37.75 35.94 37.21 39.14 47.09 51.72 50.54 49.50 50.50 52.77 50.21 50.07 45.89 46.07 47.70 54.57 55.77 54.62 54.06 53.65 52.41 53.03 53.82 54.56 53.91 49.60 45.79 44.05 43.82 41.72 38.14 40.74 39.53 39.78 39.96 39.71 39.18 38.61
34.32 33.55 34.35 34.82 33.98 33.90 35.40 36.32 36.78 44.04 42.65 41.03 41.45 42.49 44.96 46.89 42.81 46.40 40.24 39.37 40.44 42.43 49.62 55.37 53.78 53.60 53.62 54.00 54.49 53.08 49.81 49.75 47.70 41.93 39.89 34.50 36.42 34.98 37.55 38.18 37.92 36.71 35.66
31.52 31.19 31.34 31.92 31.56 32.11 34.07 35.07 35.99 37.59 36.13 35.25 35.68 37.17 38.93 39.97 40.23 41.66 38.09 35.26 34.00 33.76 35.37 39.30 50.41 42.66 41.99 53.95 54.66 54.04 52.03 38.10 34.76 34.27 37.51 31.73 33.19 32.25 35.09 36.48 36.80 35.85 34.55
30.46 30.21 30.78 30.34 29.76 30.22 32.60 33.61 34.56 34.35 33.29 32.41 33.03 33.92 34.86 36.02 36.02 38.10 35.67 33.22 32.66 32.08 34.11 34.84 34.69 34.57 34.45 35.10 39.68 46.49 41.97 41.83 32.66 32.66 33.20 32.18 31.69 31.02 31.90 31.89 34.03 35.22 34.24
30.39 30.17 29.48 29.48 30.08 29.40 31.10 31.61 30.97 31.09 29.91 29.95 30.70 31.29 32.24 33.04 33.83 34.46 37.02 35.19 32.61 31.93 32.84 32.46 32.33 32.27 32.54 32.42 32.90 33.17 40.96 44.35 33.02 32.11 32.30 31.65 30.83 30.66 27.39 31.20 31.81 32.54 33.56

GFSMA_sfc_wetblb_114.txt.gz
Wetbulb
71.33 71.60 72.20 72.08 72.26 71.66 72.06 71.02 70.58 69.89 69.49 69.57 69.98 70.11 69.82 69.97 69.45 70.06 70.50 65.28 65.25 66.84 69.03 68.72 68.14 67.34 66.30 65.57 65.50 65.13 64.90 64.26 63.37 62.80 62.34 62.37 62.28 62.47 62.08 62.16 60.72 60.54 61.36
71.52 70.25 71.58 71.91 71.87 71.44 71.60 71.20 70.81 70.35 69.70 69.70 68.89 69.00 69.37 69.85 69.73 69.69 69.59 69.16 63.96 64.34 67.48 68.37 68.16 67.77 66.90 65.38 65.30 64.75 64.41 64.19 63.95 62.49 62.60 62.23 62.06 62.34 61.97 61.55 61.27 61.17 60.98
71.76 70.24 69.91 71.25 71.26 72.04 71.30 71.16 70.21 69.92 68.85 69.09 68.47 68.21 69.44 69.15 68.99 68.94 69.20 69.08 67.25 62.27 64.16 66.13 67.30 66.67 66.81 65.27 64.62 64.28 63.70 63.78 63.44 63.11 62.50 62.42 62.12 61.86 61.55 61.16 61.05 61.07 60.77
70.90 70.41 69.50 69.74 71.27 71.40 70.70 70.27 69.28 68.70 68.70 68.00 67.98 67.51 67.76 68.33 68.38 68.62 68.60 68.34 67.58 67.18 63.21 62.92 63.60 65.56 65.80 65.99 64.34 63.66 63.21 64.00 63.53 63.26 62.55 62.54 61.83 61.63 61.27 61.10 61.14 61.05 60.62
71.85 71.31 70.15 69.32 70.52 69.24 69.59 69.55 69.16 68.66 67.56 66.86 66.90 67.21 67.99 67.32 68.03 67.73 67.72 67.74 67.28 66.35 65.92 63.11 62.36 62.26 64.16 65.08 65.09 64.07 63.90 63.58 63.27 62.77 62.40 61.95 61.75 61.57 60.98 61.14 60.99 60.27 60.21
71.72 71.52 70.46 70.41 69.26 67.46 67.66 68.84 68.49 68.46 68.29 67.09 66.70 66.57 67.31 67.86 68.12 67.70 67.38 67.16 67.45 66.24 64.47 65.50 64.38 62.98 61.47 63.83 64.68 64.72 64.07 63.74 63.53 62.66 62.64 61.91 61.81 61.66 61.03 61.29 61.01 60.67 60.49
71.56 70.64 69.79 69.53 67.68 66.71 66.98 67.93 67.52 66.99 67.19 68.01 65.72 65.12 66.30 66.22 66.22 66.58 66.90 66.29 66.71 66.15 65.06 64.89 64.25 64.10 63.10 62.65 63.55 65.12 64.50 63.88 64.02 63.22 63.12 62.62 62.24 61.58 61.21 61.01 60.93 60.41 60.26
70.65 70.59 69.77 68.50 67.21 66.48 66.04 66.48 66.06 64.47 64.93 66.20 62.94 62.58 60.00 62.58 64.95 65.78 66.19 65.40 65.71 65.62 63.73 63.82 63.40 63.60 63.76 63.41 63.83 63.35 64.81 64.35 64.02 63.95 63.74 62.63 62.12 61.64 61.29 61.10 61.23 60.58 60.30
70.13 70.56 69.43 67.84 66.64 66.80 64.88 65.22 65.90 64.67 62.50 63.85 66.41 63.49 59.89 58.22 61.05 64.39 64.81 64.85 65.13 64.62 63.08 63.34 62.51 62.98 63.36 63.57 63.32 61.97 59.68 60.53 63.01 63.86 63.48 62.86 62.23 61.49 60.96 60.81 61.32 61.36 60.65
69.35 69.30 68.76 67.91 66.78 66.49 65.26 65.06 65.74 65.88 64.58 61.48 63.29 65.67 65.57 63.77 58.77 57.88 62.67 63.38 64.77 63.81 62.71 62.63 62.31 62.31 63.13 63.38 62.78 59.58 56.69 56.04 59.18 62.46 63.34 63.34 62.95 61.98 61.24 61.02 61.14 61.45 61.27
67.45 67.65 67.73 67.81 66.56 66.75 65.44 64.98 65.04 65.31 65.17 63.77 62.22 62.64 64.42 64.33 63.30 59.68 58.33 60.72 62.31 64.23 64.43 62.65 62.10 62.04 61.98 62.02 62.00 61.37 54.98 54.39 55.80 60.12 62.16 62.66 62.77 61.88 61.40 61.01 61.21 61.01 61.03
65.86 66.09 66.26 66.58 66.74 66.16 65.35 64.86 65.13 65.57 65.08 64.64 63.36 65.21 63.93 62.26 61.47 60.13 58.80 59.83 60.42 62.17 62.62 62.62 61.97 61.68 61.49 61.31 61.10 57.31 53.57 52.86 53.58 57.12 59.87 61.14 61.90 61.59 61.50 61.05 61.01 61.07 60.75
64.47 65.00 65.42 65.29 65.44 65.80 65.70 64.82 64.38 64.93 64.75 63.67 65.22 64.90 65.34 63.70 63.08 62.69 60.99 60.34 59.88 61.43 61.85 61.86 62.66 61.58 60.86 60.51 60.11 56.31 53.53 51.34 52.11 54.17 56.79 58.71 59.63 60.08 60.43 60.62 60.77 61.01 61.06
65.21 65.28 65.61 65.42 65.50 65.74 65.50 65.46 64.60 64.19 64.42 64.55 65.47 65.64 65.35 64.50 64.87 64.10 61.85 60.91 56.80 57.71 60.19 60.64 61.28 60.93 60.55 60.59 59.46 53.77 59.24 50.15 50.28 51.76 53.25 54.98 56.64 57.25 57.71 58.42 59.07 59.51 60.22
65.20 65.40 65.35 64.64 64.91 65.11 64.95 64.73 63.73 63.59 63.91 64.12 64.86 65.85 65.22 65.19 65.44 64.57 63.64 62.17 59.35 55.76 54.44 58.39 59.77 60.95 60.35 60.63 59.29 59.52 60.86 53.22 49.68 49.46 50.45 51.87 53.66 55.12 55.51 55.88 56.54 57.35 58.14
67.14 66.60 65.48 65.37 64.20 64.33 64.44 64.16 63.63 63.64 63.41 63.74 64.20 63.49 63.72 64.19 63.86 64.23 63.07 62.01 60.55 59.50 55.94 58.18 60.80 62.57 60.78 59.93 58.88 60.21 61.32 54.94 49.83 48.33 48.35 49.20 50.60 52.34 53.05 53.50 54.15 54.90 55.83
66.39 65.39 66.10 64.45 63.34 63.34 63.53 63.32 63.47 62.99 62.32 63.17 63.06 62.54 62.49 63.14 62.07 61.67 61.73 61.57 61.14 59.68 56.65 57.80 59.35 61.53 58.12 58.51 58.93 58.88 59.70 60.45 60.56 48.20 47.84 48.11 48.25 49.04 49.91 50.37 50.93 51.82 52.70
65.22 64.51 64.27 62.85 62.17 62.39 63.03 62.59 61.68 61.64 62.11 61.71 61.72 61.44 61.35 62.16 61.93 63.31 62.96 61.00 60.89 60.70 58.61 56.53 58.84 57.50 57.41 58.79 58.57 57.62 58.44 60.31 61.12 51.94 48.36 47.74 47.84 47.61 47.56 47.97 48.11 48.61 49.05
61.06 61.16 61.49 61.43 61.87 61.48 61.62 61.14 60.78 61.35 61.28 60.94 60.79 61.13 61.88 62.30 62.18 62.10 60.87 60.41 60.23 59.34 59.75 57.49 56.66 59.16 58.73 59.45 57.43 57.74 57.71 58.27 59.27 48.95 46.73 46.09 46.61 46.88 46.54 46.45 46.68 46.79 47.00
55.93 53.80 51.71 46.59 45.30 43.95 44.93 48.94 54.22 56.39 57.34 57.86 59.27 60.73 61.02 60.14 59.87 60.06 59.73 58.92 58.34 58.08 57.47 56.57 56.56 55.12 56.07 56.77 57.04 55.81 55.51 56.55 51.50 52.90 45.94 46.52 46.70 45.34 45.11 44.75 44.66 44.78 44.78
43.57 43.71 41.02 40.01 40.23 38.77 38.11 41.40 47.91 53.00 54.12 56.05 58.01 58.59 58.35 52.84 46.39 46.83 52.59 58.19 59.76 57.50 56.83 55.65 54.91 55.12 54.00 53.69 53.59 55.51 54.66 50.23 47.27 47.18 45.46 45.62 46.40 45.73 43.97 43.01 43.68 42.83 41.83
36.56 36.69 35.96 36.35 36.67 37.28 36.82 37.49 42.26 49.94 48.63 46.75 46.29 46.10 48.88 48.89 47.86 42.22 41.75 40.99 44.81 55.49 56.98 55.97 54.74 54.04 53.80 54.13 54.39 54.64 53.58 46.21 43.58 45.20 43.29 39.80 44.40 42.70 42.90 43.02 40.84 40.04 39.91
33.94 33.52 33.60 33.78 33.60 34.54 35.70 37.10 38.15 40.44 38.89 37.72 37.20 37.63 40.42 43.44 42.94 44.82 44.12 40.23 37.89 35.81 36.69 46.06 55.13 54.57 54.02 54.88 54.80 53.71 52.24 49.38 49.71 42.76 41.20 35.08 38.81 37.20 39.81 39.34 39.19 38.80 38.35
30.65 31.34 31.37 31.46 31.61 32.47 33.61 35.03 35.17 35.55 34.61 33.81 33.26 33.26 35.29 37.14 37.92 38.63 42.98 40.28 36.14 34.84 34.26 36.65 37.15 39.68 44.97 55.52 55.66 54.84 52.89 45.15 38.63 39.90 38.44 32.74 34.86 33.77 36.33 36.84 37.03 36.43 36.04
29.97 30.11 29.50 29.61 29.88 30.49 32.49 32.63 33.14 32.66 31.63 30.67 30.84 31.58 32.03 33.36 33.54 36.18 39.31 37.27 34.49 33.77 35.14 34.99 34.44 34.20 34.15 34.68 43.58 54.08 41.46 41.54 33.41 33.59 33.59 33.03 31.93 31.61 32.86 32.86 34.50 34.92 34.03
31.10 30.52 29.47 29.65 29.81 29.01 30.88 31.09 30.62 30.01 28.23 28.11 28.50 29.01 30.06 30.50 31.60 32.60 34.06 34.89 32.50 31.59 32.12 32.82 32.86 32.79 32.29 32.22 33.10 34.28 45.76 45.52 33.95 32.50 33.22 32.88 31.12 30.68 27.44 31.91 32.15 32.36 32.71

GFSMA_sfc_wetblb_117.txt.gz
Wetbulb
73.50 72.97 72.33 72.56 71.89 72.12 71.79 71.61 70.18 70.30 69.76 69.93 70.21 69.72 69.33 69.57 69.30 68.81 70.00 66.02 67.42 68.44 69.52 69.38 68.88 68.30 67.64 66.79 66.53 66.38 66.04 65.38 64.33 63.74 63.49 62.81 62.63 62.92 61.30 61.17 61.87 60.31 60.49
73.09 72.24 72.40 71.28 72.24 71.81 71.00 71.88 70.87 69.26 69.51 69.44 69.49 69.55 69.44 69.27 68.84 69.11 69.00 68.26 65.35 66.00 67.75 69.10 69.04 68.51 67.86 66.81 66.17 65.72 65.66 65.43 64.89 64.23 63.12 62.49 62.34 62.14 60.68 60.43 60.28 60.37 61.79
74.11 72.90 71.53 71.67 70.91 71.98 71.91 72.20 71.67 70.48 69.19 69.67 69.23 69.30 69.08 69.30 69.07 69.13 68.88 68.28 66.98 63.10 64.04 66.75 67.40 67.33 67.55 66.47 65.32 65.43 65.23 64.62 64.33 64.05 63.34 62.54 62.32 61.90 61.34 60.15 60.20 59.99 60.21
73.17 72.76 70.59 71.59 72.30 72.22 71.88 70.69 70.19 69.80 68.10 67.65 68.24 68.79 68.44 68.98 68.92 68.92 68.65 68.62 67.29 67.33 63.69 63.82 65.00 65.49 63.94 66.15 65.62 64.87 64.24 64.47 64.20 63.87 63.62 62.49 62.19 62.03 61.60 60.88 59.65 59.84 61.03
72.62 72.69 70.90 70.42 72.98 72.00 71.68 70.41 69.14 69.40 68.89 68.70 67.97 67.77 68.41 68.22 68.33 67.53 67.79 68.53 67.70 67.49 66.83 63.14 62.71 62.31 63.84 65.37 65.78 65.20 64.33 63.13 63.54 63.48 63.49 62.80 62.41 61.97 61.24 61.08 59.49 60.33 61.40
72.52 71.96 71.17 71.21 71.03 70.97 70.91 71.03 69.63 69.18 68.27 67.97 66.65 66.98 68.36 67.74 68.14 67.61 67.57 67.20 67.01 67.95 67.20 66.56 64.93 62.70 60.91 63.39 64.56 65.08 64.72 64.08 64.08 63.51 63.03 62.89 62.43 61.94 61.44 61.23 60.32 60.93 60.47
73.06 72.14 71.75 71.69 70.98 69.23 68.98 70.07 69.80 68.85 67.56 68.77 66.84 66.78 66.77 67.51 67.38 67.47 67.85 66.85 65.74 66.56 67.20 66.54 65.74 64.60 62.21 61.53 62.66 65.29 65.18 64.89 64.50 63.93 63.96 62.98 62.59 61.68 61.27 60.79 61.03 60.97 60.69
72.73 72.51 72.24 71.64 71.33 69.07 67.27 67.79 67.99 67.88 69.01 69.55 65.50 64.23 60.50 62.96 65.89 66.91 66.87 66.56 66.91 66.73 66.18 66.64 66.08 64.73 64.98 63.92 62.75 63.61 64.92 65.25 65.28 64.73 64.06 63.02 62.36 61.71 61.19 60.50 61.10 61.39 61.28
72.35 72.49 72.32 72.01 71.37 69.98 68.39 66.86 66.68 66.16 64.76 67.93 68.71 63.67 59.96 58.43 62.46 65.23 66.15 65.85 66.08 65.76 66.22 65.72 65.27 65.04 64.65 63.88 62.74 61.95 60.36 60.73 63.45 64.50 63.96 63.16 62.60 62.07 61.55 61.08 61.08 61.17 61.21
71.60 72.39 72.49 72.02 71.40 69.86 68.20 66.69 66.70 66.02 64.97 63.02 65.71 66.76 66.65 64.55 60.47 59.18 63.86 65.23 66.17 65.60 65.93 65.76 64.69 64.20 64.10 63.68 62.19 60.03 57.35 56.44 59.09 62.93 63.82 63.71 62.95 62.27 61.81 61.11 61.05 61.21 61.23
70.54 71.59 71.82 71.32 70.58 69.41 68.62 67.73 66.18 65.60 65.45 64.05 63.35 65.01 66.40 66.06 65.71 62.02 59.72 60.72 63.80 64.64 65.21 65.75 65.54 64.32 63.72 62.83 63.09 61.20 56.55 54.61 55.85 60.18 62.43 63.23 63.19 62.60 61.79 61.27 61.05 61.19 61.32
68.94 70.70 70.36 70.21 69.23 68.38 68.23 68.17 66.88 65.59 65.37 64.48 64.37 64.53 64.04 63.59 63.10 61.74 60.32 61.40 60.80 62.75 64.25 65.28 64.77 64.36 63.81 62.78 62.73 58.66 55.38 53.40 54.55 57.30 60.13 61.45 62.47 62.58 62.04 61.59 61.35 61.40 61.25
67.17 68.50 68.60 67.49 68.33 68.14 67.66 67.90 65.60 65.24 65.28 64.38 63.88 63.63 66.36 65.50 65.87 63.82 62.44 61.64 60.75 62.20 63.00 64.95 65.17 64.75 63.28 63.97 63.28 57.41 55.25 51.26 52.92 55.16 57.53 58.90 60.35 61.02 61.10 61.02 61.23 61.27 61.16
67.95 68.80 68.38 66.70 66.41 68.27 67.00 66.48 65.52 65.22 65.11 64.76 64.16 64.52 65.77 66.82 66.48 64.69 62.14 61.62 59.84 60.89 62.11 62.13 63.72 64.05 62.64 62.39 61.45 54.87 60.36 50.55 50.67 52.26 54.35 55.86 56.96 58.08 58.23 58.66 59.31 59.75 60.13
68.47 68.49 68.19 65.52 65.43 65.66 66.22 65.39 64.52 64.12 64.91 65.05 64.78 64.71 65.98 66.18 67.07 66.43 65.48 62.81 61.76 58.44 58.57 61.21 61.29 64.21 63.26 61.65 60.04 61.05 60.47 52.70 50.29 49.63 50.61 52.51 54.75 55.83 55.93 56.49 56.97 57.48 58.20
68.38 67.19 67.01 65.22 64.65 65.00 64.94 64.83 64.27 64.23 63.69 64.27 64.47 64.07 64.10 66.33 66.17 66.20 65.36 65.15 64.15 61.73 58.69 62.34 60.74 62.23 63.61 62.30 60.06 60.91 60.98 54.56 49.86 48.88 48.91 49.97 51.55 53.34 53.86 54.10 54.57 55.16 55.94
66.31 66.32 66.45 64.69 64.25 64.07 64.34 63.98 63.54 63.38 63.00 63.48 63.80 63.47 63.94 65.57 64.66 63.14 62.89 63.98 63.46 62.30 58.53 60.73 62.54 62.94 63.50 62.42 61.41 60.67 60.92 59.73 58.31 48.68 48.16 48.18 48.59 49.58 50.51 51.08 51.60 52.74 53.45
65.68 66.04 66.30 65.48 64.85 63.51 63.34 63.03 62.66 62.81 62.58 61.61 62.74 62.76 62.18 63.06 63.66 63.28 62.38 61.23 61.02 61.66 60.46 58.01 60.93 61.07 61.15 63.18 62.63 60.10 59.18 60.52 59.88 52.66 48.06 47.71 47.77 47.77 48.01 48.38 48.83 49.46 50.12
61.27 57.94 60.03 56.71 58.15 60.18 61.66 61.83 62.07 61.85 62.43 62.16 62.24 61.10 62.32 62.24 60.83 60.87 62.13 62.06 62.19 61.08 61.92 59.92 58.17 59.72 60.15 61.85 60.48 59.61 59.30 58.94 59.73 55.76 47.77 47.08 47.48 47.47 47.19 47.17 47.63 48.04 48.10
44.12 44.38 43.00 43.03 42.12 41.95 44.82 50.23 58.92 59.82 59.40 59.38 60.15 59.93 60.67 59.97 58.18 55.73 58.43 58.98 60.52 60.67 59.02 58.60 58.44 57.42 58.31 59.00 59.75 56.95 56.11 57.49 57.35 55.48 48.70 50.23 48.36 47.43 47.15 46.81 46.67 47.01 47.08
38.62 40.72 42.32 41.33 40.13 39.93 40.44 42.29 52.16 54.84 55.42 55.48 51.91 51.56 50.34 46.71 42.69 43.69 48.76 51.21 50.82 53.08 55.68 56.93 56.29 56.25 56.15 55.50 55.35 57.04 55.84 56.06 50.97 48.92 46.45 46.84 48.67 49.65 49.53 45.37 48.50 45.91 45.46
34.05 34.76 36.08 36.58 38.27 38.57 38.92 39.79 45.29 46.54 45.11 43.32 42.79 43.12 45.58 44.89 43.29 41.46 40.66 39.92 40.20 44.87 47.96 51.96 54.63 54.62 55.12 55.80 55.68 55.18 55.04 47.78 44.87 45.90 45.24 40.96 44.49 43.77 44.11 47.40 45.46 43.55 43.04
32.27 32.23 32.20 32.58 32.35 33.48 36.25 36.63 36.79 37.65 36.59 35.03 35.06 37.21 39.06 39.26 38.81 40.84 42.10 40.60 38.16 35.73 35.59 38.66 42.74 47.95 49.96 54.34 55.76 54.71 54.38 51.50 51.37 45.45 42.31 35.36 38.73 36.96 39.80 40.18 40.43 40.94 40.90
29.96 29.97 30.49 30.53 30.24 31.47 32.77 33.39 33.66 33.03 32.11 31.47 31.77 32.26 33.58 34.15 34.02 36.12 41.14 41.61 37.75 36.87 36.29 36.02 35.34 33.56 33.35 34.62 38.01 52.36 55.08 52.68 40.05 41.34 39.46 32.99 34.50 33.23 36.23 38.13 39.36 39.25 39.21
30.65 30.02 30.21 29.71 29.32 29.89 31.61 31.35 31.50 31.05 30.30 29.31 30.02 30.86 31.08 31.23 32.42 34.32 38.40 37.67 33.95 32.50 34.28 34.23 33.52 32.71 32.68 33.38 34.07 41.96 49.94 42.79 33.41 33.77 33.77 33.59 32.14 31.46 31.94 31.89 34.47 36.38 35.69
31.65 31.44 30.53 30.98 30.82 29.77 31.70 31.00 29.29 28.51 27.38 27.52 28.87 29.06 30.43 30.66 30.90 31.17 31.28 32.18 31.45 31.02 31.16 31.14 30.37 30.61 30.49 30.03 31.05 32.13 35.11 44.60 35.04 32.68 33.59 32.96 32.31 31.17 27.64 31.54 31.66 31.80 31.87